# Wetter Temperatur Luftdruck Luftfeuchtigkeit Sichtweite Windgeschwindigkeit Windrichtung Zeit
1 Rain 7 1019 76 10000 4.63 90 12:18 22.04.2021
2 Rain 7 1018 76 10000 5.66 100 11:42 22.04.2021
3 Rain 7 1018 76 10000 5.66 100 11:21 22.04.2021
4 Clouds 6 1018 76 10000 5.14 90 10:42 22.04.2021
5 Clouds 6 1018 76 10000 5.14 90 10:20 22.04.2021
6 Clouds 6 1018 81 10000 4.12 80 09:39 22.04.2021
7 Clouds 6 1017 81 10000 5.14 80 08:57 22.04.2021
8 Clouds 6 1017 81 10000 5.14 80 08:38 22.04.2021
9 Clouds 5 1017 81 10000 5.14 80 08:18 22.04.2021
10 Clouds 5 1018 81 10000 4.63 100 07:36 22.04.2021
11 Clouds 5 1018 81 10000 4.63 100 07:18 22.04.2021
12 Clouds 5 1018 81 10000 3.6 120 06:21 22.04.2021
13 Clouds 5 1018 81 10000 3.09 110 05:24 22.04.2021
14 Clouds 5 1018 81 10000 3.6 110 02:49 22.04.2021
15 Clouds 5 1018 75 10000 3.09 140 00:41 22.04.2021
16 Clouds 6 1018 75 10000 1.54 150 23:42 21.04.2021
17 Clouds 6 1018 75 10000 1.54 150 23:22 21.04.2021
18 Clouds 6 1018 75 10000 3.09 170 22:41 21.04.2021
19 Clouds 6 1018 75 10000 3.09 170 22:41 21.04.2021
20 Clouds 6 1018 75 10000 3.09 170 22:21 21.04.2021
21 Clouds 6 1018 70 10000 4.12 160 21:42 21.04.2021
22 Clouds 7 1018 70 10000 4.12 160 21:23 21.04.2021
23 Clouds 7 1018 70 10000 5.14 160 20:38 21.04.2021
24 Clouds 7 1018 70 10000 5.14 160 20:18 21.04.2021
25 Clouds 7 1018 65 10000 5.66 180 19:38 21.04.2021
26 Clouds 7 1018 65 10000 5.66 180 19:20 21.04.2021
27 Clouds 7 1018 70 10000 5.66 190 18:44 21.04.2021
28 Clouds 7 1018 70 10000 5.66 190 18:22 21.04.2021
29 Clouds 6 1019 70 10000 5.66 180 17:46 21.04.2021
30 Clouds 6 1019 70 10000 5.66 180 17:23 21.04.2021
31 Clouds 6 1019 70 10000 4.63 180 16:42 21.04.2021
32 Clouds 6 1019 70 10000 4.12 180 15:56 21.04.2021
33 Clouds 6 1019 70 10000 4.12 180 15:37 21.04.2021
34 Clouds 6 1019 81 10000 5.66 190 14:47 21.04.2021
35 Clouds 6 1019 81 10000 5.66 190 14:29 21.04.2021
36 Clouds 6 1019 70 10000 4.63 180 13:51 21.04.2021
37 Clouds 6 1019 70 10000 4.63 180 13:24 21.04.2021
38 Clouds 6 1019 70 10000 3.6 190 12:56 21.04.2021
39 Clouds 6 1019 70 10000 3.6 190 12:29 21.04.2021
40 Clouds 5 1019 75 10000 4.12 170 11:47 21.04.2021
41 Clouds 5 1019 75 10000 4.12 170 11:25 21.04.2021
42 Clouds 4 1020 81 10000 3.6 160 10:43 21.04.2021
43 Clouds 4 1020 81 10000 2.57 160 09:59 21.04.2021
44 Clouds 4 1020 81 10000 2.57 160 09:35 21.04.2021
45 Clouds 4 1020 81 10000 3.09 170 08:56 21.04.2021
46 Clouds 4 1020 81 10000 3.09 170 08:37 21.04.2021
47 Clouds 4 1020 81 10000 3.09 170 08:18 21.04.2021
48 Clouds 3 1020 81 10000 3.6 160 07:29 21.04.2021
49 Clouds 3 1020 87 10000 2.06 180 06:28 21.04.2021
50 Clouds 3 1021 70 10000 3.09 160 04:46 21.04.2021
51 Clouds 2 1022 80 10000 3.09 200 00:51 21.04.2021
52 Clouds 3 1022 65 10000 3.6 240 23:48 20.04.2021
53 Clouds 3 1022 65 10000 3.6 240 23:21 20.04.2021
54 Clouds 4 1021 65 10000 2.06 210 22:40 20.04.2021
55 Clouds 4 1021 65 10000 2.06 210 22:18 20.04.2021
56 Clouds 5 1021 60 10000 3.6 250 21:46 20.04.2021
57 Clouds 4 1021 60 10000 3.6 250 21:24 20.04.2021
58 Clouds 5 1021 65 10000 3.6 250 20:42 20.04.2021
59 Clouds 4 1021 65 10000 3.6 250 20:23 20.04.2021
60 Clouds 5 1021 60 10000 4.63 270 19:54 20.04.2021
61 Clouds 5 1021 60 10000 4.63 270 19:36 20.04.2021
62 Clouds 5 1021 60 10000 4.63 260 18:55 20.04.2021
63 Clouds 5 1021 60 10000 4.63 260 18:35 20.04.2021
64 Clouds 5 1021 56 10000 2.57 210 17:45 20.04.2021
65 Clouds 4 1021 56 10000 2.57 210 17:22 20.04.2021
66 Clouds 4 1021 56 10000 4.12 220 16:44 20.04.2021
67 Clouds 3 1021 56 10000 3.09 230 15:51 20.04.2021
68 Clouds 3 1021 56 10000 3.09 230 15:27 20.04.2021
69 Clouds 3 1021 56 10000 2.57 270 14:57 20.04.2021
70 Clouds 3 1021 56 10000 2.57 270 14:31 20.04.2021
71 Clouds 2 1021 60 10000 3.09 250 13:37 20.04.2021
72 Clouds 2 1021 60 10000 3.09 250 13:18 20.04.2021
73 Clouds 1 1020 60 10000 3.09 290 12:40 20.04.2021
74 Clouds 1 1020 60 10000 3.09 290 12:19 20.04.2021
75 Clouds 1 1020 60 10000 3.09 300 11:40 20.04.2021
76 Clouds 1 1020 60 10000 3.09 300 11:20 20.04.2021
77 Clouds 0 1019 64 10000 3.6 290 10:42 20.04.2021
78 Clouds 0 1019 64 10000 3.6 290 10:22 20.04.2021
79 Clouds -1 1019 69 10000 4.12 300 09:22 20.04.2021
80 Clouds -1 1018 69 10000 3.6 320 08:54 20.04.2021
81 Clouds -2 1018 69 10000 3.6 320 08:19 20.04.2021
82 Clouds -1 1017 69 10000 6.69 310 07:39 20.04.2021
83 Clouds -1 1016 69 10000 7.2 320 06:36 20.04.2021
84 Clouds 0 1015 64 10000 6.17 320 05:37 20.04.2021
85 Clouds 0 1014 60 10000 8.75 310 04:41 20.04.2021
86 Clouds 0 1010 86 10000 7.2 320 00:53 20.04.2021
87 Snow -1 1010 86 10000 7.2 320 00:27 20.04.2021
88 Clouds -1 1009 80 10000 6.69 260 23:34 19.04.2021
89 Clouds 0 1009 86 10000 5.14 260 22:56 19.04.2021
90 Snow 0 1009 86 1000 11.83 260 22:30 19.04.2021
91 Snow 1 1008 75 10000 5.14 250 21:47 19.04.2021
92 Snow 1 1008 75 10000 5.14 250 21:25 19.04.2021
93 Snow 2 1008 70 10000 7.72 250 20:43 19.04.2021
94 Snow 2 1008 70 10000 7.72 250 20:22 19.04.2021
95 Snow 1 1008 75 10000 8.23 230 19:54 19.04.2021
96 Clouds 3 1008 75 10000 8.23 230 19:36 19.04.2021
97 Clouds 3 1008 75 10000 8.23 230 19:18 19.04.2021
98 Clouds 3 1008 75 10000 5.66 190 18:44 19.04.2021
99 Clouds 3 1008 75 10000 5.66 190 18:21 19.04.2021
100 Clouds 3 1008 70 10000 5.66 210 17:46 19.04.2021
101 Rain 3 1008 70 10000 5.66 210 17:26 19.04.2021
102 Clouds 2 1008 65 10000 5.14 220 16:45 19.04.2021
103 Rain 3 1008 65 10000 5.14 220 16:26 19.04.2021
104 Clouds 3 1008 75 10000 6.69 230 15:44 19.04.2021
105 Clouds 3 1008 75 10000 6.69 230 15:24 19.04.2021
106 Clouds 2 1008 80 10000 7.72 190 14:52 19.04.2021
107 Clouds 1 1008 80 10000 7.72 190 14:32 19.04.2021
108 Clouds 2 1008 87 10000 5.66 180 13:53 19.04.2021
109 Snow 2 1008 87 10000 5.66 180 13:28 19.04.2021
110 Snow 0 1009 93 800 4.63 150 12:48 19.04.2021
111 Snow 0 1009 93 800 4.63 150 12:28 19.04.2021
112 Snow 1 1009 93 3000 8.75 200 11:59 19.04.2021
113 Snow 1 1009 93 3000 8.75 200 11:59 19.04.2021
114 Snow 1 1009 75 10000 4.12 140 11:39 19.04.2021
115 Snow 1 1009 75 10000 4.12 140 11:18 19.04.2021
116 Snow 1 1009 75 10000 4.12 140 11:18 19.04.2021
117 Snow 1 1009 75 10000 4.12 140 11:18 19.04.2021
118 Clouds 0 1009 80 10000 3.09 120 10:41 19.04.2021
119 Clouds 0 1009 80 10000 3.09 120 10:18 19.04.2021
120 Clouds 0 1009 80 10000 3.09 120 10:18 19.04.2021
121 Clouds -1 1009 86 10000 3.6 130 09:40 19.04.2021
122 Snow -1 1009 86 10000 3.6 130 09:21 19.04.2021
123 Snow -1 1009 86 10000 3.6 130 09:21 19.04.2021
124 Snow -2 1009 86 10000 4.12 130 08:32 19.04.2021
125 Snow -1 1009 86 10000 2.06 80 07:49 19.04.2021
126 Snow 0 1009 86 10000 2.06 80 07:21 19.04.2021
127 Snow 0 1009 86 10000 2.57 210 06:47 19.04.2021
128 Snow 1 1009 64 10000 2.06 270 04:21 19.04.2021
129 Snow 2 1008 69 10000 6.17 260 01:49 19.04.2021
130 Snow 2 1007 80 10000 6.17 220 00:33 19.04.2021
131 Snow 2 1007 80 10000 7.72 220 23:20 18.04.2021
132 Clouds 2 1006 75 10000 10.29 220 22:56 18.04.2021
133 Clouds 2 1006 75 10000 10.29 220 22:31 18.04.2021
134 Snow 2 1006 87 10000 11.32 200 21:49 18.04.2021
135 Clouds 2 1006 87 10000 11.32 200 21:27 18.04.2021
136 Clouds 2 1005 87 9000 10.8 220 20:43 18.04.2021
137 Clouds 3 1005 87 9000 10.8 220 20:24 18.04.2021
138 Clouds 3 1005 87 9000 10.8 220 20:24 18.04.2021
139 Clouds 4 1004 60 10000 11.32 210 19:56 18.04.2021
140 Clouds 4 1004 60 10000 11.32 210 19:37 18.04.2021
141 Clouds 5 1004 60 10000 11.32 210 19:18 18.04.2021
142 Clouds 4 1004 70 10000 9.77 190 18:39 18.04.2021
143 Rain 4 1004 70 10000 9.77 190 18:21 18.04.2021
144 Clouds 4 1004 80 9000 11.32 210 17:45 18.04.2021
145 Rain 5 1003 60 10000 11.32 200 17:26 18.04.2021
146 Clouds 5 1003 70 10000 11.32 200 16:45 18.04.2021
147 Clouds 5 1003 70 10000 11.32 200 16:23 18.04.2021
148 Clouds 4 1003 75 10000 7.72 190 15:43 18.04.2021
149 Clouds 4 1003 75 10000 7.72 190 15:24 18.04.2021
150 Rain 3 1003 70 10000 8.23 210 14:45 18.04.2021
151 Clouds 5 1003 70 10000 8.23 210 14:20 18.04.2021
152 Clouds 3 1002 70 10000 9.26 210 13:55 18.04.2021
153 Clouds 3 1002 70 10000 9.26 210 13:33 18.04.2021
154 Clouds 2 1002 81 10000 8.75 220 12:50 18.04.2021
155 Clouds 2 1002 81 10000 8.75 220 12:24 18.04.2021
156 Clouds 2 1002 81 10000 8.75 220 11:42 18.04.2021
157 Snow 2 1002 81 10000 8.75 220 11:20 18.04.2021
158 Clouds 1 1001 93 10000 7.72 200 10:47 18.04.2021
159 Snow 1 1001 93 10000 7.72 200 10:22 18.04.2021
160 Snow 1 1001 86 5000 8.75 200 09:52 18.04.2021
161 Snow 1 1001 86 5000 8.75 200 09:34 18.04.2021
162 Clouds 1 1000 75 10000 3.6 160 08:56 18.04.2021
163 Clouds 1 1000 75 10000 3.6 160 08:35 18.04.2021
164 Clouds 0 1000 80 10000 4.63 170 07:55 18.04.2021
165 Clouds 0 1000 80 10000 4.63 170 07:37 18.04.2021
166 Clouds 2 1000 75 10000 3.09 160 05:41 18.04.2021
167 Snow 2 1000 75 10000 3.09 160 05:22 18.04.2021
168 Clouds 3 1000 75 10000 6.17 230 02:39 18.04.2021
169 Clouds 2 1000 75 10000 6.17 230 02:20 18.04.2021
170 Clouds 2 1000 93 10000 1.03 0 00:37 18.04.2021
171 Clouds 3 1000 87 7000 0.51 100 23:33 17.04.2021
172 Drizzle 3 1000 87 10000 2.06 230 22:51 17.04.2021
173 Drizzle 3 1000 87 10000 2.06 230 22:30 17.04.2021
174 Clouds 3 1001 93 9000 3.6 270 21:47 17.04.2021
175 Clouds 3 1001 93 9000 3.6 270 21:28 17.04.2021
176 Clouds 4 1001 87 10000 3.6 200 20:47 17.04.2021
177 Rain 4 1001 87 10000 3.6 200 20:27 17.04.2021
178 Rain 5 1002 81 10000 4.12 170 19:44 17.04.2021
179 Rain 5 1002 81 10000 4.12 170 19:20 17.04.2021
180 Rain 5 1002 81 10000 5.14 180 18:55 17.04.2021
181 Rain 5 1002 81 10000 5.14 180 18:28 17.04.2021
182 Rain 5 1003 75 10000 7.2 150 17:56 17.04.2021
183 Rain 6 1003 75 10000 7.2 150 17:38 17.04.2021
184 Rain 6 1004 75 10000 7.72 160 16:42 17.04.2021
185 Rain 6 1004 75 10000 7.72 160 16:24 17.04.2021
186 Clouds 6 1005 70 10000 7.72 160 15:38 17.04.2021
187 Clouds 6 1005 70 10000 8.75 160 14:49 17.04.2021
188 Clouds 6 1005 70 10000 8.75 160 14:29 17.04.2021
189 Clouds 6 1006 70 10000 6.17 160 13:45 17.04.2021
190 Clouds 5 1006 70 10000 6.17 160 13:19 17.04.2021
191 Clouds 5 1006 75 10000 5.66 160 12:36 17.04.2021
192 Rain 5 1006 70 10000 5.66 150 11:59 17.04.2021
193 Clouds 5 1006 70 10000 5.66 150 11:39 17.04.2021
194 Clouds 5 1006 70 10000 5.66 150 11:39 17.04.2021
195 Rain 5 1006 70 10000 5.66 150 11:20 17.04.2021
196 Clouds 5 1006 70 10000 6.69 170 10:41 17.04.2021
197 Clouds 5 1006 70 10000 6.69 170 10:18 17.04.2021
198 Clouds 5 1006 70 10000 6.17 170 09:19 17.04.2021
199 Clouds 5 1006 70 10000 6.17 180 08:34 17.04.2021
200 Rain 5 1005 65 10000 7.72 160 07:59 17.04.2021
201 Clouds 4 1005 75 9000 10.29 170 06:41 17.04.2021
202 Clouds 4 1005 75 10000 8.23 170 03:49 17.04.2021
203 Rain 5 1004 65 10000 7.72 180 02:26 17.04.2021
204 Clouds 4 1002 70 10000 8.75 170 00:42 17.04.2021
205 Clouds 4 1002 70 10000 8.75 170 00:20 17.04.2021
206 Rain 4 1002 70 10000 9.26 190 23:43 16.04.2021
207 Clouds 4 1001 65 10000 10.8 190 22:59 16.04.2021
208 Rain 5 1001 65 10000 10.8 190 22:41 16.04.2021
209 Rain 4 1001 65 10000 10.8 190 22:20 16.04.2021
210 Clouds 4 1000 81 10000 11.32 180 21:45 16.04.2021
211 Rain 4 1000 81 10000 11.32 180 21:27 16.04.2021
212 Rain 4 999 81 10000 8.75 170 20:46 16.04.2021
213 Clouds 4 999 81 10000 11.32 200 20:20 16.04.2021
214 Clouds 4 999 81 10000 11.32 200 19:49 16.04.2021
215 Rain 4 999 81 10000 11.32 200 19:21 16.04.2021
216 Clouds 5 998 75 10000 8.23 180 18:28 16.04.2021
217 Rain 4 997 70 10000 9.77 180 17:54 16.04.2021
218 Clouds 5 997 70 10000 9.77 180 17:20 16.04.2021
219 Clouds 4 998 87 10000 9.26 190 16:57 16.04.2021
220 Clouds 3 998 87 10000 9.26 190 16:38 16.04.2021
221 Clouds 5 997 75 5000 13.38 200 16:20 16.04.2021
222 Clouds 4 996 70 10000 10.29 200 15:39 16.04.2021
223 Clouds 5 994 70 10000 11.83 200 14:56 16.04.2021
224 Clouds 5 994 70 10000 11.83 200 14:37 16.04.2021
225 Clouds 5 992 87 4500 11.32 210 13:58 16.04.2021
226 Clouds 4 992 87 4500 11.32 210 13:37 16.04.2021
227 Clouds 5 992 87 4500 11.32 210 13:18 16.04.2021
228 Clouds 6 989 81 9000 9.77 170 12:44 16.04.2021
229 Rain 7 989 81 9000 9.77 170 12:23 16.04.2021
230 Rain 7 988 81 10000 9.26 160 11:43 16.04.2021
231 Rain 7 988 81 10000 9.26 160 11:43 16.04.2021
232 Clouds 7 988 81 10000 9.26 160 11:23 16.04.2021
233 Clouds 7 988 81 10000 8.75 160 10:43 16.04.2021
234 Clouds 7 988 81 10000 8.75 160 10:23 16.04.2021
235 Clouds 7 988 81 10000 9.26 160 09:45 16.04.2021
236 Clouds 7 988 81 10000 9.26 160 09:45 16.04.2021
237 Clouds 7 988 81 10000 9.26 160 09:23 16.04.2021
238 Clouds 7 988 81 10000 8.23 140 08:45 16.04.2021
239 Clouds 7 988 81 10000 8.23 140 08:24 16.04.2021
240 Rain 7 989 81 10000 7.72 160 07:46 16.04.2021
241 Rain 7 989 81 10000 7.72 160 07:25 16.04.2021
242 Clouds 8 989 81 10000 7.72 140 06:41 16.04.2021
243 Clouds 9 989 76 10000 4.12 150 05:32 16.04.2021
244 Clouds 9 990 87 10000 6.69 140 03:59 16.04.2021
245 Clouds 9 992 87 7000 6.69 170 00:47 16.04.2021
246 Clouds 9 992 87 7000 6.69 170 00:22 16.04.2021
247 Clouds 9 992 87 8000 8.23 160 23:58 15.04.2021
248 Clouds 9 992 87 8000 8.23 160 23:34 15.04.2021
249 Clouds 10 992 81 8000 9.77 160 22:52 15.04.2021
250 Rain 10 992 81 8000 9.77 160 22:26 15.04.2021
251 Clouds 10 992 81 9000 10.8 150 21:56 15.04.2021
252 Clouds 10 992 81 9000 10.8 150 21:37 15.04.2021
253 Clouds 10 992 81 9000 10.8 150 21:19 15.04.2021
254 Rain 9 993 87 6000 10.8 150 20:38 15.04.2021
255 Rain 9 993 87 6000 10.8 150 20:20 15.04.2021
256 Clouds 9 993 87 7000 11.32 140 19:42 15.04.2021
257 Clouds 9 993 87 7000 11.32 140 19:23 15.04.2021
258 Clouds 9 993 87 6000 13.38 140 18:41 15.04.2021
259 Clouds 9 993 87 6000 13.38 140 18:20 15.04.2021
260 Rain 9 995 87 8000 14.4 140 17:54 15.04.2021
261 Rain 9 995 87 8000 14.4 140 17:36 15.04.2021
262 Rain 9 995 81 8000 14.92 140 16:47 15.04.2021
263 Rain 9 995 81 8000 14.92 140 16:25 15.04.2021
264 Rain 9 997 81 8000 14.4 140 15:51 15.04.2021
265 Rain 9 997 81 8000 14.4 140 15:31 15.04.2021
266 Rain 9 999 81 8000 13.38 130 14:57 15.04.2021
267 Rain 8 999 81 8000 13.38 130 14:38 15.04.2021
268 Rain 8 999 81 8000 13.38 130 14:19 15.04.2021
269 Rain 8 1001 81 10000 11.32 130 13:41 15.04.2021
270 Rain 8 1001 81 10000 11.32 130 13:18 15.04.2021
271 Rain 8 1002 81 10000 9.26 130 12:39 15.04.2021
272 Rain 8 1002 81 10000 9.26 130 12:20 15.04.2021
273 Rain 8 1003 81 10000 8.75 120 11:44 15.04.2021
274 Rain 8 1003 81 10000 8.75 120 11:22 15.04.2021
275 Clouds 8 1004 76 10000 8.75 130 10:48 15.04.2021
276 Rain 8 1004 76 10000 8.75 130 10:26 15.04.2021
277 Rain 7 1005 81 10000 8.75 120 09:45 15.04.2021
278 Clouds 7 1005 81 10000 8.75 120 09:18 15.04.2021
279 Rain 7 1006 81 10000 10.8 110 08:41 15.04.2021
280 Clouds 6 1007 81 10000 11.83 110 07:50 15.04.2021
281 Clouds 7 1007 81 10000 11.83 110 07:22 15.04.2021
282 Clouds 7 1007 81 10000 11.83 110 07:22 15.04.2021
283 Clouds 7 1007 81 10000 11.83 110 07:22 15.04.2021
284 Rain 7 1009 81 10000 10.8 120 06:38 15.04.2021
285 Clouds 7 1009 81 10000 10.8 120 06:20 15.04.2021
286 Rain 7 1012 87 10000 6.69 130 04:50 15.04.2021
287 Clouds 6 1016 76 10000 5.66 140 00:43 15.04.2021
288 Clouds 7 1017 76 10000 4.63 140 23:39 14.04.2021
289 Clouds 6 1017 76 10000 4.63 140 23:19 14.04.2021
290 Clouds 7 1017 71 10000 6.17 170 22:43 14.04.2021
291 Clouds 7 1017 71 10000 6.17 170 22:25 14.04.2021
292 Clouds 7 1017 71 10000 6.17 170 22:25 14.04.2021
293 Clouds 7 1018 71 10000 5.66 160 21:47 14.04.2021
294 Clouds 8 1018 71 10000 5.66 160 21:28 14.04.2021
295 Clouds 8 1018 66 10000 7.72 170 20:56 14.04.2021
296 Clouds 8 1018 66 10000 7.72 170 20:34 14.04.2021
297 Clouds 8 1019 76 10000 7.2 190 19:53 14.04.2021
298 Clouds 8 1019 76 10000 7.2 190 19:20 14.04.2021
299 Clouds 9 1019 71 10000 7.72 200 18:57 14.04.2021
300 Clouds 9 1019 71 10000 7.72 200 18:22 14.04.2021
301 Clouds 9 1020 71 10000 7.2 210 17:58 14.04.2021
302 Clouds 9 1020 71 10000 7.2 210 17:28 14.04.2021
303 Clouds 9 1021 81 10000 6.69 210 16:54 14.04.2021
304 Clouds 8 1021 81 10000 6.69 210 16:27 14.04.2021
305 Clouds 9 1021 71 10000 7.2 200 15:44 14.04.2021
306 Clouds 9 1021 71 10000 7.2 200 15:26 14.04.2021
307 Clouds 7 1021 71 10000 5.14 180 14:53 14.04.2021
308 Clouds 7 1021 71 10000 5.14 180 14:27 14.04.2021
309 Clouds 7 1021 71 10000 6.69 160 13:59 14.04.2021
310 Clouds 7 1021 71 10000 6.69 160 13:37 14.04.2021
311 Clouds 7 1022 76 10000 4.63 170 12:40 14.04.2021
312 Clouds 7 1022 76 10000 4.63 170 12:18 14.04.2021
313 Clouds 6 1022 81 10000 3.09 160 11:39 14.04.2021
314 Clouds 6 1022 81 10000 3.09 160 11:19 14.04.2021
315 Clouds 5 1023 87 10000 2.06 170 10:33 14.04.2021
316 Clouds 5 1023 87 10000 2.57 190 09:43 14.04.2021
317 Clouds 5 1023 87 10000 2.57 190 09:23 14.04.2021
318 Clouds 5 1023 81 10000 4.12 200 08:48 14.04.2021
319 Clouds 5 1023 81 10000 4.12 200 08:23 14.04.2021
320 Clouds 5 1023 87 10000 3.6 210 07:28 14.04.2021
321 Clouds 5 1023 87 10000 2.06 190 06:28 14.04.2021
322 Clouds 5 1024 87 10000 3.09 190 05:24 14.04.2021
323 Clouds 5 1025 81 10000 3.09 150 02:24 14.04.2021
324 Clouds 6 1025 70 10000 3.09 170 00:50 14.04.2021
325 Clouds 6 1025 70 10000 3.09 170 00:27 14.04.2021
326 Clouds 5 1026 75 10000 3.6 170 23:32 13.04.2021
327 Clouds 6 1026 75 10000 4.12 190 22:44 13.04.2021
328 Clouds 6 1026 75 10000 4.12 190 22:21 13.04.2021
329 Clouds 7 1026 66 10000 4.63 190 21:48 13.04.2021
330 Clouds 7 1026 66 10000 4.63 190 21:30 13.04.2021
331 Clouds 8 1026 61 10000 4.12 210 20:50 13.04.2021
332 Clouds 8 1026 61 10000 4.12 210 20:25 13.04.2021
333 Clouds 8 1026 61 10000 3.09 240 19:58 13.04.2021
334 Clouds 8 1026 61 10000 3.09 240 19:26 13.04.2021
335 Clouds 9 1026 61 10000 2.57 240 18:49 13.04.2021
336 Clouds 8 1026 61 10000 2.57 240 18:30 13.04.2021
337 Clouds 8 1026 66 10000 2.57 270 17:40 13.04.2021
338 Clouds 8 1026 66 10000 2.57 270 17:21 13.04.2021
339 Clouds 9 1027 57 10000 3.6 190 16:45 13.04.2021
340 Clouds 9 1027 57 10000 3.6 190 16:27 13.04.2021
341 Clouds 8 1027 66 10000 3.6 190 15:56 13.04.2021
342 Clouds 8 1027 66 10000 3.6 190 15:37 13.04.2021
343 Clouds 8 1027 76 10000 3.6 220 14:58 13.04.2021
344 Clouds 7 1027 76 10000 3.6 220 14:25 13.04.2021
345 Clouds 7 1027 76 10000 2.57 230 13:55 13.04.2021
346 Clouds 7 1027 76 10000 2.57 230 13:36 13.04.2021
347 Clouds 6 1027 75 10000 2.57 40 13:18 13.04.2021
348 Clouds 6 1027 75 10000 2.57 40 12:44 13.04.2021
349 Clouds 6 1027 75 10000 2.57 40 12:22 13.04.2021
350 Clouds 5 1027 81 10000 3.6 90 11:37 13.04.2021
351 Clouds 5 1026 81 10000 3.09 90 10:58 13.04.2021
352 Clouds 4 1026 81 10000 3.09 90 10:40 13.04.2021
353 Clouds 4 1026 81 10000 3.09 90 10:19 13.04.2021
354 Clouds 4 1026 81 10000 4.12 100 09:49 13.04.2021
355 Clouds 4 1026 81 10000 4.12 100 09:23 13.04.2021
356 Clouds 3 1026 75 10000 3.6 100 08:43 13.04.2021
357 Clouds 3 1026 75 10000 3.6 100 08:21 13.04.2021
358 Clouds 3 1026 75 10000 3.6 70 07:43 13.04.2021
359 Clouds 3 1026 75 10000 3.6 70 07:23 13.04.2021
360 Clouds 3 1026 75 10000 3.6 100 06:22 13.04.2021
361 Clouds 4 1027 75 10000 3.09 90 03:41 13.04.2021
362 Clouds 4 1027 81 10000 1.54 150 01:31 13.04.2021
363 Clouds 5 1027 70 10000 4.63 150 23:51 12.04.2021
364 Clouds 5 1027 70 10000 4.63 150 23:32 12.04.2021
365 Clouds 5 1026 65 10000 3.6 120 22:50 12.04.2021
366 Clouds 6 1026 65 10000 3.6 120 22:31 12.04.2021
367 Clear 7 1026 65 10000 6.69 130 21:48 12.04.2021
368 Clear 7 1026 65 10000 6.69 130 21:25 12.04.2021
369 Clouds 8 1026 66 10000 7.72 130 20:58 12.04.2021
370 Clouds 8 1026 66 10000 7.72 130 20:36 12.04.2021
371 Clouds 8 1026 66 10000 7.72 130 20:18 12.04.2021
372 Clouds 8 1026 66 10000 5.66 150 19:39 12.04.2021
373 Clouds 8 1026 66 10000 5.66 150 19:21 12.04.2021
374 Clouds 8 1026 66 10000 4.63 120 18:48 12.04.2021
375 Clouds 8 1026 66 10000 4.63 120 18:30 12.04.2021
376 Clouds 8 1026 71 10000 6.17 140 17:55 12.04.2021
377 Clouds 8 1026 71 10000 6.17 140 17:37 12.04.2021
378 Clouds 8 1026 71 10000 6.17 140 17:19 12.04.2021
379 Clouds 8 1026 53 10000 5.14 110 16:37 12.04.2021
380 Clouds 8 1026 53 10000 5.14 110 16:18 12.04.2021
381 Clouds 8 1025 53 10000 5.66 90 15:33 12.04.2021
382 Clouds 8 1025 57 10000 5.66 90 14:56 12.04.2021
383 Clouds 8 1025 57 10000 5.66 90 14:37 12.04.2021
384 Clouds 8 1025 57 10000 5.66 90 14:18 12.04.2021
385 Clouds 8 1025 57 10000 7.2 80 13:40 12.04.2021
386 Clouds 7 1025 57 10000 7.2 80 13:18 12.04.2021
387 Clear 7 1024 61 10000 5.66 80 12:43 12.04.2021
388 Clear 6 1024 61 10000 5.66 80 12:22 12.04.2021
389 Rain 5 1024 65 10000 4.63 70 11:35 12.04.2021
390 Clouds 5 1023 65 10000 4.63 80 10:51 12.04.2021
391 Clouds 5 1023 65 10000 4.63 80 10:28 12.04.2021
392 Rain 4 1023 70 10000 4.12 70 09:52 12.04.2021
393 Clouds 4 1023 70 10000 4.12 70 09:23 12.04.2021
394 Clouds 4 1022 70 10000 3.09 90 08:51 12.04.2021
395 Clouds 3 1021 70 10000 3.09 100 07:55 12.04.2021
396 Clouds 4 1021 70 10000 3.09 100 07:30 12.04.2021
397 Clear 4 1021 70 10000 2.57 70 06:39 12.04.2021
398 Clear 4 1020 70 10000 3.09 80 05:47 12.04.2021
399 Clear 3 1019 70 10000 4.12 70 02:27 12.04.2021
400 Rain 3 1017 70 10000 6.69 80 00:29 12.04.2021
401 Rain 3 1017 70 10000 5.14 70 23:55 11.04.2021
402 Rain 3 1017 70 10000 5.14 70 23:36 11.04.2021
403 Rain 3 1017 70 10000 5.14 70 23:18 11.04.2021
404 Rain 3 1016 70 10000 6.69 80 22:37 11.04.2021
405 Rain 4 1016 70 10000 6.69 80 22:19 11.04.2021
406 Rain 4 1015 70 10000 8.23 90 21:42 11.04.2021
407 Rain 4 1015 70 10000 8.23 90 21:23 11.04.2021
408 Rain 4 1014 75 10000 7.2 80 20:42 11.04.2021
409 Rain 4 1014 75 10000 7.2 80 20:23 11.04.2021
410 Rain 4 1014 70 10000 8.75 80 19:43 11.04.2021
411 Rain 4 1014 70 10000 8.75 80 19:20 11.04.2021
412 Rain 4 1013 75 10000 8.23 90 18:57 11.04.2021
413 Rain 4 1013 75 10000 8.23 90 18:39 11.04.2021
414 Rain 4 1013 75 10000 8.23 90 18:20 11.04.2021
415 Rain 4 1013 81 10000 9.26 90 17:40 11.04.2021
416 Rain 4 1013 81 10000 9.26 90 17:22 11.04.2021
417 Rain 4 1013 81 10000 7.72 90 16:42 11.04.2021
418 Rain 4 1013 81 10000 7.72 90 16:21 11.04.2021
419 Rain 4 1013 81 10000 8.23 90 15:46 11.04.2021
420 Rain 4 1013 81 10000 8.23 90 15:26 11.04.2021
421 Rain 4 1012 81 10000 6.69 100 14:51 11.04.2021
422 Rain 4 1012 81 10000 6.69 100 14:24 11.04.2021
423 Rain 3 1012 81 10000 7.2 100 13:44 11.04.2021
424 Clouds 3 1012 81 10000 7.2 100 13:26 11.04.2021
425 Rain 3 1012 81 10000 6.69 110 12:41 11.04.2021
426 Rain 3 1012 81 10000 6.69 110 12:20 11.04.2021
427 Rain 3 1012 81 10000 7.2 110 11:48 11.04.2021
428 Rain 3 1012 81 10000 7.2 110 11:21 11.04.2021
429 Rain 2 1012 87 10000 5.14 100 10:47 11.04.2021
430 Rain 2 1012 87 10000 5.14 100 10:23 11.04.2021
431 Rain 2 1012 87 10000 5.66 90 09:51 11.04.2021
432 Rain 2 1012 87 10000 5.66 90 09:30 11.04.2021
433 Rain 2 1013 87 10000 5.14 100 08:40 11.04.2021
434 Rain 2 1013 87 10000 4.63 100 07:57 11.04.2021
435 Rain 2 1013 87 10000 4.63 100 07:21 11.04.2021
436 Rain 2 1014 87 10000 3.6 80 05:59 11.04.2021
437 Rain 1 1014 87 10000 3.6 80 05:37 11.04.2021
438 Rain 1 1014 87 10000 3.6 80 05:18 11.04.2021
439 Snow 1 1015 87 10000 3.6 90 04:33 11.04.2021
440 Snow 0 1017 93 10000 3.6 60 01:31 11.04.2021
441 Snow 0 1017 93 10000 4.12 60 00:32 11.04.2021
442 Snow 1 1018 93 7000 3.6 80 23:46 10.04.2021
443 Snow 1 1018 93 5000 3.09 80 22:58 10.04.2021
444 Snow 1 1018 93 5000 3.09 80 22:30 10.04.2021
445 Rain 1 1019 87 9000 3.6 90 21:55 10.04.2021
446 Rain 1 1019 87 9000 3.6 90 21:33 10.04.2021
447 Snow 1 1019 87 4000 2.57 120 20:58 10.04.2021
448 Snow 1 1019 87 4000 2.57 120 20:40 10.04.2021
449 Snow 2 1019 87 4000 2.57 120 20:21 10.04.2021
450 Clouds 2 1020 75 10000 2.57 170 19:43 10.04.2021
451 Clouds 2 1020 75 10000 2.57 170 19:25 10.04.2021
452 Clouds 2 1020 70 10000 3.09 170 18:44 10.04.2021
453 Clouds 2 1020 70 10000 3.09 170 18:25 10.04.2021
454 Clouds 2 1021 70 10000 3.09 190 17:37 10.04.2021
455 Clouds 3 1021 65 10000 1.54 260 16:57 10.04.2021
456 Clouds 3 1021 65 10000 1.54 260 16:26 10.04.2021
457 Clouds 2 1021 65 10000 3.09 210 15:53 10.04.2021
458 Clouds 1 1022 64 10000 2.57 200 14:58 10.04.2021
459 Clouds 1 1022 64 10000 2.57 200 14:38 10.04.2021
460 Clouds 1 1022 60 10000 2.06 110 13:59 10.04.2021
461 Clouds 1 1022 60 10000 2.06 110 13:40 10.04.2021
462 Clouds 0 1022 64 10000 2.57 120 12:49 10.04.2021
463 Clouds 0 1022 64 10000 2.57 120 12:26 10.04.2021
464 Clouds -2 1023 69 10000 2.57 80 11:47 10.04.2021
465 Clouds -2 1023 69 10000 2.57 80 11:25 10.04.2021
466 Clouds -3 1023 74 10000 2.57 120 10:52 10.04.2021
467 Clouds -4 1023 74 10000 2.57 120 10:31 10.04.2021
468 Clouds -4 1023 74 10000 1.54 90 09:45 10.04.2021
469 Clouds -5 1023 74 10000 1.54 90 09:20 10.04.2021
470 Clouds -4 1023 68 10000 1.54 60 08:47 10.04.2021
471 Clouds -4 1023 68 10000 1.54 60 08:28 10.04.2021
472 Clouds -5 1023 73 10000 1.03 0 07:38 10.04.2021
473 Clouds -5 1023 73 10000 1.03 0 07:19 10.04.2021
474 Clear -5 1023 68 10000 0.51 0 06:24 10.04.2021
475 Clear -4 1024 80 10000 1.03 110 03:49 10.04.2021
476 Clear -3 1024 68 10000 1.54 130 02:50 10.04.2021
477 Clear -3 1024 68 10000 1.54 130 02:18 10.04.2021
478 Clear -3 1024 64 10000 0.51 0 00:41 10.04.2021
479 Clear -1 1024 64 10000 0.51 0 00:21 10.04.2021
480 Clear -2 1024 69 10000 3.09 350 23:40 09.04.2021
481 Clouds -1 1024 64 10000 3.6 350 22:58 09.04.2021
482 Clouds -1 1024 64 10000 3.6 350 22:38 09.04.2021
483 Clouds 0 1024 75 10000 2.57 290 21:56 09.04.2021
484 Clouds 0 1024 75 10000 2.57 290 21:37 09.04.2021
485 Clouds 0 1024 75 10000 2.57 290 21:18 09.04.2021
486 Clouds 0 1024 80 10000 2.57 280 20:41 09.04.2021
487 Snow 0 1024 80 10000 2.57 280 20:22 09.04.2021
488 Snow 0 1024 80 10000 2.57 280 20:22 09.04.2021
489 Snow 0 1024 86 10000 4.12 290 19:44 09.04.2021
490 Snow 0 1024 86 10000 4.12 290 19:23 09.04.2021
491 Snow 0 1024 80 10000 2.57 290 18:51 09.04.2021
492 Snow 0 1024 80 10000 2.57 290 18:31 09.04.2021
493 Snow 0 1025 80 10000 3.09 260 17:54 09.04.2021
494 Snow -1 1025 80 10000 3.09 260 17:36 09.04.2021
495 Clouds -1 1025 74 10000 2.57 240 16:56 09.04.2021
496 Clouds -1 1025 74 10000 2.57 240 16:34 09.04.2021
497 Clouds -2 1025 69 10000 2.06 290 15:51 09.04.2021
498 Clouds -2 1025 69 10000 2.06 290 15:33 09.04.2021
499 Clouds -2 1025 64 10000 3.09 300 14:57 09.04.2021
500 Clouds -1 1025 64 10000 3.09 300 14:33 09.04.2021
501 Clouds -1 1026 59 10000 2.06 350 13:52 09.04.2021
502 Clouds -2 1026 59 10000 2.06 350 13:24 09.04.2021
503 Clouds -3 1026 63 10000 3.6 10 12:51 09.04.2021
504 Snow -3 1026 63 10000 3.6 10 12:32 09.04.2021
505 Clear -4 1026 59 10000 3.09 20 11:46 09.04.2021
506 Clear -4 1026 59 10000 3.09 20 11:22 09.04.2021
507 Clear -5 1026 63 10000 3.6 360 10:46 09.04.2021
508 Clear -5 1026 63 10000 3.6 360 10:20 09.04.2021
509 Clouds -6 1026 58 10000 3.6 360 09:39 09.04.2021
510 Clouds -6 1026 58 10000 3.6 360 09:20 09.04.2021
511 Clear -6 1026 54 10000 5.14 10 08:51 09.04.2021
512 Clear -7 1026 58 10000 5.14 360 07:36 09.04.2021
513 Clear -7 1026 50 10000 5.66 350 06:34 09.04.2021
514 Clear -7 1026 54 10000 5.14 360 05:56 09.04.2021
515 Clouds -6 1026 58 10000 4.63 360 03:52 09.04.2021
516 Clouds -6 1026 58 10000 9.26 360 01:35 09.04.2021
517 Clouds -5 1026 58 10000 8.75 360 00:37 09.04.2021
518 Clouds -5 1026 58 10000 8.75 360 00:19 09.04.2021
519 Clouds -5 1025 63 10000 7.2 20 23:21 08.04.2021
520 Clouds -5 1024 63 10000 8.23 10 22:43 08.04.2021
521 Clouds -5 1024 63 10000 8.23 10 22:22 08.04.2021
522 Clouds -5 1024 58 10000 9.77 20 21:55 08.04.2021
523 Clouds -5 1024 58 10000 9.77 20 21:55 08.04.2021
524 Clouds -5 1024 58 10000 9.77 20 21:55 08.04.2021
525 Clouds -5 1024 58 10000 9.77 20 21:36 08.04.2021
526 Clouds -4 1024 58 10000 9.77 20 21:18 08.04.2021
527 Clouds -4 1024 58 10000 10.29 20 20:49 08.04.2021
528 Clouds -4 1024 58 10000 10.29 20 20:26 08.04.2021
529 Clouds -4 1023 58 10000 11.32 30 19:45 08.04.2021
530 Clouds -4 1023 58 10000 11.32 30 19:20 08.04.2021
531 Clouds -4 1022 58 10000 11.32 20 18:46 08.04.2021
532 Clouds -4 1022 58 10000 11.32 20 18:21 08.04.2021
533 Clouds -4 1022 63 10000 11.83 20 17:49 08.04.2021
534 Clouds -4 1022 63 10000 11.83 20 17:26 08.04.2021
535 Clouds -4 1021 58 10000 11.32 10 16:51 08.04.2021
536 Clouds -4 1021 58 10000 11.32 10 16:33 08.04.2021
537 Clouds -5 1021 68 10000 12.86 10 15:48 08.04.2021
538 Clouds -4 1021 68 10000 12.86 10 15:29 08.04.2021
539 Clouds -4 1019 74 10000 12.86 20 14:46 08.04.2021
540 Clouds -4 1019 74 10000 12.86 20 14:28 08.04.2021
541 Clouds -4 1018 63 10000 10.29 20 13:59 08.04.2021
542 Clouds -4 1018 63 10000 10.29 20 13:41 08.04.2021
543 Clouds -4 1018 63 10000 10.29 20 13:22 08.04.2021
544 Clouds -4 1017 63 10000 8.75 20 12:43 08.04.2021
545 Clouds -4 1017 63 10000 8.75 20 12:24 08.04.2021
546 Clouds -4 1016 63 10000 7.72 30 11:43 08.04.2021
547 Clouds -4 1014 63 10000 9.26 30 10:59 08.04.2021
548 Clouds -4 1014 63 10000 9.26 30 10:40 08.04.2021
549 Clouds -4 1014 63 10000 9.26 30 10:18 08.04.2021
550 Clouds -4 1013 68 10000 10.8 10 09:43 08.04.2021
551 Clouds -4 1012 63 10000 6.69 20 08:47 08.04.2021
552 Clouds -4 1012 63 10000 6.69 20 08:47 08.04.2021
553 Snow -4 1012 63 10000 6.69 20 08:28 08.04.2021
554 Snow -4 1010 68 10000 8.23 20 07:58 08.04.2021
555 Snow -4 1010 68 10000 8.23 20 07:35 08.04.2021
556 Snow -2 1005 80 10000 4.63 70 04:18 08.04.2021
557 Snow -1 1002 93 7000 4.63 70 01:20 08.04.2021
558 Snow 0 1001 93 5000 5.66 90 00:21 08.04.2021
559 Snow 0 1001 93 3000 7.2 140 23:42 07.04.2021
560 Snow 0 1001 93 3000 7.2 140 23:22 07.04.2021
561 Snow 0 1001 93 2500 6.17 150 22:54 07.04.2021
562 Snow 0 1001 93 2500 6.17 150 22:35 07.04.2021
563 Snow 0 1002 93 6000 6.69 190 21:48 07.04.2021
564 Snow 0 1002 93 6000 6.69 190 21:26 07.04.2021
565 Snow 0 1003 93 2500 6.69 230 20:47 07.04.2021
566 Snow 0 1003 93 2500 6.69 230 20:26 07.04.2021
567 Snow 0 1004 86 4300 3.09 70 19:46 07.04.2021
568 Snow 0 1004 86 4300 3.09 70 19:28 07.04.2021
569 Snow 0 1004 80 9000 5.14 60 18:53 07.04.2021
570 Snow 0 1004 80 9000 5.14 60 18:21 07.04.2021
571 Snow 0 1005 80 10000 6.17 80 17:57 07.04.2021
572 Snow 0 1005 80 10000 6.17 80 17:39 07.04.2021
573 Snow -1 1006 93 7000 7.2 80 16:58 07.04.2021
574 Snow -1 1006 93 7000 7.2 80 16:39 07.04.2021
575 Snow -1 1006 93 7000 7.2 80 16:20 07.04.2021
576 Snow -2 1007 93 2500 7.2 80 15:50 07.04.2021
577 Snow -2 1007 93 2500 7.2 80 15:25 07.04.2021
578 Snow -2 1008 86 1700 9.26 80 14:35 07.04.2021
579 Snow -3 1009 93 1600 9.77 90 13:53 07.04.2021
580 Snow -3 1009 93 1600 9.77 90 13:28 07.04.2021
581 Snow -3 1011 93 1000 9.26 80 12:58 07.04.2021
582 Snow -3 1011 93 1000 9.26 80 12:26 07.04.2021
583 Snow -3 1013 86 1200 7.72 80 11:59 07.04.2021
584 Snow -3 1013 86 1200 7.72 80 11:29 07.04.2021
585 Snow -3 1013 86 1200 7.72 80 11:29 07.04.2021
586 Snow -4 1015 86 1300 5.66 90 10:59 07.04.2021
587 Snow -3 1015 86 1300 5.66 90 10:30 07.04.2021
588 Snow -3 1015 80 1800 4.63 90 09:46 07.04.2021
589 Snow -3 1016 74 7000 6.17 80 09:27 07.04.2021
590 Snow -3 1017 64 10000 4.12 80 08:48 07.04.2021
591 Snow -3 1017 64 10000 4.12 80 08:23 07.04.2021
592 Snow -4 1019 63 10000 3.09 80 07:46 07.04.2021
593 Clouds -4 1019 63 10000 3.09 80 07:26 07.04.2021
594 Clouds -4 1020 63 10000 3.09 80 06:36 07.04.2021
595 Clear -5 1023 68 10000 2.06 110 04:24 07.04.2021
596 Clear -3 1026 59 10000 2.06 310 00:45 07.04.2021
597 Clear -4 1027 63 10000 2.57 320 23:47 06.04.2021
598 Clear -4 1027 63 10000 2.57 320 23:22 06.04.2021
599 Clear -4 1028 59 10000 3.09 300 22:48 06.04.2021
600 Clear -3 1028 59 10000 3.09 300 22:21 06.04.2021
601 Clear -3 1028 59 10000 2.57 320 21:43 06.04.2021
602 Clear -3 1028 59 10000 2.57 320 21:23 06.04.2021
603 Clear -2 1029 54 10000 2.06 310 20:57 06.04.2021
604 Clear -2 1029 54 10000 2.06 310 20:36 06.04.2021
605 Clear -2 1029 54 10000 2.06 310 20:18 06.04.2021
606 Clear -2 1029 54 10000 2.57 330 19:41 06.04.2021
607 Clear -2 1029 54 10000 2.57 330 19:23 06.04.2021
608 Clear -2 1030 59 10000 2.57 330 18:43 06.04.2021
609 Clear -2 1030 59 10000 2.57 330 18:20 06.04.2021
610 Clear -2 1031 59 10000 2.06 340 17:45 06.04.2021
611 Clear -2 1031 59 10000 2.06 340 17:19 06.04.2021
612 Clear -2 1032 54 10000 2.06 10 16:49 06.04.2021
613 Clear -2 1032 54 10000 2.06 10 16:27 06.04.2021
614 Clear -2 1033 54 10000 1.54 200 15:27 06.04.2021
615 Clear -3 1033 54 10000 2.06 140 14:50 06.04.2021
616 Clear -3 1033 54 10000 2.06 140 14:31 06.04.2021
617 Clear -3 1033 59 10000 2.06 0 13:55 06.04.2021
618 Clear -3 1033 59 10000 2.06 0 13:37 06.04.2021
619 Clear -3 1033 59 10000 2.06 0 13:18 06.04.2021
620 Clear -4 1034 54 10000 3.09 140 12:38 06.04.2021
621 Clear -3 1034 54 10000 3.09 140 12:19 06.04.2021
622 Clear -4 1034 58 10000 3.6 130 11:45 06.04.2021
623 Clear -5 1034 58 10000 3.6 130 11:20 06.04.2021
624 Clear -5 1034 63 10000 3.09 120 10:45 06.04.2021
625 Clear -5 1034 63 10000 3.09 120 10:22 06.04.2021
626 Clear -6 1034 68 10000 2.57 130 09:47 06.04.2021
627 Clear -6 1034 68 10000 2.57 130 09:26 06.04.2021
628 Clear -6 1034 73 10000 4.12 120 08:34 06.04.2021
629 Clear -5 1034 79 10000 1.03 0 07:33 06.04.2021
630 Clouds -5 1034 80 10000 2.06 130 06:55 06.04.2021
631 Clouds -5 1034 80 10000 1.54 90 04:53 06.04.2021
632 Snow -4 1033 80 10000 5.66 70 01:34 06.04.2021
633 Clouds -4 1033 80 10000 5.66 80 00:42 06.04.2021
634 Snow -4 1033 80 10000 5.66 80 00:20 06.04.2021
635 Snow -4 1033 80 10000 4.12 70 23:42 05.04.2021
636 Snow -4 1033 80 10000 4.12 70 23:18 05.04.2021
637 Snow -4 1034 80 10000 5.14 90 22:41 05.04.2021
638 Snow -4 1034 80 10000 5.14 90 22:22 05.04.2021
639 Snow -5 1034 80 10000 4.63 90 21:39 05.04.2021
640 Snow -5 1034 80 10000 4.63 90 21:20 05.04.2021
641 Snow -5 1035 80 10000 5.14 110 20:42 05.04.2021
642 Snow -5 1035 80 10000 5.14 110 20:23 05.04.2021
643 Snow -5 1035 80 2900 3.09 120 19:39 05.04.2021
644 Snow -5 1035 80 2900 3.09 120 19:19 05.04.2021
645 Snow -5 1035 80 2900 3.09 120 19:19 05.04.2021
646 Snow -5 1036 80 3500 3.09 120 18:42 05.04.2021
647 Snow -5 1036 63 8000 0.51 0 18:23 05.04.2021
648 Snow -5 1037 58 10000 2.57 340 17:47 05.04.2021
649 Snow -5 1037 58 10000 2.57 340 17:24 05.04.2021
650 Snow -5 1038 54 10000 1.54 0 16:57 05.04.2021
651 Snow -5 1038 54 10000 1.54 0 16:38 05.04.2021
652 Snow -5 1038 54 10000 1.54 0 16:18 05.04.2021
653 Clear -5 1038 50 10000 2.06 360 15:47 05.04.2021
654 Clear -5 1038 50 10000 2.06 360 15:22 05.04.2021
655 Clear -5 1039 53 10000 4.12 20 14:36 05.04.2021
656 Clear -6 1039 58 10000 4.12 10 13:56 05.04.2021
657 Clear -6 1039 58 10000 4.12 10 13:31 05.04.2021
658 Clouds -6 1039 53 10000 5.14 360 12:47 05.04.2021
659 Clouds -6 1039 53 10000 5.14 360 12:26 05.04.2021
660 Clouds -7 1039 58 10000 6.17 360 11:53 05.04.2021
661 Clouds -7 1039 58 10000 6.17 360 11:31 05.04.2021
662 Clouds -7 1039 62 10000 2.57 160 10:57 05.04.2021
663 Clouds -8 1039 62 10000 2.57 160 10:36 05.04.2021
664 Clear -8 1039 67 10000 3.09 140 09:49 05.04.2021
665 Clear -9 1039 67 10000 3.09 140 09:26 05.04.2021
666 Clear -9 1039 67 10000 2.06 340 08:59 05.04.2021
667 Clear -9 1039 67 10000 2.06 340 08:37 05.04.2021
668 Clear -9 1039 67 10000 2.06 340 08:19 05.04.2021
669 Clear -8 1040 58 10000 6.69 10 07:33 05.04.2021
670 Clouds -9 1041 67 10000 6.17 10 03:58 05.04.2021
671 Clouds -9 1040 57 10000 7.72 10 01:34 05.04.2021
672 Clouds -9 1040 57 10000 7.2 10 00:20 05.04.2021
673 Clouds -9 1039 62 10000 6.17 360 23:37 04.04.2021
674 Clouds -9 1039 62 10000 6.17 360 23:18 04.04.2021
675 Clouds -8 1039 57 10000 5.66 10 22:45 04.04.2021
676 Clouds -8 1039 57 10000 5.66 10 22:26 04.04.2021
677 Clouds -8 1038 49 10000 6.69 10 21:23 04.04.2021
678 Clouds -8 1036 58 10000 7.72 10 20:47 04.04.2021
679 Clouds -8 1036 58 10000 7.72 10 20:23 04.04.2021
680 Snow -7 1035 63 10000 9.26 20 19:41 04.04.2021
681 Snow -7 1035 63 10000 9.26 20 19:20 04.04.2021
682 Clouds -7 1033 45 10000 8.75 10 18:56 04.04.2021
683 Clouds -7 1033 45 10000 8.75 10 18:36 04.04.2021
684 Clouds -7 1033 45 10000 8.75 10 18:18 04.04.2021
685 Clouds -6 1031 53 10000 11.83 20 17:25 04.04.2021
686 Clouds -6 1029 68 10000 13.89 20 16:58 04.04.2021
687 Clouds -6 1029 68 10000 13.89 20 16:40 04.04.2021
688 Clouds -6 1026 68 10000 12.35 20 15:56 04.04.2021
689 Clouds -6 1026 68 10000 12.35 20 15:32 04.04.2021
690 Snow -6 1024 79 7000 9.26 360 14:42 04.04.2021
691 Clouds -6 1024 79 7000 9.26 360 14:24 04.04.2021
692 Clouds -4 1023 59 10000 12.35 310 13:28 04.04.2021
693 Snow -5 1023 63 10000 13.38 310 12:53 04.04.2021
694 Clouds -5 1023 63 10000 13.38 310 12:32 04.04.2021
695 Snow -5 1023 63 10000 13.89 310 11:52 04.04.2021
696 Snow -5 1023 63 10000 13.89 310 11:31 04.04.2021
697 Clouds -4 1021 59 10000 10.8 310 10:56 04.04.2021
698 Clouds -4 1021 59 10000 10.8 310 10:32 04.04.2021
699 Snow -5 1021 86 3000 5.14 320 09:52 04.04.2021
700 Snow -5 1021 86 3000 5.14 320 09:24 04.04.2021
701 Snow -4 1020 68 10000 6.69 350 08:51 04.04.2021
702 Clouds -4 1020 68 10000 6.69 350 08:33 04.04.2021
703 Clouds -3 1019 59 10000 10.29 320 07:24 04.04.2021
704 Snow -3 1018 93 6000 7.2 310 06:36 04.04.2021
705 Snow -2 1016 74 10000 7.2 340 04:56 04.04.2021
706 Clouds 2 1012 70 10000 10.29 290 01:28 04.04.2021
707 Clouds 3 1012 87 10000 10.8 300 00:19 04.04.2021
708 Clouds 3 1011 93 10000 6.69 290 23:47 03.04.2021
709 Clouds 4 1011 93 10000 6.69 290 23:23 03.04.2021
710 Clouds 4 1011 93 10000 6.69 260 22:50 03.04.2021
711 Clouds 5 1011 93 10000 6.69 260 22:21 03.04.2021
712 Clouds 5 1011 93 3500 8.75 240 21:47 03.04.2021
713 Clouds 5 1011 93 3500 8.75 240 21:24 03.04.2021
714 Rain 5 1012 93 6000 10.29 230 20:51 03.04.2021
715 Rain 5 1012 93 6000 10.29 230 20:28 03.04.2021
716 Rain 5 1014 93 5000 10.8 220 19:51 03.04.2021
717 Rain 5 1014 93 5000 10.8 220 19:25 03.04.2021
718 Rain 5 1015 81 10000 11.32 220 18:52 03.04.2021
719 Rain 5 1015 81 10000 11.32 220 18:32 03.04.2021
720 Drizzle 5 1017 81 10000 11.83 230 17:55 03.04.2021
721 Drizzle 6 1017 81 10000 11.83 230 17:26 03.04.2021
722 Clouds 6 1018 81 10000 12.35 230 16:52 03.04.2021
723 Clouds 6 1018 81 10000 12.35 230 16:25 03.04.2021
724 Clouds 6 1020 81 10000 10.8 220 15:51 03.04.2021
725 Clouds 6 1020 81 10000 10.8 220 15:30 03.04.2021
726 Clouds 6 1020 81 10000 10.8 220 15:30 03.04.2021
727 Drizzle 6 1022 81 10000 9.77 220 14:45 03.04.2021
728 Drizzle 6 1022 81 10000 9.77 220 14:25 03.04.2021
729 Clouds 5 1023 93 8000 9.77 230 13:54 03.04.2021
730 Clouds 5 1023 93 8000 9.77 230 13:29 03.04.2021
731 Clouds 6 1023 87 5000 8.75 230 12:58 03.04.2021
732 Clouds 6 1023 87 5000 8.75 230 12:33 03.04.2021
733 Clouds 5 1025 87 10000 6.69 220 11:41 03.04.2021
734 Clouds 5 1025 87 10000 6.69 220 11:20 03.04.2021
735 Clouds 5 1026 81 10000 7.72 210 10:45 03.04.2021
736 Clouds 5 1026 81 10000 7.72 210 10:26 03.04.2021
737 Clouds 5 1026 87 10000 5.66 210 09:36 03.04.2021
738 Clouds 5 1026 87 10000 5.66 210 09:18 03.04.2021
739 Clouds 5 1027 87 10000 6.17 220 08:35 03.04.2021
740 Clouds 5 1027 87 10000 7.72 210 07:31 03.04.2021
741 Clouds 5 1028 93 7000 6.17 220 06:56 03.04.2021
742 Mist 5 1030 93 8000 5.14 190 03:54 03.04.2021
743 Drizzle 5 1031 93 7000 5.14 210 02:55 03.04.2021
744 Drizzle 4 1031 93 7000 5.14 210 02:30 03.04.2021
745 Clouds 4 1033 87 10000 3.6 170 00:32 03.04.2021
746 Clouds 4 1033 87 10000 4.12 210 23:59 02.04.2021
747 Clouds 4 1033 87 10000 4.12 210 23:38 02.04.2021
748 Clouds 4 1033 87 10000 4.12 210 23:18 02.04.2021
749 Clouds 4 1034 87 10000 3.6 210 22:43 02.04.2021
750 Clouds 4 1034 87 10000 3.6 210 22:24 02.04.2021
751 Drizzle 5 1034 75 10000 5.14 210 21:41 02.04.2021
752 Drizzle 5 1034 75 10000 5.14 210 21:19 02.04.2021
753 Clouds 5 1035 81 10000 3.6 220 20:42 02.04.2021
754 Clouds 5 1035 81 10000 3.6 220 20:20 02.04.2021
755 Clouds 5 1035 75 10000 3.6 240 19:42 02.04.2021
756 Clouds 5 1035 75 10000 3.6 240 19:22 02.04.2021
757 Clouds 6 1036 70 10000 4.12 230 18:48 02.04.2021
758 Clouds 6 1036 70 10000 4.12 230 18:28 02.04.2021
759 Clouds 5 1036 70 10000 4.12 230 17:56 02.04.2021
760 Clouds 5 1036 70 10000 4.12 230 17:30 02.04.2021
761 Clouds 5 1037 81 10000 3.09 250 16:35 02.04.2021
762 Drizzle 5 1037 75 10000 4.63 240 15:46 02.04.2021
763 Mist 5 1037 75 10000 4.63 240 15:22 02.04.2021
764 Drizzle 5 1037 81 10000 3.6 240 14:33 02.04.2021
765 Clouds 5 1037 75 10000 3.6 240 13:50 02.04.2021
766 Clouds 5 1037 75 10000 3.6 240 13:28 02.04.2021
767 Drizzle 4 1037 81 10000 4.12 230 12:59 02.04.2021
768 Drizzle 4 1037 81 10000 4.12 230 12:37 02.04.2021
769 Drizzle 4 1037 81 10000 4.12 230 12:19 02.04.2021
770 Clouds 4 1037 81 10000 3.09 220 11:44 02.04.2021
771 Clouds 4 1037 81 10000 3.09 220 11:19 02.04.2021
772 Clouds 4 1037 81 10000 3.09 240 10:42 02.04.2021
773 Clouds 4 1037 81 10000 3.09 240 10:23 02.04.2021
774 Clouds 4 1037 75 10000 4.12 240 09:46 02.04.2021
775 Clouds 4 1037 75 10000 4.12 240 09:24 02.04.2021
776 Clouds 3 1036 87 10000 2.57 220 08:46 02.04.2021
777 Clouds 3 1036 87 10000 2.57 220 08:26 02.04.2021
778 Clouds 3 1036 87 10000 2.57 210 07:20 02.04.2021
779 Clouds 3 1036 93 10000 2.57 200 06:34 02.04.2021
780 Clouds 4 1036 81 10000 3.09 260 03:40 02.04.2021
781 Clouds 4 1036 87 10000 2.06 240 01:40 02.04.2021
782 Clouds 4 1036 87 10000 2.57 240 00:43 02.04.2021
783 Clouds 4 1036 87 10000 2.57 240 00:43 02.04.2021
784 Mist 4 1036 93 9000 2.57 230 23:47 01.04.2021
785 Mist 4 1036 93 9000 2.57 230 23:27 01.04.2021
786 Drizzle 4 1035 93 6000 2.57 240 22:41 01.04.2021
787 Mist 4 1035 93 6000 2.57 240 22:18 01.04.2021
788 Drizzle 4 1035 93 9000 4.12 250 21:42 01.04.2021
789 Drizzle 4 1035 93 9000 4.12 250 21:22 01.04.2021
790 Drizzle 5 1034 87 9000 5.14 250 20:41 01.04.2021
791 Drizzle 5 1034 87 9000 5.14 250 20:22 01.04.2021
792 Mist 5 1034 87 4100 4.12 250 19:43 01.04.2021
793 Mist 5 1034 87 4100 4.12 250 19:24 01.04.2021
794 Drizzle 5 1033 87 9000 4.12 250 18:45 01.04.2021
795 Drizzle 5 1033 87 9000 4.12 250 18:18 01.04.2021
796 Drizzle 5 1032 87 7500 4.63 250 17:45 01.04.2021
797 Drizzle 5 1032 87 7500 4.63 250 17:24 01.04.2021
798 Drizzle 5 1032 87 7500 4.63 250 17:24 01.04.2021
799 Mist 5 1032 87 9000 3.09 250 16:50 01.04.2021
800 Mist 5 1032 87 9000 3.09 250 16:18 01.04.2021
801 Drizzle 5 1032 87 8000 4.12 250 15:40 01.04.2021
802 Drizzle 5 1032 87 8000 4.12 250 15:19 01.04.2021
803 Drizzle 5 1031 87 9000 4.63 250 14:42 01.04.2021
804 Drizzle 5 1031 87 9000 4.63 250 14:23 01.04.2021
805 Mist 5 1031 87 8000 4.12 250 13:52 01.04.2021
806 Mist 5 1031 87 8000 4.12 250 13:30 01.04.2021
807 Drizzle 5 1031 87 4500 5.66 230 12:49 01.04.2021
808 Drizzle 5 1031 87 4500 5.66 230 12:30 01.04.2021
809 Mist 4 1030 93 4500 5.66 240 11:47 01.04.2021
810 Mist 4 1030 93 4500 5.66 240 11:24 01.04.2021
811 Clouds 4 1030 87 6000 6.17 240 10:53 01.04.2021
812 Clouds 4 1030 87 6000 6.17 240 10:35 01.04.2021
813 Drizzle 4 1030 87 5000 7.2 240 09:54 01.04.2021
814 Drizzle 4 1030 87 5000 7.2 240 09:24 01.04.2021
815 Clouds 4 1029 81 10000 6.17 240 08:33 01.04.2021
816 Clouds 4 1029 87 10000 4.63 210 07:57 01.04.2021
817 Clouds 4 1029 87 10000 4.63 210 07:19 01.04.2021
818 Mist 4 1029 93 8000 6.17 220 06:47 01.04.2021
819 Clouds 4 1029 87 10000 5.66 230 03:30 01.04.2021
820 Clouds 4 1030 81 10000 4.63 230 00:59 01.04.2021
821 Clouds 4 1030 81 10000 5.14 230 23:44 31.03.2021
822 Clouds 4 1030 81 10000 5.14 230 23:19 31.03.2021
823 Clouds 4 1031 81 10000 5.14 230 22:41 31.03.2021
824 Clouds 4 1031 81 10000 5.14 230 22:20 31.03.2021
825 Clouds 5 1031 75 10000 4.12 220 21:46 31.03.2021
826 Clouds 5 1031 75 10000 4.12 220 21:23 31.03.2021
827 Clouds 5 1031 70 10000 5.66 230 20:56 31.03.2021
828 Clouds 5 1031 70 10000 5.66 230 20:38 31.03.2021
829 Clouds 5 1031 70 10000 5.66 230 20:18 31.03.2021
830 Clouds 5 1032 70 10000 6.17 230 19:38 31.03.2021
831 Clouds 5 1032 70 10000 6.17 230 19:18 31.03.2021
832 Clouds 5 1031 65 10000 6.69 200 18:49 31.03.2021
833 Clouds 5 1032 70 10000 6.17 230 17:58 31.03.2021
834 Clouds 5 1032 70 10000 6.17 230 17:36 31.03.2021
835 Clouds 5 1032 70 10000 6.17 230 17:18 31.03.2021
836 Clouds 5 1033 70 10000 5.14 230 16:42 31.03.2021
837 Clouds 5 1033 70 10000 5.14 230 16:22 31.03.2021
838 Clouds 5 1034 70 10000 5.66 210 15:50 31.03.2021
839 Clouds 5 1034 70 10000 5.66 210 15:19 31.03.2021
840 Clear 5 1034 65 10000 4.63 200 14:44 31.03.2021
841 Clear 5 1034 65 10000 4.63 200 14:22 31.03.2021
842 Clear 5 1034 65 10000 3.6 190 13:42 31.03.2021
843 Clear 4 1034 65 10000 3.6 190 13:18 31.03.2021
844 Clear 3 1034 75 10000 2.57 180 12:36 31.03.2021
845 Clear 3 1034 75 10000 2.57 180 12:18 31.03.2021
846 Clear 1 1034 75 10000 2.57 130 11:21 31.03.2021
847 Clear 0 1034 80 10000 2.06 150 10:47 31.03.2021
848 Clear 0 1034 80 10000 2.06 150 10:26 31.03.2021
849 Clear -2 1034 86 10000 2.57 130 09:45 31.03.2021
850 Clear -2 1034 86 10000 2.57 130 09:26 31.03.2021
851 Clear -2 1034 86 10000 0.51 0 08:39 31.03.2021
852 Clear -2 1033 80 10000 1.03 0 07:58 31.03.2021
853 Clear -2 1033 86 10000 0.9 292 06:50 31.03.2021
854 Clear -1 1033 86 10000 1.54 120 03:52 31.03.2021
855 Clear -1 1032 86 10000 1.54 200 02:30 31.03.2021
856 Clear 1 1031 69 10000 2.57 320 00:53 31.03.2021
857 Clear 1 1031 69 10000 2.57 320 00:21 31.03.2021
858 Clear 1 1030 65 10000 2.57 340 23:54 30.03.2021
859 Clear 1 1030 65 10000 2.57 340 23:19 30.03.2021
860 Clear 1 1029 60 10000 3.6 340 22:47 30.03.2021
861 Clear 1 1029 60 10000 3.6 340 22:29 30.03.2021
862 Clear 2 1028 56 10000 4.12 340 21:55 30.03.2021
863 Clear 3 1028 56 10000 4.12 340 21:25 30.03.2021
864 Clear 3 1027 52 10000 4.63 330 20:58 30.03.2021
865 Clear 4 1027 52 10000 4.63 330 20:30 30.03.2021
866 Clear 4 1026 41 10000 5.14 330 19:55 30.03.2021
867 Clear 4 1026 41 10000 5.14 330 19:36 30.03.2021
868 Clear 4 1025 41 10000 4.12 350 18:47 30.03.2021
869 Clear 4 1025 41 10000 4.12 350 18:24 30.03.2021
870 Clear 4 1024 45 10000 4.63 350 17:45 30.03.2021
871 Clear 4 1024 45 10000 4.63 350 17:26 30.03.2021
872 Clear 5 1023 36 10000 1.54 50 16:46 30.03.2021
873 Clear 4 1023 36 10000 1.54 50 16:25 30.03.2021
874 Clear 4 1023 38 10000 3.6 360 15:36 30.03.2021
875 Clear 4 1023 38 10000 3.6 360 15:18 30.03.2021
876 Clear 3 1022 44 10000 3.6 30 14:43 30.03.2021
877 Clear 3 1022 44 10000 3.6 30 14:19 30.03.2021
878 Clear 1 1020 51 10000 5.14 10 13:44 30.03.2021
879 Clear 0 1019 55 10000 1.54 0 12:58 30.03.2021
880 Clear 0 1019 55 10000 1.54 0 12:39 30.03.2021
881 Clear 0 1019 55 10000 1.54 0 12:20 30.03.2021
882 Clear -1 1018 59 10000 1.03 0 11:40 30.03.2021
883 Clear -2 1018 59 10000 1.03 0 11:18 30.03.2021
884 Clear -3 1016 68 10000 2.57 110 10:40 30.03.2021
885 Clear -3 1016 68 10000 2.57 110 10:18 30.03.2021
886 Clear -4 1015 74 10000 0.51 0 09:38 30.03.2021
887 Clear -4 1015 74 10000 0.51 0 09:20 30.03.2021
888 Clear -4 1014 74 10000 1.03 0 08:40 30.03.2021
889 Clear -3 1013 68 10000 2.06 70 07:53 30.03.2021
890 Clear -4 1013 68 10000 2.06 70 07:23 30.03.2021
891 Clear -3 1011 68 10000 1.03 0 06:19 30.03.2021
892 Clear -4 1010 74 10000 2.06 140 05:24 30.03.2021
893 Clear -3 1007 68 10000 3.09 140 01:29 30.03.2021
894 Clear -2 1005 64 10000 2.06 160 23:52 29.03.2021
895 Clear -2 1005 64 10000 2.06 160 23:18 29.03.2021
896 Clear -1 1004 55 10000 1.03 0 22:35 29.03.2021
897 Clear 0 1003 47 10000 3.6 10 21:55 29.03.2021
898 Clear 0 1003 47 10000 3.6 10 21:33 29.03.2021
899 Clear 0 1002 51 10000 1.54 0 20:50 29.03.2021
900 Clear 0 1002 51 10000 1.54 0 20:29 29.03.2021
901 Clouds 0 1001 59 10000 6.69 30 19:52 29.03.2021
902 Clouds 0 1001 59 10000 6.69 30 19:27 29.03.2021
903 Clouds 0 1000 64 10000 6.69 20 18:51 29.03.2021
904 Clouds 0 1000 64 10000 6.69 20 18:27 29.03.2021
905 Clouds 0 1000 64 10000 7.72 20 17:55 29.03.2021
906 Clouds 0 1000 64 10000 7.72 20 17:35 29.03.2021
907 Clouds 0 998 69 10000 7.72 20 16:53 29.03.2021
908 Clouds 0 998 69 10000 7.72 20 16:26 29.03.2021
909 Clouds 0 997 64 10000 8.23 10 15:41 29.03.2021
910 Clouds 0 997 64 10000 8.23 10 15:22 29.03.2021
911 Clouds 0 996 64 10000 6.17 360 14:48 29.03.2021
912 Clouds 0 996 64 10000 6.17 360 14:21 29.03.2021
913 Clouds 0 994 69 10000 8.75 340 13:40 29.03.2021
914 Clouds 0 994 69 10000 8.75 340 13:18 29.03.2021
915 Clouds -1 992 74 10000 5.66 360 12:49 29.03.2021
916 Clouds -1 991 74 10000 6.69 350 11:48 29.03.2021
917 Clouds -2 991 74 10000 6.69 350 11:28 29.03.2021
918 Clouds -2 989 69 10000 8.23 360 10:49 29.03.2021
919 Clouds -2 989 69 10000 8.23 360 10:23 29.03.2021
920 Clouds -2 987 80 10000 10.8 350 09:33 29.03.2021
921 Clouds -2 985 80 10000 8.75 340 08:43 29.03.2021
922 Clouds -2 985 80 10000 8.75 340 08:25 29.03.2021
923 Clouds -3 984 80 10000 8.75 340 07:21 29.03.2021
924 Clouds -2 982 74 10000 8.23 350 06:25 29.03.2021
925 Clouds -3 978 74 10000 4.63 10 03:25 29.03.2021
926 Mist -2 975 86 3000 5.14 340 00:46 29.03.2021
927 Snow -2 975 86 3000 5.14 340 00:18 29.03.2021
928 Snow -2 975 86 8000 5.66 340 23:30 28.03.2021
929 Snow -1 974 80 10000 5.14 340 22:53 28.03.2021
930 Snow -1 974 80 10000 5.14 340 22:35 28.03.2021
931 Snow 0 974 75 10000 4.12 330 21:57 28.03.2021
932 Snow 0 974 75 10000 4.12 330 21:38 28.03.2021
933 Clouds 0 974 75 10000 4.12 330 21:18 28.03.2021
934 Snow 0 973 93 10000 1.03 0 20:42 28.03.2021
935 Snow 0 973 93 10000 1.03 0 20:24 28.03.2021
936 Snow 1 973 75 10000 3.09 270 19:42 28.03.2021
937 Snow 1 973 75 10000 3.09 270 19:22 28.03.2021
938 Snow 1 973 75 10000 3.09 260 18:53 28.03.2021
939 Snow 1 973 75 10000 3.09 260 18:25 28.03.2021
940 Snow 2 973 69 10000 3.09 240 17:46 28.03.2021
941 Snow 2 973 69 10000 3.09 240 17:23 28.03.2021
942 Clouds 2 973 64 10000 1.54 140 16:45 28.03.2021
943 Snow 2 973 64 10000 1.54 140 16:23 28.03.2021
944 Snow 1 972 69 10000 3.6 110 15:25 28.03.2021
945 Snow 1 972 75 10000 4.12 60 14:50 28.03.2021
946 Snow 1 972 75 10000 4.12 60 14:30 28.03.2021
947 Snow 0 972 80 10000 3.09 70 13:39 28.03.2021
948 Clouds 0 972 80 10000 3.09 70 13:19 28.03.2021
949 Clouds 0 971 86 10000 4.63 90 12:43 28.03.2021
950 Clouds 0 971 86 10000 4.63 90 12:43 28.03.2021
951 Clouds 0 971 86 10000 4.63 90 12:25 28.03.2021
952 Clouds -1 971 86 10000 2.57 130 11:40 28.03.2021
953 Clouds -1 971 86 10000 2.57 130 11:18 28.03.2021
954 Clouds -1 971 80 10000 3.6 150 10:43 28.03.2021
955 Clouds -2 971 80 10000 3.6 150 10:21 28.03.2021
956 Clouds -1 971 80 10000 3.09 140 09:44 28.03.2021
957 Snow -1 971 80 10000 3.09 140 09:23 28.03.2021
958 Clouds 0 970 80 10000 2.06 110 08:42 28.03.2021
959 Snow 0 970 86 10000 3.6 120 07:45 28.03.2021
960 Snow 0 969 93 6000 3.6 140 06:23 28.03.2021
961 Snow 0 967 86 6000 8.75 100 03:51 28.03.2021
962 Snow 0 966 93 1500 13.38 90 00:49 28.03.2021
963 Snow 0 965 86 3500 13.38 90 00:19 28.03.2021
964 Snow 0 965 69 5000 13.38 80 23:39 27.03.2021
965 Snow 1 965 75 10000 11.32 90 22:54 27.03.2021
966 Snow 1 965 75 10000 11.32 90 22:36 27.03.2021
967 Snow -1 966 69 4000 13.89 80 21:48 27.03.2021
968 Snow -1 966 69 4000 13.89 80 21:22 27.03.2021
969 Snow -1 968 64 6000 15.43 70 20:59 27.03.2021
970 Snow 0 968 64 6000 15.43 70 20:38 27.03.2021
971 Snow 0 968 64 6000 15.43 70 20:19 27.03.2021
972 Snow 0 970 69 6000 13.89 70 19:42 27.03.2021
973 Snow 0 970 69 6000 13.89 70 19:23 27.03.2021
974 Snow -1 974 69 10000 13.38 70 18:48 27.03.2021
975 Clouds -1 974 69 10000 13.38 70 18:27 27.03.2021
976 Clear -2 977 59 10000 11.83 70 17:45 27.03.2021
977 Clear -2 977 59 10000 11.83 70 17:23 27.03.2021
978 Clear -2 980 46 10000 12.35 70 16:48 27.03.2021
979 Clear -2 980 46 10000 12.35 70 16:28 27.03.2021
980 Clear -3 982 50 10000 11.32 70 15:46 27.03.2021
981 Clear -2 982 50 10000 11.32 70 15:21 27.03.2021
982 Clouds -3 985 46 10000 8.75 80 14:45 27.03.2021
983 Clouds -3 986 39 10000 9.77 70 13:42 27.03.2021
984 Clouds -3 986 39 10000 9.77 70 13:21 27.03.2021
985 Clouds -4 988 42 10000 6.17 70 12:50 27.03.2021
986 Clear -5 989 49 10000 8.75 70 11:59 27.03.2021
987 Clear -5 989 49 10000 8.75 70 11:39 27.03.2021
988 Clear -5 989 49 10000 8.75 70 11:19 27.03.2021
989 Clear -6 990 49 10000 9.26 80 10:42 27.03.2021
990 Clear -6 990 49 10000 9.26 80 10:22 27.03.2021
991 Clear -8 991 57 10000 8.75 70 09:28 27.03.2021
992 Clear -9 992 57 10000 8.23 70 08:42 27.03.2021
993 Clear -10 992 57 10000 8.23 70 08:20 27.03.2021
994 Clear -9 992 53 10000 7.72 80 07:32 27.03.2021
995 Clear -9 993 57 10000 6.17 80 06:43 27.03.2021
996 Clear -11 993 62 10000 4.12 60 04:57 27.03.2021
997 Clear -10 993 62 10000 4.12 60 04:39 27.03.2021
998 Clear -9 993 67 10000 2.57 90 00:48 27.03.2021
999 Clear -9 993 67 10000 2.57 90 00:27 27.03.2021
1000 Clear -8 993 63 10000 3.6 80 23:48 26.03.2021
1001 Clear -8 993 63 10000 4.12 60 22:53 26.03.2021
1002 Clear -8 993 63 10000 4.12 60 22:34 26.03.2021
1003 Clouds -7 992 63 10000 4.63 30 21:25 26.03.2021
1004 Clouds -7 992 58 10000 5.14 20 20:59 26.03.2021
1005 Clouds -7 992 58 10000 5.14 20 20:32 26.03.2021
1006 Clouds -6 991 63 10000 5.66 10 19:56 26.03.2021
1007 Clouds -6 991 63 10000 5.66 10 19:37 26.03.2021
1008 Clouds -6 991 63 10000 5.66 10 19:18 26.03.2021
1009 Clouds -5 990 63 10000 7.2 20 18:41 26.03.2021
1010 Clouds -5 990 63 10000 7.2 20 18:19 26.03.2021
1011 Clouds -5 989 63 10000 6.69 20 17:45 26.03.2021
1012 Clouds -5 988 63 10000 6.17 20 16:54 26.03.2021
1013 Clouds -5 988 63 10000 6.17 20 16:32 26.03.2021
1014 Clouds -5 988 74 10000 6.69 20 15:51 26.03.2021
1015 Clouds -5 987 68 10000 9.77 350 14:58 26.03.2021
1016 Snow -5 987 68 10000 9.77 350 14:24 26.03.2021
1017 Snow -6 986 86 8000 8.23 360 13:34 26.03.2021
1018 Snow -6 986 86 1900 7.72 350 12:49 26.03.2021
1019 Snow -6 985 93 1900 7.72 360 11:58 26.03.2021
1020 Snow -6 985 93 1900 7.72 360 11:34 26.03.2021
1021 Snow -5 985 93 1800 7.72 360 10:52 26.03.2021
1022 Snow -5 984 80 4900 8.23 350 10:33 26.03.2021
1023 Snow -5 984 80 8000 10.29 350 09:42 26.03.2021
1024 Snow -5 984 80 8000 10.29 350 09:19 26.03.2021
1025 Snow -5 983 74 10000 9.26 350 08:38 26.03.2021
1026 Snow -5 983 74 10000 9.26 350 08:20 26.03.2021
1027 Snow -5 982 80 9000 11.83 360 07:23 26.03.2021
1028 Snow -5 981 80 10000 13.38 10 06:58 26.03.2021
1029 Snow -5 981 80 10000 13.38 10 06:30 26.03.2021
1030 Clouds -5 981 80 10000 14.4 20 05:26 26.03.2021
1031 Snow -4 980 93 5000 13.89 10 01:58 26.03.2021
1032 Snow -3 980 86 10000 11.83 10 00:27 26.03.2021
1033 Snow -3 980 80 9000 11.83 10 23:44 25.03.2021
1034 Snow -3 980 86 9000 11.32 10 22:57 25.03.2021
1035 Snow -3 980 86 9000 11.32 10 22:30 25.03.2021
1036 Snow -3 980 80 10000 11.83 10 21:53 25.03.2021
1037 Snow -3 980 80 10000 11.83 10 21:33 25.03.2021
1038 Snow -3 980 80 10000 12.86 20 20:45 25.03.2021
1039 Snow -3 980 80 10000 12.86 20 20:25 25.03.2021
1040 Snow -2 980 74 10000 10.8 10 19:46 25.03.2021
1041 Snow -2 980 74 10000 10.8 10 19:27 25.03.2021
1042 Clouds -2 980 74 10000 9.77 20 18:49 25.03.2021
1043 Clouds -2 980 74 10000 9.77 20 18:27 25.03.2021
1044 Clouds -1 979 69 10000 8.23 20 17:55 25.03.2021
1045 Clouds -1 979 69 10000 8.23 20 17:36 25.03.2021
1046 Clouds -1 980 64 10000 5.66 20 16:55 25.03.2021
1047 Clouds -1 980 64 10000 5.66 20 16:32 25.03.2021
1048 Clear 0 980 64 10000 6.69 10 15:46 25.03.2021
1049 Clear 0 980 64 10000 6.69 10 15:23 25.03.2021
1050 Clear 0 981 55 10000 2.06 320 14:48 25.03.2021
1051 Clear -1 981 55 10000 2.06 320 14:18 25.03.2021
1052 Clear 0 982 59 10000 1.54 340 13:24 25.03.2021
1053 Clear -1 983 74 10000 2.06 340 12:46 25.03.2021
1054 Clear -1 983 74 10000 2.06 340 12:22 25.03.2021
1055 Clear -1 984 80 10000 2.57 80 11:53 25.03.2021
1056 Clear -1 984 80 10000 2.57 80 11:53 25.03.2021
1057 Clear -1 984 80 10000 2.57 80 11:31 25.03.2021
1058 Clouds -1 984 86 10000 2.06 70 10:57 25.03.2021
1059 Clouds -2 984 86 10000 2.06 70 10:39 25.03.2021
1060 Clouds -2 984 86 10000 2.06 70 10:18 25.03.2021
1061 Clouds -3 985 93 10000 1.54 90 09:43 25.03.2021
1062 Clouds -3 986 93 10000 1.54 80 08:59 25.03.2021
1063 Clouds -3 986 93 10000 1.54 80 08:30 25.03.2021
1064 Clouds -2 986 93 10000 3.09 40 07:26 25.03.2021
1065 Clouds -3 987 93 10000 3.09 50 06:42 25.03.2021
1066 Clouds -2 987 93 10000 3.09 50 06:22 25.03.2021
1067 Clouds -2 988 93 10000 1.03 100 04:50 25.03.2021
1068 Clouds -2 989 100 10000 2.06 330 01:20 25.03.2021
1069 Snow -1 990 93 6000 4.63 300 00:19 25.03.2021
1070 Snow -1 990 93 10000 0.51 0 23:39 24.03.2021
1071 Clouds -1 990 93 10000 0.51 0 23:18 24.03.2021
1072 Snow 0 990 93 4000 3.09 240 22:39 24.03.2021
1073 Snow 0 990 86 9000 4.63 220 21:51 24.03.2021
1074 Snow 0 990 86 9000 4.63 220 21:51 24.03.2021
1075 Snow 0 990 86 9000 4.63 220 21:32 24.03.2021
1076 Snow 1 989 64 10000 6.17 300 20:59 24.03.2021
1077 Snow 1 989 64 10000 6.17 300 20:41 24.03.2021
1078 Snow 1 989 64 10000 6.17 300 20:18 24.03.2021
1079 Clouds 1 988 75 10000 6.17 260 19:33 24.03.2021
1080 Clouds 1 988 75 10000 6.17 260 19:33 24.03.2021
1081 Snow 1 988 80 10000 10.29 220 18:53 24.03.2021
1082 Snow 1 988 80 10000 10.29 220 18:24 24.03.2021
1083 Clouds 2 988 52 10000 10.29 230 17:53 24.03.2021
1084 Clouds 2 988 52 10000 10.29 230 17:32 24.03.2021
1085 Clouds 2 988 64 10000 8.75 250 16:57 24.03.2021
1086 Clouds 2 988 64 10000 8.75 250 16:39 24.03.2021
1087 Snow 2 988 64 10000 8.75 250 16:19 24.03.2021
1088 Clouds 2 988 60 10000 6.17 230 15:37 24.03.2021
1089 Clouds 2 988 60 10000 6.17 230 15:18 24.03.2021
1090 Snow 1 988 86 10000 5.66 200 14:29 24.03.2021
1091 Snow 1 988 93 10000 6.69 240 13:58 24.03.2021
1092 Snow 1 988 93 10000 6.69 240 13:28 24.03.2021
1093 Snow 1 988 93 10000 6.69 240 13:28 24.03.2021
1094 Snow 0 988 86 1500 7.72 250 12:51 24.03.2021
1095 Snow 1 988 80 10000 4.12 180 12:30 24.03.2021
1096 Snow 1 988 80 10000 4.12 170 11:57 24.03.2021
1097 Snow 1 988 80 10000 4.12 170 11:39 24.03.2021
1098 Snow 0 987 86 10000 3.09 160 10:49 24.03.2021
1099 Snow -1 987 86 10000 3.09 160 10:31 24.03.2021
1100 Clouds 0 987 86 10000 4.63 190 09:55 24.03.2021
1101 Clouds 0 987 86 10000 4.63 190 09:31 24.03.2021
1102 Snow 0 987 93 10000 4.63 230 08:57 24.03.2021
1103 Snow 0 987 93 10000 4.63 230 08:38 24.03.2021
1104 Clouds -1 986 86 10000 2.57 190 07:49 24.03.2021
1105 Snow -1 986 86 10000 2.57 190 07:19 24.03.2021
1106 Snow -1 985 80 10000 2.57 130 06:43 24.03.2021
1107 Snow -2 985 86 10000 2.06 130 02:18 24.03.2021
1108 Clouds -1 984 86 10000 3.09 170 00:42 24.03.2021
1109 Clouds -1 984 86 10000 2.57 180 23:52 23.03.2021
1110 Clouds -1 984 86 10000 2.57 180 23:19 23.03.2021
1111 Clouds 0 984 86 10000 4.12 200 22:50 23.03.2021
1112 Clouds 0 984 86 10000 4.12 200 22:24 23.03.2021
1113 Clouds 0 984 75 10000 5.66 200 21:45 23.03.2021
1114 Snow 0 984 75 10000 5.66 200 21:26 23.03.2021
1115 Snow 1 983 75 10000 4.63 200 20:46 23.03.2021
1116 Snow 1 983 75 10000 4.63 200 20:25 23.03.2021
1117 Snow 1 983 69 10000 2.57 150 19:48 23.03.2021
1118 Snow 2 983 69 10000 2.57 150 19:26 23.03.2021
1119 Snow 2 983 75 10000 2.57 160 18:46 23.03.2021
1120 Snow 2 983 75 10000 2.57 160 18:22 23.03.2021
1121 Clouds 1 984 86 10000 2.06 150 17:48 23.03.2021
1122 Snow 1 984 86 10000 2.06 150 17:23 23.03.2021
1123 Snow 0 984 93 1200 5.14 200 16:42 23.03.2021
1124 Snow 0 985 86 8000 3.09 270 16:24 23.03.2021
1125 Clouds 1 985 87 10000 1.54 190 15:46 23.03.2021
1126 Clouds 1 986 93 10000 2.57 300 14:57 23.03.2021
1127 Clouds 1 986 93 10000 2.57 300 14:39 23.03.2021
1128 Clouds 1 986 93 10000 2.57 300 14:18 23.03.2021
1129 Clouds 2 986 86 2200 3.6 310 13:43 23.03.2021
1130 Rain 2 986 80 10000 1.54 280 13:21 23.03.2021
1131 Clouds 2 986 80 10000 3.6 190 12:43 23.03.2021
1132 Snow 1 986 80 10000 3.6 190 12:21 23.03.2021
1133 Snow 1 986 80 10000 3.6 190 12:21 23.03.2021
1134 Clouds 1 987 80 10000 3.6 160 11:47 23.03.2021
1135 Clouds 0 987 86 10000 3.6 160 10:46 23.03.2021
1136 Snow 0 987 86 10000 3.6 160 10:26 23.03.2021
1137 Snow 0 987 86 10000 7.2 200 09:59 23.03.2021
1138 Snow 0 987 86 10000 7.2 200 09:39 23.03.2021
1139 Snow 0 987 86 10000 7.2 200 09:20 23.03.2021
1140 Snow 0 987 80 10000 7.72 190 08:40 23.03.2021
1141 Snow 0 987 80 10000 7.72 190 08:22 23.03.2021
1142 Clouds 1 988 86 10000 5.66 200 07:40 23.03.2021
1143 Snow 1 988 86 10000 5.66 200 07:19 23.03.2021
1144 Clouds 1 988 75 10000 6.17 190 06:33 23.03.2021
1145 Snow 1 989 69 10000 10.8 230 03:23 23.03.2021
1146 Clouds 2 989 60 10000 10.8 210 02:20 23.03.2021
1147 Clouds 2 989 69 10000 11.32 210 23:44 22.03.2021
1148 Clouds 2 989 64 10000 11.83 210 22:56 22.03.2021
1149 Clouds 2 989 64 10000 11.83 210 22:38 22.03.2021
1150 Clouds 2 989 64 10000 11.83 210 22:20 22.03.2021
1151 Snow 2 989 69 10000 12.35 200 21:41 22.03.2021
1152 Snow 1 989 69 10000 12.35 200 21:22 22.03.2021
1153 Clouds 2 989 75 10000 14.4 210 20:41 22.03.2021
1154 Clouds 2 989 75 600 13.89 210 20:22 22.03.2021
1155 Snow 2 989 75 10000 13.89 220 19:54 22.03.2021
1156 Snow 2 989 75 10000 13.89 220 19:34 22.03.2021
1157 Snow 2 990 86 10000 13.38 210 18:58 22.03.2021
1158 Snow 2 990 86 10000 13.38 210 18:39 22.03.2021
1159 Snow 1 990 86 10000 13.38 210 18:20 22.03.2021
1160 Snow 1 989 93 10000 11.32 220 17:42 22.03.2021
1161 Snow 1 989 93 10000 11.32 220 17:20 22.03.2021
1162 Clouds 1 990 80 1000 12.86 230 16:45 22.03.2021
1163 Snow 1 990 80 1000 12.86 230 16:20 22.03.2021
1164 Clouds 2 990 69 500 12.86 230 15:38 22.03.2021
1165 Snow 2 989 86 8000 13.38 230 15:19 22.03.2021
1166 Snow 2 990 80 10000 13.38 220 14:53 22.03.2021
1167 Clouds 1 990 80 10000 13.38 220 14:34 22.03.2021
1168 Rain 2 989 65 10000 13.89 210 13:48 22.03.2021
1169 Clouds 3 989 65 10000 13.89 210 13:27 22.03.2021
1170 Clouds 2 990 80 10000 14.4 220 12:55 22.03.2021
1171 Snow 1 990 80 10000 14.4 220 12:26 22.03.2021
1172 Clouds 2 989 69 10000 10.29 220 11:49 22.03.2021
1173 Clouds 2 989 69 10000 10.29 220 11:29 22.03.2021
1174 Snow 1 989 80 10000 10.8 230 10:46 22.03.2021
1175 Snow 1 989 80 10000 10.8 230 10:26 22.03.2021
1176 Clouds 1 989 87 10000 7.72 200 09:53 22.03.2021
1177 Clouds 1 989 87 10000 7.72 200 09:32 22.03.2021
1178 Snow 2 988 87 10000 4.63 240 08:47 22.03.2021
1179 Snow 2 988 87 10000 4.63 240 08:28 22.03.2021
1180 Clouds 2 988 87 10000 6.69 250 07:50 22.03.2021
1181 Snow 2 988 87 10000 6.69 250 07:31 22.03.2021
1182 Clouds 2 987 87 10000 6.69 240 06:51 22.03.2021
1183 Clouds 2 987 87 10000 6.69 240 06:51 22.03.2021
1184 Rain 6 989 81 5000 13.38 170 02:47 22.03.2021
1185 Clouds 7 993 76 10000 11.83 180 00:48 22.03.2021
1186 Drizzle 7 995 76 9000 10.29 180 23:59 21.03.2021
1187 Drizzle 7 995 76 9000 10.29 180 23:39 21.03.2021
1188 Drizzle 7 995 76 9000 10.29 180 23:18 21.03.2021
1189 Drizzle 7 996 76 9000 10.8 180 22:43 21.03.2021
1190 Drizzle 7 997 76 9000 10.29 180 21:43 21.03.2021
1191 Drizzle 7 997 76 9000 10.29 180 21:25 21.03.2021
1192 Clouds 7 998 81 6000 10.29 180 20:57 21.03.2021
1193 Clouds 7 998 81 6000 10.29 180 20:38 21.03.2021
1194 Clouds 7 998 81 6000 10.29 180 20:19 21.03.2021
1195 Clouds 7 999 81 9000 11.32 180 19:46 21.03.2021
1196 Clouds 7 999 81 9000 11.32 180 19:20 21.03.2021
1197 Drizzle 6 1001 87 4000 10.29 180 18:41 21.03.2021
1198 Mist 6 1001 87 4000 10.29 180 18:18 21.03.2021
1199 Drizzle 7 1001 81 6000 10.8 180 17:42 21.03.2021
1200 Drizzle 7 1001 81 6000 10.8 180 17:18 21.03.2021
1201 Drizzle 7 1001 81 6000 10.8 180 17:18 21.03.2021
1202 Clouds 7 1003 81 7000 10.8 180 16:50 21.03.2021
1203 Clouds 7 1003 81 7000 10.8 180 16:26 21.03.2021
1204 Clouds 6 1004 81 10000 11.32 200 15:48 21.03.2021
1205 Clouds 6 1004 81 10000 11.32 200 15:22 21.03.2021
1206 Clouds 7 1004 76 10000 11.83 200 14:56 21.03.2021
1207 Clouds 7 1004 76 10000 11.83 200 14:38 21.03.2021
1208 Clouds 7 1004 76 10000 11.83 200 14:19 21.03.2021
1209 Clouds 7 1004 76 10000 12.35 200 13:51 21.03.2021
1210 Clouds 7 1005 81 10000 10.29 190 12:45 21.03.2021
1211 Clouds 8 1005 81 10000 10.29 190 12:25 21.03.2021
1212 Drizzle 7 1006 87 5000 10.29 190 11:44 21.03.2021
1213 Drizzle 7 1006 87 5000 10.29 190 11:26 21.03.2021
1214 Clouds 7 1007 87 6000 10.8 190 10:50 21.03.2021
1215 Clouds 7 1007 87 6000 10.8 190 10:32 21.03.2021
1216 Clouds 7 1007 93 6000 9.77 190 09:55 21.03.2021
1217 Clouds 7 1007 93 6000 9.77 190 09:37 21.03.2021
1218 Rain 7 1007 93 6000 9.77 190 09:18 21.03.2021
1219 Rain 6 1009 93 5000 7.72 180 08:37 21.03.2021
1220 Mist 6 1009 93 5000 7.72 180 08:19 21.03.2021
1221 Clouds 6 1010 81 10000 7.72 180 07:29 21.03.2021
1222 Clouds 6 1012 75 10000 7.72 180 06:21 21.03.2021
1223 Clouds 5 1014 75 10000 8.75 190 04:57 21.03.2021
1224 Clouds 5 1018 81 10000 9.77 200 00:58 21.03.2021
1225 Clouds 5 1018 81 10000 9.77 200 00:39 21.03.2021
1226 Clouds 5 1018 81 10000 9.77 200 00:20 21.03.2021
1227 Clouds 5 1019 81 9000 10.29 200 23:46 20.03.2021
1228 Clouds 5 1019 81 9000 10.29 200 23:20 20.03.2021
1229 Drizzle 5 1019 81 9000 9.26 190 22:36 20.03.2021
1230 Drizzle 5 1019 81 9000 9.26 190 22:18 20.03.2021
1231 Rain 5 1020 81 10000 7.2 200 21:42 20.03.2021
1232 Rain 5 1020 81 10000 7.2 200 21:24 20.03.2021
1233 Clouds 5 1021 81 10000 7.72 200 20:42 20.03.2021
1234 Rain 5 1021 81 10000 7.72 200 20:21 20.03.2021
1235 Rain 4 1022 87 10000 6.17 200 19:44 20.03.2021
1236 Clouds 4 1022 87 10000 6.17 200 19:25 20.03.2021
1237 Rain 3 1023 93 9000 6.69 200 18:46 20.03.2021
1238 Rain 3 1023 93 9000 6.69 200 18:24 20.03.2021
1239 Rain 4 1024 87 9000 8.75 220 17:51 20.03.2021
1240 Rain 3 1024 87 9000 8.75 220 17:27 20.03.2021
1241 Rain 4 1024 81 10000 6.17 200 16:44 20.03.2021
1242 Rain 3 1024 81 10000 6.17 200 16:20 20.03.2021
1243 Rain 3 1025 81 10000 6.17 220 15:56 20.03.2021
1244 Rain 3 1025 81 10000 6.17 220 15:38 20.03.2021
1245 Rain 4 1025 81 10000 6.17 220 14:45 20.03.2021
1246 Rain 4 1025 81 10000 6.17 220 14:23 20.03.2021
1247 Clouds 4 1025 81 10000 4.63 220 13:33 20.03.2021
1248 Clouds 4 1025 75 10000 5.14 230 12:51 20.03.2021
1249 Rain 4 1025 75 10000 5.14 230 12:26 20.03.2021
1250 Clouds 4 1025 81 10000 5.14 240 11:46 20.03.2021
1251 Clouds 4 1025 81 10000 5.14 240 11:28 20.03.2021
1252 Clouds 3 1024 75 10000 4.63 260 10:55 20.03.2021
1253 Clouds 3 1024 75 10000 4.63 260 10:28 20.03.2021
1254 Clouds 3 1023 60 10000 5.14 280 09:58 20.03.2021
1255 Clouds 3 1023 60 10000 5.14 280 09:27 20.03.2021
1256 Clouds 3 1023 70 10000 6.69 280 08:57 20.03.2021
1257 Clouds 3 1023 70 10000 6.69 280 08:30 20.03.2021
1258 Clouds 3 1022 65 10000 6.17 270 07:53 20.03.2021
1259 Clouds 3 1022 65 10000 6.17 270 07:32 20.03.2021
1260 Clouds 3 1021 75 10000 7.2 260 06:52 20.03.2021
1261 Clouds 3 1021 75 10000 7.2 260 06:19 20.03.2021
1262 Drizzle 3 1020 70 10000 8.23 250 03:59 20.03.2021
1263 Drizzle 3 1020 70 10000 8.23 250 03:41 20.03.2021
1264 Clouds 3 1018 87 10000 5.14 290 00:18 20.03.2021
1265 Clouds 3 1018 81 10000 5.14 280 23:31 19.03.2021
1266 Clouds 3 1017 87 10000 4.63 290 22:50 19.03.2021
1267 Clouds 3 1017 87 10000 4.63 290 22:29 19.03.2021
1268 Clouds 3 1016 87 10000 4.63 270 21:56 19.03.2021
1269 Clouds 3 1016 87 10000 4.63 270 21:22 19.03.2021
1270 Clouds 4 1016 87 10000 5.66 270 20:59 19.03.2021
1271 Clouds 4 1016 87 10000 5.66 270 20:40 19.03.2021
1272 Clouds 4 1016 87 10000 5.66 270 20:21 19.03.2021
1273 Clouds 6 1014 81 10000 8.23 220 19:46 19.03.2021
1274 Clouds 6 1014 81 10000 8.23 220 19:20 19.03.2021
1275 Clouds 6 1014 81 10000 9.77 220 18:40 19.03.2021
1276 Clouds 7 1014 81 10000 9.77 220 18:20 19.03.2021
1277 Clouds 7 1015 76 10000 10.8 210 17:55 19.03.2021
1278 Clouds 8 1015 76 10000 10.8 210 17:30 19.03.2021
1279 Clouds 8 1015 81 10000 11.32 200 16:55 19.03.2021
1280 Clouds 7 1015 81 10000 11.32 200 16:29 19.03.2021
1281 Drizzle 8 1015 93 6000 10.29 190 15:55 19.03.2021
1282 Drizzle 8 1015 93 6000 10.29 190 15:26 19.03.2021
1283 Drizzle 8 1016 93 3000 10.8 190 14:47 19.03.2021
1284 Drizzle 8 1016 93 3000 10.8 190 14:27 19.03.2021
1285 Clouds 8 1016 93 10000 10.8 180 13:40 19.03.2021
1286 Rain 8 1017 93 10000 9.26 190 12:57 19.03.2021
1287 Clouds 8 1017 93 10000 9.26 190 12:35 19.03.2021
1288 Rain 8 1018 87 10000 8.75 190 11:48 19.03.2021
1289 Rain 8 1018 87 5000 8.75 180 10:54 19.03.2021
1290 Drizzle 8 1018 87 5000 8.75 180 10:32 19.03.2021
1291 Drizzle 8 1018 87 8000 8.23 190 09:58 19.03.2021
1292 Drizzle 8 1018 87 8000 8.23 190 09:39 19.03.2021
1293 Rain 8 1018 87 8000 8.23 190 09:19 19.03.2021
1294 Clouds 7 1019 93 4200 7.2 190 08:40 19.03.2021
1295 Clouds 7 1019 93 4200 7.2 190 08:21 19.03.2021
1296 Clouds 8 1020 87 10000 7.72 190 07:39 19.03.2021
1297 Clouds 7 1020 93 7000 8.23 200 06:52 19.03.2021
1298 Rain 8 1021 87 6000 7.72 190 03:34 19.03.2021
1299 Rain 8 1023 87 10000 6.69 190 00:58 19.03.2021
1300 Clouds 8 1024 87 10000 5.66 180 23:49 18.03.2021
1301 Clouds 8 1024 87 10000 5.66 180 23:26 18.03.2021
1302 Clouds 8 1024 87 10000 5.14 170 22:41 18.03.2021
1303 Clouds 8 1024 87 10000 5.14 170 22:22 18.03.2021
1304 Rain 8 1025 87 5000 5.14 180 21:39 18.03.2021
1305 Rain 8 1025 93 3400 5.66 180 20:54 18.03.2021
1306 Clouds 8 1025 93 3400 5.66 180 20:35 18.03.2021
1307 Clouds 8 1025 93 5000 5.66 190 19:59 18.03.2021
1308 Clouds 8 1025 93 5000 5.66 190 19:41 18.03.2021
1309 Clouds 8 1025 93 5000 5.66 190 19:21 18.03.2021
1310 Clouds 8 1025 93 2000 6.17 190 18:38 18.03.2021
1311 Rain 8 1026 93 10000 6.17 180 17:51 18.03.2021
1312 Clouds 8 1026 93 10000 6.17 180 17:26 18.03.2021
1313 Clouds 9 1026 87 10000 5.66 190 16:50 18.03.2021
1314 Clouds 9 1026 87 10000 5.66 190 16:31 18.03.2021
1315 Clouds 9 1027 87 10000 6.17 180 15:49 18.03.2021
1316 Clouds 9 1027 87 10000 6.17 180 15:31 18.03.2021
1317 Drizzle 8 1027 93 5000 6.69 190 14:59 18.03.2021
1318 Mist 8 1027 93 5000 6.69 190 14:40 18.03.2021
1319 Clouds 9 1027 87 10000 6.17 180 13:57 18.03.2021
1320 Clouds 9 1027 87 10000 6.17 180 13:27 18.03.2021
1321 Clouds 8 1027 93 10000 7.2 180 12:57 18.03.2021
1322 Clouds 8 1027 93 10000 7.2 180 12:36 18.03.2021
1323 Clouds 8 1027 93 10000 7.2 180 12:36 18.03.2021
1324 Clouds 9 1027 93 10000 7.2 180 12:18 18.03.2021
1325 Clouds 9 1026 81 10000 7.2 180 11:40 18.03.2021
1326 Clouds 9 1026 81 10000 7.72 180 10:57 18.03.2021
1327 Clouds 9 1026 81 10000 7.72 180 10:57 18.03.2021
1328 Clouds 9 1026 81 10000 7.72 180 10:38 18.03.2021
1329 Clouds 9 1026 81 10000 7.72 180 10:20 18.03.2021
1330 Clouds 8 1026 87 10000 8.23 180 09:38 18.03.2021
1331 Clouds 8 1026 87 10000 8.23 180 09:20 18.03.2021
1332 Clouds 9 1027 81 10000 4.12 0 08:43 18.03.2021
1333 Clouds 9 1027 81 10000 4.12 0 08:23 18.03.2021
1334 Clouds 8 1026 81 10000 7.2 120 07:45 18.03.2021
1335 Clouds 8 1027 81 10000 5.14 120 06:43 18.03.2021
1336 Clouds 8 1027 81 10000 5.14 120 06:23 18.03.2021
1337 Clouds 8 1027 81 10000 6.17 120 05:25 18.03.2021
1338 Clouds 7 1027 87 10000 6.17 140 00:40 18.03.2021
1339 Clouds 7 1026 87 10000 5.66 130 23:25 17.03.2021
1340 Clouds 7 1026 81 10000 3.6 120 22:38 17.03.2021
1341 Clouds 7 1026 81 10000 3.6 120 22:20 17.03.2021
1342 Clouds 7 1026 87 10000 4.12 120 21:50 17.03.2021
1343 Clouds 7 1026 87 10000 4.12 120 21:31 17.03.2021
1344 Clouds 7 1026 87 10000 4.12 120 21:31 17.03.2021
1345 Clouds 8 1025 81 10000 5.66 140 20:48 17.03.2021
1346 Clouds 8 1025 81 10000 5.66 140 20:27 17.03.2021
1347 Clouds 8 1025 87 10000 6.69 150 19:59 17.03.2021
1348 Clouds 8 1025 87 10000 6.69 150 19:39 17.03.2021
1349 Clouds 8 1025 87 10000 6.69 150 19:19 17.03.2021
1350 Clouds 9 1025 76 10000 5.14 170 18:49 17.03.2021
1351 Clouds 9 1025 76 10000 5.14 170 18:31 17.03.2021
1352 Clouds 9 1025 81 10000 5.66 170 17:33 17.03.2021
1353 Clouds 9 1024 81 10000 7.2 170 16:59 17.03.2021
1354 Clouds 9 1024 81 10000 7.2 170 16:39 17.03.2021
1355 Clouds 9 1024 81 10000 7.2 170 16:20 17.03.2021
1356 Clouds 9 1024 81 10000 6.69 190 15:45 17.03.2021
1357 Clouds 9 1024 81 10000 6.69 190 15:26 17.03.2021
1358 Clouds 9 1023 87 10000 4.63 180 14:40 17.03.2021
1359 Clouds 9 1023 87 10000 4.63 180 14:19 17.03.2021
1360 Clouds 9 1023 87 10000 4.12 160 13:54 17.03.2021
1361 Clouds 9 1023 87 10000 4.12 160 13:24 17.03.2021
1362 Clouds 8 1023 93 10000 5.14 170 12:43 17.03.2021
1363 Clouds 8 1023 93 10000 5.14 170 12:25 17.03.2021
1364 Clouds 9 1022 87 10000 6.17 180 11:41 17.03.2021
1365 Rain 9 1022 87 10000 6.17 180 11:21 17.03.2021
1366 Rain 9 1021 87 10000 5.66 170 10:52 17.03.2021
1367 Rain 8 1021 87 10000 5.66 170 10:24 17.03.2021
1368 Rain 8 1021 87 10000 5.66 170 09:46 17.03.2021
1369 Rain 8 1021 87 10000 5.66 170 09:20 17.03.2021
1370 Clouds 8 1021 87 10000 5.14 180 08:53 17.03.2021
1371 Clouds 8 1021 87 10000 5.14 180 08:33 17.03.2021
1372 Clouds 8 1020 87 10000 5.14 180 07:46 17.03.2021
1373 Rain 8 1020 87 10000 6.17 170 06:59 17.03.2021
1374 Rain 8 1020 87 10000 6.17 170 06:29 17.03.2021
1375 Clouds 8 1019 87 9000 4.63 160 04:18 17.03.2021
1376 Rain 7 1020 81 10000 5.66 150 02:44 17.03.2021
1377 Rain 6 1020 87 10000 5.66 120 00:39 17.03.2021
1378 Rain 7 1020 81 10000 4.63 150 23:27 16.03.2021
1379 Rain 7 1020 87 9000 6.17 160 22:47 16.03.2021
1380 Rain 7 1020 87 9000 6.17 160 22:28 16.03.2021
1381 Rain 7 1020 87 6000 4.63 160 21:45 16.03.2021
1382 Clouds 6 1020 87 6000 4.63 160 21:27 16.03.2021
1383 Drizzle 6 1020 93 2500 4.12 160 20:58 16.03.2021
1384 Drizzle 6 1020 93 2500 4.12 160 20:20 16.03.2021
1385 Clouds 6 1020 93 3000 3.6 160 19:54 16.03.2021
1386 Clouds 6 1020 93 3000 3.6 160 19:36 16.03.2021
1387 Drizzle 6 1020 87 6000 4.12 160 18:59 16.03.2021
1388 Clouds 6 1020 87 10000 3.6 170 18:40 16.03.2021
1389 Clouds 6 1020 87 10000 3.6 170 18:20 16.03.2021
1390 Clouds 6 1019 81 10000 4.12 80 17:45 16.03.2021
1391 Clouds 6 1019 81 10000 4.12 80 17:24 16.03.2021
1392 Clouds 5 1019 87 10000 3.6 90 16:50 16.03.2021
1393 Clouds 6 1019 87 10000 3.6 90 16:26 16.03.2021
1394 Clouds 5 1019 87 10000 5.14 90 15:46 16.03.2021
1395 Clouds 5 1019 87 10000 5.14 90 15:21 16.03.2021
1396 Clouds 5 1019 87 10000 4.12 100 14:57 16.03.2021
1397 Rain 5 1019 87 10000 4.12 100 14:39 16.03.2021
1398 Rain 5 1019 87 10000 4.12 100 14:19 16.03.2021
1399 Clouds 5 1019 81 10000 3.6 150 13:46 16.03.2021
1400 Clouds 5 1019 81 10000 3.6 150 13:23 16.03.2021
1401 Clouds 5 1018 81 10000 3.09 170 12:50 16.03.2021
1402 Clouds 5 1018 81 10000 3.09 170 12:31 16.03.2021
1403 Rain 5 1017 81 10000 7.2 190 11:43 16.03.2021
1404 Rain 5 1017 81 10000 7.2 190 11:22 16.03.2021
1405 Rain 5 1017 81 10000 5.66 190 10:28 16.03.2021
1406 Clouds 4 1016 81 10000 4.63 170 09:57 16.03.2021
1407 Rain 4 1016 81 10000 4.63 170 09:36 16.03.2021
1408 Clouds 4 1016 81 10000 4.63 170 09:18 16.03.2021
1409 Rain 4 1015 81 10000 4.12 170 08:45 16.03.2021
1410 Clouds 3 1015 81 10000 4.12 170 08:26 16.03.2021
1411 Clouds 3 1014 81 10000 4.63 190 07:36 16.03.2021
1412 Clouds 3 1013 81 10000 5.14 200 06:40 16.03.2021
1413 Clouds 4 1012 75 10000 6.69 230 05:52 16.03.2021
1414 Clouds 4 1012 75 10000 6.69 230 05:34 16.03.2021
1415 Rain 4 1008 87 10000 5.66 210 02:45 16.03.2021
1416 Clouds 5 1008 87 10000 5.66 210 02:24 16.03.2021
1417 Clouds 5 1003 87 10000 6.69 210 23:59 15.03.2021
1418 Clouds 5 1003 87 10000 6.69 210 23:29 15.03.2021
1419 Clouds 6 1002 87 10000 7.72 200 22:55 15.03.2021
1420 Rain 6 1002 87 10000 7.72 200 22:36 15.03.2021
1421 Rain 6 1001 81 10000 10.8 140 21:58 15.03.2021
1422 Rain 6 1001 81 10000 10.8 140 21:38 15.03.2021
1423 Rain 6 1001 81 10000 10.8 140 21:20 15.03.2021
1424 Rain 6 1000 76 10000 10.29 130 20:44 15.03.2021
1425 Rain 6 1000 76 10000 10.29 130 20:25 15.03.2021
1426 Rain 6 999 76 10000 12.35 120 19:56 15.03.2021
1427 Rain 6 999 76 10000 12.35 120 19:35 15.03.2021
1428 Rain 6 1000 81 10000 8.75 100 18:58 15.03.2021
1429 Rain 6 1000 81 10000 8.75 100 18:33 15.03.2021
1430 Rain 5 1000 87 10000 9.26 90 17:57 15.03.2021
1431 Drizzle 6 1000 87 10000 9.26 90 17:39 15.03.2021
1432 Drizzle 5 1000 87 10000 9.26 90 17:21 15.03.2021
1433 Clouds 6 1001 81 10000 11.83 100 16:42 15.03.2021
1434 Clouds 5 1002 75 10000 11.32 90 15:55 15.03.2021
1435 Clouds 5 1002 75 10000 11.32 90 15:28 15.03.2021
1436 Clouds 5 1002 75 10000 11.32 90 15:28 15.03.2021
1437 Clouds 4 1003 81 10000 10.29 80 14:55 15.03.2021
1438 Clouds 4 1003 81 10000 10.29 80 14:36 15.03.2021
1439 Clouds 4 1003 81 10000 10.29 80 14:18 15.03.2021
1440 Rain 3 1005 81 10000 9.77 90 13:41 15.03.2021
1441 Clouds 3 1005 81 10000 9.77 90 13:23 15.03.2021
1442 Rain 3 1005 81 10000 8.75 90 12:45 15.03.2021
1443 Clouds 3 1005 81 10000 8.75 90 12:18 15.03.2021
1444 Rain 4 1006 70 10000 6.17 90 11:41 15.03.2021
1445 Rain 4 1006 70 10000 6.17 90 11:21 15.03.2021
1446 Rain 4 1006 70 10000 7.2 90 10:43 15.03.2021
1447 Rain 4 1006 70 10000 7.2 90 10:24 15.03.2021
1448 Rain 4 1007 75 10000 5.66 70 09:44 15.03.2021
1449 Rain 4 1007 75 10000 5.66 70 09:22 15.03.2021
1450 Rain 3 1007 75 10000 6.17 80 08:45 15.03.2021
1451 Rain 3 1007 75 10000 6.17 80 08:25 15.03.2021
1452 Rain 3 1007 81 10000 4.63 70 07:42 15.03.2021
1453 Clouds 3 1007 81 10000 4.63 70 07:22 15.03.2021
1454 Clouds 3 1008 81 10000 5.14 80 05:42 15.03.2021
1455 Clouds 3 1008 81 10000 5.66 100 03:21 15.03.2021
1456 Clouds 3 1007 81 10000 6.17 90 00:42 15.03.2021
1457 Clouds 3 1007 75 10000 7.2 80 23:24 14.03.2021
1458 Clouds 3 1007 65 10000 3.6 90 22:57 14.03.2021
1459 Clouds 3 1007 65 10000 3.6 90 22:37 14.03.2021
1460 Clouds 3 1007 65 10000 3.6 90 22:18 14.03.2021
1461 Clouds 3 1007 65 10000 3.6 90 22:18 14.03.2021
1462 Clouds 2 1006 56 10000 2.57 90 21:38 14.03.2021
1463 Clouds 3 1006 56 10000 2.57 90 21:18 14.03.2021
1464 Clear 2 1006 56 10000 1.54 100 20:41 14.03.2021
1465 Clear 2 1006 56 10000 1.54 100 20:23 14.03.2021
1466 Clear 2 1006 65 10000 1.54 10 19:42 14.03.2021
1467 Clear 3 1006 65 10000 1.54 10 19:19 14.03.2021
1468 Clear 3 1005 64 10000 2.57 350 18:41 14.03.2021
1469 Clear 3 1005 56 10000 2.06 320 17:56 14.03.2021
1470 Clear 3 1005 56 10000 2.06 320 17:37 14.03.2021
1471 Clear 3 1005 56 10000 2.06 320 17:19 14.03.2021
1472 Clear 3 1005 55 10000 2.06 340 16:41 14.03.2021
1473 Clear 2 1005 55 10000 2.06 340 16:21 14.03.2021
1474 Clear 2 1004 55 10000 2.57 290 15:48 14.03.2021
1475 Clear 2 1004 47 10000 2.57 240 14:59 14.03.2021
1476 Clear 1 1004 47 10000 2.57 240 14:40 14.03.2021
1477 Clear 1 1004 47 10000 2.57 240 14:20 14.03.2021
1478 Clear 1 1003 55 10000 1.54 200 13:43 14.03.2021
1479 Clear 1 1003 55 10000 1.54 200 13:24 14.03.2021
1480 Clear 0 1002 55 10000 0.51 0 12:42 14.03.2021
1481 Clear 0 1002 55 10000 0.51 0 12:23 14.03.2021
1482 Clear -2 1002 63 10000 0.51 0 11:41 14.03.2021
1483 Clear -2 1002 63 10000 0.51 0 11:22 14.03.2021
1484 Clear -4 1001 68 10000 1.03 0 10:38 14.03.2021
1485 Clear -4 1001 68 10000 1.03 0 10:20 14.03.2021
1486 Clear -6 1000 79 10000 0.51 0 09:59 14.03.2021
1487 Clear -5 1000 79 10000 0.51 0 09:40 14.03.2021
1488 Clear -6 1000 79 10000 0.51 0 09:20 14.03.2021
1489 Clear -6 1000 73 10000 1.03 0 08:39 14.03.2021
1490 Clear -5 999 68 10000 1.54 110 07:58 14.03.2021
1491 Clear -5 999 68 10000 1.54 110 07:28 14.03.2021
1492 Clear -5 999 68 10000 1.54 90 05:38 14.03.2021
1493 Clear -4 998 68 10000 2.57 100 01:29 14.03.2021
1494 Clear -4 998 74 10000 3.09 180 00:42 14.03.2021
1495 Clear -4 998 74 10000 3.09 180 00:18 14.03.2021
1496 Clear -4 998 74 10000 1.54 150 23:42 13.03.2021
1497 Clear -5 998 74 10000 1.54 150 23:19 13.03.2021
1498 Clear -5 998 68 10000 3.6 160 22:47 13.03.2021
1499 Clear -4 998 68 10000 3.6 160 22:23 13.03.2021
1500 Clouds -4 997 59 10000 4.63 10 21:36 13.03.2021
1501 Clouds -3 997 59 10000 4.63 10 21:18 13.03.2021
1502 Clouds -3 997 64 10000 9.26 360 20:46 13.03.2021
1503 Clouds -3 997 64 10000 9.26 360 20:25 13.03.2021
1504 Clouds -3 997 59 10000 9.77 10 19:44 13.03.2021
1505 Clouds -3 997 59 10000 9.77 10 19:24 13.03.2021
1506 Clouds -3 996 59 10000 8.75 360 18:43 13.03.2021
1507 Clouds -2 996 59 10000 8.75 360 18:20 13.03.2021
1508 Clouds -2 996 51 10000 8.75 10 17:51 13.03.2021
1509 Clouds -2 996 51 10000 8.75 10 17:32 13.03.2021
1510 Clouds -2 995 59 10000 8.23 10 16:57 13.03.2021
1511 Clouds -2 995 59 10000 8.23 10 16:38 13.03.2021
1512 Clouds -2 995 59 10000 8.23 10 15:57 13.03.2021
1513 Clouds -2 995 59 10000 8.23 10 15:21 13.03.2021
1514 Clouds -2 994 64 10000 9.77 20 14:42 13.03.2021
1515 Clouds -2 994 64 10000 9.77 20 14:23 13.03.2021
1516 Clouds -2 994 64 10000 9.77 20 14:23 13.03.2021
1517 Clouds -2 993 64 10000 8.75 10 13:30 13.03.2021
1518 Clouds -2 992 64 10000 8.23 20 12:54 13.03.2021
1519 Clouds -2 992 64 10000 8.23 20 12:36 13.03.2021
1520 Clouds -2 991 74 10000 8.75 350 11:58 13.03.2021
1521 Clouds -2 991 74 10000 8.75 350 11:39 13.03.2021
1522 Clouds -2 991 74 10000 8.75 350 11:21 13.03.2021
1523 Clouds -2 990 74 10000 8.23 10 10:36 13.03.2021
1524 Clouds -2 990 74 10000 8.23 10 10:18 13.03.2021
1525 Clear -3 989 74 10000 9.77 360 09:33 13.03.2021
1526 Clear -2 988 74 10000 9.26 360 08:55 13.03.2021
1527 Clear -2 988 74 10000 9.26 360 08:36 13.03.2021
1528 Clear -2 988 74 10000 9.26 360 08:18 13.03.2021
1529 Clear -2 987 74 10000 9.26 20 07:39 13.03.2021
1530 Clear -2 986 80 10000 1.54 150 05:31 13.03.2021
1531 Clear -3 984 80 10000 1.03 0 02:42 13.03.2021
1532 Clear -2 983 80 10000 2.57 140 00:37 13.03.2021
1533 Clear -1 982 69 10000 2.57 350 23:48 12.03.2021
1534 Clear -1 982 69 10000 2.57 350 23:30 12.03.2021
1535 Clear -1 982 69 10000 2.06 130 22:42 12.03.2021
1536 Clear -1 982 69 10000 2.06 130 22:22 12.03.2021
1537 Clear 0 981 69 10000 2.57 250 21:42 12.03.2021
1538 Clear 0 981 69 10000 2.57 250 21:21 12.03.2021
1539 Clear 0 981 60 10000 1.54 190 20:55 12.03.2021
1540 Clear 1 981 60 10000 1.54 190 20:31 12.03.2021
1541 Clear 1 980 60 10000 1.54 320 19:54 12.03.2021
1542 Clear 1 980 60 10000 1.54 320 19:34 12.03.2021
1543 Clear 2 979 48 10000 1.54 0 18:55 12.03.2021
1544 Clear 2 979 48 10000 1.54 0 18:34 12.03.2021
1545 Clear 2 980 60 10000 5.14 30 17:47 12.03.2021
1546 Clear 2 980 60 10000 5.14 30 17:29 12.03.2021
1547 Clear 1 979 64 10000 9.77 30 16:55 12.03.2021
1548 Clear 1 979 64 10000 9.77 30 16:34 12.03.2021
1549 Clear 2 980 64 10000 8.23 30 15:51 12.03.2021
1550 Clear 2 980 64 10000 8.23 30 15:25 12.03.2021
1551 Clear 2 979 60 10000 7.2 360 14:47 12.03.2021
1552 Clear 2 979 60 10000 7.2 360 14:20 12.03.2021
1553 Clear 2 979 56 10000 5.66 10 13:42 12.03.2021
1554 Clear 2 979 56 10000 5.66 10 13:21 12.03.2021
1555 Clear 1 979 60 10000 7.2 360 12:56 12.03.2021
1556 Clear 1 979 60 10000 7.2 360 12:36 12.03.2021
1557 Clear 1 979 60 10000 7.2 360 12:18 12.03.2021
1558 Clear 1 978 64 10000 8.75 10 11:47 12.03.2021
1559 Clear 1 978 64 10000 8.75 10 11:20 12.03.2021
1560 Clear 0 978 69 10000 8.23 10 10:48 12.03.2021
1561 Clear 0 978 69 10000 8.23 10 10:23 12.03.2021
1562 Clouds 1 978 56 10000 5.66 50 09:48 12.03.2021
1563 Clouds 1 978 56 10000 5.66 50 09:19 12.03.2021
1564 Clear 0 977 64 10000 4.12 40 08:40 12.03.2021
1565 Clear 0 977 64 10000 6.69 10 07:54 12.03.2021
1566 Clear 1 977 64 10000 6.69 10 07:31 12.03.2021
1567 Clear 0 976 75 10000 8.75 360 06:45 12.03.2021
1568 Clouds 0 976 75 10000 10.8 20 05:56 12.03.2021
1569 Clear 1 976 75 10000 11.32 30 01:42 12.03.2021
1570 Clear 2 975 75 10000 5.66 40 23:59 11.03.2021
1571 Clear 1 975 75 10000 5.66 40 23:19 11.03.2021
1572 Clouds 1 974 80 10000 6.17 20 22:41 11.03.2021
1573 Clouds 1 974 80 10000 6.17 20 22:21 11.03.2021
1574 Snow 1 974 80 10000 7.2 10 21:46 11.03.2021
1575 Snow 1 974 80 10000 7.2 10 21:26 11.03.2021
1576 Snow 1 973 86 8000 7.2 350 20:49 11.03.2021
1577 Snow 1 973 86 8000 7.2 350 20:23 11.03.2021
1578 Snow 1 972 86 10000 6.69 330 19:56 11.03.2021
1579 Snow 1 972 86 10000 6.69 330 19:36 11.03.2021
1580 Clouds 0 972 86 10000 8.23 320 18:54 11.03.2021
1581 Clouds 0 972 86 10000 8.23 320 18:35 11.03.2021
1582 Snow -1 972 80 10000 10.29 330 17:57 11.03.2021
1583 Clouds -1 972 80 10000 10.29 330 17:39 11.03.2021
1584 Clouds -2 972 80 10000 13.38 330 16:42 11.03.2021
1585 Clouds -2 972 80 10000 13.38 330 16:24 11.03.2021
1586 Snow -3 972 80 10000 10.8 340 15:44 11.03.2021
1587 Snow -3 972 80 10000 10.8 340 15:21 11.03.2021
1588 Snow -4 972 80 10000 9.77 350 14:45 11.03.2021
1589 Snow -4 972 80 10000 9.77 350 14:19 11.03.2021
1590 Snow -4 972 74 10000 8.75 360 13:46 11.03.2021
1591 Snow -3 972 74 10000 8.75 360 13:22 11.03.2021
1592 Clouds -4 971 68 10000 14.92 350 12:56 11.03.2021
1593 Clouds -3 971 68 10000 14.92 350 12:30 11.03.2021
1594 Clouds -3 972 68 10000 11.32 350 11:49 11.03.2021
1595 Clouds -3 972 68 10000 11.32 350 11:31 11.03.2021
1596 Snow -4 972 68 10000 7.72 340 10:57 11.03.2021
1597 Snow -3 972 68 10000 7.72 340 10:28 11.03.2021
1598 Clouds -3 969 68 10000 14.92 350 09:53 11.03.2021
1599 Clouds -4 969 68 10000 14.92 350 09:33 11.03.2021
1600 Clouds -3 970 68 10000 16.46 360 08:51 11.03.2021
1601 Clouds -3 970 68 10000 16.46 360 08:32 11.03.2021
1602 Snow -3 969 64 10000 16.46 360 07:50 11.03.2021
1603 Snow -3 969 64 10000 16.46 360 07:21 11.03.2021
1604 Clouds -3 968 69 10000 15.43 350 06:47 11.03.2021
1605 Clouds -3 968 69 10000 15.43 350 06:23 11.03.2021
1606 Clouds -3 968 69 10000 13.89 20 02:31 11.03.2021
1607 Clouds -2 969 74 10000 13.38 10 00:33 11.03.2021
1608 Clouds -2 969 74 10000 13.38 10 00:33 11.03.2021
1609 Clouds -2 968 74 10000 14.4 10 23:23 10.03.2021
1610 Clouds -3 969 74 10000 14.92 10 22:43 10.03.2021
1611 Clouds -3 969 74 10000 14.92 10 22:21 10.03.2021
1612 Clouds -3 968 74 10000 15.95 10 21:44 10.03.2021
1613 Clouds -3 968 74 10000 15.95 10 21:44 10.03.2021
1614 Clouds -2 968 74 10000 15.95 10 21:23 10.03.2021
1615 Clouds -2 968 69 10000 13.89 20 20:46 10.03.2021
1616 Clouds -2 968 69 10000 13.89 20 20:27 10.03.2021
1617 Clouds -2 968 74 10000 14.4 20 19:49 10.03.2021
1618 Clouds -2 968 74 10000 14.4 20 19:28 10.03.2021
1619 Snow -2 967 80 10000 18.01 10 18:46 10.03.2021
1620 Snow -2 967 80 10000 18.01 10 18:24 10.03.2021
1621 Snow -2 969 80 9000 14.92 20 17:56 10.03.2021
1622 Snow -2 969 80 9000 14.92 20 17:37 10.03.2021
1623 Snow -2 969 80 9000 14.92 20 17:19 10.03.2021
1624 Snow -2 970 80 4500 12.86 20 16:42 10.03.2021
1625 Snow -2 970 80 4500 12.86 20 16:23 10.03.2021
1626 Snow -2 971 86 4200 11.83 20 15:46 10.03.2021
1627 Snow -2 971 86 4200 11.83 20 15:23 10.03.2021
1628 Snow -2 971 86 8000 13.89 10 14:56 10.03.2021
1629 Snow -2 973 80 7000 14.92 10 14:20 10.03.2021
1630 Snow -2 973 80 7000 14.92 10 14:20 10.03.2021
1631 Snow -2 973 80 7000 14.92 10 13:52 10.03.2021
1632 Snow -3 973 80 7000 14.92 10 13:30 10.03.2021
1633 Snow -3 973 86 10000 12.35 10 12:46 10.03.2021
1634 Snow -3 973 86 10000 12.35 10 12:21 10.03.2021
1635 Snow -3 974 86 9000 12.35 10 11:44 10.03.2021
1636 Snow -3 974 86 9000 12.35 10 11:21 10.03.2021
1637 Snow -2 975 80 10000 10.8 10 10:49 10.03.2021
1638 Snow -2 975 80 10000 10.8 10 10:30 10.03.2021
1639 Snow -2 976 80 10000 8.23 20 09:46 10.03.2021
1640 Snow -2 976 80 10000 8.23 20 09:27 10.03.2021
1641 Snow -3 977 93 2000 11.32 20 08:58 10.03.2021
1642 Snow -3 977 93 2000 11.32 20 08:40 10.03.2021
1643 Snow -2 977 80 10000 9.77 20 08:21 10.03.2021
1644 Snow -2 977 80 10000 9.77 20 07:41 10.03.2021
1645 Snow -1 977 80 10000 9.77 20 07:19 10.03.2021
1646 Clouds -1 978 80 10000 8.23 20 06:46 10.03.2021
1647 Clear 1 981 70 10000 3.09 350 02:42 10.03.2021
1648 Clouds 2 983 80 10000 4.63 10 23:59 09.03.2021
1649 Clouds 1 983 80 10000 4.63 10 23:27 09.03.2021
1650 Rain 2 984 80 10000 4.12 20 22:49 09.03.2021
1651 Rain 2 984 80 10000 4.12 20 22:28 09.03.2021
1652 Rain 2 984 80 10000 5.14 10 21:57 09.03.2021
1653 Rain 2 984 80 10000 5.14 10 21:37 09.03.2021
1654 Rain 2 984 80 10000 5.14 10 21:18 09.03.2021
1655 Snow 2 985 80 10000 2.57 50 20:43 09.03.2021
1656 Snow 2 985 80 10000 2.57 50 20:22 09.03.2021
1657 Rain 3 986 70 10000 5.66 30 19:53 09.03.2021
1658 Rain 3 986 70 10000 5.66 30 19:28 09.03.2021
1659 Rain 3 986 70 10000 7.72 360 18:54 09.03.2021
1660 Rain 2 986 70 10000 7.72 360 18:29 09.03.2021
1661 Clear 3 987 65 10000 4.63 360 17:57 09.03.2021
1662 Rain 3 987 65 10000 4.63 360 17:35 09.03.2021
1663 Rain 3 988 70 10000 6.17 360 16:57 09.03.2021
1664 Rain 3 988 70 10000 6.17 360 16:39 09.03.2021
1665 Rain 3 988 70 10000 6.17 360 16:19 09.03.2021
1666 Clear 3 990 75 10000 3.09 360 15:44 09.03.2021
1667 Clear 3 990 75 10000 3.09 360 15:23 09.03.2021
1668 Clear 3 992 65 10000 5.72 22 14:40 09.03.2021
1669 Clear 3 992 65 10000 5.41 26 14:22 09.03.2021
1670 Clear 2 993 80 10000 1.54 20 13:39 09.03.2021
1671 Clear 2 993 80 10000 1.54 20 13:20 09.03.2021
1672 Clear 2 994 80 10000 2.06 30 12:42 09.03.2021
1673 Clear 2 994 80 10000 2.06 30 12:22 09.03.2021
1674 Clear 2 995 80 10000 2.57 30 11:42 09.03.2021
1675 Clear 2 995 80 10000 2.57 30 11:21 09.03.2021
1676 Clear 2 995 80 10000 2.57 30 11:21 09.03.2021
1677 Clear 2 995 80 10000 2.57 30 11:21 09.03.2021
1678 Clear 1 996 86 10000 3.6 70 10:57 09.03.2021
1679 Clear 1 996 86 10000 3.6 70 10:38 09.03.2021
1680 Clear 0 996 86 10000 3.6 70 10:20 09.03.2021
1681 Snow -1 997 86 10000 4.63 80 09:44 09.03.2021
1682 Clear -1 997 86 10000 4.63 80 09:26 09.03.2021
1683 Clear -2 998 93 10000 1.03 0 08:48 09.03.2021
1684 Clear -1 998 93 10000 1.03 0 08:28 09.03.2021
1685 Clear -1 998 93 10000 2.06 100 07:40 09.03.2021
1686 Clear -1 998 93 10000 2.06 100 07:21 09.03.2021
1687 Clear -1 1000 93 10000 3.09 110 06:18 09.03.2021
1688 Clear 0 1000 93 10000 3.09 110 05:46 09.03.2021
1689 Clouds 2 1003 87 10000 3.09 190 00:38 09.03.2021
1690 Clouds 2 1003 87 10000 2.57 160 23:45 08.03.2021
1691 Clouds 2 1003 87 10000 2.57 160 23:27 08.03.2021
1692 Clouds 2 1003 80 10000 2.06 120 22:55 08.03.2021
1693 Clouds 2 1003 80 10000 2.06 120 22:36 08.03.2021
1694 Rain 2 1003 80 10000 2.06 120 22:18 08.03.2021
1695 Clouds 2 1003 81 10000 3.6 160 21:35 08.03.2021
1696 Clouds 2 1003 87 10000 3.6 150 20:48 08.03.2021
1697 Clouds 2 1003 87 10000 3.6 150 20:28 08.03.2021
1698 Clouds 3 1004 87 10000 4.12 140 19:59 08.03.2021
1699 Clouds 3 1004 87 10000 4.12 140 19:38 08.03.2021
1700 Clouds 4 1004 70 10000 4.12 200 18:48 08.03.2021
1701 Rain 4 1004 70 10000 4.12 200 18:23 08.03.2021
1702 Clouds 5 1004 65 10000 4.63 190 17:57 08.03.2021
1703 Clouds 5 1004 65 10000 4.63 190 17:38 08.03.2021
1704 Clouds 6 1004 70 10000 6.69 200 16:58 08.03.2021
1705 Clouds 6 1004 75 10000 6.17 200 16:33 08.03.2021
1706 Clouds 6 1004 65 10000 6.17 220 15:59 08.03.2021
1707 Clouds 5 1005 75 10000 4.12 250 15:38 08.03.2021
1708 Clouds 5 1005 75 10000 4.12 250 15:18 08.03.2021
1709 Clouds 5 1005 75 10000 4.12 250 14:21 08.03.2021
1710 Clouds 5 1005 75 10000 4.63 240 13:48 08.03.2021
1711 Clouds 5 1005 75 10000 4.63 240 13:23 08.03.2021
1712 Clouds 4 1004 87 10000 6.17 240 12:56 08.03.2021
1713 Clouds 4 1004 87 10000 6.17 240 12:29 08.03.2021
1714 Drizzle 4 1004 87 9000 5.14 250 11:45 08.03.2021
1715 Drizzle 5 1004 87 9000 5.14 250 11:22 08.03.2021
1716 Clouds 5 1003 87 10000 6.69 240 10:47 08.03.2021
1717 Clouds 5 1003 87 10000 6.69 240 10:28 08.03.2021
1718 Clouds 5 1002 93 3900 6.17 230 09:50 08.03.2021
1719 Rain 6 1002 87 10000 4.12 220 09:25 08.03.2021
1720 Clouds 6 1001 81 10000 11.32 130 08:50 08.03.2021
1721 Rain 6 1001 81 10000 11.32 130 08:23 08.03.2021
1722 Rain 6 1002 87 10000 13.89 120 07:21 08.03.2021
1723 Rain 5 1004 81 10000 12.86 120 05:23 08.03.2021
1724 Clouds 5 1009 81 10000 6.17 110 02:19 08.03.2021
1725 Clouds 5 1010 75 10000 6.69 80 00:42 08.03.2021
1726 Clouds 4 1011 75 10000 8.75 110 23:53 07.03.2021
1727 Clouds 4 1011 75 10000 8.75 110 23:21 07.03.2021
1728 Clouds 3 1012 81 10000 4.12 100 22:47 07.03.2021
1729 Clouds 3 1012 81 10000 4.12 100 22:27 07.03.2021
1730 Clouds 3 1013 81 10000 6.17 100 21:53 07.03.2021
1731 Clouds 3 1013 81 10000 6.17 100 21:33 07.03.2021
1732 Clouds 4 1014 75 10000 4.63 90 20:58 07.03.2021
1733 Clouds 4 1014 75 10000 4.63 90 20:58 07.03.2021
1734 Clouds 4 1014 75 10000 4.63 90 20:40 07.03.2021
1735 Clouds 4 1014 75 10000 4.63 90 20:18 07.03.2021
1736 Clouds 4 1014 70 10000 5.66 120 19:40 07.03.2021
1737 Clouds 4 1014 70 10000 5.66 120 19:22 07.03.2021
1738 Clouds 5 1015 65 10000 3.6 120 18:54 07.03.2021
1739 Clouds 6 1015 65 10000 3.6 120 18:21 07.03.2021
1740 Clear 6 1015 65 10000 5.14 110 17:59 07.03.2021
1741 Clear 6 1015 65 10000 5.14 110 17:39 07.03.2021
1742 Clear 6 1015 65 10000 5.14 110 17:19 07.03.2021
1743 Clear 7 1016 66 10000 4.63 110 16:43 07.03.2021
1744 Clear 7 1016 66 10000 4.63 110 16:21 07.03.2021
1745 Clear 7 1016 70 10000 3.09 70 15:50 07.03.2021
1746 Clear 7 1016 70 10000 3.09 70 15:31 07.03.2021
1747 Clouds 5 1018 81 10000 3.09 40 14:56 07.03.2021
1748 Clouds 5 1018 81 10000 3.09 40 14:29 07.03.2021
1749 Clouds 4 1018 87 10000 2.06 30 13:51 07.03.2021
1750 Clouds 4 1018 87 10000 2.06 30 13:29 07.03.2021
1751 Clouds 3 1019 93 10000 1.03 0 12:48 07.03.2021
1752 Clouds 3 1019 93 10000 1.03 0 12:30 07.03.2021
1753 Fog 2 1019 93 10000 1.03 0 11:58 07.03.2021
1754 Fog 2 1019 93 10000 1.03 0 11:23 07.03.2021
1755 Fog 1 1019 93 10000 2.06 130 10:54 07.03.2021
1756 Fog 1 1019 93 10000 2.06 130 10:36 07.03.2021
1757 Clouds 1 1020 93 10000 1.03 0 09:53 07.03.2021
1758 Clouds 2 1020 93 10000 1.03 0 09:27 07.03.2021
1759 Clouds 2 1019 93 10000 2.06 60 08:57 07.03.2021
1760 Clouds 2 1019 93 10000 2.06 60 08:38 07.03.2021
1761 Clouds 2 1019 93 10000 2.06 60 08:20 07.03.2021
1762 Clouds 3 1021 93 10000 1.03 0 05:26 07.03.2021
1763 Clouds 3 1022 93 10000 1.54 130 02:33 07.03.2021
1764 Clouds 3 1022 87 10000 1.54 130 00:33 07.03.2021
1765 Clouds 3 1022 87 10000 1.54 180 23:40 06.03.2021
1766 Clouds 3 1022 87 10000 1.54 180 23:20 06.03.2021
1767 Clouds 3 1022 87 10000 0.51 0 22:45 06.03.2021
1768 Clouds 3 1022 87 10000 0.51 0 22:21 06.03.2021
1769 Clouds 3 1023 81 10000 0.51 0 21:46 06.03.2021
1770 Clouds 4 1023 81 10000 0.51 0 21:20 06.03.2021
1771 Clouds 4 1022 75 10000 1.03 0 20:42 06.03.2021
1772 Clouds 5 1022 70 10000 1.54 230 19:59 06.03.2021
1773 Clouds 5 1022 70 10000 1.54 230 19:37 06.03.2021
1774 Clouds 5 1022 70 10000 1.54 230 19:18 06.03.2021
1775 Clouds 5 1022 70 10000 1.54 280 18:41 06.03.2021
1776 Clouds 5 1022 70 10000 1.54 280 18:20 06.03.2021
1777 Clouds 5 1023 70 10000 2.57 300 17:49 06.03.2021
1778 Clouds 5 1023 70 10000 2.57 300 17:30 06.03.2021
1779 Clouds 5 1023 70 10000 1.54 250 16:58 06.03.2021
1780 Clouds 6 1023 70 10000 1.54 250 16:33 06.03.2021
1781 Clouds 5 1023 75 10000 2.06 240 15:56 06.03.2021
1782 Clouds 5 1023 75 10000 2.06 240 15:38 06.03.2021
1783 Clouds 5 1023 75 10000 2.06 240 15:19 06.03.2021
1784 Clouds 5 1023 81 10000 1.54 200 14:31 06.03.2021
1785 Clouds 5 1023 87 10000 2.06 190 13:55 06.03.2021
1786 Clouds 5 1023 87 10000 2.06 190 13:37 06.03.2021
1787 Clouds 5 1023 87 10000 2.06 190 13:18 06.03.2021
1788 Clouds 4 1023 93 10000 1.54 170 12:42 06.03.2021
1789 Clouds 4 1023 93 10000 1.54 170 12:18 06.03.2021
1790 Clouds 4 1023 93 10000 1.54 170 12:18 06.03.2021
1791 Drizzle 3 1023 93 3000 2.06 150 11:38 06.03.2021
1792 Drizzle 3 1023 93 3000 2.06 150 11:19 06.03.2021
1793 Drizzle 3 1023 93 8000 1.54 140 10:43 06.03.2021
1794 Drizzle 3 1022 93 7000 1.54 170 09:57 06.03.2021
1795 Drizzle 3 1022 93 7000 1.54 170 09:26 06.03.2021
1796 Clouds 3 1022 93 10000 2.57 170 08:56 06.03.2021
1797 Clouds 3 1022 93 10000 2.57 170 08:31 06.03.2021
1798 Clouds 3 1021 93 10000 2.57 160 07:56 06.03.2021
1799 Clouds 3 1021 93 10000 2.57 160 07:22 06.03.2021
1800 Clouds 3 1021 93 10000 2.57 150 06:42 06.03.2021
1801 Drizzle 4 1021 93 10000 3.09 150 03:49 06.03.2021
1802 Clouds 5 1021 87 10000 4.12 190 01:43 06.03.2021
1803 Drizzle 5 1020 87 10000 5.14 210 00:47 06.03.2021
1804 Clouds 6 1020 87 10000 6.17 150 23:51 05.03.2021
1805 Clouds 6 1020 87 10000 6.17 150 23:22 05.03.2021
1806 Clouds 6 1020 81 10000 4.63 120 22:45 05.03.2021
1807 Clouds 6 1020 81 10000 4.63 120 22:22 05.03.2021
1808 Clouds 6 1020 76 10000 4.63 100 21:52 05.03.2021
1809 Clouds 6 1020 76 10000 4.63 100 21:32 05.03.2021
1810 Clouds 6 1021 76 10000 4.63 120 20:53 05.03.2021
1811 Clouds 6 1021 76 10000 4.63 120 20:26 05.03.2021
1812 Clouds 6 1021 76 10000 5.14 140 19:55 05.03.2021
1813 Clouds 6 1021 76 10000 5.14 140 19:26 05.03.2021
1814 Clouds 6 1021 76 10000 5.14 140 18:57 05.03.2021
1815 Clouds 6 1021 76 10000 5.14 140 18:39 05.03.2021
1816 Clouds 6 1021 76 10000 5.14 140 18:18 05.03.2021
1817 Clouds 6 1021 76 10000 5.14 140 17:35 05.03.2021
1818 Clouds 7 1022 76 10000 5.66 140 16:49 05.03.2021
1819 Clouds 6 1022 76 10000 5.66 140 16:24 05.03.2021
1820 Clouds 6 1023 76 10000 5.66 140 15:58 05.03.2021
1821 Clouds 6 1023 76 10000 5.66 140 15:39 05.03.2021
1822 Clouds 6 1023 76 10000 5.66 140 15:20 05.03.2021
1823 Clouds 6 1023 81 10000 5.14 130 14:38 05.03.2021
1824 Clouds 6 1023 81 10000 5.14 130 14:38 05.03.2021
1825 Clouds 6 1023 81 10000 5.14 130 14:38 05.03.2021
1826 Clouds 5 1024 87 10000 4.63 90 13:55 05.03.2021
1827 Clouds 5 1024 87 10000 4.63 90 13:22 05.03.2021
1828 Clouds 5 1024 81 10000 5.14 100 12:55 05.03.2021
1829 Clouds 4 1025 81 10000 5.66 110 11:58 05.03.2021
1830 Clouds 4 1025 81 10000 5.66 110 11:37 05.03.2021
1831 Clouds 4 1025 81 10000 5.66 110 11:18 05.03.2021
1832 Clouds 3 1025 81 10000 5.66 120 10:41 05.03.2021
1833 Clouds 3 1025 81 10000 5.66 120 10:23 05.03.2021
1834 Clouds 3 1026 87 10000 3.09 110 09:49 05.03.2021
1835 Clouds 3 1026 87 10000 3.09 110 09:26 05.03.2021
1836 Clouds 3 1026 87 10000 4.12 100 08:43 05.03.2021
1837 Clouds 2 1026 87 10000 4.12 100 08:24 05.03.2021
1838 Clouds 3 1026 81 10000 4.63 90 07:44 05.03.2021
1839 Clouds 3 1026 81 10000 4.63 90 07:19 05.03.2021
1840 Clouds 3 1027 81 10000 3.6 90 06:31 05.03.2021
1841 Clouds 3 1030 81 10000 1.03 0 01:59 05.03.2021
1842 Clouds 3 1031 81 10000 1.54 160 00:46 05.03.2021
1843 Clouds 3 1031 81 10000 2.06 160 23:37 04.03.2021
1844 Clouds 3 1031 87 10000 2.57 170 22:40 04.03.2021
1845 Clouds 3 1031 87 10000 2.57 170 22:22 04.03.2021
1846 Clouds 4 1032 81 10000 1.03 0 21:47 04.03.2021
1847 Clouds 4 1032 81 10000 1.03 0 21:27 04.03.2021
1848 Clouds 4 1032 87 10000 0.51 0 20:41 04.03.2021
1849 Clouds 4 1032 87 10000 0.51 0 20:22 04.03.2021
1850 Drizzle 5 1032 87 10000 1.54 40 19:57 04.03.2021
1851 Drizzle 5 1032 87 10000 1.54 40 19:38 04.03.2021
1852 Drizzle 5 1032 87 10000 1.54 40 19:18 04.03.2021
1853 Clouds 5 1032 87 10000 2.57 60 18:38 04.03.2021
1854 Clouds 5 1032 87 10000 2.57 60 18:20 04.03.2021
1855 Clouds 5 1033 87 10000 2.57 50 17:43 04.03.2021
1856 Clouds 5 1033 87 10000 2.57 50 17:22 04.03.2021
1857 Clouds 5 1033 87 10000 2.57 40 16:44 04.03.2021
1858 Clouds 5 1033 87 10000 2.57 40 16:24 04.03.2021
1859 Clouds 5 1034 87 10000 2.57 50 15:49 04.03.2021
1860 Clouds 5 1034 87 10000 2.57 50 15:31 04.03.2021
1861 Clouds 5 1035 87 10000 2.06 70 14:46 04.03.2021
1862 Clouds 5 1035 87 10000 2.06 70 14:25 04.03.2021
1863 Clouds 5 1035 81 10000 3.09 70 13:46 04.03.2021
1864 Clouds 5 1035 81 10000 3.09 70 13:25 04.03.2021
1865 Clouds 4 1035 87 10000 4.12 70 12:45 04.03.2021
1866 Clouds 4 1035 87 10000 4.12 70 12:25 04.03.2021
1867 Drizzle 3 1035 87 10000 4.12 70 11:43 04.03.2021
1868 Drizzle 3 1035 87 10000 4.12 70 11:22 04.03.2021
1869 Clouds 3 1035 87 10000 4.12 70 10:46 04.03.2021
1870 Clouds 3 1035 87 10000 4.12 70 10:25 04.03.2021
1871 Rain 3 1036 87 10000 3.6 80 09:37 04.03.2021
1872 Drizzle 3 1036 87 10000 3.09 80 08:56 04.03.2021
1873 Drizzle 3 1036 87 10000 3.09 80 08:34 04.03.2021
1874 Clouds 3 1036 87 10000 4.12 60 07:51 04.03.2021
1875 Clouds 3 1036 87 10000 4.12 60 07:19 04.03.2021
1876 Clouds 3 1036 81 10000 3.6 70 06:24 04.03.2021
1877 Clouds 3 1037 81 10000 4.63 80 02:49 04.03.2021
1878 Clouds 3 1038 75 10000 5.14 70 01:32 04.03.2021
1879 Clouds 3 1038 75 10000 5.66 90 22:43 03.03.2021
1880 Clouds 4 1038 75 10000 5.66 90 22:25 03.03.2021
1881 Clouds 3 1038 75 10000 5.66 120 21:43 03.03.2021
1882 Clouds 4 1038 75 10000 5.66 120 21:24 03.03.2021
1883 Clouds 3 1037 81 10000 4.12 110 20:58 03.03.2021
1884 Clouds 4 1037 81 10000 4.12 110 20:40 03.03.2021
1885 Clouds 4 1037 75 10000 4.63 110 19:59 03.03.2021
1886 Clouds 4 1037 75 10000 4.63 110 19:40 03.03.2021
1887 Clouds 4 1037 75 10000 4.63 110 19:20 03.03.2021
1888 Clouds 4 1037 81 10000 4.63 100 18:46 03.03.2021
1889 Clouds 4 1037 81 10000 4.63 100 18:21 03.03.2021
1890 Clouds 4 1037 81 10000 6.69 110 17:43 03.03.2021
1891 Clouds 4 1037 81 10000 6.69 110 17:18 03.03.2021
1892 Clouds 4 1036 70 10000 7.2 90 16:41 03.03.2021
1893 Clouds 4 1036 70 10000 7.2 90 16:22 03.03.2021
1894 Clouds 4 1036 75 10000 8.23 100 15:33 03.03.2021
1895 Clouds 4 1036 75 10000 7.72 100 14:56 03.03.2021
1896 Clouds 4 1036 75 10000 7.72 100 14:30 03.03.2021
1897 Clouds 4 1035 75 10000 6.17 100 13:52 03.03.2021
1898 Clouds 5 1035 75 10000 6.17 100 13:31 03.03.2021
1899 Clouds 5 1034 75 10000 6.17 110 12:46 03.03.2021
1900 Clouds 5 1034 75 10000 6.17 110 12:46 03.03.2021
1901 Clouds 5 1034 75 10000 6.17 110 12:28 03.03.2021
1902 Clouds 5 1034 81 10000 7.2 100 11:48 03.03.2021
1903 Clouds 4 1034 81 10000 7.2 100 11:28 03.03.2021
1904 Clouds 4 1033 81 10000 6.17 90 10:53 03.03.2021
1905 Clouds 4 1033 81 10000 6.17 90 10:32 03.03.2021
1906 Rain 5 1032 81 10000 5.66 100 09:53 03.03.2021
1907 Clouds 5 1032 81 10000 5.66 100 09:35 03.03.2021
1908 Rain 5 1031 81 10000 4.63 80 08:46 03.03.2021
1909 Rain 4 1031 81 10000 4.63 80 08:22 03.03.2021
1910 Clouds 4 1030 81 10000 5.66 80 07:52 03.03.2021
1911 Clouds 4 1029 81 10000 5.66 80 06:52 03.03.2021
1912 Clouds 4 1029 81 10000 5.66 80 05:49 03.03.2021
1913 Clouds 4 1029 81 10000 5.66 80 05:29 03.03.2021
1914 Clouds 4 1029 81 10000 5.14 80 04:35 03.03.2021
1915 Clouds 5 1028 81 10000 4.63 80 03:52 03.03.2021
1916 Clouds 4 1027 87 10000 4.63 80 00:18 03.03.2021
1917 Clouds 5 1026 87 10000 4.63 80 23:32 02.03.2021
1918 Clouds 4 1025 93 10000 3.6 60 22:44 02.03.2021
1919 Rain 4 1025 93 10000 3.6 60 22:21 02.03.2021
1920 Rain 5 1025 87 10000 3.6 70 21:43 02.03.2021
1921 Rain 5 1025 87 10000 3.6 70 21:23 02.03.2021
1922 Rain 5 1024 87 10000 3.6 70 20:54 02.03.2021
1923 Rain 5 1024 87 10000 3.6 70 20:36 02.03.2021
1924 Rain 5 1024 87 10000 3.6 70 20:18 02.03.2021
1925 Rain 5 1023 87 10000 3.6 70 19:42 02.03.2021
1926 Rain 5 1023 87 10000 3.6 70 19:23 02.03.2021
1927 Rain 6 1023 87 10000 3.09 60 18:41 02.03.2021
1928 Rain 6 1023 87 10000 3.09 60 18:21 02.03.2021
1929 Rain 6 1021 93 10000 3.6 160 17:50 02.03.2021
1930 Rain 6 1022 87 10000 1.03 110 17:30 02.03.2021
1931 Rain 6 1022 87 10000 1.03 110 16:58 02.03.2021
1932 Rain 6 1022 87 10000 1.03 110 16:36 02.03.2021
1933 Rain 6 1022 87 10000 4.12 90 15:52 02.03.2021
1934 Rain 6 1022 87 10000 4.12 90 15:52 02.03.2021
1935 Rain 6 1022 87 10000 4.12 90 15:25 02.03.2021
1936 Rain 6 1022 87 10000 3.6 80 14:28 02.03.2021
1937 Rain 6 1021 87 10000 4.12 70 13:59 02.03.2021
1938 Rain 5 1021 87 10000 4.12 70 13:39 02.03.2021
1939 Rain 5 1021 87 10000 4.12 70 13:20 02.03.2021
1940 Rain 5 1021 87 10000 3.6 80 12:31 02.03.2021
1941 Clouds 5 1021 87 10000 5.14 80 11:59 02.03.2021
1942 Clouds 5 1021 87 10000 5.14 80 11:38 02.03.2021
1943 Clouds 5 1021 87 10000 5.14 80 11:19 02.03.2021
1944 Clouds 5 1021 81 10000 5.14 80 10:39 02.03.2021
1945 Clouds 5 1021 81 10000 5.14 80 10:20 02.03.2021
1946 Clouds 5 1020 87 10000 4.63 90 09:40 02.03.2021
1947 Clouds 4 1020 87 10000 4.63 90 09:20 02.03.2021
1948 Clouds 4 1020 81 10000 5.66 70 08:38 02.03.2021
1949 Drizzle 4 1020 81 10000 4.63 90 07:59 02.03.2021
1950 Drizzle 4 1020 81 10000 4.63 90 07:38 02.03.2021
1951 Clouds 3 1020 81 10000 5.66 90 06:35 02.03.2021
1952 Clouds 3 1020 87 10000 5.66 80 05:46 02.03.2021
1953 Clouds 3 1020 87 10000 5.66 80 05:28 02.03.2021
1954 Clear 3 1022 70 10000 2.57 140 01:45 02.03.2021
1955 Clear 3 1022 70 10000 2.57 140 01:27 02.03.2021
1956 Clouds 3 1022 75 10000 2.57 130 00:39 02.03.2021
1957 Rain 3 1022 81 10000 3.09 140 23:28 01.03.2021
1958 Clouds 3 1022 81 10000 1.03 150 22:42 01.03.2021
1959 Clouds 3 1022 81 10000 1.03 150 22:21 01.03.2021
1960 Clouds 3 1022 75 10000 1.54 180 21:46 01.03.2021
1961 Clouds 4 1022 75 10000 1.54 180 21:24 01.03.2021
1962 Clouds 3 1022 75 10000 3.09 150 20:48 01.03.2021
1963 Clouds 3 1022 75 10000 3.09 150 20:27 01.03.2021
1964 Clouds 4 1022 75 10000 3.09 190 19:54 01.03.2021
1965 Clouds 4 1022 75 10000 3.09 190 19:33 01.03.2021
1966 Clouds 4 1022 81 10000 3.6 200 18:46 01.03.2021
1967 Clouds 4 1022 81 10000 3.6 200 18:25 01.03.2021
1968 Clouds 4 1022 81 10000 4.12 200 17:56 01.03.2021
1969 Clouds 4 1022 81 10000 4.12 200 17:37 01.03.2021
1970 Clouds 4 1022 81 10000 4.12 200 17:18 01.03.2021
1971 Clouds 4 1022 81 10000 4.12 210 16:43 01.03.2021
1972 Clouds 4 1022 81 10000 4.12 210 16:24 01.03.2021
1973 Clouds 4 1021 75 10000 3.09 190 15:41 01.03.2021
1974 Clouds 4 1021 75 10000 3.09 190 15:20 01.03.2021
1975 Clouds 4 1021 81 10000 3.09 220 14:44 01.03.2021
1976 Clouds 4 1021 81 10000 3.09 220 14:26 01.03.2021
1977 Clouds 4 1021 75 10000 5.66 200 13:40 01.03.2021
1978 Clouds 4 1021 75 10000 5.66 200 13:21 01.03.2021
1979 Clouds 4 1021 75 10000 5.66 200 13:21 01.03.2021
1980 Clouds 3 1020 81 10000 4.63 200 12:51 01.03.2021
1981 Clouds 4 1020 81 10000 4.63 200 12:30 01.03.2021
1982 Clouds 3 1020 81 10000 4.63 200 11:58 01.03.2021
1983 Clouds 3 1020 81 10000 4.63 200 11:34 01.03.2021
1984 Clouds 2 1019 87 10000 4.63 200 10:44 01.03.2021
1985 Clouds 2 1019 87 10000 4.63 200 10:23 01.03.2021
1986 Clouds 3 1018 87 10000 6.17 200 09:56 01.03.2021
1987 Clouds 2 1018 87 10000 6.17 200 09:38 01.03.2021
1988 Clouds 2 1018 87 10000 6.17 200 09:20 01.03.2021
1989 Clouds 3 1017 81 10000 7.2 210 08:44 01.03.2021
1990 Clouds 2 1017 87 10000 4.63 200 07:50 01.03.2021
1991 Clouds 2 1016 87 10000 4.63 220 06:51 01.03.2021
1992 Clouds 2 1015 87 10000 4.12 200 02:49 01.03.2021
1993 Clouds 2 1014 81 10000 5.66 190 00:37 01.03.2021
1994 Snow 2 1014 87 10000 7.72 200 23:26 28.02.2021
1995 Clouds 3 1014 81 10000 5.66 240 22:45 28.02.2021
1996 Clouds 2 1014 81 10000 5.66 240 22:22 28.02.2021
1997 Clouds 2 1013 75 10000 7.72 210 21:49 28.02.2021
1998 Clouds 2 1013 75 10000 7.72 210 21:27 28.02.2021
1999 Clouds 2 1012 80 10000 8.23 210 20:55 28.02.2021
2000 Clouds 2 1012 80 10000 8.23 210 20:35 28.02.2021
2001 Clouds 2 1011 87 10000 9.77 220 19:47 28.02.2021
2002 Clouds 2 1011 87 10000 9.77 220 19:28 28.02.2021
2003 Clouds 2 1011 87 10000 9.77 240 18:49 28.02.2021
2004 Clouds 2 1011 87 10000 9.77 240 18:28 28.02.2021
2005 Clouds 3 1010 81 10000 10.8 230 17:59 28.02.2021
2006 Rain 3 1010 81 10000 10.8 230 17:41 28.02.2021
2007 Clouds 3 1010 81 10000 10.8 230 17:21 28.02.2021
2008 Clouds 2 1010 87 10000 14.4 230 16:50 28.02.2021
2009 Clouds 2 1010 87 10000 14.4 230 16:30 28.02.2021
2010 Clouds 3 1010 75 10000 13.89 220 15:53 28.02.2021
2011 Clouds 3 1010 75 10000 13.89 220 15:53 28.02.2021
2012 Clouds 2 1009 81 10000 12.35 230 15:29 28.02.2021
2013 Clouds 2 1009 80 10000 13.89 210 14:58 28.02.2021
2014 Clouds 2 1009 80 10000 13.89 210 14:39 28.02.2021
2015 Clouds 2 1009 80 10000 13.89 210 14:39 28.02.2021
2016 Clouds 2 1009 80 10000 13.89 210 14:20 28.02.2021
2017 Rain 3 1008 75 10000 11.83 210 13:41 28.02.2021
2018 Rain 3 1008 75 10000 11.83 210 13:41 28.02.2021
2019 Snow 2 1008 75 10000 11.83 210 13:19 28.02.2021
2020 Snow 1 1008 75 10000 9.77 210 12:55 28.02.2021
2021 Rain 2 1008 75 10000 9.77 210 12:36 28.02.2021
2022 Rain 2 1008 75 10000 9.77 210 12:18 28.02.2021
2023 Clouds 2 1009 80 10000 13.38 220 11:42 28.02.2021
2024 Clouds 2 1008 75 10000 8.75 220 11:22 28.02.2021
2025 Clouds 1 1008 86 10000 10.29 230 10:49 28.02.2021
2026 Snow 1 1008 86 10000 10.29 230 10:26 28.02.2021
2027 Rain 2 1008 80 10000 9.77 210 09:42 28.02.2021
2028 Rain 2 1008 80 10000 9.77 210 09:24 28.02.2021
2029 Clouds 3 1007 70 10000 7.72 210 08:49 28.02.2021
2030 Rain 2 1007 70 10000 7.72 210 08:31 28.02.2021
2031 Rain 3 1007 75 10000 8.75 210 07:54 28.02.2021
2032 Clouds 3 1007 75 10000 8.75 210 07:36 28.02.2021
2033 Clouds 3 1007 75 10000 9.26 210 06:29 28.02.2021
2034 Rain 1 1007 93 10000 13.89 220 05:24 28.02.2021
2035 Clouds 4 1005 70 10000 10.8 200 03:40 28.02.2021
2036 Clouds 4 1004 81 10000 8.75 190 01:44 28.02.2021
2037 Clouds 4 1003 81 10000 11.32 210 00:52 28.02.2021
2038 Clouds 4 1003 81 10000 11.32 210 00:34 28.02.2021
2039 Clouds 4 1003 81 10000 10.8 200 23:45 27.02.2021
2040 Clouds 4 1003 81 10000 10.8 200 23:19 27.02.2021
2041 Clouds 5 1003 75 10000 10.8 200 22:45 27.02.2021
2042 Rain 5 1003 75 10000 10.8 200 22:21 27.02.2021
2043 Clouds 5 1002 75 9000 11.32 200 21:46 27.02.2021
2044 Clouds 5 1002 75 9000 11.32 200 21:24 27.02.2021
2045 Clouds 6 1002 75 10000 12.86 200 20:49 27.02.2021
2046 Clouds 6 1002 75 10000 12.86 200 20:28 27.02.2021
2047 Clouds 7 1001 65 9000 13.38 190 19:46 27.02.2021
2048 Clouds 7 1001 65 9000 13.38 190 19:27 27.02.2021
2049 Clouds 6 1001 75 10000 12.86 190 18:46 27.02.2021
2050 Clouds 6 1001 75 10000 12.86 190 18:22 27.02.2021
2051 Clouds 6 1001 81 8000 12.86 200 17:58 27.02.2021
2052 Clouds 6 1001 81 8000 12.86 200 17:38 27.02.2021
2053 Clouds 6 1001 81 8000 12.86 200 17:19 27.02.2021
2054 Rain 6 1002 81 4000 14.4 200 16:49 27.02.2021
2055 Clouds 5 1002 81 4000 14.4 200 16:28 27.02.2021
2056 Clouds 7 1001 81 10000 13.38 200 15:46 27.02.2021
2057 Clouds 7 1001 81 10000 13.38 200 15:20 27.02.2021
2058 Clouds 7 1000 81 10000 12.86 190 14:41 27.02.2021
2059 Clouds 7 1000 81 10000 12.86 190 14:21 27.02.2021
2060 Drizzle 7 1000 87 9000 10.8 190 13:46 27.02.2021
2061 Rain 7 1000 87 9000 10.8 190 13:21 27.02.2021
2062 Clouds 7 999 87 6000 13.89 180 12:45 27.02.2021
2063 Clouds 8 999 87 6000 13.89 180 12:25 27.02.2021
2064 Clouds 8 1000 87 3000 12.86 180 11:52 27.02.2021
2065 Clouds 8 1000 87 3000 12.86 180 11:31 27.02.2021
2066 Rain 8 1000 87 6000 12.86 180 10:53 27.02.2021
2067 Clouds 8 1000 87 6000 12.86 180 10:35 27.02.2021
2068 Clouds 8 1000 87 8000 11.83 190 09:54 27.02.2021
2069 Rain 8 1000 87 8000 11.83 190 09:33 27.02.2021
2070 Rain 8 1000 87 10000 11.32 190 08:44 27.02.2021
2071 Clouds 8 1000 87 10000 11.32 190 08:24 27.02.2021
2072 Rain 8 1000 81 7000 10.8 190 07:58 27.02.2021
2073 Rain 8 1000 81 7000 10.8 190 07:31 27.02.2021
2074 Clouds 5 998 70 10000 13.38 210 02:31 27.02.2021
2075 Clouds 5 994 81 10000 11.83 200 00:32 27.02.2021
2076 Clouds 6 992 81 10000 11.83 190 23:43 26.02.2021
2077 Clouds 6 992 81 10000 11.83 190 23:23 26.02.2021
2078 Clouds 5 992 81 10000 10.29 180 22:40 26.02.2021
2079 Rain 6 992 81 10000 10.29 180 22:21 26.02.2021
2080 Clouds 5 992 81 10000 8.75 170 21:36 26.02.2021
2081 Rain 5 992 81 10000 9.26 170 20:57 26.02.2021
2082 Rain 5 992 81 10000 9.26 170 20:38 26.02.2021
2083 Rain 6 992 81 10000 9.26 170 20:19 26.02.2021
2084 Clouds 6 993 76 10000 6.17 170 19:27 26.02.2021
2085 Clouds 7 993 76 10000 7.2 170 18:57 26.02.2021
2086 Clouds 7 993 76 10000 7.2 170 18:38 26.02.2021
2087 Clouds 7 993 76 10000 7.2 170 18:19 26.02.2021
2088 Clouds 7 993 71 10000 10.29 190 17:38 26.02.2021
2089 Clouds 8 993 71 10000 10.29 190 17:19 26.02.2021
2090 Clouds 7 992 93 8000 8.75 200 16:48 26.02.2021
2091 Clouds 7 992 93 8000 8.75 200 16:30 26.02.2021
2092 Clouds 8 992 81 10000 3.6 180 15:48 26.02.2021
2093 Clouds 7 992 81 10000 3.6 180 15:29 26.02.2021
2094 Rain 7 992 93 10000 1.03 180 14:59 26.02.2021
2095 Rain 7 992 93 10000 1.03 180 14:41 26.02.2021
2096 Clouds 7 992 93 10000 1.03 180 14:22 26.02.2021
2097 Rain 7 992 87 7000 1.03 0 13:39 26.02.2021
2098 Rain 7 992 87 7000 1.03 0 13:20 26.02.2021
2099 Rain 7 993 81 10000 5.14 110 12:33 26.02.2021
2100 Rain 7 994 81 10000 6.17 130 11:49 26.02.2021
2101 Rain 7 994 81 10000 6.17 130 11:28 26.02.2021
2102 Rain 7 994 81 10000 8.75 140 10:45 26.02.2021
2103 Rain 7 995 81 10000 8.23 150 09:49 26.02.2021
2104 Clouds 7 995 81 10000 8.23 150 09:29 26.02.2021
2105 Rain 7 995 81 10000 9.26 150 08:53 26.02.2021
2106 Clouds 7 995 81 10000 9.26 150 08:19 26.02.2021
2107 Clouds 7 995 81 10000 7.2 150 07:48 26.02.2021
2108 Rain 7 995 81 10000 7.72 160 06:36 26.02.2021
2109 Rain 8 995 81 10000 7.72 170 05:26 26.02.2021
2110 Drizzle 7 994 87 9000 6.17 160 03:28 26.02.2021
2111 Rain 5 994 81 10000 13.89 120 01:37 26.02.2021
2112 Rain 3 996 87 9000 12.35 90 23:49 25.02.2021
2113 Rain 3 996 87 9000 12.35 90 23:28 25.02.2021
2114 Rain 4 997 87 10000 10.8 100 22:49 25.02.2021
2115 Rain 4 999 75 10000 8.23 120 21:59 25.02.2021
2116 Rain 4 999 75 10000 8.23 120 21:38 25.02.2021
2117 Rain 4 999 75 10000 8.23 120 21:19 25.02.2021
2118 Rain 4 999 75 10000 8.23 120 21:19 25.02.2021
2119 Rain 4 1000 81 10000 5.14 80 20:40 25.02.2021
2120 Rain 3 1000 81 10000 5.14 80 20:22 25.02.2021
2121 Clouds 3 1000 81 10000 5.66 100 19:51 25.02.2021
2122 Rain 3 1000 81 10000 5.66 100 19:21 25.02.2021
2123 Clouds 3 1001 81 10000 5.66 90 18:56 25.02.2021
2124 Clouds 3 1001 81 10000 5.66 90 18:24 25.02.2021
2125 Clouds 3 1001 81 10000 5.14 100 17:47 25.02.2021
2126 Clouds 4 1001 81 10000 5.14 100 17:25 25.02.2021
2127 Clouds 4 1001 75 10000 4.12 70 16:43 25.02.2021
2128 Clouds 4 1001 75 10000 4.12 70 16:25 25.02.2021
2129 Clouds 4 1001 70 10000 4.63 60 15:30 25.02.2021
2130 Clouds 4 1001 75 10000 5.14 80 14:49 25.02.2021
2131 Clouds 4 1001 75 10000 5.14 80 14:22 25.02.2021
2132 Clouds 3 1001 75 10000 5.14 70 13:51 25.02.2021
2133 Clouds 3 1001 75 10000 5.14 70 13:25 25.02.2021
2134 Clouds 3 1000 75 10000 4.63 80 12:50 25.02.2021
2135 Clouds 2 1000 75 10000 4.63 80 12:21 25.02.2021
2136 Clouds 1 999 75 10000 3.6 80 11:45 25.02.2021
2137 Clouds 1 999 75 10000 3.6 80 11:19 25.02.2021
2138 Clouds 1 998 75 10000 4.12 90 10:44 25.02.2021
2139 Clouds 1 998 80 10000 2.06 70 09:59 25.02.2021
2140 Clouds 1 998 80 10000 2.06 70 09:40 25.02.2021
2141 Clouds 1 997 80 10000 3.09 100 08:54 25.02.2021
2142 Clouds 1 997 80 10000 3.09 100 08:23 25.02.2021
2143 Clouds 1 996 80 10000 1.03 0 07:53 25.02.2021
2144 Clouds 1 996 80 10000 1.03 0 07:29 25.02.2021
2145 Clouds 0 996 86 10000 1.03 0 06:51 25.02.2021
2146 Clear -1 992 86 10000 0.51 0 01:57 25.02.2021
2147 Clear -1 992 86 10000 0.51 0 01:37 25.02.2021
2148 Clear -1 992 86 10000 1.03 0 00:39 25.02.2021
2149 Clear 0 991 80 10000 1.54 200 23:52 24.02.2021
2150 Clear 0 991 80 10000 1.54 200 23:27 24.02.2021
2151 Clear 2 990 75 10000 2.06 110 22:44 24.02.2021
2152 Clear 1 990 75 10000 2.06 110 22:25 24.02.2021
2153 Clear 1 989 80 10000 1.03 0 21:45 24.02.2021
2154 Clear 2 988 80 10000 0.51 0 20:56 24.02.2021
2155 Clear 2 988 80 10000 0.51 0 20:37 24.02.2021
2156 Clear 2 988 80 10000 0.51 0 20:18 24.02.2021
2157 Clear 3 987 75 10000 2.06 10 19:29 24.02.2021
2158 Clear 3 986 70 10000 1.03 0 18:56 24.02.2021
2159 Clear 3 986 70 10000 1.03 0 18:34 24.02.2021
2160 Clear 3 986 70 10000 0.51 0 17:56 24.02.2021
2161 Clear 4 986 70 10000 0.51 0 17:30 24.02.2021
2162 Clear 4 986 70 10000 0.51 0 17:30 24.02.2021
2163 Clear 4 986 70 10000 0.51 0 17:30 24.02.2021
2164 Clear 4 985 70 10000 3.09 10 16:57 24.02.2021
2165 Clear 4 985 70 10000 3.09 10 16:39 24.02.2021
2166 Clear 4 985 70 10000 3.09 10 16:19 24.02.2021
2167 Clear 3 985 75 10000 3.09 360 15:38 24.02.2021
2168 Clear 4 985 70 10000 2.57 360 14:53 24.02.2021
2169 Clear 4 985 70 10000 2.57 360 14:34 24.02.2021
2170 Clear 4 984 70 10000 0.51 0 13:58 24.02.2021
2171 Clear 4 984 70 10000 0.51 0 13:39 24.02.2021
2172 Clear 3 984 70 10000 0.51 0 13:21 24.02.2021
2173 Clouds 3 984 70 10000 1.03 0 12:44 24.02.2021
2174 Clouds 3 984 70 10000 1.03 0 12:23 24.02.2021
2175 Clear 2 983 70 10000 2.57 50 11:46 24.02.2021
2176 Clear 2 983 75 10000 0.51 0 10:52 24.02.2021
2177 Clear 2 983 75 10000 0.51 0 10:30 24.02.2021
2178 Clear 1 982 69 10000 2.06 100 09:44 24.02.2021
2179 Clear 1 982 69 10000 2.06 100 09:20 24.02.2021
2180 Clear 2 982 70 10000 1.54 40 08:34 24.02.2021
2181 Clear 3 981 65 10000 2.06 60 07:57 24.02.2021
2182 Clear 3 981 65 10000 2.06 60 07:20 24.02.2021
2183 Clouds 3 981 65 10000 1.54 50 06:20 24.02.2021
2184 Clouds 3 981 75 10000 5.14 70 03:28 24.02.2021
2185 Clouds 4 980 65 10000 6.69 90 00:22 24.02.2021
2186 Clear 4 979 65 10000 5.14 90 23:21 23.02.2021
2187 Clouds 4 979 70 10000 7.2 70 22:37 23.02.2021
2188 Clouds 4 979 70 10000 7.2 70 22:19 23.02.2021
2189 Rain 3 979 75 10000 8.75 80 21:42 23.02.2021
2190 Rain 3 979 75 10000 8.75 80 21:22 23.02.2021
2191 Rain 3 979 75 10000 9.77 70 20:48 23.02.2021
2192 Rain 3 979 75 10000 9.77 70 20:29 23.02.2021
2193 Rain 3 979 75 10000 9.26 70 19:48 23.02.2021
2194 Rain 3 979 75 10000 9.26 70 19:27 23.02.2021
2195 Rain 3 980 75 10000 7.72 70 18:55 23.02.2021
2196 Rain 3 980 75 10000 7.72 70 18:32 23.02.2021
2197 Rain 3 980 65 10000 8.75 80 17:54 23.02.2021
2198 Clouds 4 980 65 10000 8.75 80 17:33 23.02.2021
2199 Clouds 4 980 56 10000 5.14 90 16:50 23.02.2021
2200 Clouds 4 980 56 10000 5.14 90 16:27 23.02.2021
2201 Clouds 4 981 56 10000 6.17 80 15:58 23.02.2021
2202 Clouds 4 981 56 10000 6.17 80 15:38 23.02.2021
2203 Clouds 4 981 56 10000 6.17 80 15:18 23.02.2021
2204 Clear 4 982 48 10000 2.57 50 14:43 23.02.2021
2205 Clear 3 982 48 10000 2.57 50 14:25 23.02.2021
2206 Clear 3 982 52 10000 3.09 60 13:44 23.02.2021
2207 Clear 3 982 52 10000 3.09 60 13:24 23.02.2021
2208 Clear 2 983 60 10000 3.09 30 12:51 23.02.2021
2209 Clear 2 983 60 10000 3.09 30 12:20 23.02.2021
2210 Clear 2 984 60 10000 2.57 30 11:47 23.02.2021
2211 Snow 2 984 60 10000 2.57 30 11:21 23.02.2021
2212 Clear 1 985 60 10000 5.14 30 10:48 23.02.2021
2213 Clear 1 985 60 10000 5.14 30 10:30 23.02.2021
2214 Clear 0 986 64 10000 4.63 40 09:43 23.02.2021
2215 Clear 0 986 64 10000 4.63 40 09:24 23.02.2021
2216 Clear 0 987 75 10000 1.03 0 08:49 23.02.2021
2217 Clear 0 987 75 10000 1.03 0 08:22 23.02.2021
2218 Clear 0 988 75 10000 2.06 30 07:49 23.02.2021
2219 Clear 0 990 80 10000 3.09 70 05:31 23.02.2021
2220 Clear 0 991 80 10000 5.66 70 04:46 23.02.2021
2221 Clear 0 992 86 10000 3.09 90 02:34 23.02.2021
2222 Clouds 1 993 87 10000 2.57 100 00:20 23.02.2021
2223 Clouds 1 993 87 10000 2.57 80 23:52 22.02.2021
2224 Clouds 1 993 87 10000 2.57 80 23:20 22.02.2021
2225 Clouds 1 993 93 10000 1.03 50 22:41 22.02.2021
2226 Clouds 1 993 93 10000 1.03 50 22:20 22.02.2021
2227 Clouds 1 993 87 10000 1.03 0 21:41 22.02.2021
2228 Clouds 2 993 87 10000 1.03 0 21:23 22.02.2021
2229 Clouds 2 992 87 10000 1.54 70 20:51 22.02.2021
2230 Clouds 2 992 87 10000 1.54 70 20:28 22.02.2021
2231 Clouds 2 992 87 10000 1.03 100 19:51 22.02.2021
2232 Clouds 2 992 87 10000 1.03 100 19:33 22.02.2021
2233 Clouds 2 992 87 10000 2.06 100 18:56 22.02.2021
2234 Clouds 3 992 87 10000 2.06 100 18:37 22.02.2021
2235 Clouds 3 992 87 10000 2.06 100 18:18 22.02.2021
2236 Drizzle 3 991 93 10000 2.57 110 17:24 22.02.2021
2237 Drizzle 4 991 81 6000 2.06 110 16:54 22.02.2021
2238 Drizzle 4 991 81 6000 2.06 110 16:32 22.02.2021
2239 Clouds 3 991 93 10000 1.54 110 15:44 22.02.2021
2240 Drizzle 3 991 81 7000 0.51 0 15:25 22.02.2021
2241 Clouds 3 991 87 10000 0.51 0 14:47 22.02.2021
2242 Clouds 3 991 87 10000 0.51 0 14:47 22.02.2021
2243 Clouds 3 991 87 10000 0.51 0 14:23 22.02.2021
2244 Clouds 3 990 87 10000 2.06 120 13:46 22.02.2021
2245 Clouds 2 990 86 10000 3.09 60 12:56 22.02.2021
2246 Clouds 1 990 86 10000 3.09 60 12:24 22.02.2021
2247 Clouds 1 990 93 10000 1.54 60 11:58 22.02.2021
2248 Clouds 1 990 93 10000 1.54 60 11:39 22.02.2021
2249 Clouds 1 990 93 10000 1.54 60 11:20 22.02.2021
2250 Clouds 0 989 93 10000 1.03 170 10:45 22.02.2021
2251 Clouds 0 989 93 10000 1.03 170 10:22 22.02.2021
2252 Clouds -1 989 93 10000 2.06 140 09:41 22.02.2021
2253 Clouds -1 989 93 10000 2.06 140 09:22 22.02.2021
2254 Clouds -1 988 93 10000 2.06 150 08:49 22.02.2021
2255 Clouds 0 988 93 10000 2.06 150 08:23 22.02.2021
2256 Clear 0 988 93 10000 0.51 0 07:50 22.02.2021
2257 Clear 0 988 93 10000 0.51 0 07:23 22.02.2021
2258 Clear -1 987 86 10000 1.03 0 06:29 22.02.2021
2259 Clear 1 987 80 10000 4.12 350 05:26 22.02.2021
2260 Clear 1 985 87 10000 2.57 320 03:25 22.02.2021
2261 Clear 1 985 93 10000 0.51 0 02:33 22.02.2021
2262 Clear 2 983 87 10000 1.54 60 00:45 22.02.2021
2263 Clear 2 983 87 10000 1.54 60 00:19 22.02.2021
2264 Clear 2 982 87 10000 2.06 100 23:27 21.02.2021
2265 Clear 2 982 87 10000 3.6 350 22:40 21.02.2021
2266 Clear 2 982 87 10000 3.6 350 22:21 21.02.2021
2267 Clouds 3 981 75 10000 3.6 350 21:37 21.02.2021
2268 Rain 2 980 81 10000 1.54 0 20:59 21.02.2021
2269 Rain 2 980 81 10000 1.54 0 20:39 21.02.2021
2270 Rain 3 980 81 10000 1.54 0 20:19 21.02.2021
2271 Rain 3 979 70 10000 4.63 340 19:50 21.02.2021
2272 Rain 3 979 70 10000 4.63 340 19:32 21.02.2021
2273 Rain 3 978 70 10000 7.72 360 18:48 21.02.2021
2274 Rain 3 978 70 10000 7.72 360 18:25 21.02.2021
2275 Clouds 3 977 70 10000 7.2 360 17:30 21.02.2021
2276 Clouds 3 977 75 10000 1.54 0 16:58 21.02.2021
2277 Clouds 3 977 75 10000 1.54 0 16:34 21.02.2021
2278 Rain 2 976 87 10000 3.09 200 15:57 21.02.2021
2279 Rain 2 976 87 10000 3.09 200 15:22 21.02.2021
2280 Rain 3 976 70 10000 1.54 220 14:54 21.02.2021
2281 Rain 3 976 70 10000 1.54 220 14:35 21.02.2021
2282 Clear 3 975 75 10000 1.54 360 13:48 21.02.2021
2283 Clear 2 975 75 10000 1.54 360 13:25 21.02.2021
2284 Clear 3 975 80 10000 2.06 240 12:32 21.02.2021
2285 Clear 2 975 80 10000 2.57 150 11:59 21.02.2021
2286 Clear 2 975 80 10000 2.57 150 11:40 21.02.2021
2287 Clear 2 975 80 10000 2.06 250 10:40 21.02.2021
2288 Clear 1 975 80 10000 2.06 250 10:21 21.02.2021
2289 Clear 1 975 86 10000 1.54 0 09:43 21.02.2021
2290 Clear 1 975 86 10000 1.54 0 09:24 21.02.2021
2291 Clear 1 974 80 10000 2.06 240 08:34 21.02.2021
2292 Clear 1 974 80 10000 3.09 140 07:45 21.02.2021
2293 Clear 1 974 80 10000 3.09 140 07:22 21.02.2021
2294 Clear 3 975 70 10000 3.09 350 05:59 21.02.2021
2295 Clear 3 977 70 10000 3.09 60 02:40 21.02.2021
2296 Clouds 3 977 70 10000 4.12 90 00:59 21.02.2021
2297 Clouds 3 977 70 10000 4.12 90 00:21 21.02.2021
2298 Clouds 3 977 75 10000 4.63 50 23:38 20.02.2021
2299 Clouds 3 977 81 10000 3.6 90 22:57 20.02.2021
2300 Clouds 3 977 81 10000 3.6 90 22:32 20.02.2021
2301 Clouds 4 976 75 10000 5.66 110 21:48 20.02.2021
2302 Clouds 4 976 75 10000 5.66 110 21:29 20.02.2021
2303 Drizzle 5 976 75 10000 6.69 120 20:57 20.02.2021
2304 Drizzle 4 976 75 10000 6.69 120 20:36 20.02.2021
2305 Drizzle 5 976 75 10000 6.69 120 20:18 20.02.2021
2306 Clouds 5 975 70 10000 6.17 120 19:40 20.02.2021
2307 Clouds 5 975 75 10000 6.69 130 18:55 20.02.2021
2308 Clouds 5 975 75 10000 6.69 130 18:33 20.02.2021
2309 Clouds 5 974 65 10000 7.2 140 17:47 20.02.2021
2310 Clouds 6 974 65 10000 7.2 140 17:28 20.02.2021
2311 Clouds 5 973 75 10000 7.72 140 16:49 20.02.2021
2312 Clouds 5 973 75 10000 7.72 140 16:23 20.02.2021
2313 Rain 5 973 81 10000 6.17 130 15:42 20.02.2021
2314 Rain 6 972 81 10000 3.6 80 14:52 20.02.2021
2315 Clouds 6 972 81 10000 3.6 80 14:25 20.02.2021
2316 Drizzle 5 971 87 10000 6.17 80 13:58 20.02.2021
2317 Drizzle 5 971 87 10000 6.17 80 13:39 20.02.2021
2318 Rain 4 970 81 10000 7.72 80 13:21 20.02.2021
2319 Rain 4 970 81 10000 7.72 80 12:44 20.02.2021
2320 Clouds 4 969 75 10000 8.23 80 11:54 20.02.2021
2321 Clouds 4 969 75 10000 8.23 80 11:35 20.02.2021
2322 Clouds 4 969 70 10000 7.72 80 10:53 20.02.2021
2323 Clouds 3 969 70 10000 7.72 80 10:27 20.02.2021
2324 Clouds 2 969 70 10000 3.6 60 09:47 20.02.2021
2325 Clouds 0 970 86 10000 3.6 60 08:56 20.02.2021
2326 Clouds 1 970 86 10000 3.6 60 08:27 20.02.2021
2327 Snow 1 970 69 10000 2.06 50 07:50 20.02.2021
2328 Clear 0 972 80 10000 3.32 40 02:32 20.02.2021
2329 Clear 0 972 80 10000 3.32 40 02:32 20.02.2021
2330 Clear -1 972 74 10000 0.51 0 01:59 20.02.2021
2331 Snow 0 972 74 10000 0.51 0 01:18 20.02.2021
2332 Clear 0 973 69 10000 2.57 40 00:39 20.02.2021
2333 Clear 0 974 69 10000 2.06 360 23:42 19.02.2021
2334 Clear 0 974 69 10000 1.03 0 22:48 19.02.2021
2335 Clear 1 974 69 10000 1.03 0 22:26 19.02.2021
2336 Clear 1 975 64 10000 0.51 0 21:47 19.02.2021
2337 Clear 1 975 64 10000 0.51 0 21:26 19.02.2021
2338 Clear 1 975 69 10000 1.03 0 20:45 19.02.2021
2339 Clear 1 975 69 10000 1.03 0 20:45 19.02.2021
2340 Clear 1 975 69 10000 1.03 0 20:27 19.02.2021
2341 Clear 2 976 65 10000 2.57 350 19:50 19.02.2021
2342 Clear 2 976 65 10000 2.57 350 19:20 19.02.2021
2343 Clear 3 976 60 10000 3.09 40 18:53 19.02.2021
2344 Clear 3 976 60 10000 3.09 40 18:31 19.02.2021
2345 Clear 3 977 56 10000 3.6 60 17:45 19.02.2021
2346 Clear 3 978 56 10000 1.54 50 16:50 19.02.2021
2347 Clear 3 978 56 10000 1.54 50 16:23 19.02.2021
2348 Clear 4 979 56 10000 4.12 70 15:57 19.02.2021
2349 Clear 3 979 56 10000 4.12 70 15:30 19.02.2021
2350 Clear 3 979 60 10000 4.63 80 14:55 19.02.2021
2351 Clear 3 979 60 10000 4.63 80 14:35 19.02.2021
2352 Clear 3 980 60 10000 4.63 80 13:57 19.02.2021
2353 Clear 3 980 60 10000 4.63 80 13:36 19.02.2021
2354 Clouds 2 980 64 10000 2.57 70 12:58 19.02.2021
2355 Clouds 2 980 64 10000 2.57 70 12:38 19.02.2021
2356 Clouds 1 980 64 10000 2.57 70 12:20 19.02.2021
2357 Clouds 1 980 64 10000 2.57 70 12:20 19.02.2021
2358 Clouds 0 981 69 10000 3.6 80 11:41 19.02.2021
2359 Clouds 0 981 69 10000 3.6 80 11:18 19.02.2021
2360 Clear -1 981 74 10000 5.14 100 10:34 19.02.2021
2361 Clear -1 981 74 10000 4.63 100 09:59 19.02.2021
2362 Clear -1 981 74 10000 4.63 100 09:29 19.02.2021
2363 Clouds -1 981 74 10000 2.57 80 08:58 19.02.2021
2364 Clouds -1 981 74 10000 2.57 80 08:40 19.02.2021
2365 Clouds -1 981 74 10000 2.57 80 08:21 19.02.2021
2366 Clouds -1 982 69 10000 2.06 90 07:45 19.02.2021
2367 Clouds -1 982 69 10000 2.06 90 07:25 19.02.2021
2368 Clouds -1 982 69 10000 3.09 90 06:44 19.02.2021
2369 Clouds -1 982 69 10000 4.12 80 04:42 19.02.2021
2370 Clouds 0 983 69 10000 4.63 80 03:32 19.02.2021
2371 Clouds 0 984 75 10000 4.63 100 01:46 19.02.2021
2372 Clouds 0 984 75 10000 4.63 100 01:46 19.02.2021
2373 Clear 0 984 80 10000 2.06 70 00:36 19.02.2021
2374 Clear 0 984 93 10000 1.54 20 23:48 18.02.2021
2375 Clear 0 984 93 10000 1.54 20 23:48 18.02.2021
2376 Clear 0 984 93 10000 1.54 20 23:30 18.02.2021
2377 Clear 0 984 93 10000 2.06 50 22:43 18.02.2021
2378 Clear 0 984 93 10000 2.06 50 22:24 18.02.2021
2379 Clear 0 984 86 10000 1.54 40 21:42 18.02.2021
2380 Clear 0 984 86 10000 1.54 40 21:24 18.02.2021
2381 Clear 0 984 86 10000 2.06 80 20:41 18.02.2021
2382 Clear 0 984 86 10000 2.06 80 20:21 18.02.2021
2383 Snow 1 984 81 10000 2.06 80 19:46 18.02.2021
2384 Clear 1 984 81 10000 2.06 80 19:22 18.02.2021
2385 Clouds 2 984 81 10000 2.06 90 18:52 18.02.2021
2386 Clouds 2 984 81 10000 2.06 90 18:27 18.02.2021
2387 Drizzle 2 984 81 10000 2.57 100 17:52 18.02.2021
2388 Rain 3 984 81 10000 2.57 100 17:25 18.02.2021
2389 Rain 3 984 81 10000 2.57 100 17:25 18.02.2021
2390 Rain 3 984 87 10000 2.41 18 16:52 18.02.2021
2391 Clouds 3 984 87 10000 2.41 18 16:33 18.02.2021
2392 Clouds 3 984 87 10000 1.54 240 15:44 18.02.2021
2393 Clouds 3 984 87 10000 1.54 240 15:24 18.02.2021
2394 Clouds 2 984 93 10000 1.54 200 14:58 18.02.2021
2395 Clouds 2 984 93 10000 1.54 200 14:36 18.02.2021
2396 Clouds 2 983 87 10000 2.57 220 13:50 18.02.2021
2397 Clouds 2 983 87 10000 2.57 220 13:23 18.02.2021
2398 Clouds 2 983 93 10000 1.54 160 12:57 18.02.2021
2399 Clouds 2 983 93 10000 1.54 160 12:36 18.02.2021
2400 Rain 2 982 87 10000 1.03 0 11:48 18.02.2021
2401 Rain 2 982 87 10000 1.03 0 11:28 18.02.2021
2402 Clouds 2 982 87 10000 1.54 240 10:59 18.02.2021
2403 Clouds 2 982 87 10000 1.54 240 10:41 18.02.2021
2404 Clouds 2 982 87 10000 1.54 240 10:23 18.02.2021
2405 Rain 2 981 93 10000 6.17 260 09:39 18.02.2021
2406 Rain 2 981 93 10000 6.17 260 09:20 18.02.2021
2407 Drizzle 1 981 93 10000 2.06 210 08:39 18.02.2021
2408 Drizzle 1 981 93 10000 2.06 210 08:20 18.02.2021
2409 Clouds 2 980 87 10000 3.09 250 07:31 18.02.2021
2410 Drizzle 1 979 100 10000 3.6 230 06:40 18.02.2021
2411 Drizzle 1 978 100 10000 2.06 150 02:21 18.02.2021
2412 Clouds 1 978 100 10000 1.54 270 23:49 17.02.2021
2413 Fog 1 978 100 10000 1.54 180 23:20 17.02.2021
2414 Fog 1 978 100 10000 1.54 180 22:49 17.02.2021
2415 Fog 1 978 100 10000 1.54 180 22:25 17.02.2021
2416 Clouds 1 978 100 10000 1.54 190 21:48 17.02.2021
2417 Clouds 1 978 100 10000 1.54 190 21:22 17.02.2021
2418 Fog 1 978 93 10000 1.03 230 20:47 17.02.2021
2419 Fog 1 978 93 10000 1.03 230 20:29 17.02.2021
2420 Fog 2 978 87 10000 1.54 220 19:49 17.02.2021
2421 Fog 2 978 87 10000 1.54 220 19:30 17.02.2021
2422 Fog 2 977 93 10000 0.51 0 18:45 17.02.2021
2423 Fog 2 977 93 10000 0.51 0 18:24 17.02.2021
2424 Fog 2 978 87 10000 2.06 270 17:41 17.02.2021
2425 Fog 2 978 87 10000 2.06 270 17:41 17.02.2021
2426 Fog 2 978 87 10000 2.06 270 17:19 17.02.2021
2427 Fog 3 978 93 10000 2.57 280 16:46 17.02.2021
2428 Fog 3 978 93 10000 2.57 280 16:25 17.02.2021
2429 Fog 3 978 93 9000 2.06 250 15:44 17.02.2021
2430 Fog 3 978 93 9000 2.06 250 15:25 17.02.2021
2431 Fog 3 978 93 10000 1.03 0 14:48 17.02.2021
2432 Fog 3 978 93 10000 1.03 0 14:29 17.02.2021
2433 Fog 2 978 93 10000 1.03 320 13:48 17.02.2021
2434 Fog 3 978 93 10000 1.03 320 13:29 17.02.2021
2435 Fog 3 978 93 10000 1.03 320 13:29 17.02.2021
2436 Clouds 2 979 87 10000 3.09 350 12:47 17.02.2021
2437 Clouds 2 979 87 10000 3.09 350 12:24 17.02.2021
2438 Rain 1 979 87 10000 3.09 350 11:44 17.02.2021
2439 Rain 1 979 87 10000 3.09 350 11:22 17.02.2021
2440 Rain 1 979 87 10000 2.06 310 10:49 17.02.2021
2441 Rain 1 979 87 10000 2.06 310 10:31 17.02.2021
2442 Rain 1 980 87 10000 4.12 330 09:52 17.02.2021
2443 Rain 1 980 87 10000 4.12 330 09:29 17.02.2021
2444 Rain 2 980 87 10000 4.63 330 08:45 17.02.2021
2445 Snow 2 980 87 10000 4.63 330 08:22 17.02.2021
2446 Clouds 2 980 87 10000 4.63 340 07:34 17.02.2021
2447 Clouds 2 981 87 10000 2.06 20 06:35 17.02.2021
2448 Clouds 2 983 87 10000 2.57 360 03:40 17.02.2021
2449 Clouds 3 983 81 10000 2.57 20 02:30 17.02.2021
2450 Fog 3 984 81 10000 3.09 330 01:33 17.02.2021
2451 Rain 2 984 93 10000 2.06 310 00:25 17.02.2021
2452 Clouds 2 985 93 10000 2.06 340 23:38 16.02.2021
2453 Clouds 2 985 93 10000 3.09 330 22:46 16.02.2021
2454 Clouds 2 985 93 10000 3.09 330 22:26 16.02.2021
2455 Clouds 3 986 87 10000 3.09 330 21:59 16.02.2021
2456 Clouds 2 986 87 10000 3.09 330 21:39 16.02.2021
2457 Clouds 3 986 87 10000 3.09 330 21:21 16.02.2021
2458 Clouds 2 986 87 10000 2.06 320 20:47 16.02.2021
2459 Clouds 2 986 87 10000 2.06 320 20:24 16.02.2021
2460 Clouds 2 986 87 10000 1.54 360 19:48 16.02.2021
2461 Clouds 3 986 87 10000 1.54 360 19:28 16.02.2021
2462 Clouds 3 986 93 10000 2.57 300 18:50 16.02.2021
2463 Clouds 3 986 93 10000 2.57 300 18:26 16.02.2021
2464 Clouds 4 986 87 10000 2.57 290 17:53 16.02.2021
2465 Clouds 4 986 87 10000 2.57 290 17:27 16.02.2021
2466 Rain 5 986 81 10000 1.54 70 16:57 16.02.2021
2467 Clouds 5 986 81 10000 1.54 70 16:39 16.02.2021
2468 Clouds 5 986 81 10000 1.54 70 16:19 16.02.2021
2469 Clouds 5 987 75 10000 3.09 120 15:36 16.02.2021
2470 Clouds 5 987 75 10000 3.09 120 15:18 16.02.2021
2471 Clouds 5 986 70 10000 1.54 100 14:41 16.02.2021
2472 Clouds 5 986 70 10000 1.54 100 14:23 16.02.2021
2473 Clouds 4 986 81 10000 3.09 50 13:47 16.02.2021
2474 Clouds 4 986 81 10000 3.09 50 13:18 16.02.2021
2475 Clouds 4 986 81 10000 4.12 130 12:42 16.02.2021
2476 Clouds 3 986 81 10000 4.12 130 12:20 16.02.2021
2477 Clouds 3 986 81 10000 4.12 130 12:20 16.02.2021
2478 Clouds 3 986 87 10000 2.57 60 11:43 16.02.2021
2479 Clouds 3 986 87 10000 2.57 60 11:21 16.02.2021
2480 Clouds 3 985 81 10000 4.63 130 10:49 16.02.2021
2481 Clouds 4 985 81 10000 4.63 130 10:30 16.02.2021
2482 Clouds 3 985 81 10000 5.14 140 09:54 16.02.2021
2483 Clouds 3 985 81 10000 5.14 140 09:28 16.02.2021
2484 Clouds 4 984 81 10000 5.66 140 08:52 16.02.2021
2485 Clouds 4 984 81 10000 5.66 140 08:31 16.02.2021
2486 Clouds 4 984 81 10000 5.14 140 07:58 16.02.2021
2487 Clouds 4 983 81 10000 5.14 140 06:58 16.02.2021
2488 Clouds 4 982 81 10000 3.6 130 03:20 16.02.2021
2489 Clouds 5 981 81 10000 4.12 140 00:35 16.02.2021
2490 Clouds 5 981 81 10000 1.03 0 23:30 15.02.2021
2491 Clouds 5 981 81 10000 1.03 0 22:51 15.02.2021
2492 Clouds 5 981 81 10000 1.03 0 22:33 15.02.2021
2493 Clouds 5 980 87 10000 4.63 160 21:55 15.02.2021
2494 Clouds 5 980 87 10000 4.63 160 21:36 15.02.2021
2495 Clouds 5 980 87 10000 4.63 160 21:18 15.02.2021
2496 Clouds 5 980 87 10000 5.66 170 20:41 15.02.2021
2497 Clouds 5 980 87 10000 5.66 170 20:19 15.02.2021
2498 Clouds 5 979 81 10000 5.66 160 19:43 15.02.2021
2499 Clouds 5 979 81 10000 5.66 160 19:21 15.02.2021
2500 Clouds 5 979 81 10000 5.66 170 18:42 15.02.2021
2501 Clouds 6 979 81 10000 5.66 170 18:21 15.02.2021
2502 Clouds 6 978 81 10000 5.66 180 17:41 15.02.2021
2503 Clouds 6 978 81 10000 5.66 180 17:21 15.02.2021
2504 Clouds 6 978 87 10000 5.14 170 16:48 15.02.2021
2505 Clouds 6 978 87 10000 5.14 170 16:26 15.02.2021
2506 Clouds 5 978 87 10000 6.17 170 15:49 15.02.2021
2507 Clouds 5 978 87 10000 6.17 170 15:22 15.02.2021
2508 Rain 5 978 87 10000 7.2 160 14:49 15.02.2021
2509 Clouds 5 978 87 10000 7.2 160 14:22 15.02.2021
2510 Rain 5 977 87 10000 6.69 170 13:58 15.02.2021
2511 Clouds 5 977 87 10000 6.69 170 13:37 15.02.2021
2512 Clouds 5 977 87 10000 6.69 170 13:18 15.02.2021
2513 Clouds 5 977 75 10000 9.77 160 12:38 15.02.2021
2514 Clouds 5 977 75 10000 9.77 160 12:18 15.02.2021
2515 Clouds 4 977 87 10000 6.69 170 11:40 15.02.2021
2516 Clouds 4 977 87 10000 6.69 170 11:18 15.02.2021
2517 Clouds 4 976 87 10000 5.66 170 10:45 15.02.2021
2518 Clouds 4 976 87 10000 5.66 170 10:21 15.02.2021
2519 Clouds 4 976 87 10000 6.17 170 09:52 15.02.2021
2520 Clouds 4 976 87 10000 6.17 170 09:32 15.02.2021
2521 Clouds 4 975 87 10000 5.66 170 08:41 15.02.2021
2522 Clouds 4 974 87 10000 6.17 170 07:38 15.02.2021
2523 Clouds 4 974 87 10000 2.57 130 06:45 15.02.2021
2524 Clouds 4 974 87 10000 2.57 130 06:27 15.02.2021
2525 Clouds 4 974 75 10000 4.12 90 02:22 15.02.2021
2526 Clouds 4 975 75 10000 3.09 80 00:35 15.02.2021
2527 Clouds 5 975 70 10000 4.63 90 23:33 14.02.2021
2528 Clouds 4 976 75 10000 4.12 80 22:54 14.02.2021
2529 Clouds 4 976 75 10000 4.12 80 22:36 14.02.2021
2530 Clouds 4 976 75 10000 4.12 80 22:18 14.02.2021
2531 Rain 4 977 75 10000 6.17 80 21:42 14.02.2021
2532 Clouds 4 977 75 10000 6.17 80 21:21 14.02.2021
2533 Clouds 4 977 81 10000 6.69 80 20:39 14.02.2021
2534 Clouds 4 977 81 10000 6.69 80 20:20 14.02.2021
2535 Clouds 5 978 75 10000 5.14 80 19:40 14.02.2021
2536 Clouds 5 978 87 10000 6.69 100 18:51 14.02.2021
2537 Rain 6 978 87 10000 6.69 100 18:29 14.02.2021
2538 Clouds 7 979 71 10000 6.69 110 17:51 14.02.2021
2539 Clouds 7 979 71 10000 6.69 110 17:33 14.02.2021
2540 Clouds 7 979 81 10000 10.29 120 16:48 14.02.2021
2541 Rain 6 979 81 10000 10.29 120 16:25 14.02.2021
2542 Clouds 7 980 81 10000 10.8 120 15:49 14.02.2021
2543 Clouds 7 980 81 10000 10.8 120 15:29 14.02.2021
2544 Clouds 6 980 81 10000 9.77 110 14:45 14.02.2021
2545 Clouds 7 980 81 10000 9.77 110 14:25 14.02.2021
2546 Rain 6 980 75 10000 9.77 100 13:42 14.02.2021
2547 Clouds 6 980 75 10000 9.77 100 13:23 14.02.2021
2548 Clouds 6 981 65 10000 9.26 90 12:37 14.02.2021
2549 Clouds 6 981 65 10000 9.26 90 12:18 14.02.2021
2550 Clouds 6 982 61 10000 8.75 80 11:43 14.02.2021
2551 Clouds 5 982 61 10000 8.75 80 11:20 14.02.2021
2552 Clouds 5 982 61 10000 9.26 80 10:31 14.02.2021
2553 Clouds 5 984 61 10000 9.77 70 09:41 14.02.2021
2554 Clouds 5 984 61 10000 9.77 70 09:21 14.02.2021
2555 Clouds 5 984 61 10000 9.77 70 09:21 14.02.2021
2556 Clouds 5 986 56 10000 8.23 60 08:58 14.02.2021
2557 Clouds 5 986 56 10000 8.23 60 08:18 14.02.2021
2558 Clear 5 988 56 10000 9.26 80 07:47 14.02.2021
2559 Clouds 5 989 52 10000 10.29 80 06:26 14.02.2021
2560 Clouds 5 993 65 10000 11.83 80 04:34 14.02.2021
2561 Rain 4 996 65 10000 10.29 80 02:30 14.02.2021
2562 Clouds 4 997 65 10000 10.8 80 01:29 14.02.2021
2563 Clouds 5 998 70 10000 7.2 80 00:41 14.02.2021
2564 Clouds 4 998 65 10000 11.83 90 23:57 13.02.2021
2565 Clouds 4 998 65 10000 11.83 90 23:25 13.02.2021
2566 Rain 4 1000 60 10000 10.8 100 22:57 13.02.2021
2567 Rain 4 1000 60 10000 10.8 100 22:22 13.02.2021
2568 Rain 4 1001 65 10000 8.75 90 21:49 13.02.2021
2569 Clouds 4 1001 65 10000 8.75 90 21:27 13.02.2021
2570 Clouds 5 1002 60 10000 11.83 100 20:45 13.02.2021
2571 Clouds 5 1002 60 10000 11.83 100 20:26 13.02.2021
2572 Clouds 4 1001 65 10000 14.4 120 19:48 13.02.2021
2573 Clouds 5 1001 65 10000 14.4 120 19:24 13.02.2021
2574 Clouds 5 1001 65 10000 14.4 120 18:50 13.02.2021
2575 Clouds 5 1001 65 10000 14.4 120 18:27 13.02.2021
2576 Clouds 6 1002 61 10000 11.32 100 17:44 13.02.2021
2577 Clouds 6 1002 61 10000 11.32 100 17:25 13.02.2021
2578 Clouds 6 1003 65 10000 10.8 100 16:53 13.02.2021
2579 Clouds 6 1003 65 10000 10.8 100 16:35 13.02.2021
2580 Clouds 6 1004 65 10000 11.32 100 15:43 13.02.2021
2581 Clouds 6 1004 65 10000 11.32 100 15:25 13.02.2021
2582 Clouds 6 1003 61 10000 16.98 120 14:41 13.02.2021
2583 Clouds 6 1004 61 10000 14.4 110 13:49 13.02.2021
2584 Clouds 6 1004 61 10000 14.4 110 13:27 13.02.2021
2585 Clouds 6 1005 61 10000 14.4 110 12:53 13.02.2021
2586 Clouds 6 1005 61 10000 14.4 110 12:21 13.02.2021
2587 Clouds 6 1005 61 10000 14.4 110 11:55 13.02.2021
2588 Clouds 6 1005 61 10000 14.4 110 11:23 13.02.2021
2589 Clouds 6 1005 61 10000 14.4 110 11:23 13.02.2021
2590 Clouds 6 1005 65 10000 13.38 110 10:59 13.02.2021
2591 Clouds 5 1005 65 10000 13.38 110 10:41 13.02.2021
2592 Clouds 6 1005 65 10000 13.38 110 10:22 13.02.2021
2593 Clouds 6 1006 61 10000 12.86 110 09:46 13.02.2021
2594 Clouds 6 1006 61 10000 12.86 110 09:25 13.02.2021
2595 Clouds 6 1006 61 10000 12.86 100 08:47 13.02.2021
2596 Clouds 6 1006 61 10000 12.86 100 08:18 13.02.2021
2597 Rain 5 1007 65 10000 12.35 110 06:50 13.02.2021
2598 Clouds 5 1007 65 10000 12.35 110 06:24 13.02.2021
2599 Clouds 5 1007 65 10000 13.38 100 04:31 13.02.2021
2600 Clouds 5 1009 65 10000 12.86 100 02:37 13.02.2021
2601 Clouds 5 1010 65 10000 8.23 100 00:54 13.02.2021
2602 Clouds 5 1010 65 10000 8.23 100 00:18 13.02.2021
2603 Clouds 5 1010 65 10000 9.26 90 23:44 12.02.2021
2604 Clouds 5 1010 65 10000 9.26 90 23:18 12.02.2021
2605 Clouds 5 1011 60 10000 7.72 90 22:32 12.02.2021
2606 Clouds 4 1012 65 10000 9.77 90 21:58 12.02.2021
2607 Clouds 4 1012 65 10000 9.77 90 21:38 12.02.2021
2608 Clouds 4 1012 65 10000 9.77 90 21:20 12.02.2021
2609 Clouds 4 1012 65 10000 9.26 90 20:40 12.02.2021
2610 Clouds 4 1012 65 10000 9.26 90 20:21 12.02.2021
2611 Clouds 4 1013 70 10000 5.66 70 19:49 12.02.2021
2612 Clouds 4 1013 70 10000 5.66 70 19:27 12.02.2021
2613 Clouds 4 1013 70 10000 10.29 90 18:32 12.02.2021
2614 Clouds 4 1014 65 10000 9.77 90 17:53 12.02.2021
2615 Clouds 4 1014 65 10000 9.77 90 17:35 12.02.2021
2616 Clouds 4 1014 65 10000 8.23 90 16:44 12.02.2021
2617 Clouds 4 1015 65 10000 8.23 90 15:49 12.02.2021
2618 Clouds 4 1015 65 10000 8.23 90 15:24 12.02.2021
2619 Rain 4 1015 65 10000 7.2 80 14:59 12.02.2021
2620 Clouds 4 1015 65 10000 7.2 80 14:34 12.02.2021
2621 Clouds 3 1016 70 10000 8.23 90 13:47 12.02.2021
2622 Clouds 3 1016 70 10000 8.23 90 13:28 12.02.2021
2623 Clouds 3 1016 70 10000 10.29 90 12:53 12.02.2021
2624 Rain 3 1016 70 10000 10.29 90 12:35 12.02.2021
2625 Clouds 3 1016 70 10000 9.26 90 11:47 12.02.2021
2626 Clouds 3 1016 70 10000 9.26 90 11:20 12.02.2021
2627 Clouds 3 1017 70 10000 6.69 80 10:47 12.02.2021
2628 Clouds 3 1016 70 10000 7.2 90 09:57 12.02.2021
2629 Clouds 3 1016 70 10000 7.2 90 09:39 12.02.2021
2630 Clouds 3 1016 70 10000 7.2 90 09:19 12.02.2021
2631 Clouds 3 1017 70 10000 8.23 80 08:40 12.02.2021
2632 Clouds 3 1017 70 10000 8.23 80 08:20 12.02.2021
2633 Clouds 3 1017 65 10000 8.23 90 07:51 12.02.2021
2634 Clouds 3 1017 65 10000 8.23 90 07:21 12.02.2021
2635 Clouds 3 1018 70 10000 7.2 90 05:51 12.02.2021
2636 Clouds 3 1018 70 10000 7.2 90 05:27 12.02.2021
2637 Rain 3 1019 70 10000 5.66 90 01:59 12.02.2021
2638 Clouds 3 1019 75 10000 6.69 100 23:58 11.02.2021
2639 Clouds 3 1019 75 10000 6.69 100 23:23 11.02.2021
2640 Clouds 3 1019 70 10000 4.63 80 22:58 11.02.2021
2641 Rain 3 1019 70 10000 4.63 80 22:40 11.02.2021
2642 Clouds 3 1019 70 10000 4.63 80 22:21 11.02.2021
2643 Rain 3 1019 70 10000 6.17 80 21:42 11.02.2021
2644 Rain 3 1019 70 10000 6.17 80 21:42 11.02.2021
2645 Clouds 3 1019 70 10000 6.17 80 21:23 11.02.2021
2646 Clouds 3 1018 75 10000 7.72 100 20:47 11.02.2021
2647 Clouds 3 1018 75 10000 7.72 100 20:23 11.02.2021
2648 Clouds 3 1018 75 10000 8.23 110 19:52 11.02.2021
2649 Clouds 3 1018 75 10000 8.23 110 19:33 11.02.2021
2650 Clouds 3 1018 75 10000 9.26 110 18:59 11.02.2021
2651 Clouds 3 1018 75 10000 9.26 110 18:31 11.02.2021
2652 Clouds 3 1018 81 10000 9.26 110 17:58 11.02.2021
2653 Clouds 3 1018 81 10000 9.26 110 17:39 11.02.2021
2654 Clouds 3 1018 81 10000 9.26 110 17:19 11.02.2021
2655 Clouds 3 1018 75 10000 8.23 110 16:42 11.02.2021
2656 Clouds 3 1018 75 10000 8.23 110 16:24 11.02.2021
2657 Clouds 2 1018 87 10000 9.26 110 15:45 11.02.2021
2658 Clouds 2 1018 87 10000 9.26 110 15:26 11.02.2021
2659 Clouds 3 1018 70 10000 10.29 110 14:53 11.02.2021
2660 Clouds 3 1018 70 10000 10.29 110 14:30 11.02.2021
2661 Clouds 3 1018 70 10000 8.23 100 13:42 11.02.2021
2662 Clouds 3 1018 70 10000 8.23 100 13:19 11.02.2021
2663 Clouds 3 1017 81 10000 7.2 120 12:53 11.02.2021
2664 Clouds 3 1017 81 10000 7.2 120 12:32 11.02.2021
2665 Rain 2 1017 87 10000 6.17 110 11:47 11.02.2021
2666 Clouds 2 1017 87 10000 6.17 110 11:26 11.02.2021
2667 Clouds 2 1017 81 10000 6.69 130 10:45 11.02.2021
2668 Clouds 3 1017 81 10000 6.69 130 10:26 11.02.2021
2669 Snow 1 1017 93 10000 6.17 100 09:55 11.02.2021
2670 Snow 2 1017 93 10000 6.17 100 09:24 11.02.2021
2671 Snow 3 1016 81 10000 6.69 110 08:55 11.02.2021
2672 Snow 3 1016 81 10000 6.69 110 08:55 11.02.2021
2673 Snow 3 1016 81 10000 6.69 110 08:30 11.02.2021
2674 Clouds 2 1017 87 10000 6.69 90 07:39 11.02.2021
2675 Clouds 2 1017 87 10000 6.69 110 06:42 11.02.2021
2676 Snow 1 1017 93 10000 5.14 100 05:44 11.02.2021
2677 Clouds 1 1017 86 10000 5.66 80 02:43 11.02.2021
2678 Snow 1 1017 86 10000 5.66 80 02:19 11.02.2021
2679 Snow 1 1019 86 5000 5.66 140 00:22 11.02.2021
2680 Snow 2 1018 80 10000 6.17 140 23:46 10.02.2021
2681 Snow 2 1018 80 10000 6.17 140 23:18 10.02.2021
2682 Snow 2 1018 75 10000 5.14 130 22:42 10.02.2021
2683 Clouds 2 1018 75 10000 5.14 130 22:19 10.02.2021
2684 Clouds 2 1019 80 10000 5.14 100 21:39 10.02.2021
2685 Clouds 2 1019 80 10000 5.14 100 21:19 10.02.2021
2686 Clouds 2 1018 80 10000 3.09 130 20:47 10.02.2021
2687 Clouds 2 1018 80 10000 3.09 130 20:24 10.02.2021
2688 Clouds 2 1019 80 10000 4.12 100 19:48 10.02.2021
2689 Rain 2 1019 80 10000 4.12 100 19:27 10.02.2021
2690 Clouds 2 1019 80 10000 2.57 70 18:47 10.02.2021
2691 Snow 2 1019 80 10000 2.57 70 18:26 10.02.2021
2692 Snow 2 1019 80 10000 3.6 150 17:57 10.02.2021
2693 Snow 2 1019 80 10000 3.6 150 17:26 10.02.2021
2694 Rain 3 1019 70 10000 4.63 140 16:57 10.02.2021
2695 Rain 3 1019 70 10000 4.63 140 16:38 10.02.2021
2696 Rain 3 1019 70 10000 4.63 140 16:19 10.02.2021
2697 Clouds 2 1020 87 10000 3.09 150 15:24 10.02.2021
2698 Clouds 2 1020 80 10000 6.17 190 14:52 10.02.2021
2699 Rain 2 1020 80 10000 6.17 190 14:34 10.02.2021
2700 Rain 2 1021 80 4000 2.06 200 13:54 10.02.2021
2701 Clouds 3 1020 75 10000 1.03 0 13:30 10.02.2021
2702 Rain 2 1020 87 10000 3.09 90 12:53 10.02.2021
2703 Clouds 2 1020 87 10000 3.09 90 12:30 10.02.2021
2704 Clouds 1 1020 93 10000 2.06 90 11:57 10.02.2021
2705 Clouds 2 1020 93 10000 2.06 90 11:39 10.02.2021
2706 Clouds 2 1020 93 10000 2.06 90 11:20 10.02.2021
2707 Clouds 1 1021 93 10000 4.12 90 10:24 10.02.2021
2708 Snow 0 1021 100 1000 2.57 130 09:56 10.02.2021
2709 Snow 0 1021 100 1000 2.57 130 09:32 10.02.2021
2710 Snow 0 1022 93 1000 5.66 150 08:56 10.02.2021
2711 Snow 0 1022 93 1000 5.66 150 08:33 10.02.2021
2712 Snow 0 1021 93 10000 4.12 80 07:37 10.02.2021
2713 Clouds -1 1021 100 10000 5.14 90 06:21 10.02.2021
2714 Snow 0 1023 80 10000 5.66 90 01:37 10.02.2021
2715 Snow 0 1024 80 10000 6.17 80 00:22 10.02.2021
2716 Snow 0 1024 80 10000 5.14 70 23:33 09.02.2021
2717 Snow 0 1025 74 10000 3.6 80 22:49 09.02.2021
2718 Snow 0 1025 74 10000 3.6 80 22:24 09.02.2021
2719 Snow 0 1025 60 10000 1.54 70 21:52 09.02.2021
2720 Snow 0 1025 60 10000 1.54 70 21:25 09.02.2021
2721 Snow 0 1025 60 10000 4.63 80 20:45 09.02.2021
2722 Clouds 1 1025 60 10000 4.63 80 20:25 09.02.2021
2723 Snow 1 1025 55 10000 3.09 100 19:53 09.02.2021
2724 Snow 1 1025 55 10000 3.09 100 19:30 09.02.2021
2725 Clear 1 1025 55 10000 2.06 60 18:56 09.02.2021
2726 Clear 1 1025 55 10000 2.06 60 18:35 09.02.2021
2727 Clear 1 1025 51 10000 3.6 60 17:56 09.02.2021
2728 Clear 1 1025 51 10000 3.6 60 17:36 09.02.2021
2729 Clear 1 1025 51 10000 3.6 60 17:18 09.02.2021
2730 Clouds 2 1026 48 10000 4.12 90 16:38 09.02.2021
2731 Clouds 2 1026 48 10000 4.12 90 16:18 09.02.2021
2732 Clear 1 1026 51 10000 4.12 70 15:41 09.02.2021
2733 Snow 1 1026 51 10000 4.12 70 15:23 09.02.2021
2734 Clouds 1 1027 47 10000 4.63 80 14:48 09.02.2021
2735 Clouds 1 1027 47 10000 4.63 80 14:26 09.02.2021
2736 Clouds 1 1027 47 10000 4.63 80 14:26 09.02.2021
2737 Clear 0 1027 55 10000 4.12 90 13:43 09.02.2021
2738 Clear 0 1027 55 10000 4.12 90 13:21 09.02.2021
2739 Clear 0 1027 55 10000 4.63 80 12:48 09.02.2021
2740 Clear 0 1027 55 10000 4.63 80 12:28 09.02.2021
2741 Clear 0 1027 55 10000 4.63 80 11:45 09.02.2021
2742 Clear 0 1027 55 10000 4.63 80 11:45 09.02.2021
2743 Clear 0 1027 55 10000 4.63 80 11:23 09.02.2021
2744 Clear 0 1027 59 10000 4.63 80 10:58 09.02.2021
2745 Clear 0 1027 59 10000 4.63 80 10:38 09.02.2021
2746 Clear 0 1027 59 10000 4.63 80 10:18 09.02.2021
2747 Clear -1 1027 59 10000 4.63 90 09:41 09.02.2021
2748 Clear -1 1027 59 10000 4.63 90 09:21 09.02.2021
2749 Clear -1 1027 64 10000 4.12 90 08:34 09.02.2021
2750 Clear -1 1027 64 10000 3.6 70 07:57 09.02.2021
2751 Clear 0 1027 59 10000 4.12 90 05:40 09.02.2021
2752 Clear -1 1027 51 10000 5.66 80 03:49 09.02.2021
2753 Clear 0 1027 51 10000 4.63 80 02:26 09.02.2021
2754 Clear -1 1028 59 10000 3.6 70 00:31 09.02.2021
2755 Clear 0 1027 55 10000 5.14 80 23:44 08.02.2021
2756 Clear 0 1027 55 10000 5.14 80 23:19 08.02.2021
2757 Clear 0 1027 51 10000 6.17 80 22:43 08.02.2021
2758 Clear 0 1027 51 10000 6.17 80 22:22 08.02.2021
2759 Clear 0 1027 55 10000 6.17 70 21:49 08.02.2021
2760 Clear 0 1027 55 10000 6.17 70 21:30 08.02.2021
2761 Clear 1 1027 51 10000 4.12 90 20:55 08.02.2021
2762 Clear 1 1027 51 10000 4.12 90 20:36 08.02.2021
2763 Clear 1 1027 51 10000 4.12 90 20:36 08.02.2021
2764 Clear 1 1027 51 10000 4.12 90 20:18 08.02.2021
2765 Clear 1 1027 51 10000 6.69 80 19:41 08.02.2021
2766 Clear 1 1027 51 10000 6.69 80 19:21 08.02.2021
2767 Clear 2 1026 48 10000 6.69 80 18:44 08.02.2021
2768 Clear 2 1026 48 10000 6.69 80 18:19 08.02.2021
2769 Clear 3 1026 45 10000 6.69 90 17:43 08.02.2021
2770 Clear 3 1026 45 10000 6.69 90 17:23 08.02.2021
2771 Clouds 3 1026 41 10000 7.2 80 16:42 08.02.2021
2772 Clouds 4 1026 41 10000 7.2 80 16:21 08.02.2021
2773 Clear 4 1026 45 10000 5.66 80 15:42 08.02.2021
2774 Clear 3 1026 45 10000 5.66 80 15:20 08.02.2021
2775 Clear 3 1026 48 10000 7.72 80 14:51 08.02.2021
2776 Clear 2 1026 48 10000 7.72 80 14:31 08.02.2021
2777 Clear 2 1027 52 10000 4.63 70 13:56 08.02.2021
2778 Clear 2 1027 52 10000 4.63 70 13:32 08.02.2021
2779 Clear 2 1026 55 10000 6.17 90 12:53 08.02.2021
2780 Clear 1 1026 55 10000 6.17 90 12:34 08.02.2021
2781 Clear 1 1026 55 10000 5.66 100 11:44 08.02.2021
2782 Clear 1 1026 55 10000 5.66 100 11:21 08.02.2021
2783 Clear 1 1025 56 10000 7.72 80 10:44 08.02.2021
2784 Clear 1 1025 56 10000 7.72 80 10:24 08.02.2021
2785 Clear 2 1026 56 10000 7.72 80 09:51 08.02.2021
2786 Clear 2 1026 56 10000 7.72 80 09:30 08.02.2021
2787 Clear 2 1025 52 10000 7.72 90 08:41 08.02.2021
2788 Clear 3 1025 52 10000 7.72 90 08:18 08.02.2021
2789 Clear 3 1025 56 10000 7.2 80 07:22 08.02.2021
2790 Clear 2 1024 60 10000 4.12 70 05:53 08.02.2021
2791 Clear 2 1024 55 10000 7.2 70 02:28 08.02.2021
2792 Snow 2 1024 55 10000 5.66 70 01:18 08.02.2021
2793 Clear 2 1024 51 10000 5.14 70 00:21 08.02.2021
2794 Snow 1 1024 55 10000 6.17 70 23:48 07.02.2021
2795 Clear 1 1024 55 10000 6.17 70 23:20 07.02.2021
2796 Clear 2 1025 51 10000 5.14 90 22:45 07.02.2021
2797 Clear 2 1025 51 10000 5.14 90 22:26 07.02.2021
2798 Clear 1 1025 48 10000 6.17 80 21:53 07.02.2021
2799 Clear 2 1025 48 10000 6.17 80 21:28 07.02.2021
2800 Clear 2 1025 51 10000 3.6 80 20:54 07.02.2021
2801 Clear 1 1025 51 10000 3.6 80 20:34 07.02.2021
2802 Clear 2 1025 51 10000 5.14 90 19:55 07.02.2021
2803 Clear 1 1025 51 10000 5.14 90 19:31 07.02.2021
2804 Clear 2 1025 48 10000 6.69 90 18:57 07.02.2021
2805 Clear 2 1025 48 10000 6.69 90 18:37 07.02.2021
2806 Clear 2 1025 48 10000 6.69 90 18:18 07.02.2021
2807 Clear 3 1025 44 10000 7.2 90 17:44 07.02.2021
2808 Clear 3 1025 44 10000 7.2 90 17:20 07.02.2021
2809 Clear 3 1025 41 10000 7.72 80 16:48 07.02.2021
2810 Clear 2 1025 41 10000 7.72 80 16:27 07.02.2021
2811 Clear 3 1025 41 10000 7.2 90 15:58 07.02.2021
2812 Clear 3 1025 41 10000 7.2 90 15:40 07.02.2021
2813 Clear 3 1025 41 10000 7.2 90 15:21 07.02.2021
2814 Clear 3 1026 41 10000 5.66 70 14:39 07.02.2021
2815 Clear 3 1026 41 10000 5.66 70 14:21 07.02.2021
2816 Clear 2 1027 41 10000 3.6 90 13:36 07.02.2021
2817 Clear 2 1027 44 10000 4.12 100 12:59 07.02.2021
2818 Clear 2 1027 44 10000 4.12 100 12:38 07.02.2021
2819 Clear 2 1027 44 10000 4.12 100 12:19 07.02.2021
2820 Clear 1 1027 47 10000 1.03 0 11:39 07.02.2021
2821 Clear 1 1027 47 10000 1.03 0 11:18 07.02.2021
2822 Clear 2 1027 44 10000 5.66 80 10:29 07.02.2021
2823 Clear 2 1027 44 10000 7.2 80 09:51 07.02.2021
2824 Clear 2 1027 44 10000 7.2 80 09:25 07.02.2021
2825 Clear 2 1027 44 10000 7.72 80 08:50 07.02.2021
2826 Clear 1 1028 44 10000 6.17 90 07:56 07.02.2021
2827 Clear 1 1028 44 10000 7.2 90 06:21 07.02.2021
2828 Clear 2 1028 44 10000 7.2 80 04:34 07.02.2021
2829 Clear 1 1028 44 10000 7.2 90 02:26 07.02.2021
2830 Clear 1 1029 44 10000 7.72 80 00:37 07.02.2021
2831 Clear 1 1029 48 10000 8.23 90 23:51 06.02.2021
2832 Clear 1 1028 48 10000 9.26 90 22:54 06.02.2021
2833 Clear 1 1028 48 10000 9.26 90 22:19 06.02.2021
2834 Clear 1 1028 51 10000 6.69 70 21:37 06.02.2021
2835 Clear 1 1028 51 10000 6.69 70 21:19 06.02.2021
2836 Clear 1 1027 51 10000 7.72 90 20:43 06.02.2021
2837 Clear 1 1027 51 10000 7.72 90 20:22 06.02.2021
2838 Clouds 2 1027 48 10000 9.77 80 19:45 06.02.2021
2839 Clouds 2 1027 48 10000 9.77 80 19:23 06.02.2021
2840 Clouds 2 1027 56 10000 8.23 80 18:44 06.02.2021
2841 Clouds 2 1027 56 10000 8.23 80 18:24 06.02.2021
2842 Clear 2 1027 56 10000 8.23 80 17:41 06.02.2021
2843 Clear 2 1027 56 10000 8.23 80 17:21 06.02.2021
2844 Clouds 3 1026 48 10000 9.26 80 16:52 06.02.2021
2845 Clouds 3 1026 48 10000 9.26 80 16:30 06.02.2021
2846 Clouds 3 1026 52 10000 9.77 90 15:53 06.02.2021
2847 Clouds 3 1026 52 10000 9.77 90 15:34 06.02.2021
2848 Clear 3 1026 52 10000 10.29 90 14:59 06.02.2021
2849 Clear 3 1026 52 10000 10.29 90 14:39 06.02.2021
2850 Clear 3 1026 52 10000 10.29 90 14:21 06.02.2021
2851 Clouds 2 1026 52 10000 9.26 90 13:44 06.02.2021
2852 Clouds 2 1026 60 10000 7.72 90 12:41 06.02.2021
2853 Clouds 2 1026 60 10000 7.72 90 12:20 06.02.2021
2854 Clear 1 1026 55 10000 7.72 90 11:40 06.02.2021
2855 Clear 1 1026 55 10000 7.72 90 11:20 06.02.2021
2856 Clouds 1 1026 55 10000 5.14 80 10:52 06.02.2021
2857 Clouds 1 1026 55 10000 5.14 80 10:26 06.02.2021
2858 Clouds 1 1026 60 10000 5.66 90 09:38 06.02.2021
2859 Clouds 1 1026 60 10000 5.66 90 09:19 06.02.2021
2860 Clear 1 1025 60 10000 7.2 90 08:59 06.02.2021
2861 Clear 1 1025 60 10000 7.2 90 08:29 06.02.2021
2862 Clear 1 1025 69 10000 6.69 90 07:20 06.02.2021
2863 Clear 1 1025 64 10000 7.2 100 05:42 06.02.2021
2864 Clear 1 1024 64 10000 7.2 80 02:52 06.02.2021
2865 Clear 1 1024 64 10000 7.2 80 00:59 06.02.2021
2866 Clear 1 1024 64 10000 7.2 80 00:41 06.02.2021
2867 Clear 1 1024 64 10000 7.2 80 00:18 06.02.2021
2868 Clear 1 1024 64 10000 6.69 90 23:35 05.02.2021
2869 Clear 1 1024 64 10000 6.69 90 23:35 05.02.2021
2870 Clouds 2 1023 64 10000 6.69 80 22:56 05.02.2021
2871 Clouds 2 1023 64 10000 6.69 80 22:29 05.02.2021
2872 Clear 1 1023 64 10000 4.63 70 21:59 05.02.2021
2873 Clear 1 1023 64 10000 4.63 70 21:59 05.02.2021
2874 Clear 2 1023 64 10000 4.63 70 21:39 05.02.2021
2875 Clouds 2 1023 60 10000 5.66 90 20:58 05.02.2021
2876 Clouds 2 1023 60 10000 5.66 90 20:37 05.02.2021
2877 Clouds 2 1022 60 10000 6.17 90 19:47 05.02.2021
2878 Clouds 2 1022 60 10000 6.17 90 19:19 05.02.2021
2879 Clouds 3 1022 56 10000 7.2 100 18:43 05.02.2021
2880 Clouds 3 1022 56 10000 7.2 100 18:43 05.02.2021
2881 Clouds 3 1022 56 10000 7.2 100 18:19 05.02.2021
2882 Clouds 3 1022 56 10000 7.2 100 18:19 05.02.2021
2883 Clouds 3 1022 56 10000 7.72 100 17:42 05.02.2021
2884 Rain 3 1022 56 10000 7.72 100 17:21 05.02.2021
2885 Clouds 3 1022 60 10000 8.75 110 16:44 05.02.2021
2886 Clouds 3 1022 60 10000 8.75 110 16:23 05.02.2021
2887 Clouds 4 1022 60 10000 10.29 110 15:51 05.02.2021
2888 Clouds 4 1022 60 10000 10.29 110 15:25 05.02.2021
2889 Clouds 4 1022 56 10000 11.32 110 14:40 05.02.2021
2890 Clouds 4 1022 56 10000 11.32 110 14:22 05.02.2021
2891 Clouds 3 1022 60 10000 12.35 120 13:57 05.02.2021
2892 Clouds 3 1022 60 10000 12.35 120 13:33 05.02.2021
2893 Clouds 3 1022 65 10000 10.8 120 12:47 05.02.2021
2894 Clouds 3 1022 65 10000 10.8 120 12:27 05.02.2021
2895 Clouds 3 1022 65 10000 8.75 110 11:40 05.02.2021
2896 Clouds 3 1022 65 10000 8.75 110 11:21 05.02.2021
2897 Clouds 3 1021 65 10000 7.2 110 10:54 05.02.2021
2898 Clouds 3 1021 65 10000 7.2 110 10:27 05.02.2021
2899 Clouds 3 1021 70 10000 10.8 120 09:47 05.02.2021
2900 Clouds 3 1021 70 10000 10.8 120 09:27 05.02.2021
2901 Clouds 3 1021 65 10000 8.75 120 08:52 05.02.2021
2902 Clouds 3 1021 65 10000 8.75 120 08:22 05.02.2021
2903 Clouds 3 1021 65 10000 7.2 110 07:36 05.02.2021
2904 Clouds 3 1021 70 10000 10.29 110 06:52 05.02.2021
2905 Clouds 3 1021 65 10000 7.72 100 05:37 05.02.2021
2906 Clouds 3 1021 65 10000 8.75 110 03:18 05.02.2021
2907 Clouds 3 1021 65 10000 10.8 110 02:24 05.02.2021
2908 Clouds 2 1021 60 10000 8.23 100 00:40 05.02.2021
2909 Clouds 2 1021 60 10000 8.23 100 00:20 05.02.2021
2910 Clear 2 1021 60 10000 8.75 110 23:57 04.02.2021
2911 Clear 2 1021 60 10000 8.75 110 23:39 04.02.2021
2912 Clear 2 1021 60 10000 8.75 110 23:20 04.02.2021
2913 Clear 2 1021 64 10000 8.23 110 22:51 04.02.2021
2914 Clear 2 1021 64 10000 8.23 110 22:26 04.02.2021
2915 Clouds 2 1021 60 10000 7.72 110 21:42 04.02.2021
2916 Clouds 2 1021 60 10000 7.72 110 21:20 04.02.2021
2917 Clouds 2 1021 69 10000 8.23 110 20:49 04.02.2021
2918 Clouds 2 1021 69 10000 8.23 110 20:30 04.02.2021
2919 Clouds 2 1021 69 10000 8.23 110 20:30 04.02.2021
2920 Rain 2 1021 75 10000 9.26 120 19:43 04.02.2021
2921 Clouds 3 1021 70 10000 11.32 120 18:57 04.02.2021
2922 Clouds 3 1021 70 10000 11.32 120 18:26 04.02.2021
2923 Rain 3 1021 70 10000 10.8 120 17:53 04.02.2021
2924 Rain 3 1021 70 10000 10.8 120 17:53 04.02.2021
2925 Clouds 3 1021 70 10000 10.8 120 17:28 04.02.2021
2926 Rain 3 1021 65 10000 10.8 120 16:57 04.02.2021
2927 Clouds 3 1021 65 10000 10.8 120 16:38 04.02.2021
2928 Clouds 3 1021 65 10000 10.8 120 16:18 04.02.2021
2929 Clouds 3 1021 60 10000 9.77 120 15:40 04.02.2021
2930 Clouds 3 1021 60 10000 9.77 120 15:20 04.02.2021
2931 Clouds 3 1021 60 10000 9.77 120 15:20 04.02.2021
2932 Rain 3 1022 60 10000 8.75 120 14:48 04.02.2021
2933 Rain 3 1022 60 10000 8.75 120 14:21 04.02.2021
2934 Clouds 3 1022 60 10000 10.8 120 13:48 04.02.2021
2935 Clouds 3 1022 60 10000 10.8 120 13:28 04.02.2021
2936 Clouds 2 1022 60 10000 9.26 100 12:54 04.02.2021
2937 Rain 2 1022 55 10000 6.69 110 11:57 04.02.2021
2938 Clouds 2 1022 55 10000 6.69 110 11:37 04.02.2021
2939 Clouds 2 1022 55 10000 6.69 110 11:18 04.02.2021
2940 Clouds 2 1021 55 10000 8.23 100 10:36 04.02.2021
2941 Clouds 2 1022 55 10000 7.72 90 09:46 04.02.2021
2942 Clouds 2 1022 55 10000 7.72 90 09:23 04.02.2021
2943 Clouds 1 1021 60 10000 8.75 90 08:58 04.02.2021
2944 Clouds 1 1021 60 10000 8.75 90 08:27 04.02.2021
2945 Clouds 1 1021 60 10000 8.23 110 07:58 04.02.2021
2946 Clouds 1 1021 60 10000 8.23 110 07:35 04.02.2021
2947 Clouds 1 1021 55 10000 6.69 100 06:53 04.02.2021
2948 Clouds 1 1021 55 10000 6.69 100 06:34 04.02.2021
2949 Clear 2 1021 60 10000 9.26 110 02:43 04.02.2021
2950 Clear 2 1021 60 10000 9.26 110 02:24 04.02.2021
2951 Clear 1 1020 60 10000 7.2 100 00:31 04.02.2021
2952 Clear 2 1020 60 10000 8.75 100 23:39 03.02.2021
2953 Clear 2 1019 55 10000 8.75 90 22:41 03.02.2021
2954 Clear 2 1019 55 10000 8.75 90 22:21 03.02.2021
2955 Clear 1 1019 60 10000 6.17 90 21:56 03.02.2021
2956 Clear 2 1019 60 10000 6.17 90 21:25 03.02.2021
2957 Clouds 2 1018 60 10000 6.17 90 20:58 03.02.2021
2958 Clouds 2 1018 60 10000 6.17 90 20:38 03.02.2021
2959 Clouds 2 1018 60 10000 6.17 90 20:19 03.02.2021
2960 Clouds 2 1017 60 10000 5.14 90 19:42 03.02.2021
2961 Clouds 2 1017 60 10000 5.14 90 19:19 03.02.2021
2962 Clear 2 1017 55 10000 6.69 90 18:46 03.02.2021
2963 Clear 2 1017 55 10000 6.69 90 18:19 03.02.2021
2964 Clouds 3 1016 52 10000 5.66 90 17:51 03.02.2021
2965 Clouds 3 1016 52 10000 5.66 90 17:30 03.02.2021
2966 Clouds 3 1015 48 10000 7.2 100 16:53 03.02.2021
2967 Clouds 3 1015 48 10000 7.2 100 16:29 03.02.2021
2968 Clouds 2 1015 51 10000 6.69 90 15:45 03.02.2021
2969 Clouds 2 1015 51 10000 6.69 90 15:25 03.02.2021
2970 Clouds 2 1015 51 10000 7.72 90 14:53 03.02.2021
2971 Clouds 2 1015 51 10000 7.72 90 14:53 03.02.2021
2972 Clouds 2 1015 51 10000 7.72 90 14:26 03.02.2021
2973 Clouds 2 1014 51 10000 8.23 90 13:54 03.02.2021
2974 Clouds 2 1014 51 10000 8.23 90 13:28 03.02.2021
2975 Clouds 1 1013 60 10000 5.66 90 12:49 03.02.2021
2976 Clouds 1 1013 60 10000 5.66 90 12:27 03.02.2021
2977 Clouds 1 1013 60 10000 8.23 90 11:54 03.02.2021
2978 Clouds 1 1013 60 10000 8.23 90 11:36 03.02.2021
2979 Clouds 2 1012 60 10000 8.75 90 10:56 03.02.2021
2980 Clouds 2 1012 60 10000 8.75 90 10:22 03.02.2021
2981 Clouds 1 1012 55 10000 8.23 90 09:48 03.02.2021
2982 Clouds 2 1012 55 10000 8.23 90 09:29 03.02.2021
2983 Clouds 1 1011 51 10000 8.23 90 08:54 03.02.2021
2984 Clouds 1 1011 51 10000 8.23 90 08:54 03.02.2021
2985 Clouds 1 1011 51 10000 8.23 90 08:34 03.02.2021
2986 Clear 1 1010 51 10000 6.69 90 07:41 03.02.2021
2987 Clear 1 1010 51 10000 7.72 90 06:41 03.02.2021
2988 Clear 1 1010 51 10000 5.14 80 04:55 03.02.2021
2989 Clear 1 1010 51 10000 5.14 80 04:32 03.02.2021
2990 Clear 0 1010 51 10000 5.14 70 03:39 03.02.2021
2991 Clear 0 1010 55 10000 5.66 60 02:37 03.02.2021
2992 Clear 1 1009 51 10000 6.69 90 00:56 03.02.2021
2993 Clear 1 1009 51 10000 8.75 100 23:59 02.02.2021
2994 Clear 1 1009 51 10000 8.75 100 23:40 02.02.2021
2995 Clear 1 1009 51 10000 8.75 100 23:22 02.02.2021
2996 Clear 1 1009 55 10000 6.17 100 22:37 02.02.2021
2997 Clear 1 1009 55 10000 6.17 100 22:18 02.02.2021
2998 Clear 1 1009 55 10000 5.66 90 21:39 02.02.2021
2999 Clear 1 1009 55 10000 5.66 90 21:21 02.02.2021
3000 Clear 1 1008 51 10000 9.26 90 20:47 02.02.2021
3001 Clear 1 1008 51 10000 9.26 90 20:21 02.02.2021
3002 Clear 1 1008 55 10000 6.17 80 19:48 02.02.2021
3003 Clear 1 1008 55 10000 6.17 80 19:30 02.02.2021
3004 Clear 2 1007 55 10000 7.72 80 18:48 02.02.2021
3005 Clear 2 1007 55 10000 7.72 80 18:26 02.02.2021
3006 Clouds 2 1006 55 10000 7.2 90 17:59 02.02.2021
3007 Clouds 2 1006 55 10000 7.2 90 17:36 02.02.2021
3008 Clouds 2 1006 55 10000 7.2 90 17:18 02.02.2021
3009 Clouds 2 1006 55 10000 9.26 90 16:42 02.02.2021
3010 Clouds 2 1006 55 10000 9.26 90 16:23 02.02.2021
3011 Clouds 2 1006 51 10000 8.23 90 15:42 02.02.2021
3012 Clouds 2 1006 51 10000 8.23 90 15:23 02.02.2021
3013 Clouds 2 1006 51 10000 9.26 90 14:50 02.02.2021
3014 Clouds 2 1006 51 10000 9.26 90 14:31 02.02.2021
3015 Clear 2 1006 48 10000 7.72 80 13:56 02.02.2021
3016 Clear 2 1006 48 10000 7.72 80 13:37 02.02.2021
3017 Clear 2 1006 48 10000 7.72 80 13:19 02.02.2021
3018 Clear 1 1006 51 10000 8.23 90 12:41 02.02.2021
3019 Clouds 1 1006 51 10000 8.23 80 11:45 02.02.2021
3020 Clouds 1 1006 51 10000 8.23 80 11:24 02.02.2021
3021 Clear 1 1005 47 10000 7.72 90 10:56 02.02.2021
3022 Clear 0 1005 47 10000 7.72 90 10:31 02.02.2021
3023 Clear 1 1005 44 10000 6.17 80 09:48 02.02.2021
3024 Clear 0 1005 44 10000 6.17 80 09:26 02.02.2021
3025 Clear 0 1005 44 10000 6.17 80 09:26 02.02.2021
3026 Clear 0 1005 47 10000 7.72 80 08:59 02.02.2021
3027 Clear 0 1005 47 10000 7.72 80 08:33 02.02.2021
3028 Clear 0 1005 51 10000 7.72 80 07:41 02.02.2021
3029 Clear 0 1005 55 10000 8.23 70 06:45 02.02.2021
3030 Clear 0 1005 55 10000 8.23 70 06:21 02.02.2021
3031 Clear 0 1006 55 10000 8.23 80 05:46 02.02.2021
3032 Clear 0 1006 69 10000 7.2 90 02:45 02.02.2021
3033 Clear 0 1006 69 10000 7.2 90 02:23 02.02.2021
3034 Clouds 0 1006 64 10000 7.2 100 00:37 02.02.2021
3035 Clouds 0 1006 64 10000 6.69 90 23:37 01.02.2021
3036 Snow -1 1006 64 10000 4.63 80 22:51 01.02.2021
3037 Snow -1 1006 64 10000 4.63 80 22:33 01.02.2021
3038 Clouds -1 1006 64 10000 3.09 90 21:53 01.02.2021
3039 Clouds -1 1006 64 10000 3.09 90 21:35 01.02.2021
3040 Clear -1 1006 64 10000 4.63 80 20:58 01.02.2021
3041 Clear -1 1006 64 10000 4.63 80 20:40 01.02.2021
3042 Clear -1 1006 64 10000 4.63 80 20:22 01.02.2021
3043 Clear -1 1006 59 10000 4.63 70 19:41 01.02.2021
3044 Clear -1 1006 59 10000 4.63 70 19:21 01.02.2021
3045 Clear -2 1006 59 10000 5.66 70 18:49 01.02.2021
3046 Clear -2 1006 59 10000 5.66 70 18:28 01.02.2021
3047 Clear -2 1006 46 10000 5.66 60 17:48 01.02.2021
3048 Clear -2 1006 46 10000 5.66 60 17:25 01.02.2021
3049 Clear -2 1007 50 10000 4.63 70 16:56 01.02.2021
3050 Clear -3 1007 50 10000 4.63 70 16:29 01.02.2021
3051 Clear -3 1008 54 10000 5.14 80 15:47 01.02.2021
3052 Clear -3 1008 54 10000 5.14 80 15:19 01.02.2021
3053 Clear -3 1008 54 10000 7.2 90 14:52 01.02.2021
3054 Clear -3 1008 54 10000 7.2 90 14:33 01.02.2021
3055 Clear -2 1008 54 10000 5.66 90 13:51 01.02.2021
3056 Clear -3 1008 54 10000 5.66 90 13:28 01.02.2021
3057 Clear -3 1008 54 10000 6.17 90 12:58 01.02.2021
3058 Clear -4 1008 54 10000 6.17 90 12:40 01.02.2021
3059 Clear -4 1008 54 10000 6.17 90 12:21 01.02.2021
3060 Clear -4 1008 58 10000 5.66 70 11:40 01.02.2021
3061 Clear -4 1008 58 10000 5.66 70 11:19 01.02.2021
3062 Clear -4 1008 63 10000 6.17 80 10:44 01.02.2021
3063 Clear -4 1008 63 10000 6.17 80 10:19 01.02.2021
3064 Clear -4 1008 63 10000 5.14 80 09:43 01.02.2021
3065 Clear -4 1008 63 10000 5.14 80 09:20 01.02.2021
3066 Clear -4 1008 63 10000 5.14 90 08:44 01.02.2021
3067 Clear -4 1008 63 10000 5.14 70 07:37 01.02.2021
3068 Clear -6 1007 69 10000 5.66 110 05:59 01.02.2021
3069 Clear -3 1009 63 10000 5.66 80 03:21 01.02.2021
3070 Clear -2 1009 64 10000 5.66 80 00:58 01.02.2021
3071 Clear -1 1009 64 10000 3.09 80 23:42 31.01.2021
3072 Clear -1 1009 64 10000 5.14 80 22:43 31.01.2021
3073 Clear -2 1009 64 10000 5.14 80 22:24 31.01.2021
3074 Clear -1 1009 64 10000 5.66 70 21:50 31.01.2021
3075 Clear -1 1009 64 10000 5.66 70 21:23 31.01.2021
3076 Clear -1 1009 64 10000 5.66 70 21:23 31.01.2021
3077 Clear -2 1008 64 10000 5.14 70 20:50 31.01.2021
3078 Clear -2 1008 64 10000 5.14 70 20:21 31.01.2021
3079 Clear -2 1008 59 10000 5.66 70 19:56 31.01.2021
3080 Clear -2 1008 59 10000 5.66 70 19:37 31.01.2021
3081 Clear -2 1008 59 10000 5.66 70 19:19 31.01.2021
3082 Clouds -2 1008 59 10000 6.69 80 18:41 31.01.2021
3083 Clouds -2 1008 59 10000 6.69 80 18:21 31.01.2021
3084 Clouds -1 1008 59 10000 6.17 80 17:47 31.01.2021
3085 Clouds -1 1008 59 10000 6.17 80 17:23 31.01.2021
3086 Clouds -1 1008 59 10000 6.17 90 16:51 31.01.2021
3087 Clouds -1 1008 59 10000 6.17 90 16:51 31.01.2021
3088 Clouds -1 1008 59 10000 6.17 90 16:33 31.01.2021
3089 Clouds -2 1008 64 10000 7.2 90 15:52 31.01.2021
3090 Clouds -2 1008 64 10000 7.2 90 15:34 31.01.2021
3091 Clouds -1 1008 64 10000 8.23 80 14:45 31.01.2021
3092 Clouds -1 1008 64 10000 8.23 80 14:24 31.01.2021
3093 Clouds -2 1007 74 10000 8.23 80 13:56 31.01.2021
3094 Clouds -2 1007 74 10000 8.23 80 13:56 31.01.2021
3095 Clouds -2 1007 74 10000 8.23 80 13:37 31.01.2021
3096 Clouds -2 1008 74 10000 7.72 80 12:49 31.01.2021
3097 Clouds -2 1008 74 10000 7.72 80 12:23 31.01.2021
3098 Snow -2 1007 80 10000 8.75 80 11:58 31.01.2021
3099 Clouds -2 1007 80 10000 8.75 80 11:37 31.01.2021
3100 Clouds -2 1007 80 10000 8.75 80 11:19 31.01.2021
3101 Snow -3 1007 80 10000 6.17 70 10:43 31.01.2021
3102 Snow -3 1007 80 10000 6.17 70 10:24 31.01.2021
3103 Snow -4 1008 86 9000 5.66 70 09:32 31.01.2021
3104 Snow -5 1008 93 8000 5.66 50 08:34 31.01.2021
3105 Snow -5 1008 93 4300 7.2 80 07:20 31.01.2021
3106 Clouds -5 1009 54 10000 3.09 60 05:52 31.01.2021
3107 Clear -6 1012 63 10000 4.63 70 00:52 31.01.2021
3108 Clear -6 1012 63 10000 4.63 70 00:26 31.01.2021
3109 Clear -6 1013 63 10000 3.6 90 23:34 30.01.2021
3110 Clear -5 1013 63 10000 4.12 90 22:59 30.01.2021
3111 Clear -5 1013 63 10000 4.12 90 22:33 30.01.2021
3112 Clear -5 1014 63 10000 3.09 50 21:43 30.01.2021
3113 Clear -5 1014 63 10000 3.09 50 21:23 30.01.2021
3114 Clear -4 1014 63 10000 1.54 0 20:54 30.01.2021
3115 Clear -4 1014 63 10000 1.54 0 20:34 30.01.2021
3116 Clouds -3 1014 63 10000 2.57 90 19:58 30.01.2021
3117 Clouds -3 1014 63 10000 2.57 90 19:39 30.01.2021
3118 Clouds -3 1014 63 10000 2.57 90 19:19 30.01.2021
3119 Clouds -2 1014 64 10000 3.09 80 18:40 30.01.2021
3120 Clouds -2 1014 64 10000 3.09 80 18:40 30.01.2021
3121 Clouds -2 1014 64 10000 3.09 80 18:19 30.01.2021
3122 Clouds -1 1014 69 10000 2.06 100 17:45 30.01.2021
3123 Clouds -1 1014 69 10000 2.06 100 17:18 30.01.2021
3124 Clouds -1 1014 74 10000 1.03 0 16:39 30.01.2021
3125 Clouds -1 1014 74 10000 1.03 0 16:21 30.01.2021
3126 Clouds -1 1015 80 10000 1.03 0 15:47 30.01.2021
3127 Clouds -1 1015 80 10000 1.03 0 15:23 30.01.2021
3128 Clouds -1 1015 80 10000 4.96 43 14:52 30.01.2021
3129 Clouds -1 1015 80 10000 4.49 41 14:27 30.01.2021
3130 Clouds -1 1014 74 10000 1.03 0 13:53 30.01.2021
3131 Clouds -1 1014 74 10000 1.03 0 13:20 30.01.2021
3132 Clouds -2 1014 80 10000 0.51 0 12:43 30.01.2021
3133 Clouds -2 1014 80 10000 0.51 0 12:23 30.01.2021
3134 Clouds -2 1014 74 10000 1.54 60 11:43 30.01.2021
3135 Clouds -3 1014 80 10000 1.54 70 10:56 30.01.2021
3136 Clouds -2 1014 80 10000 1.54 70 10:27 30.01.2021
3137 Clouds -3 1013 80 10000 1.54 40 09:41 30.01.2021
3138 Clouds -2 1013 80 10000 1.54 40 09:22 30.01.2021
3139 Clouds -3 1013 80 10000 1.03 0 08:44 30.01.2021
3140 Clouds -2 1013 86 10000 1.54 100 07:41 30.01.2021
3141 Clouds -1 1013 86 10000 1.03 150 06:32 30.01.2021
3142 Clouds 0 1013 74 10000 2.06 0 03:51 30.01.2021
3143 Clouds 0 1013 74 10000 2.06 0 03:31 30.01.2021
3144 Clouds 0 1013 69 10000 1.54 100 02:22 30.01.2021
3145 Clouds -1 1012 80 10000 1.54 110 00:56 30.01.2021
3146 Clouds -1 1012 80 10000 1.54 110 00:26 30.01.2021
3147 Clouds -1 1012 74 10000 1.03 0 23:54 29.01.2021
3148 Clouds -1 1012 74 10000 1.03 0 23:27 29.01.2021
3149 Clouds -1 1012 64 10000 2.06 80 22:47 29.01.2021
3150 Clouds 0 1012 64 10000 2.06 80 22:28 29.01.2021
3151 Clouds 1 1011 69 10000 1.54 70 21:58 29.01.2021
3152 Clouds 1 1011 69 10000 1.54 70 21:27 29.01.2021
3153 Clouds 1 1011 69 10000 3.09 70 20:43 29.01.2021
3154 Clouds 1 1011 69 10000 3.09 70 20:23 29.01.2021
3155 Clouds 1 1011 64 10000 3.09 80 19:40 29.01.2021
3156 Clouds 1 1011 64 10000 3.09 80 19:21 29.01.2021
3157 Clouds 1 1011 64 10000 1.03 0 18:53 29.01.2021
3158 Clouds 2 1011 64 10000 2.57 70 17:50 29.01.2021
3159 Clouds 2 1011 64 10000 2.57 70 17:23 29.01.2021
3160 Clear 2 1011 64 10000 3.09 80 16:53 29.01.2021
3161 Clear 2 1011 64 10000 3.09 80 16:28 29.01.2021
3162 Clear 2 1011 60 10000 3.6 80 15:55 29.01.2021
3163 Clear 2 1011 60 10000 3.6 80 15:37 29.01.2021
3164 Clear 2 1011 60 10000 3.6 80 15:19 29.01.2021
3165 Clear 1 1011 64 10000 3.09 60 14:23 29.01.2021
3166 Clear 1 1011 64 10000 3.09 60 13:50 29.01.2021
3167 Clear 1 1011 64 10000 3.09 60 13:31 29.01.2021
3168 Clear 0 1011 64 10000 3.09 70 12:43 29.01.2021
3169 Clear 0 1011 64 10000 3.09 70 12:19 29.01.2021
3170 Clouds -1 1011 69 10000 1.54 80 11:44 29.01.2021
3171 Clouds -1 1011 69 10000 1.54 80 11:18 29.01.2021
3172 Clouds -1 1010 64 10000 2.57 120 10:46 29.01.2021
3173 Clouds -2 1010 64 10000 2.57 120 10:23 29.01.2021
3174 Clouds -2 1010 64 10000 2.57 110 09:39 29.01.2021
3175 Clouds -5 1010 74 10000 0.51 0 08:50 29.01.2021
3176 Clouds -4 1010 74 10000 0.51 0 08:27 29.01.2021
3177 Clear -5 1010 73 10000 1.93 82 07:51 29.01.2021
3178 Clear -5 1010 73 10000 1.86 81 07:31 29.01.2021
3179 Clear -4 1010 74 10000 2 76 06:49 29.01.2021
3180 Clear -4 1010 74 10000 0.51 0 05:18 29.01.2021
3181 Clear -5 1010 68 10000 2.06 50 02:37 29.01.2021
3182 Snow -6 1011 63 10000 2.57 100 00:38 29.01.2021
3183 Clear -6 1011 63 10000 2.57 100 00:19 29.01.2021
3184 Clear -5 1011 63 10000 1.03 0 23:41 28.01.2021
3185 Clear -5 1011 63 10000 1.03 0 23:23 28.01.2021
3186 Clear -4 1010 58 10000 1.54 60 22:43 28.01.2021
3187 Clear -5 1010 58 10000 1.54 60 22:25 28.01.2021
3188 Clear -5 1010 58 10000 1.54 80 21:50 28.01.2021
3189 Clear -5 1010 58 10000 1.54 80 21:31 28.01.2021
3190 Clear -6 1010 58 10000 1.03 0 20:55 28.01.2021
3191 Clear -5 1010 58 10000 1.03 0 20:37 28.01.2021
3192 Clear -5 1010 58 10000 1.03 0 20:18 28.01.2021
3193 Clear -4 1010 54 10000 4.63 90 19:40 28.01.2021
3194 Clear -4 1010 54 10000 4.63 90 19:19 28.01.2021
3195 Clear -4 1010 54 10000 3.6 100 18:43 28.01.2021
3196 Clear -4 1010 54 10000 3.6 100 18:20 28.01.2021
3197 Clear -4 1011 59 10000 1.54 50 17:44 28.01.2021
3198 Clear -3 1011 59 10000 1.54 50 17:26 28.01.2021
3199 Clear -3 1011 59 10000 2.06 70 16:44 28.01.2021
3200 Clear -3 1011 59 10000 2.06 70 16:22 28.01.2021
3201 Clear -3 1011 59 10000 2.06 70 16:22 28.01.2021
3202 Clear -3 1011 59 10000 1.94 85 15:41 28.01.2021
3203 Clear -3 1011 59 10000 2.02 78 15:18 28.01.2021
3204 Clear -3 1011 58 10000 1.54 80 14:42 28.01.2021
3205 Clear -3 1011 58 10000 1.54 80 14:42 28.01.2021
3206 Clear -4 1011 58 10000 1.54 80 14:23 28.01.2021
3207 Clear -4 1011 58 10000 3.6 60 13:48 28.01.2021
3208 Clear -4 1011 58 10000 4.63 90 12:56 28.01.2021
3209 Clear -4 1011 58 10000 4.63 90 12:36 28.01.2021
3210 Clear -4 1011 58 10000 5.66 80 11:59 28.01.2021
3211 Clear -4 1011 58 10000 5.66 80 11:41 28.01.2021
3212 Clear -4 1011 58 10000 5.66 80 11:20 28.01.2021
3213 Clear -4 1011 58 10000 4.12 80 10:53 28.01.2021
3214 Clear -4 1011 58 10000 4.12 80 10:34 28.01.2021
3215 Clear -4 1011 63 10000 2.57 70 09:50 28.01.2021
3216 Clear -4 1011 63 10000 2.57 70 09:25 28.01.2021
3217 Clear -4 1011 63 10000 6.17 110 08:56 28.01.2021
3218 Clear -4 1011 63 10000 6.17 110 08:38 28.01.2021
3219 Clear -4 1012 68 10000 7.2 100 07:45 28.01.2021
3220 Clear -3 1012 63 10000 5.66 100 06:50 28.01.2021
3221 Clear -3 1012 63 10000 5.66 100 06:29 28.01.2021
3222 Clear -2 1013 64 10000 6.69 80 04:28 28.01.2021
3223 Clear -1 1014 59 10000 5.14 70 01:39 28.01.2021
3224 Clear 0 1014 47 10000 8.75 70 23:49 27.01.2021
3225 Clear 0 1014 47 10000 8.75 70 23:24 27.01.2021
3226 Clear 0 1014 51 10000 6.69 70 22:42 27.01.2021
3227 Clear 0 1014 51 10000 6.69 70 22:22 27.01.2021
3228 Clear 0 1014 43 10000 8.23 70 21:43 27.01.2021
3229 Clear 0 1014 43 10000 8.23 70 21:24 27.01.2021
3230 Clear 1 1014 37 10000 9.26 80 20:55 27.01.2021
3231 Clear 1 1014 37 10000 9.26 80 20:30 27.01.2021
3232 Clear 1 1015 37 10000 8.23 80 19:56 27.01.2021
3233 Clear 1 1015 37 10000 8.23 80 19:36 27.01.2021
3234 Clear 1 1015 37 10000 8.23 80 19:18 27.01.2021
3235 Clear 1 1014 37 10000 10.29 70 18:40 27.01.2021
3236 Clear 1 1014 37 10000 10.29 70 18:21 27.01.2021
3237 Clear 1 1015 40 10000 9.77 80 17:39 27.01.2021
3238 Clear 1 1015 40 10000 9.77 80 17:18 27.01.2021
3239 Clear 1 1015 40 10000 8.75 80 16:44 27.01.2021
3240 Clear 1 1015 40 10000 8.75 80 16:26 27.01.2021
3241 Clouds 1 1016 40 10000 8.23 80 15:49 27.01.2021
3242 Clouds 1 1016 40 10000 8.23 80 15:30 27.01.2021
3243 Clouds 0 1016 40 10000 8.75 70 14:40 27.01.2021
3244 Clouds 0 1016 40 10000 8.75 70 14:20 27.01.2021
3245 Clouds 0 1016 43 10000 8.23 80 13:41 27.01.2021
3246 Clear 0 1015 47 10000 11.32 80 12:46 27.01.2021
3247 Snow 0 1015 47 10000 11.32 80 12:26 27.01.2021
3248 Clear 0 1015 47 10000 7.72 90 11:52 27.01.2021
3249 Clear 0 1015 47 10000 7.72 90 11:26 27.01.2021
3250 Clear -1 1015 47 10000 7.72 80 10:59 27.01.2021
3251 Clear -1 1015 47 10000 7.72 80 10:36 27.01.2021
3252 Clear -1 1015 47 10000 7.72 80 10:18 27.01.2021
3253 Clear -1 1016 47 10000 6.69 80 09:34 27.01.2021
3254 Clear -2 1016 46 10000 5.66 80 08:48 27.01.2021
3255 Clear -1 1015 43 10000 7.2 80 07:59 27.01.2021
3256 Clear -1 1015 43 10000 7.2 80 07:40 27.01.2021
3257 Clear -1 1015 43 10000 8.23 90 06:48 27.01.2021
3258 Clear -1 1015 43 10000 7.72 90 05:57 27.01.2021
3259 Clear -1 1015 43 10000 7.72 90 05:35 27.01.2021
3260 Clear -1 1015 43 10000 5.14 70 02:46 27.01.2021
3261 Clear -1 1015 43 10000 5.14 70 02:21 27.01.2021
3262 Clear -2 1015 43 10000 9.26 90 01:46 27.01.2021
3263 Clear -2 1015 46 10000 9.26 90 00:30 27.01.2021
3264 Clear -2 1015 46 10000 9.26 90 00:30 27.01.2021
3265 Clear -3 1015 43 10000 4.63 80 23:44 26.01.2021
3266 Clear -3 1015 43 10000 4.63 80 23:22 26.01.2021
3267 Clear -3 1015 43 10000 8.23 80 22:46 26.01.2021
3268 Clear -3 1015 43 10000 8.23 80 22:20 26.01.2021
3269 Snow -3 1015 43 10000 9.26 80 21:53 26.01.2021
3270 Clear -3 1015 43 10000 9.26 80 21:27 26.01.2021
3271 Clear -3 1014 43 10000 7.2 90 20:56 26.01.2021
3272 Clear -3 1014 43 10000 7.2 90 20:38 26.01.2021
3273 Clear -3 1014 43 10000 7.2 90 20:20 26.01.2021
3274 Clear -3 1014 46 10000 8.75 90 19:43 26.01.2021
3275 Clear -3 1014 46 10000 8.75 90 19:20 26.01.2021
3276 Clear -3 1014 46 10000 10.29 100 18:46 26.01.2021
3277 Clear -3 1014 46 10000 10.29 100 18:23 26.01.2021
3278 Clear -3 1014 43 10000 7.72 80 17:48 26.01.2021
3279 Clear -3 1014 43 10000 7.72 80 17:27 26.01.2021
3280 Clear -3 1014 46 10000 9.26 90 16:53 26.01.2021
3281 Clear -3 1014 46 10000 9.26 90 16:22 26.01.2021
3282 Clear -3 1014 46 10000 10.29 90 15:58 26.01.2021
3283 Clear -3 1014 46 10000 10.29 90 15:39 26.01.2021
3284 Clear -3 1014 46 10000 10.29 90 15:18 26.01.2021
3285 Clear -3 1014 40 10000 10.8 90 14:35 26.01.2021
3286 Clear -3 1014 43 10000 9.26 80 13:59 26.01.2021
3287 Clear -3 1014 43 10000 9.26 80 13:33 26.01.2021
3288 Clear -3 1014 43 10000 10.29 80 12:57 26.01.2021
3289 Clear -3 1014 43 10000 10.29 80 12:37 26.01.2021
3290 Clear -3 1014 43 10000 10.29 80 12:19 26.01.2021
3291 Clear -3 1013 46 10000 9.77 80 11:49 26.01.2021
3292 Clear -3 1013 46 10000 9.77 80 11:19 26.01.2021
3293 Clear -2 1012 46 10000 11.32 80 10:34 26.01.2021
3294 Clear -2 1012 50 10000 11.83 80 09:57 26.01.2021
3295 Clear -2 1012 50 10000 11.83 80 09:39 26.01.2021
3296 Clear -2 1012 50 10000 11.83 80 09:21 26.01.2021
3297 Clear -2 1012 50 10000 11.32 80 08:44 26.01.2021
3298 Clear -1 1012 47 10000 11.32 80 07:56 26.01.2021
3299 Clear -1 1012 47 10000 11.32 80 07:19 26.01.2021
3300 Clear -2 1012 54 10000 9.77 70 05:51 26.01.2021
3301 Snow -2 1012 54 10000 9.77 70 05:32 26.01.2021
3302 Snow -2 1013 46 10000 8.75 80 03:32 26.01.2021
3303 Snow -2 1014 46 10000 8.23 80 01:18 26.01.2021
3304 Snow -3 1014 46 10000 9.26 90 00:26 26.01.2021
3305 Snow -3 1013 46 10000 9.26 80 23:33 25.01.2021
3306 Clear -3 1014 46 10000 7.2 90 22:50 25.01.2021
3307 Clear -3 1014 46 10000 7.2 90 22:29 25.01.2021
3308 Clouds -3 1014 43 10000 7.72 90 21:46 25.01.2021
3309 Clouds -2 1014 43 10000 7.72 90 21:20 25.01.2021
3310 Snow -2 1013 43 10000 7.72 90 20:44 25.01.2021
3311 Snow -3 1013 43 10000 7.72 90 20:24 25.01.2021
3312 Snow -3 1013 40 10000 7.2 80 19:49 25.01.2021
3313 Clear -3 1013 40 10000 7.2 80 19:24 25.01.2021
3314 Clear -3 1013 43 10000 6.69 80 18:47 25.01.2021
3315 Clear -3 1013 43 10000 6.69 80 18:24 25.01.2021
3316 Clear -3 1014 43 10000 6.69 70 17:49 25.01.2021
3317 Clear -3 1014 43 10000 6.69 70 17:49 25.01.2021
3318 Snow -2 1014 43 10000 6.69 70 17:26 25.01.2021
3319 Snow -2 1013 43 10000 8.23 80 16:57 25.01.2021
3320 Snow -2 1013 43 10000 8.23 80 16:39 25.01.2021
3321 Clear -2 1013 43 10000 8.23 80 16:20 25.01.2021
3322 Clear -2 1014 43 10000 8.75 70 15:41 25.01.2021
3323 Clear -2 1014 43 10000 8.75 70 15:21 25.01.2021
3324 Clear -2 1014 46 10000 8.23 70 14:39 25.01.2021
3325 Clear -2 1014 46 10000 8.23 70 14:18 25.01.2021
3326 Snow -2 1014 46 10000 7.2 70 13:44 25.01.2021
3327 Clear -2 1014 46 10000 7.2 70 13:22 25.01.2021
3328 Clear -2 1014 46 10000 6.17 70 12:44 25.01.2021
3329 Clear -2 1014 46 10000 6.17 70 12:19 25.01.2021
3330 Snow -3 1014 50 10000 6.69 80 11:31 25.01.2021
3331 Snow -2 1014 50 10000 7.2 80 10:53 25.01.2021
3332 Snow -2 1014 50 10000 7.2 80 10:23 25.01.2021
3333 Clear -2 1014 50 10000 5.66 70 09:54 25.01.2021
3334 Snow -3 1014 50 10000 5.66 70 09:34 25.01.2021
3335 Clear -2 1013 50 10000 5.14 70 08:53 25.01.2021
3336 Clear -2 1013 50 10000 5.14 70 08:23 25.01.2021
3337 Clear -2 1013 46 10000 3.09 50 07:30 25.01.2021
3338 Clear -2 1013 50 10000 4.63 40 06:47 25.01.2021
3339 Clear -3 1013 43 10000 4.12 70 03:23 25.01.2021
3340 Clear -2 1013 50 10000 4.12 100 00:52 25.01.2021
3341 Clear -3 1013 54 10000 2.06 120 23:40 24.01.2021
3342 Clear -3 1013 54 10000 2.06 120 23:19 24.01.2021
3343 Clear -2 1013 59 10000 4.63 30 22:41 24.01.2021
3344 Clear -2 1013 59 10000 4.63 30 22:20 24.01.2021
3345 Snow -2 1013 59 10000 5.14 10 21:44 24.01.2021
3346 Clear -2 1013 59 10000 5.14 10 21:23 24.01.2021
3347 Clear -2 1013 59 10000 6.69 30 20:44 24.01.2021
3348 Clear -2 1013 59 10000 6.69 30 20:20 24.01.2021
3349 Clear -2 1013 59 10000 3.6 60 19:51 24.01.2021
3350 Clear -2 1013 59 10000 3.6 60 19:26 24.01.2021
3351 Clear -1 1012 59 10000 3.09 60 18:57 24.01.2021
3352 Clear -1 1012 59 10000 3.09 60 18:38 24.01.2021
3353 Clear -1 1012 59 10000 3.09 60 18:20 24.01.2021
3354 Clear -1 1012 64 10000 7.72 40 17:49 24.01.2021
3355 Clear -1 1012 64 10000 7.72 40 17:25 24.01.2021
3356 Clear -2 1012 74 10000 9.26 30 16:43 24.01.2021
3357 Clear -2 1012 74 10000 9.26 30 16:25 24.01.2021
3358 Clouds -1 1012 69 10000 8.75 30 15:58 24.01.2021
3359 Clouds -1 1012 69 10000 8.75 30 15:40 24.01.2021
3360 Clouds -1 1012 69 10000 8.75 30 15:18 24.01.2021
3361 Clouds -1 1012 69 10000 5.66 50 14:38 24.01.2021
3362 Clouds -1 1012 69 10000 5.66 50 14:38 24.01.2021
3363 Clear -1 1012 64 10000 5.14 30 13:46 24.01.2021
3364 Clear -1 1012 64 10000 5.14 30 13:26 24.01.2021
3365 Clouds -1 1012 64 10000 3.6 40 12:47 24.01.2021
3366 Clouds -1 1012 64 10000 3.6 40 12:20 24.01.2021
3367 Clear -1 1011 64 10000 4.12 40 11:50 24.01.2021
3368 Clear -1 1011 64 10000 4.12 40 11:24 24.01.2021
3369 Clouds -1 1011 64 10000 1.54 0 10:46 24.01.2021
3370 Clouds -1 1011 64 10000 1.54 0 10:46 24.01.2021
3371 Clouds -1 1011 64 10000 1.54 0 10:19 24.01.2021
3372 Clouds -1 1011 69 10000 2.57 80 09:23 24.01.2021
3373 Clear 0 1010 64 10000 2.57 0 08:58 24.01.2021
3374 Snow 0 1010 64 10000 2.57 0 08:23 24.01.2021
3375 Clouds -1 1009 69 10000 10.29 20 03:25 24.01.2021
3376 Clouds -1 1009 59 10000 10.29 30 02:18 24.01.2021
3377 Clouds -1 1008 74 10000 10.8 20 00:27 24.01.2021
3378 Clouds -1 1008 69 10000 8.75 40 23:53 23.01.2021
3379 Clouds -1 1008 69 10000 8.75 40 23:27 23.01.2021
3380 Clouds -1 1008 69 10000 8.75 40 22:57 23.01.2021
3381 Clouds -1 1008 69 10000 8.75 40 22:38 23.01.2021
3382 Snow -1 1008 74 10000 10.8 40 21:57 23.01.2021
3383 Snow -1 1008 74 10000 10.8 40 21:23 23.01.2021
3384 Clouds -1 1008 74 10000 7.72 30 20:50 23.01.2021
3385 Clouds -1 1008 74 10000 7.72 30 20:30 23.01.2021
3386 Clouds -1 1009 69 10000 12.86 20 19:47 23.01.2021
3387 Clouds -1 1009 69 10000 12.86 20 19:25 23.01.2021
3388 Clouds -1 1008 69 10000 14.92 10 18:58 23.01.2021
3389 Clouds -1 1008 69 10000 14.92 10 18:40 23.01.2021
3390 Clouds -1 1008 69 10000 14.92 10 18:20 23.01.2021
3391 Clouds -1 1008 69 10000 14.4 10 17:29 23.01.2021
3392 Clouds -1 1008 69 10000 11.83 20 16:52 23.01.2021
3393 Clouds -1 1008 69 10000 11.83 20 16:32 23.01.2021
3394 Clouds -1 1008 69 10000 11.83 20 15:49 23.01.2021
3395 Clouds -1 1008 69 10000 11.83 20 15:28 23.01.2021
3396 Clouds -1 1008 69 10000 12.86 20 14:38 23.01.2021
3397 Clouds -1 1008 69 10000 12.86 20 14:19 23.01.2021
3398 Clouds -1 1008 69 10000 12.86 20 14:19 23.01.2021
3399 Clouds -1 1008 69 10000 11.83 20 13:40 23.01.2021
3400 Clouds -1 1008 69 10000 11.83 20 13:22 23.01.2021
3401 Clouds -2 1008 69 10000 13.38 10 12:43 23.01.2021
3402 Clouds -2 1008 69 10000 13.38 10 12:23 23.01.2021
3403 Clouds -2 1008 74 10000 14.4 10 11:35 23.01.2021
3404 Clouds -2 1008 74 10000 13.38 20 10:58 23.01.2021
3405 Clouds -2 1008 74 10000 13.38 20 10:26 23.01.2021
3406 Clouds -2 1008 74 10000 10.29 20 09:53 23.01.2021
3407 Clouds -2 1008 74 10000 10.29 20 09:28 23.01.2021
3408 Clouds -2 1008 74 10000 10.29 20 08:43 23.01.2021
3409 Clouds -1 1009 64 10000 8.23 20 07:48 23.01.2021
3410 Clouds -2 1009 74 10000 6.69 30 06:50 23.01.2021
3411 Clouds -2 1009 69 10000 14.4 10 02:30 23.01.2021
3412 Drizzle -2 1009 80 10000 11.32 360 00:32 23.01.2021
3413 Snow -2 1010 74 10000 11.83 360 23:36 22.01.2021
3414 Snow -3 1010 80 10000 11.32 360 22:44 22.01.2021
3415 Snow -3 1010 80 10000 11.32 360 22:21 22.01.2021
3416 Clouds -2 1010 69 10000 13.38 10 21:42 22.01.2021
3417 Snow -2 1010 69 10000 13.38 10 21:23 22.01.2021
3418 Snow -2 1010 74 10000 10.8 10 20:46 22.01.2021
3419 Snow -2 1010 74 10000 10.8 10 20:26 22.01.2021
3420 Snow -3 1010 80 10000 10.29 10 19:47 22.01.2021
3421 Snow -3 1010 80 10000 10.29 10 19:19 22.01.2021
3422 Snow -3 1010 80 10000 10.8 10 18:47 22.01.2021
3423 Snow -3 1010 80 10000 10.8 10 18:26 22.01.2021
3424 Snow -2 1011 74 10000 8.75 10 17:50 22.01.2021
3425 Snow -2 1011 74 10000 8.75 10 17:32 22.01.2021
3426 Snow -2 1011 74 10000 9.26 10 16:54 22.01.2021
3427 Snow -2 1011 74 10000 9.26 10 16:30 22.01.2021
3428 Clouds -2 1012 74 10000 6.69 20 15:45 22.01.2021
3429 Clouds -2 1012 74 10000 6.69 20 15:23 22.01.2021
3430 Clear -2 1012 69 10000 9.26 20 14:33 22.01.2021
3431 Clouds -2 1011 69 10000 14.92 10 13:54 22.01.2021
3432 Clouds -2 1011 69 10000 14.92 10 13:35 22.01.2021
3433 Snow -2 1011 74 10000 11.32 20 12:56 22.01.2021
3434 Clouds -2 1011 74 10000 11.32 20 12:28 22.01.2021
3435 Clouds -2 1011 74 10000 10.29 10 11:51 22.01.2021
3436 Clouds -2 1011 74 10000 10.29 10 11:32 22.01.2021
3437 Clouds -2 1010 74 10000 9.26 360 10:48 22.01.2021
3438 Clouds -2 1010 74 10000 9.26 360 10:23 22.01.2021
3439 Clouds -3 1011 80 10000 8.23 20 09:43 22.01.2021
3440 Clouds -2 1011 69 10000 12.35 10 08:57 22.01.2021
3441 Clouds -2 1011 69 10000 12.35 10 08:32 22.01.2021
3442 Clouds -3 1011 74 10000 7.72 20 07:45 22.01.2021
3443 Clouds -2 1010 74 10000 10.8 10 04:59 22.01.2021
3444 Clear -2 1011 69 10000 9.77 20 01:54 22.01.2021
3445 Clouds -2 1010 69 10000 12.35 10 00:29 22.01.2021
3446 Clouds -1 1011 69 10000 11.32 20 23:48 21.01.2021
3447 Clouds -1 1011 69 10000 11.32 20 23:20 21.01.2021
3448 Clouds -1 1010 69 10000 11.83 10 22:48 21.01.2021
3449 Clouds -1 1010 69 10000 9.77 30 21:58 21.01.2021
3450 Clouds -1 1010 69 10000 9.77 30 21:38 21.01.2021
3451 Clouds -1 1010 69 10000 9.77 30 21:18 21.01.2021
3452 Clouds -1 1011 74 10000 8.75 20 20:43 21.01.2021
3453 Clouds -1 1011 74 10000 8.75 20 20:21 21.01.2021
3454 Clouds -1 1011 69 10000 8.23 360 19:49 21.01.2021
3455 Clouds -1 1011 69 10000 8.23 360 19:26 21.01.2021
3456 Clouds -1 1011 69 10000 6.17 360 18:47 21.01.2021
3457 Clouds -1 1011 69 10000 6.17 360 18:22 21.01.2021
3458 Clouds -1 1010 69 10000 9.77 360 17:57 21.01.2021
3459 Clouds -1 1010 69 10000 9.77 360 17:22 21.01.2021
3460 Clouds -1 1010 64 10000 10.29 10 16:59 21.01.2021
3461 Clouds -1 1010 64 10000 10.29 10 16:40 21.01.2021
3462 Clouds -1 1010 64 10000 10.29 10 16:22 21.01.2021
3463 Clouds 0 1011 55 10000 6.69 40 15:47 21.01.2021
3464 Clouds 0 1011 55 10000 6.69 40 15:26 21.01.2021
3465 Clouds 0 1011 69 10000 6.69 30 14:47 21.01.2021
3466 Clouds 0 1011 69 10000 6.69 30 14:25 21.01.2021
3467 Clouds 0 1011 69 10000 4.12 0 13:46 21.01.2021
3468 Clouds 0 1011 69 10000 4.12 0 13:26 21.01.2021
3469 Clouds -1 1011 74 10000 6.17 10 12:45 21.01.2021
3470 Snow -1 1011 74 10000 6.17 10 12:25 21.01.2021
3471 Snow 0 1011 69 10000 7.2 30 11:53 21.01.2021
3472 Clouds 0 1011 69 10000 7.2 30 11:32 21.01.2021
3473 Snow 0 1011 69 10000 8.23 30 10:53 21.01.2021
3474 Snow 0 1011 69 10000 8.23 30 10:34 21.01.2021
3475 Clouds 0 1011 74 10000 9.77 20 09:50 21.01.2021
3476 Snow 0 1011 74 10000 9.77 20 09:30 21.01.2021
3477 Snow 0 1010 69 10000 12.35 20 08:59 21.01.2021
3478 Clouds 0 1010 69 10000 12.35 20 08:27 21.01.2021
3479 Snow 0 1011 69 10000 11.32 20 07:45 21.01.2021
3480 Snow 0 1011 69 10000 11.32 20 07:25 21.01.2021
3481 Clouds 0 1011 74 10000 11.32 30 05:59 21.01.2021
3482 Clear 0 1011 69 10000 8.75 20 04:32 21.01.2021
3483 Clouds 0 1010 64 10000 5.14 20 02:18 21.01.2021
3484 Clear 0 1010 69 10000 9.26 20 00:41 21.01.2021
3485 Clear -1 1010 74 10000 9.77 30 23:44 20.01.2021
3486 Clear -1 1010 74 10000 9.77 30 23:24 20.01.2021
3487 Clear -1 1010 69 10000 11.32 20 22:50 20.01.2021
3488 Clear -1 1010 69 10000 11.32 20 22:29 20.01.2021
3489 Clear -2 1011 69 10000 8.75 30 21:49 20.01.2021
3490 Snow -2 1011 69 10000 8.75 30 21:23 20.01.2021
3491 Clear -2 1011 64 10000 4.12 50 20:52 20.01.2021
3492 Clear -2 1011 64 10000 4.12 50 20:23 20.01.2021
3493 Clouds -3 1011 59 10000 2.06 110 19:48 20.01.2021
3494 Clouds -3 1011 59 10000 2.06 110 19:48 20.01.2021
3495 Clouds -3 1011 59 10000 2.06 110 19:28 20.01.2021
3496 Clouds -3 1011 59 10000 1.03 0 18:43 20.01.2021
3497 Clouds -3 1011 59 10000 1.03 0 18:21 20.01.2021
3498 Clouds -3 1011 59 10000 2.57 0 17:50 20.01.2021
3499 Clouds -3 1011 59 10000 2.57 0 17:31 20.01.2021
3500 Clouds -3 1011 63 10000 11.83 10 16:51 20.01.2021
3501 Clouds -3 1011 63 10000 11.83 10 16:22 20.01.2021
3502 Clouds -2 1011 59 10000 6.17 360 15:41 20.01.2021
3503 Clouds -2 1011 59 10000 6.17 360 15:19 20.01.2021
3504 Clouds -2 1011 64 10000 12.35 20 14:40 20.01.2021
3505 Clouds -2 1011 64 10000 12.35 20 14:20 20.01.2021
3506 Clouds -2 1012 69 10000 12.35 10 13:38 20.01.2021
3507 Clouds -2 1012 74 10000 12.35 10 12:56 20.01.2021
3508 Clouds -2 1012 74 10000 12.35 10 12:24 20.01.2021
3509 Clouds 0 1012 64 10000 3.6 40 11:41 20.01.2021
3510 Clouds 0 1012 64 10000 3.6 40 11:21 20.01.2021
3511 Clear 0 1012 64 10000 8.75 20 10:50 20.01.2021
3512 Clear 0 1012 64 10000 8.75 20 10:27 20.01.2021
3513 Clear 0 1011 64 10000 8.23 10 09:39 20.01.2021
3514 Clear 0 1011 64 10000 8.23 10 09:19 20.01.2021
3515 Clear 0 1011 69 10000 9.26 20 08:44 20.01.2021
3516 Clear 0 1011 69 10000 9.26 20 08:23 20.01.2021
3517 Clouds 0 1011 69 10000 10.8 30 07:54 20.01.2021
3518 Clouds 0 1011 69 10000 10.8 30 07:24 20.01.2021
3519 Clouds 0 1011 69 10000 12.86 30 04:50 20.01.2021
3520 Clouds 1 1011 64 10000 9.77 20 02:58 20.01.2021
3521 Clouds 0 1011 74 10000 8.75 20 00:58 20.01.2021
3522 Clouds 1 1011 69 10000 12.86 30 23:59 19.01.2021
3523 Clouds 1 1011 69 10000 12.86 30 23:41 19.01.2021
3524 Clouds 1 1011 69 10000 12.86 30 23:18 19.01.2021
3525 Clouds 1 1010 64 10000 6.17 60 22:41 19.01.2021
3526 Clouds 1 1010 64 10000 6.17 60 22:21 19.01.2021
3527 Clouds 2 1009 60 10000 3.6 0 21:58 19.01.2021
3528 Clouds 1 1009 60 10000 3.6 0 21:39 19.01.2021
3529 Clouds 1 1008 75 10000 12.35 30 20:55 19.01.2021
3530 Clouds 1 1008 75 10000 12.35 30 20:36 19.01.2021
3531 Clouds 1 1008 75 10000 12.35 30 20:18 19.01.2021
3532 Clouds 1 1008 75 10000 9.26 20 19:41 19.01.2021
3533 Clouds 1 1008 75 10000 9.26 20 19:19 19.01.2021
3534 Clouds 1 1008 75 10000 10.29 20 18:39 19.01.2021
3535 Clouds 1 1008 75 10000 10.29 20 18:21 19.01.2021
3536 Clouds 1 1007 75 10000 8.23 20 17:45 19.01.2021
3537 Clouds 1 1007 75 10000 8.23 20 17:23 19.01.2021
3538 Clouds 1 1008 75 10000 9.26 30 16:45 19.01.2021
3539 Clouds 1 1008 75 10000 9.26 30 16:25 19.01.2021
3540 Clouds 1 1008 75 10000 10.29 20 15:55 19.01.2021
3541 Clouds 1 1008 75 10000 10.29 20 15:34 19.01.2021
3542 Clouds 1 1007 75 10000 8.75 40 14:51 19.01.2021
3543 Clouds 1 1007 75 10000 8.75 40 14:31 19.01.2021
3544 Clouds 0 1008 69 10000 10.29 10 13:56 19.01.2021
3545 Clouds 1 1008 69 10000 10.29 10 13:37 19.01.2021
3546 Clouds 1 1008 69 10000 10.29 10 13:19 19.01.2021
3547 Clouds 0 1007 74 10000 10.8 10 12:36 19.01.2021
3548 Clouds 0 1007 74 10000 10.8 10 12:18 19.01.2021
3549 Clouds 0 1007 74 10000 11.32 10 11:43 19.01.2021
3550 Clouds 0 1007 74 10000 11.32 10 11:22 19.01.2021
3551 Clouds 0 1007 69 10000 10.8 10 10:50 19.01.2021
3552 Clouds 0 1007 69 10000 10.8 10 10:29 19.01.2021
3553 Clouds 0 1007 69 10000 10.29 360 09:52 19.01.2021
3554 Clouds 0 1007 69 10000 10.29 360 09:20 19.01.2021
3555 Clouds 0 1007 69 10000 12.35 10 08:48 19.01.2021
3556 Clouds 0 1007 69 10000 11.83 10 07:58 19.01.2021
3557 Clouds 0 1007 69 10000 11.83 10 07:22 19.01.2021
3558 Clouds 0 1008 69 10000 10.8 10 04:55 19.01.2021
3559 Clouds 1 1008 69 10000 10.8 10 02:24 19.01.2021
3560 Clouds 1 1008 69 10000 9.26 10 00:47 19.01.2021
3561 Clouds 1 1008 69 10000 9.77 360 23:57 18.01.2021
3562 Clouds 1 1008 69 10000 9.77 360 23:29 18.01.2021
3563 Clouds 1 1008 75 10000 8.23 360 22:50 18.01.2021
3564 Clouds 1 1008 75 10000 8.23 360 22:24 18.01.2021
3565 Clouds 1 1008 75 10000 6.17 10 21:49 18.01.2021
3566 Clouds 1 1008 75 10000 6.17 10 21:24 18.01.2021
3567 Clouds 1 1008 75 10000 8.23 10 20:58 18.01.2021
3568 Clouds 1 1008 75 10000 8.23 10 20:37 18.01.2021
3569 Clouds 1 1008 75 10000 8.23 10 20:19 18.01.2021
3570 Clouds 1 1007 80 10000 8.75 10 19:42 18.01.2021
3571 Clouds 1 1007 80 10000 8.75 10 19:24 18.01.2021
3572 Clouds 2 1007 75 10000 8.23 10 18:43 18.01.2021
3573 Clouds 2 1007 75 10000 8.23 10 18:21 18.01.2021
3574 Clouds 2 1007 80 10000 7.2 10 17:40 18.01.2021
3575 Clouds 2 1007 80 10000 5.14 10 16:55 18.01.2021
3576 Clouds 2 1007 80 10000 5.14 10 16:36 18.01.2021
3577 Clouds 2 1006 80 10000 6.17 360 15:59 18.01.2021
3578 Clouds 2 1006 80 10000 6.17 360 15:41 18.01.2021
3579 Clouds 2 1006 80 10000 6.17 360 15:19 18.01.2021
3580 Clouds 2 1006 80 10000 8.23 360 14:42 18.01.2021
3581 Clouds 2 1006 80 10000 8.23 360 14:24 18.01.2021
3582 Clouds 2 1005 75 10000 9.26 360 13:45 18.01.2021
3583 Clouds 2 1005 75 10000 9.26 360 13:26 18.01.2021
3584 Clouds 2 1004 75 10000 11.83 360 12:51 18.01.2021
3585 Clouds 2 1004 75 10000 11.83 360 12:20 18.01.2021
3586 Clouds 2 1004 75 10000 10.29 360 11:53 18.01.2021
3587 Clouds 2 1004 75 10000 10.29 360 11:29 18.01.2021
3588 Clouds 2 1004 75 10000 4.63 330 10:53 18.01.2021
3589 Clouds 2 1004 75 10000 4.63 330 10:35 18.01.2021
3590 Clouds 1 1003 86 10000 6.69 340 09:43 18.01.2021
3591 Clouds 1 1003 86 10000 6.69 340 09:19 18.01.2021
3592 Snow 1 1003 86 10000 6.17 340 08:48 18.01.2021
3593 Clouds 1 1002 80 10000 6.17 340 07:55 18.01.2021
3594 Clouds 1 1002 80 10000 6.17 340 07:21 18.01.2021
3595 Clouds 1 1001 93 10000 2.57 310 04:59 18.01.2021
3596 Clouds 1 1001 93 10000 2.57 310 04:33 18.01.2021
3597 Clouds 1 1001 93 10000 4.63 280 03:59 18.01.2021
3598 Clouds 1 1001 93 10000 4.63 280 03:39 18.01.2021
3599 Snow 1 1001 93 10000 4.63 280 03:19 18.01.2021
3600 Snow 1 1002 93 10000 5.14 290 02:37 18.01.2021
3601 Snow 1 1002 93 6000 5.66 300 00:46 18.01.2021
3602 Snow 1 1002 93 6000 5.66 300 00:27 18.01.2021
3603 Snow 1 1002 93 10000 6.17 290 23:46 17.01.2021
3604 Snow 1 1002 93 10000 6.17 290 23:20 17.01.2021
3605 Snow 0 1002 93 3000 6.69 300 22:39 17.01.2021
3606 Snow 0 1002 93 3000 6.69 300 22:39 17.01.2021
3607 Snow 1 1002 86 10000 5.66 280 22:19 17.01.2021
3608 Snow 0 1002 93 10000 7.72 300 21:39 17.01.2021
3609 Snow 0 1002 93 10000 7.72 300 21:21 17.01.2021
3610 Snow 1 1002 86 10000 5.14 300 20:48 17.01.2021
3611 Snow 1 1002 86 10000 5.14 300 20:27 17.01.2021
3612 Snow 1 1001 93 10000 3.6 310 19:42 17.01.2021
3613 Clouds 1 1001 93 10000 3.6 310 19:23 17.01.2021
3614 Snow 1 1001 86 10000 6.17 280 18:43 17.01.2021
3615 Rain 1 1001 86 10000 6.17 280 18:23 17.01.2021
3616 Clouds 1 1001 86 10000 6.69 290 17:48 17.01.2021
3617 Clouds 1 1001 86 10000 6.69 290 17:26 17.01.2021
3618 Clouds 2 1000 87 10000 6.69 300 16:44 17.01.2021
3619 Clouds 2 1000 87 10000 6.69 300 16:21 17.01.2021
3620 Clouds 2 1000 87 10000 3.6 280 15:43 17.01.2021
3621 Clouds 2 1000 87 10000 3.6 280 15:24 17.01.2021
3622 Clouds 3 1000 81 10000 4.63 260 14:49 17.01.2021
3623 Clouds 3 1000 81 10000 4.63 260 14:26 17.01.2021
3624 Clouds 2 1000 87 10000 6.17 280 13:46 17.01.2021
3625 Clouds 2 1000 87 10000 6.17 280 13:27 17.01.2021
3626 Clouds 2 1000 80 10000 4.63 260 12:54 17.01.2021
3627 Clouds 2 1000 80 10000 4.63 260 12:31 17.01.2021
3628 Snow 2 999 87 10000 4.63 250 11:59 17.01.2021
3629 Clouds 2 999 87 10000 4.63 250 11:24 17.01.2021
3630 Snow 2 999 80 10000 3.09 260 10:48 17.01.2021
3631 Clouds 2 999 80 10000 3.09 260 10:21 17.01.2021
3632 Clouds 2 999 87 10000 3.09 240 09:42 17.01.2021
3633 Clouds 2 999 87 10000 4.63 250 08:45 17.01.2021
3634 Clouds 2 1000 87 10000 7.72 270 06:57 17.01.2021
3635 Clouds 3 1000 81 10000 6.17 280 04:28 17.01.2021
3636 Clouds 3 1001 81 10000 7.2 270 02:48 17.01.2021
3637 Rain 3 1001 81 10000 8.23 280 00:51 17.01.2021
3638 Rain 3 1001 81 10000 8.23 280 00:18 17.01.2021
3639 Clouds 2 1001 81 10000 9.26 290 23:49 16.01.2021
3640 Clouds 3 1001 81 10000 9.26 290 23:20 16.01.2021
3641 Clouds 3 1000 87 10000 8.23 280 22:45 16.01.2021
3642 Clouds 3 1000 87 10000 8.75 290 21:59 16.01.2021
3643 Clouds 3 1000 87 10000 8.75 290 21:38 16.01.2021
3644 Rain 3 1000 87 10000 8.75 290 21:18 16.01.2021
3645 Rain 3 1000 81 10000 11.32 290 20:44 16.01.2021
3646 Rain 3 1000 81 10000 11.32 290 20:22 16.01.2021
3647 Rain 2 1000 93 8000 10.8 290 19:48 16.01.2021
3648 Rain 2 1000 93 8000 10.8 290 19:29 16.01.2021
3649 Rain 2 999 87 9000 11.32 300 18:44 16.01.2021
3650 Rain 2 999 87 9000 11.32 300 18:26 16.01.2021
3651 Clouds 2 999 87 10000 10.8 300 17:49 16.01.2021
3652 Clouds 2 999 87 10000 10.8 300 17:30 16.01.2021
3653 Rain 2 998 93 9000 10.8 310 16:47 16.01.2021
3654 Rain 2 998 93 9000 10.8 310 16:29 16.01.2021
3655 Rain 2 998 93 10000 6.69 310 15:54 16.01.2021
3656 Rain 2 998 93 10000 6.69 310 15:26 16.01.2021
3657 Clouds 3 997 87 10000 3.6 310 14:30 16.01.2021
3658 Clouds 3 997 87 10000 3.6 310 14:30 16.01.2021
3659 Clouds 3 997 87 10000 3.6 310 14:30 16.01.2021
3660 Rain 3 997 87 10000 3.09 310 13:50 16.01.2021
3661 Rain 3 997 87 10000 3.09 310 13:29 16.01.2021
3662 Clouds 2 997 93 10000 3.09 310 12:46 16.01.2021
3663 Clouds 2 997 93 10000 3.09 310 12:21 16.01.2021
3664 Clouds 2 997 93 10000 5.66 310 11:52 16.01.2021
3665 Clouds 2 997 93 10000 5.66 310 11:25 16.01.2021
3666 Rain 2 997 93 10000 6.17 310 10:50 16.01.2021
3667 Rain 2 997 93 10000 6.17 310 10:28 16.01.2021
3668 Rain 2 996 93 10000 5.66 320 09:42 16.01.2021
3669 Rain 2 996 93 10000 5.66 320 09:19 16.01.2021
3670 Rain 2 996 93 10000 6.17 330 07:53 16.01.2021
3671 Clouds 2 996 93 10000 6.17 330 06:44 16.01.2021
3672 Rain 3 996 93 10000 2.06 330 04:51 16.01.2021
3673 Rain 3 997 87 9000 3.6 40 02:56 16.01.2021
3674 Rain 3 997 87 9000 3.6 40 02:25 16.01.2021
3675 Rain 4 997 81 10000 4.12 20 00:44 16.01.2021
3676 Rain 4 997 81 10000 4.12 20 00:20 16.01.2021
3677 Rain 4 997 75 10000 2.57 350 23:28 15.01.2021
3678 Rain 3 998 81 10000 3.6 10 22:27 15.01.2021
3679 Rain 3 998 81 10000 4.12 10 21:53 15.01.2021
3680 Rain 3 998 81 10000 4.12 10 21:34 15.01.2021
3681 Rain 3 999 81 10000 5.14 40 20:47 15.01.2021
3682 Clouds 3 999 81 10000 5.14 40 20:23 15.01.2021
3683 Clouds 3 1000 81 10000 5.66 40 19:47 15.01.2021
3684 Clouds 3 1000 81 10000 5.66 40 19:26 15.01.2021
3685 Drizzle 3 1001 75 10000 7.2 50 18:45 15.01.2021
3686 Drizzle 3 1001 75 10000 7.2 50 18:20 15.01.2021
3687 Clouds 4 1002 70 10000 6.69 40 17:58 15.01.2021
3688 Clouds 4 1002 70 10000 6.69 40 17:58 15.01.2021
3689 Clouds 4 1002 70 10000 6.69 40 17:40 15.01.2021
3690 Clouds 4 1002 70 10000 6.69 40 17:19 15.01.2021
3691 Rain 3 1004 75 10000 8.75 50 16:44 15.01.2021
3692 Rain 3 1004 75 10000 8.75 50 16:23 15.01.2021
3693 Rain 3 1005 75 10000 7.2 70 15:41 15.01.2021
3694 Clouds 4 1005 75 10000 7.2 70 15:19 15.01.2021
3695 Clouds 4 1007 75 10000 6.69 70 14:42 15.01.2021
3696 Clouds 4 1007 75 10000 6.69 70 14:24 15.01.2021
3697 Clouds 3 1009 75 10000 5.66 80 13:41 15.01.2021
3698 Clouds 4 1009 75 10000 5.66 80 13:20 15.01.2021
3699 Clouds 3 1010 75 10000 5.14 70 12:48 15.01.2021
3700 Clouds 4 1010 75 10000 5.14 70 12:30 15.01.2021
3701 Clouds 4 1010 70 10000 5.14 80 11:43 15.01.2021
3702 Clouds 4 1010 70 10000 5.14 80 11:23 15.01.2021
3703 Clouds 4 1011 70 10000 3.09 50 10:52 15.01.2021
3704 Clouds 4 1011 70 10000 3.09 50 10:33 15.01.2021
3705 Clouds 4 1011 81 10000 5.14 100 09:53 15.01.2021
3706 Clouds 4 1011 81 10000 5.14 100 09:34 15.01.2021
3707 Clouds 4 1012 81 10000 3.6 120 08:37 15.01.2021
3708 Clouds 4 1012 81 10000 3.6 120 08:18 15.01.2021
3709 Rain 4 1012 81 10000 5.14 110 07:39 15.01.2021
3710 Rain 4 1012 81 10000 5.14 110 07:18 15.01.2021
3711 Clouds 3 1012 81 10000 3.09 120 03:46 15.01.2021
3712 Clouds 3 1012 87 10000 2.06 100 01:39 15.01.2021
3713 Clouds 3 1012 75 10000 5.66 160 23:50 14.01.2021
3714 Clouds 3 1012 75 10000 5.66 160 23:21 14.01.2021
3715 Clouds 3 1011 81 10000 4.12 140 22:42 14.01.2021
3716 Clouds 3 1011 81 10000 4.12 140 22:24 14.01.2021
3717 Clouds 3 1011 75 10000 6.69 170 21:44 14.01.2021
3718 Clouds 3 1011 75 10000 6.69 170 21:21 14.01.2021
3719 Clouds 3 1010 81 10000 5.14 140 20:49 14.01.2021
3720 Clouds 3 1010 81 10000 5.14 140 20:25 14.01.2021
3721 Clouds 3 1010 75 10000 7.72 160 19:46 14.01.2021
3722 Clouds 3 1010 75 10000 7.72 160 19:27 14.01.2021
3723 Rain 4 1009 75 10000 7.2 160 18:55 14.01.2021
3724 Clouds 3 1009 75 10000 7.2 160 18:30 14.01.2021
3725 Clouds 4 1009 81 10000 5.14 150 17:50 14.01.2021
3726 Clouds 4 1009 81 10000 5.14 150 17:27 14.01.2021
3727 Clouds 4 1009 70 10000 6.69 160 16:44 14.01.2021
3728 Rain 4 1009 70 10000 6.69 160 16:23 14.01.2021
3729 Clouds 4 1009 75 10000 7.72 150 15:45 14.01.2021
3730 Clouds 4 1009 75 10000 7.72 150 14:59 14.01.2021
3731 Clouds 4 1009 75 10000 7.72 150 14:39 14.01.2021
3732 Clouds 4 1009 75 10000 7.72 150 14:19 14.01.2021
3733 Rain 4 1009 81 10000 8.23 160 13:53 14.01.2021
3734 Clouds 4 1009 81 10000 8.23 160 13:22 14.01.2021
3735 Rain 3 1009 81 10000 6.69 140 12:51 14.01.2021
3736 Clouds 3 1009 81 10000 6.69 140 12:20 14.01.2021
3737 Clouds 4 1008 81 10000 7.2 140 11:50 14.01.2021
3738 Clouds 4 1008 81 10000 7.2 140 11:21 14.01.2021
3739 Rain 4 1008 81 10000 5.14 150 10:54 14.01.2021
3740 Clouds 4 1008 81 10000 5.14 150 10:35 14.01.2021
3741 Clouds 4 1007 81 10000 5.14 130 09:59 14.01.2021
3742 Rain 4 1007 81 10000 5.14 130 09:41 14.01.2021
3743 Clouds 4 1007 81 10000 5.14 130 09:18 14.01.2021
3744 Clouds 4 1007 75 10000 3.6 130 08:28 14.01.2021
3745 Clouds 4 1007 81 10000 3.6 110 07:50 14.01.2021
3746 Clouds 4 1007 81 10000 3.6 110 07:28 14.01.2021
3747 Clouds 4 1006 81 10000 5.66 140 06:24 14.01.2021
3748 Clouds 4 1005 87 10000 5.66 120 02:51 14.01.2021
3749 Clouds 4 1004 81 10000 4.63 110 23:56 13.01.2021
3750 Clouds 4 1004 81 10000 4.63 110 23:24 13.01.2021
3751 Clouds 4 1004 81 10000 4.12 130 22:43 13.01.2021
3752 Clouds 4 1004 81 10000 4.12 130 22:20 13.01.2021
3753 Clouds 4 1003 87 10000 4.63 120 21:42 13.01.2021
3754 Clouds 4 1003 87 10000 4.63 120 21:19 13.01.2021
3755 Clouds 4 1003 87 10000 4.12 140 20:43 13.01.2021
3756 Clouds 4 1003 87 10000 4.12 140 20:21 13.01.2021
3757 Clouds 4 1002 93 10000 2.57 140 19:46 13.01.2021
3758 Clouds 4 1002 93 10000 2.57 140 19:23 13.01.2021
3759 Clouds 5 1001 81 10000 6.17 120 18:44 13.01.2021
3760 Clouds 5 1001 81 10000 6.17 120 18:23 13.01.2021
3761 Clouds 5 1001 81 10000 9.77 130 17:41 13.01.2021
3762 Clouds 5 1001 81 10000 9.77 130 17:18 13.01.2021
3763 Rain 5 1000 81 10000 9.26 110 16:41 13.01.2021
3764 Clouds 5 1000 81 10000 9.26 110 16:21 13.01.2021
3765 Clouds 4 1000 81 10000 13.38 110 15:40 13.01.2021
3766 Rain 4 1000 81 10000 11.83 100 14:59 13.01.2021
3767 Drizzle 4 1000 81 10000 11.83 100 14:27 13.01.2021
3768 Rain 4 1000 81 10000 10.8 100 13:46 13.01.2021
3769 Rain 4 1000 81 10000 10.8 100 13:21 13.01.2021
3770 Rain 4 1000 81 10000 11.83 100 12:45 13.01.2021
3771 Rain 4 1000 81 10000 11.83 100 12:24 13.01.2021
3772 Rain 4 1000 75 10000 10.29 90 11:50 13.01.2021
3773 Rain 4 1000 75 10000 10.29 90 11:32 13.01.2021
3774 Rain 3 1001 87 10000 11.32 90 10:48 13.01.2021
3775 Rain 3 1001 87 10000 11.32 90 10:27 13.01.2021
3776 Rain 3 1001 81 10000 9.26 90 09:40 13.01.2021
3777 Rain 4 1001 75 10000 10.29 90 08:58 13.01.2021
3778 Drizzle 4 1001 75 10000 10.29 90 08:38 13.01.2021
3779 Drizzle 4 1001 75 10000 10.29 90 08:20 13.01.2021
3780 Rain 4 1002 81 10000 9.26 120 07:28 13.01.2021
3781 Rain 3 1002 81 10000 11.83 100 05:52 13.01.2021
3782 Drizzle 3 1003 87 9000 10.29 100 04:18 13.01.2021
3783 Clouds 3 1003 75 10000 8.75 100 03:43 13.01.2021
3784 Clouds 3 1003 75 10000 8.75 100 03:21 13.01.2021
3785 Rain 2 1005 75 10000 7.72 80 00:47 13.01.2021
3786 Rain 3 1006 65 10000 9.26 70 23:43 12.01.2021
3787 Rain 3 1006 64 10000 7.72 80 22:58 12.01.2021
3788 Rain 2 1006 64 10000 7.72 80 22:39 12.01.2021
3789 Clouds 2 1006 64 10000 7.72 80 22:19 12.01.2021
3790 Clouds 2 1007 64 10000 8.23 90 21:43 12.01.2021
3791 Clouds 2 1007 64 10000 8.23 90 21:23 12.01.2021
3792 Snow 2 1007 69 10000 8.23 90 20:47 12.01.2021
3793 Clouds 1 1007 69 10000 8.23 90 20:26 12.01.2021
3794 Clouds 1 1007 64 10000 10.8 90 19:44 12.01.2021
3795 Clouds 1 1008 64 10000 9.77 90 18:58 12.01.2021
3796 Clouds 1 1008 64 10000 9.77 90 18:39 12.01.2021
3797 Clouds 1 1008 64 10000 9.77 90 18:20 12.01.2021
3798 Clouds 0 1009 64 10000 8.23 90 17:34 12.01.2021
3799 Clear 0 1010 64 10000 8.75 90 16:56 12.01.2021
3800 Clear 0 1010 64 10000 8.75 90 16:38 12.01.2021
3801 Clear 0 1010 64 10000 8.75 90 16:18 12.01.2021
3802 Clear 0 1010 64 10000 8.75 90 16:18 12.01.2021
3803 Clouds 0 1011 64 10000 7.2 90 15:29 12.01.2021
3804 Clouds 0 1012 69 10000 5.66 80 14:58 12.01.2021
3805 Clouds 0 1012 69 10000 5.66 80 14:39 12.01.2021
3806 Clouds 0 1012 69 10000 5.66 80 14:19 12.01.2021
3807 Clouds 1 1012 64 10000 7.72 90 13:46 12.01.2021
3808 Snow 1 1013 64 10000 5.66 90 12:39 12.01.2021
3809 Clouds 1 1013 64 10000 5.66 90 12:21 12.01.2021
3810 Clouds 1 1013 64 10000 6.17 90 11:40 12.01.2021
3811 Clouds 1 1014 64 10000 5.14 70 10:50 12.01.2021
3812 Clouds 1 1014 64 10000 5.14 70 10:20 12.01.2021
3813 Clouds 0 1014 69 10000 5.14 60 09:55 12.01.2021
3814 Clouds 0 1014 69 10000 5.14 60 09:26 12.01.2021
3815 Snow 1 1015 64 10000 5.66 90 08:42 12.01.2021
3816 Clouds 1 1015 64 10000 5.66 90 08:23 12.01.2021
3817 Clouds 0 1015 64 10000 6.17 80 07:35 12.01.2021
3818 Clouds -1 1015 74 10000 5.14 60 06:26 12.01.2021
3819 Clouds -1 1015 64 10000 5.66 80 05:30 12.01.2021
3820 Clear -2 1016 69 10000 5.66 80 03:26 12.01.2021
3821 Clear -3 1016 74 10000 5.14 90 02:19 12.01.2021
3822 Clear -3 1016 74 10000 4.63 80 01:28 12.01.2021
3823 Snow -3 1015 64 10000 5.14 90 23:54 11.01.2021
3824 Clear -3 1015 64 10000 5.14 90 23:23 11.01.2021
3825 Clear -3 1015 64 10000 4.63 100 22:59 11.01.2021
3826 Clear -3 1015 64 10000 4.63 100 22:40 11.01.2021
3827 Clear -3 1015 64 10000 4.63 100 22:19 11.01.2021
3828 Clear -3 1015 64 10000 3.6 100 21:38 11.01.2021
3829 Snow -3 1015 64 10000 4.63 100 21:20 11.01.2021
3830 Snow -4 1014 63 10000 2.06 100 20:41 11.01.2021
3831 Clear -4 1014 63 10000 2.06 100 20:23 11.01.2021
3832 Snow -4 1014 63 10000 1.03 0 19:55 11.01.2021
3833 Clear -4 1014 63 10000 1.03 0 19:30 11.01.2021
3834 Clear -3 1013 63 10000 3.09 90 18:45 11.01.2021
3835 Clear -3 1013 63 10000 3.09 90 18:45 11.01.2021
3836 Clear -3 1013 63 10000 3.09 90 18:26 11.01.2021
3837 Clear -2 1013 59 10000 5.14 70 17:56 11.01.2021
3838 Snow -3 1013 59 10000 5.14 70 17:37 11.01.2021
3839 Snow -3 1013 59 10000 5.14 70 17:19 11.01.2021
3840 Snow -4 1013 68 10000 2.06 60 16:39 11.01.2021
3841 Snow -4 1013 68 10000 2.06 60 16:20 11.01.2021
3842 Snow -4 1013 80 10000 1.03 0 15:47 11.01.2021
3843 Clear -5 1013 80 10000 1.03 0 15:26 11.01.2021
3844 Snow -5 1013 74 10000 2.57 140 14:40 11.01.2021
3845 Clear -4 1012 63 10000 4.63 90 13:53 11.01.2021
3846 Clear -3 1012 63 10000 4.63 90 13:27 11.01.2021
3847 Clear -7 1012 73 10000 1.54 300 12:52 11.01.2021
3848 Clear -7 1012 73 10000 1.54 300 12:52 11.01.2021
3849 Clear -7 1012 73 10000 1.54 300 12:32 11.01.2021
3850 Clear -7 1011 79 10000 1.03 0 11:57 11.01.2021
3851 Clear -8 1011 79 10000 1.03 0 11:36 11.01.2021
3852 Snow -7 1011 73 10000 1.54 140 10:53 11.01.2021
3853 Clear -6 1011 73 10000 1.54 140 10:26 11.01.2021
3854 Clear -8 1011 67 10000 0.51 0 09:45 11.01.2021
3855 Clear -9 1011 67 10000 0.51 0 09:23 11.01.2021
3856 Clear -8 1010 62 10000 1.03 0 08:46 11.01.2021
3857 Clear -8 1010 62 10000 1.03 0 08:19 11.01.2021
3858 Clear -7 1010 62 10000 1.03 0 07:40 11.01.2021
3859 Snow -7 1010 62 10000 1.03 0 07:19 11.01.2021
3860 Clear -7 1010 58 10000 1.54 90 06:46 11.01.2021
3861 Snow -9 1012 57 10000 1.54 0 01:53 11.01.2021
3862 Snow -9 1012 67 10000 3.09 120 00:40 11.01.2021
3863 Snow -8 1012 57 10000 3.09 110 23:45 10.01.2021
3864 Clear -9 1012 73 10000 2.06 120 22:49 10.01.2021
3865 Snow -9 1012 73 10000 2.06 120 22:28 10.01.2021
3866 Snow -9 1013 62 10000 1.03 0 21:56 10.01.2021
3867 Snow -9 1013 62 10000 1.03 0 21:36 10.01.2021
3868 Clear -9 1013 62 10000 1.03 0 21:18 10.01.2021
3869 Snow -9 1013 62 10000 1.03 0 20:37 10.01.2021
3870 Clear -9 1013 62 10000 1.03 0 20:19 10.01.2021
3871 Clear -9 1013 67 10000 1.54 110 19:38 10.01.2021
3872 Clear -9 1013 67 10000 1.54 110 19:20 10.01.2021
3873 Clear -9 1013 62 10000 1.54 80 18:43 10.01.2021
3874 Clear -8 1013 62 10000 1.54 80 18:20 10.01.2021
3875 Clear -8 1013 62 10000 1.03 0 17:23 10.01.2021
3876 Snow -8 1013 62 10000 2.06 70 16:46 10.01.2021
3877 Clear -8 1013 62 10000 2.06 70 16:28 10.01.2021
3878 Snow -7 1014 62 10000 4.12 110 15:39 10.01.2021
3879 Snow -8 1014 62 10000 4.12 110 15:20 10.01.2021
3880 Clear -8 1015 67 10000 3.09 110 14:40 10.01.2021
3881 Snow -8 1015 67 10000 3.09 110 14:22 10.01.2021
3882 Snow -9 1015 73 10000 2.57 100 13:39 10.01.2021
3883 Snow -9 1015 73 10000 2.57 100 13:20 10.01.2021
3884 Snow -9 1015 73 10000 2.06 90 12:50 10.01.2021
3885 Snow -8 1015 73 10000 2.06 90 12:32 10.01.2021
3886 Snow -8 1015 73 10000 2.57 80 11:54 10.01.2021
3887 Snow -9 1015 73 10000 2.57 80 11:20 10.01.2021
3888 Snow -9 1015 73 10000 2.57 80 11:20 10.01.2021
3889 Snow -9 1015 79 10000 3.6 60 10:51 10.01.2021
3890 Snow -8 1015 79 10000 3.6 60 10:22 10.01.2021
3891 Clear -8 1015 73 10000 4.63 100 09:39 10.01.2021
3892 Clear -8 1015 79 10000 3.09 120 08:27 10.01.2021
3893 Snow -7 1015 79 10000 1.03 0 07:38 10.01.2021
3894 Clear -5 1016 74 10000 1.54 60 06:21 10.01.2021
3895 Snow -4 1016 68 10000 4.12 20 05:46 10.01.2021
3896 Snow -4 1016 68 10000 4.12 20 05:27 10.01.2021
3897 Snow -5 1017 86 10000 2.06 60 01:42 10.01.2021
3898 Snow -5 1017 93 10000 2.06 100 00:21 10.01.2021
3899 Snow -5 1017 86 9000 2.06 100 23:41 09.01.2021
3900 Snow -5 1017 86 9000 2.06 100 23:20 09.01.2021
3901 Snow -5 1017 80 7000 2.57 100 22:21 09.01.2021
3902 Clouds -5 1017 68 10000 2.57 100 21:58 09.01.2021
3903 Clouds -5 1017 68 10000 2.57 100 21:39 09.01.2021
3904 Clouds -5 1017 68 10000 2.57 100 21:21 09.01.2021
3905 Clouds -6 1018 73 10000 1.54 110 20:56 09.01.2021
3906 Clouds -6 1018 73 10000 1.54 110 20:32 09.01.2021
3907 Clouds -5 1018 74 10000 2.06 140 19:40 09.01.2021
3908 Clouds -5 1018 74 10000 2.06 140 19:21 09.01.2021
3909 Clouds -5 1018 74 10000 2.06 180 18:38 09.01.2021
3910 Clouds -5 1018 74 10000 2.06 180 18:38 09.01.2021
3911 Clouds -5 1018 74 10000 2.06 180 18:18 09.01.2021
3912 Clouds -5 1018 68 10000 1.54 150 17:41 09.01.2021
3913 Clouds -5 1018 68 10000 1.54 150 17:22 09.01.2021
3914 Clouds -4 1018 63 10000 2.06 40 16:28 09.01.2021
3915 Clouds -3 1018 59 10000 4.63 360 15:42 09.01.2021
3916 Clouds -3 1018 59 10000 4.63 360 15:24 09.01.2021
3917 Clouds -3 1018 63 10000 6.17 350 14:37 09.01.2021
3918 Clouds -3 1018 63 10000 6.17 350 14:19 09.01.2021
3919 Clouds -3 1017 63 10000 6.17 350 13:46 09.01.2021
3920 Clouds -3 1017 63 10000 6.17 350 13:27 09.01.2021
3921 Snow -3 1017 63 10000 6.17 350 12:46 09.01.2021
3922 Snow -3 1017 63 10000 6.17 350 12:21 09.01.2021
3923 Snow -3 1017 63 10000 5.66 330 11:41 09.01.2021
3924 Snow -3 1017 63 10000 5.66 330 11:23 09.01.2021
3925 Snow -3 1016 68 10000 6.17 340 10:50 09.01.2021
3926 Snow -3 1016 68 10000 6.17 340 10:26 09.01.2021
3927 Snow -3 1015 68 10000 5.14 330 09:46 09.01.2021
3928 Snow -3 1015 68 10000 5.14 330 09:21 09.01.2021
3929 Clouds -4 1014 68 10000 8.75 330 08:26 09.01.2021
3930 Clouds -5 1012 58 10000 8.23 330 06:56 09.01.2021
3931 Snow -5 1012 58 10000 8.23 330 06:38 09.01.2021
3932 Clouds -7 1010 63 10000 6.17 350 04:43 09.01.2021
3933 Clouds -7 1008 58 10000 7.2 360 03:20 09.01.2021
3934 Clouds -7 1007 68 10000 11.32 20 02:29 09.01.2021
3935 Clouds -6 1004 68 10000 8.23 10 01:44 09.01.2021
3936 Clouds -5 1002 68 10000 10.29 20 00:34 09.01.2021
3937 Clouds -2 999 69 10000 8.23 330 23:50 08.01.2021
3938 Clouds -2 999 69 10000 8.23 330 23:50 08.01.2021
3939 Clouds -1 997 51 10000 10.8 280 22:56 08.01.2021
3940 Clouds -1 997 86 10000 12.35 290 21:59 08.01.2021
3941 Clouds -1 997 86 10000 12.35 290 21:34 08.01.2021
3942 Snow 0 997 64 10000 8.75 280 20:42 08.01.2021
3943 Clouds 0 997 64 10000 8.75 280 20:23 08.01.2021
3944 Snow 0 997 75 10000 9.77 280 19:44 08.01.2021
3945 Snow 0 997 75 10000 9.77 280 19:21 08.01.2021
3946 Clouds 1 997 64 10000 10.8 260 18:34 08.01.2021
3947 Clouds 2 997 65 10000 8.75 250 17:56 08.01.2021
3948 Clouds 2 997 65 10000 8.75 250 17:35 08.01.2021
3949 Clouds 2 998 65 10000 9.77 270 16:51 08.01.2021
3950 Clouds 2 998 65 10000 9.77 270 16:51 08.01.2021
3951 Clouds 2 998 65 10000 9.77 270 16:20 08.01.2021
3952 Clouds 3 997 75 10000 7.2 260 15:40 08.01.2021
3953 Drizzle 3 997 93 8000 5.66 270 14:45 08.01.2021
3954 Drizzle 3 997 93 8000 5.66 270 14:26 08.01.2021
3955 Mist 5 997 87 3000 10.8 250 13:23 08.01.2021
3956 Clouds 5 998 93 6000 9.26 240 12:57 08.01.2021
3957 Clouds 5 998 93 6000 9.26 240 12:39 08.01.2021
3958 Clouds 5 998 93 6000 9.26 240 12:19 08.01.2021
3959 Clouds 5 998 93 4500 12.35 220 11:42 08.01.2021
3960 Clouds 5 998 93 4500 12.35 220 11:22 08.01.2021
3961 Clouds 5 999 93 4500 11.83 210 10:46 08.01.2021
3962 Rain 6 1000 87 7000 12.86 220 10:24 08.01.2021
3963 Rain 5 1002 93 4500 11.32 220 09:43 08.01.2021
3964 Rain 5 1002 93 4500 11.32 220 09:21 08.01.2021
3965 Mist 5 1004 93 4200 11.83 220 08:19 08.01.2021
3966 Rain 5 1005 93 9000 10.8 220 07:25 08.01.2021
3967 Rain 5 1005 93 9000 10.8 220 07:25 08.01.2021
3968 Clouds 5 1010 87 10000 8.75 220 04:26 08.01.2021
3969 Snow 0 1020 80 10000 7.72 140 23:46 07.01.2021
3970 Snow -1 1020 80 10000 7.72 140 23:28 07.01.2021
3971 Snow -1 1022 74 10000 7.2 130 22:42 07.01.2021
3972 Snow -2 1022 74 10000 7.2 130 22:21 07.01.2021
3973 Snow -2 1024 69 10000 4.63 120 21:41 07.01.2021
3974 Snow -3 1024 69 10000 4.63 120 21:22 07.01.2021
3975 Clouds -3 1025 74 10000 4.63 80 20:45 07.01.2021
3976 Clouds -4 1025 74 10000 4.63 80 20:26 07.01.2021
3977 Clouds -4 1026 74 10000 2.57 90 19:42 07.01.2021
3978 Clouds -5 1027 68 10000 3.09 110 18:55 07.01.2021
3979 Clouds -5 1027 68 10000 3.09 110 18:30 07.01.2021
3980 Clouds -5 1028 63 10000 2.57 100 17:42 07.01.2021
3981 Clouds -5 1028 63 10000 2.57 100 17:22 07.01.2021
3982 Clouds -6 1029 63 10000 3.6 100 16:52 07.01.2021
3983 Clouds -6 1029 63 10000 3.6 100 16:24 07.01.2021
3984 Clear -6 1030 63 10000 3.09 100 15:37 07.01.2021
3985 Clear -7 1031 63 10000 2.57 100 14:45 07.01.2021
3986 Clear -7 1031 63 10000 2.57 100 14:26 07.01.2021
3987 Clear -7 1031 68 10000 2.57 110 13:42 07.01.2021
3988 Clear -7 1031 68 10000 2.57 110 13:18 07.01.2021
3989 Clear -7 1031 68 10000 2.57 110 13:18 07.01.2021
3990 Clouds -8 1032 86 10000 1.34 159 12:42 07.01.2021
3991 Clear -7 1032 67 10000 4.1 100 11:54 07.01.2021
3992 Clear -7 1032 67 10000 4.1 100 11:35 07.01.2021
3993 Clear -7 1032 67 10000 2.6 110 10:50 07.01.2021
3994 Clear -7 1032 67 10000 2.6 110 10:27 07.01.2021
3995 Clear -6 1032 67 10000 2.6 120 09:47 07.01.2021
3996 Clear -6 1032 67 10000 2.6 120 09:19 07.01.2021
3997 Clear -6 1032 67 10000 3.6 120 08:29 07.01.2021
3998 Clear -7 1031 73 10000 2.6 130 07:51 07.01.2021
3999 Clear -7 1031 73 10000 2.6 130 07:26 07.01.2021
4000 Clear -6 1031 73 10000 1.5 140 04:31 07.01.2021
4001 Clear -6 1029 79 10000 1 0 00:31 07.01.2021
4002 Clear -5 1028 67 10000 2.6 120 23:49 06.01.2021
4003 Clouds -4 1028 67 10000 2.1 70 22:44 06.01.2021
4004 Clear -4 1027 68 10000 4.1 20 21:56 06.01.2021
4005 Clear -4 1027 68 10000 4.1 20 21:38 06.01.2021
4006 Clear -4 1027 68 10000 4.1 20 21:19 06.01.2021
4007 Clear -3 1026 68 10000 4.1 350 20:39 06.01.2021
4008 Clear -3 1026 68 10000 4.1 350 20:18 06.01.2021
4009 Clouds -3 1026 68 10000 4.1 360 19:38 06.01.2021
4010 Clouds -3 1026 68 10000 4.1 360 19:19 06.01.2021
4011 Clouds -2 1025 63 10000 4.1 360 18:42 06.01.2021
4012 Clouds -2 1024 68 10000 4.6 340 18:24 06.01.2021
4013 Clouds -2 1024 68 10000 4.6 340 17:43 06.01.2021
4014 Clouds -2 1024 68 10000 4.6 340 17:24 06.01.2021
4015 Clouds -2 1024 63 10000 9.3 320 16:42 06.01.2021
4016 Clouds -2 1024 63 10000 9.3 320 16:20 06.01.2021
4017 Clouds -1 1023 63 10000 8.7 320 15:53 06.01.2021
4018 Clouds -1 1023 63 10000 8.7 320 15:32 06.01.2021
4019 Clouds -1 1023 54 10000 8.7 310 14:51 06.01.2021
4020 Clouds -1 1023 54 10000 8.7 310 14:21 06.01.2021
4021 Clouds -1 1022 58 10000 7.2 330 13:47 06.01.2021
4022 Snow -1 1022 58 10000 7.2 330 13:24 06.01.2021
4023 Clouds -1 1022 63 10000 8.7 320 12:48 06.01.2021
4024 Clouds -1 1022 63 10000 8.7 320 12:20 06.01.2021
4025 Clouds 0 1021 88 10000 10.8 300 11:36 06.01.2021
4026 Clouds 0 1021 88 10000 10.8 300 11:18 06.01.2021
4027 Clouds 1 1020 64 10000 5.7 320 10:22 06.01.2021
4028 Clouds 1 1019 69 10000 6.2 330 09:51 06.01.2021
4029 Clouds 1 1019 69 10000 8.7 310 08:59 06.01.2021
4030 Clouds 1 1019 69 10000 8.7 310 08:38 06.01.2021
4031 Snow 1 1018 64 10000 9.8 280 07:58 06.01.2021
4032 Snow 1 1018 64 10000 9.8 280 07:18 06.01.2021
4033 Clouds 2 1018 69 10000 5.1 270 05:51 06.01.2021
4034 Rain 3 1019 59 10000 5.7 270 04:35 06.01.2021
4035 Clouds 1 1019 59 10000 7.7 300 02:47 06.01.2021
4036 Clouds 1 1019 59 10000 7.7 300 02:26 06.01.2021
4037 Clouds 1 1019 80 10000 1.5 310 01:34 06.01.2021
4038 Rain 1 1020 86 10000 3.1 310 23:34 05.01.2021
4039 Rain 1 1019 82 10000 4.1 300 22:45 05.01.2021
4040 Snow 1 1019 81 10000 4.1 300 22:22 05.01.2021
4041 Clouds 2 1019 93 10000 2.1 310 21:57 05.01.2021
4042 Clouds 1 1019 86 10000 1.5 170 20:58 05.01.2021
4043 Snow 1 1019 86 10000 1.5 170 20:28 05.01.2021
4044 Drizzle 1 1019 86 10000 1.5 190 19:45 05.01.2021
4045 Drizzle 1 1019 86 10000 1.5 190 19:23 05.01.2021
4046 Clouds 1 1019 86 10000 1 170 18:46 05.01.2021
4047 Clouds 1 1019 86 10000 1 170 18:28 05.01.2021
4048 Rain 1 1020 86 10000 0.5 0 17:53 05.01.2021
4049 Clouds 1 1020 81 10000 1.5 110 17:31 05.01.2021
4050 Clouds 1 1020 80 10000 1.5 110 16:54 05.01.2021
4051 Clouds 1 1020 80 10000 1.5 110 16:53 05.01.2021
4052 Clouds 1 1020 81 10000 1.5 110 16:23 05.01.2021
4053 Clouds 1 1020 81 10000 1.5 100 15:59 05.01.2021
4054 Clouds 1 1020 81 10000 1.5 100 15:35 05.01.2021
4055 Clear 2 1021 81 10000 1 120 14:48 05.01.2021
4056 Clouds 1 1021 86 10000 1 0 13:57 05.01.2021
4057 Clouds 1 1021 86 10000 1 0 13:36 05.01.2021
4058 Clouds 1 1021 86 10000 1 0 13:18 05.01.2021
4059 Drizzle 2 1021 83 10000 1.5 60 12:46 05.01.2021
4060 Drizzle 2 1021 83 10000 1.5 60 12:18 05.01.2021
4061 -273 0 0 0 0 0 11:31 05.01.2021
4062 -273 0 0 0 0 0 11:29 05.01.2021
4063 Clouds 2 1022 80 10000 0.5 0 10:44 05.01.2021
4064 Clouds 2 1022 80 10000 0.5 0 10:19 05.01.2021
4065 Clouds 2 1022 81 10000 1 0 09:42 05.01.2021
4066 Drizzle 2 1022 81 10000 1.5 140 08:59 05.01.2021
4067 Drizzle 2 1022 80 10000 1.5 140 08:19 05.01.2021
4068 Clouds 2 1023 78 10000 2.1 150 05:32 05.01.2021
4069 Clouds 1 1023 86 10000 2.6 140 03:40 05.01.2021
4070 Clouds 2 1024 79 10000 3.1 160 00:24 05.01.2021
4071 Clouds 2 1023 79 10000 4.1 160 23:43 04.01.2021
4072 Clouds 2 1023 79 10000 4.1 160 23:24 04.01.2021
4073 Clouds 2 1023 80 10000 3.6 170 22:46 04.01.2021
4074 Clouds 2 1023 80 10000 3.6 170 22:21 04.01.2021
4075 Clouds 2 1023 78 10000 4.1 190 21:42 04.01.2021
4076 Clouds 2 1023 77 10000 4.1 190 21:22 04.01.2021
4077 Clouds 2 1023 77 10000 4.6 200 20:43 04.01.2021
4078 Clouds 3 1023 75 10000 7.2 190 20:22 04.01.2021
4079 Clouds 3 1023 75 10000 7.2 190 19:43 04.01.2021
4080 Clouds 3 1023 75 10000 7.2 190 19:22 04.01.2021
4081 Clouds 3 1023 75 10000 6.2 190 18:48 04.01.2021
4082 Clouds 3 1023 75 10000 6.2 190 18:19 04.01.2021
4083 Clouds 3 1023 75 10000 4.1 210 17:41 04.01.2021
4084 Clouds 3 1023 75 10000 4.1 210 17:22 04.01.2021
4085 Clouds 3 1022 75 10000 4.6 180 16:45 04.01.2021
4086 Clouds 3 1022 75 10000 4.6 180 16:26 04.01.2021
4087 Clouds 3 1023 75 10000 5.1 190 15:49 04.01.2021
4088 Clouds 3 1023 75 10000 5.7 200 15:25 04.01.2021
4089 Clouds 4 1023 74 10000 6.7 200 14:21 04.01.2021
4090 Clouds 4 1023 74 10000 5.7 200 13:43 04.01.2021
4091 Clouds 3 1023 74 10000 5.7 200 13:20 04.01.2021
4092 Clouds 3 1023 76 10000 4.6 210 12:32 04.01.2021
4093 Clouds 3 1022 74 10000 5.7 210 11:53 04.01.2021
4094 Rain 3 1022 74 10000 5.7 210 11:20 04.01.2021
4095 Rain 3 1022 74 10000 5.7 210 10:47 04.01.2021
4096 Clouds 3 1022 74 10000 5.7 210 10:24 04.01.2021
4097 Rain 3 1021 69 10000 6.2 210 09:49 04.01.2021
4098 Clouds 3 1021 69 10000 6.2 210 09:18 04.01.2021
4099 Clouds 3 1020 74 10000 7.2 210 08:41 04.01.2021
4100 Clouds 3 1020 74 10000 6.7 210 07:54 04.01.2021
4101 Clouds 3 1020 74 10000 6.7 210 07:18 04.01.2021
4102 Clouds 2 1018 80 10000 7.2 210 05:21 04.01.2021
4103 Clouds 2 1015 73 10000 7.2 220 02:35 04.01.2021
4104 Clouds 4 1011 86 10000 10.3 220 00:34 04.01.2021
4105 Mist 6 1008 93 3300 15.4 170 23:48 03.01.2021
4106 Mist 6 1008 93 3300 15.4 170 23:20 03.01.2021
4107 Rain 7 1007 93 4800 15.4 160 22:51 03.01.2021
4108 Clouds 7 1007 93 4800 15.4 160 22:30 03.01.2021
4109 Rain 8 1008 81 7000 15.4 160 21:48 03.01.2021
4110 Clouds 8 1008 81 7000 15.4 160 21:25 03.01.2021
4111 Clouds 8 1011 81 10000 10.8 160 20:44 03.01.2021
4112 Clouds 8 1011 81 10000 10.8 160 20:24 03.01.2021
4113 Clouds 7 1012 87 10000 10.3 160 19:55 03.01.2021
4114 Drizzle 7 1012 87 10000 8.7 150 19:34 03.01.2021
4115 Drizzle 7 1012 87 10000 8.7 150 18:56 03.01.2021
4116 Drizzle 7 1012 87 10000 8.7 150 18:38 03.01.2021
4117 Clouds 7 1012 81 10000 10.3 160 17:59 03.01.2021
4118 Clouds 7 1012 81 10000 10.3 160 17:40 03.01.2021
4119 Clouds 7 1012 81 10000 10.3 160 17:22 03.01.2021
4120 Drizzle 7 1013 87 10000 10.3 170 16:42 03.01.2021
4121 Drizzle 7 1013 87 10000 10.3 170 16:19 03.01.2021
4122 Drizzle 7 1014 87 4000 9.3 160 15:45 03.01.2021
4123 Drizzle 7 1014 87 10000 8.2 160 15:26 03.01.2021
4124 Clouds 7 1015 87 10000 7.2 160 14:50 03.01.2021
4125 Clouds 7 1015 87 10000 7.2 160 14:27 03.01.2021
4126 Mist 7 1015 87 10000 7.2 160 13:40 03.01.2021
4127 Mist 7 1015 87 10000 7.2 160 13:21 03.01.2021
4128 Drizzle 7 1015 87 8000 6.7 170 12:24 03.01.2021
4129 Drizzle 6 1014 100 4500 11.3 180 11:40 03.01.2021
4130 Drizzle 7 1015 93 8000 8.7 170 11:22 03.01.2021
4131 Drizzle 7 1015 93 8000 8.7 170 10:34 03.01.2021
4132 Drizzle 7 1015 93 5000 6.2 170 09:55 03.01.2021
4133 Drizzle 7 1015 93 5000 6.2 170 09:33 03.01.2021
4134 Drizzle 7 1014 93 3500 6.7 180 08:57 03.01.2021
4135 Rain 7 1014 93 5000 6.7 180 07:26 03.01.2021
4136 Clouds 7 1014 87 10000 7.2 170 05:42 03.01.2021
4137 Rain 8 1013 87 10000 8.2 170 02:27 03.01.2021
4138 Rain 8 1013 87 10000 8.2 170 02:27 03.01.2021
4139 Rain 8 1013 87 10000 6.7 170 00:59 03.01.2021
4140 Rain 8 1012 87 10000 6.2 170 00:18 03.01.2021
4141 Rain 8 1012 87 10000 6.2 170 23:27 02.01.2021
4142 Rain 8 1012 81 10000 5.1 160 22:51 02.01.2021
4143 Clouds 8 1012 81 10000 5.1 160 22:32 02.01.2021
4144 Drizzle 7 1012 87 10000 3.6 130 21:49 02.01.2021
4145 Drizzle 7 1012 87 10000 3.6 130 21:30 02.01.2021
4146 Clouds 7 1012 81 10000 3.6 100 20:49 02.01.2021
4147 Clouds 7 1012 81 10000 3.6 100 20:28 02.01.2021
4148 Clouds 6 1013 87 10000 3.1 120 19:52 02.01.2021
4149 Rain 6 1013 87 10000 3.1 120 19:20 02.01.2021
4150 Drizzle 7 1013 87 10000 4.1 150 18:53 02.01.2021
4151 Drizzle 7 1013 87 10000 4.1 150 18:33 02.01.2021
4152 Clouds 7 1012 81 10000 4.6 120 17:57 02.01.2021
4153 Clouds 7 1012 81 10000 4.6 120 17:38 02.01.2021
4154 Clouds 6 1013 81 10000 5.7 130 16:49 02.01.2021
4155 Clouds 5 1012 80 10000 7.2 110 16:23 02.01.2021
4156 Clouds 5 1012 80 10000 7.2 110 15:51 02.01.2021
4157 Clouds 5 1012 80 10000 7.2 110 15:28 02.01.2021
4158 Clouds 5 1013 80 10000 9.8 120 14:53 02.01.2021
4159 Clouds 5 1013 80 10000 9.8 120 14:33 02.01.2021
4160 Clouds 5 1013 75 10000 9.8 120 13:44 02.01.2021
4161 Clouds 5 1013 75 10000 9.8 120 12:59 02.01.2021
4162 Clouds 5 1013 75 10000 9.8 120 12:41 02.01.2021
4163 Clouds 5 1013 75 10000 9.8 120 12:22 02.01.2021
4164 Clouds 5 1013 80 10000 7.7 110 11:42 02.01.2021
4165 Clouds 5 1013 80 10000 7.7 110 11:20 02.01.2021
4166 Clouds 5 1014 80 10000 7.7 120 10:42 02.01.2021
4167 Clouds 5 1014 80 10000 7.7 120 10:23 02.01.2021
4168 Clouds 4 1014 86 10000 5.1 120 09:43 02.01.2021
4169 Clouds 4 1014 86 10000 5.1 120 09:21 02.01.2021
4170 Clouds 4 1014 86 10000 5.7 110 08:48 02.01.2021
4171 Clouds 4 1014 86 10000 5.7 110 08:19 02.01.2021
4172 Clouds 4 1014 80 10000 7.7 110 07:25 02.01.2021
4173 Clouds 4 1015 86 10000 6.2 100 06:58 02.01.2021
4174 Clouds 4 1015 86 10000 6.2 100 06:24 02.01.2021
4175 Clouds 4 1016 80 10000 3.6 100 04:27 02.01.2021
4176 Clouds 3 1017 87 10000 6.2 100 00:53 02.01.2021
4177 Clouds 3 1017 88 10000 6.2 100 00:33 02.01.2021
4178 Clouds 3 1018 90 10000 4.6 100 23:44 01.01.2021
4179 Clouds 3 1018 89 10000 4.6 100 23:20 01.01.2021
4180 Clouds 2 1017 80 10000 4.6 90 22:47 01.01.2021
4181 Clouds 2 1017 80 10000 4.6 90 22:22 01.01.2021
4182 Clouds 2 1018 80 10000 5.1 100 21:43 01.01.2021
4183 Clouds 2 1018 80 10000 5.1 100 21:21 01.01.2021
4184 Clouds 2 1018 80 10000 5.1 90 20:51 01.01.2021
4185 Clouds 2 1018 80 10000 5.1 90 20:20 01.01.2021
4186 Clouds 2 1018 80 10000 5.7 90 19:43 01.01.2021
4187 Clouds 2 1018 80 10000 5.7 90 19:23 01.01.2021
4188 Clouds 1 1019 86 10000 5.7 90 18:52 01.01.2021
4189 Clouds 1 1019 86 10000 5.7 90 18:34 01.01.2021
4190 Clouds 1 1019 80 10000 5.1 80 17:59 01.01.2021
4191 Clouds 0 1020 91 10000 5.7 80 17:41 01.01.2021
4192 Clouds 0 1020 92 10000 5.7 80 17:18 01.01.2021
4193 Clouds 0 1020 92 10000 5.7 80 16:37 01.01.2021
4194 Clouds 0 1021 86 10000 4.1 80 15:45 01.01.2021
4195 Clouds -1 1021 86 10000 2.6 100 14:57 01.01.2021
4196 Clouds -1 1021 86 10000 2.6 100 14:39 01.01.2021
4197 Clouds -1 1022 80 10000 3.6 100 13:52 01.01.2021
4198 Clouds -1 1022 80 10000 3.6 100 13:33 01.01.2021
4199 Snow -2 1022 92 10000 1.5 90 12:47 01.01.2021
4200 Clouds -2 1022 92 10000 1.5 90 12:20 01.01.2021
4201 Clouds -2 1023 92 10000 2.6 150 11:39 01.01.2021
4202 Snow -2 1023 92 10000 2.6 150 11:18 01.01.2021
4203 Clear -3 1023 92 10000 1.5 100 10:50 01.01.2021
4204 Clear -2 1023 92 10000 3.1 100 09:51 01.01.2021
4205 Clear -2 1023 92 10000 3.1 100 09:23 01.01.2021
4206 Clear -2 1023 92 10000 2.6 90 08:30 01.01.2021
4207 Smoke -1 1024 92 1100 1 0 05:50 01.01.2021
4208 Mist -1 1024 92 500 0.5 360 04:47 01.01.2021
4209 Mist 0 1025 94 4300 1.5 80 01:40 01.01.2021
4210 Smoke 0 1025 95 2500 0.5 0 00:32 01.01.2021
4211 Snow 0 1025 95 4000 1.5 160 23:38 31.12.2020
4212 Smoke 0 1025 95 4000 1.5 160 23:20 31.12.2020
4213 Clouds 1 1025 86 10000 0.5 0 22:42 31.12.2020
4214 Clouds 1 1025 86 10000 0.5 0 22:21 31.12.2020
4215 Clouds 0 1025 95 10000 1 0 21:55 31.12.2020
4216 Clouds 0 1025 95 10000 1 0 21:33 31.12.2020
4217 Clouds 0 1024 93 10000 1.5 310 20:58 31.12.2020
4218 Clouds 0 1024 90 10000 1.5 310 20:26 31.12.2020
4219 Snow 0 1024 92 10000 0.5 0 19:49 31.12.2020
4220 Clouds 0 1024 92 10000 0.5 0 19:31 31.12.2020
4221 Clouds 0 1024 92 10000 1 0 18:51 31.12.2020
4222 Snow 0 1024 90 10000 1 0 18:25 31.12.2020
4223 Rain 0 1024 90 10000 1 0 17:46 31.12.2020
4224 Rain 0 1024 91 10000 1 0 17:26 31.12.2020
4225 Snow 1 1024 80 10000 2.6 310 16:55 31.12.2020
4226 Snow 1 1024 80 10000 2.6 310 16:37 31.12.2020
4227 Snow 1 1024 80 10000 2.6 310 16:18 31.12.2020
4228 Snow 1 1023 86 10000 4.1 300 15:42 31.12.2020
4229 Snow 1 1023 86 10000 4.1 300 15:18 31.12.2020
4230 Clouds 1 1023 86 10000 5.1 270 14:40 31.12.2020
4231 Clouds 1 1023 86 10000 5.1 270 14:22 31.12.2020
4232 Clouds 1 1022 86 10000 3.6 290 13:57 31.12.2020
4233 Clouds 1 1022 86 10000 3.6 290 13:36 31.12.2020
4234 Snow 1 1022 86 10000 3.6 290 13:18 31.12.2020
4235 Snow 1 1021 86 10000 3.6 210 12:45 31.12.2020
4236 Snow 1 1021 86 10000 3.6 210 12:26 31.12.2020
4237 Snow 0 1021 91 10000 1 0 11:46 31.12.2020
4238 Snow 0 1021 93 10000 1 0 11:28 31.12.2020
4239 Snow 0 1021 93 10000 1 0 11:28 31.12.2020
4240 Snow 0 1021 93 10000 1 0 11:28 31.12.2020
4241 Snow 0 1021 93 10000 1 0 11:28 31.12.2020
4242 Snow 0 1021 93 10000 1 0 11:28 31.12.2020
4243 Snow 0 1021 93 10000 1 0 11:28 31.12.2020
4244 Snow 0 1021 93 10000 1 0 11:28 31.12.2020
4245 Snow 0 1021 93 10000 1 0 11:28 31.12.2020
4246 Snow 0 1020 92 10000 2.6 110 10:41 31.12.2020
4247 Snow 0 1020 92 10000 2.6 110 10:23 31.12.2020
4248 Snow 1 1020 96 10000 3.1 100 09:47 31.12.2020
4249 Snow 0 1020 98 10000 3.1 100 09:23 31.12.2020
4250 Snow -1 1019 86 10000 2.6 110 08:46 31.12.2020
4251 Snow -1 1019 86 10000 2.6 110 08:46 31.12.2020
4252 Snow -1 1019 86 10000 2.6 110 08:28 31.12.2020
4253 Snow -3 1019 92 10000 1.5 100 07:54 31.12.2020
4254 Clouds -3 1019 92 10000 1.5 100 07:24 31.12.2020
4255 Snow -4 1018 92 10000 1.5 120 05:30 31.12.2020
4256 Clear -5 1017 100 10000 0.5 0 03:33 31.12.2020
4257 Clear -5 1017 92 10000 1 100 02:36 31.12.2020
4258 Fog -5 1016 92 10000 1 120 01:55 31.12.2020
4259 Snow -5 1016 92 10000 1 120 01:34 31.12.2020
4260 Fog -4 1015 85 200 1.5 120 00:57 31.12.2020
4261 Fog -5 1015 85 200 1.5 120 00:26 31.12.2020
4262 Snow -5 1015 67 10000 2.6 110 23:36 30.12.2020
4263 Snow -5 1015 67 10000 2.6 110 23:18 30.12.2020
4264 Fog -5 1014 73 10000 1.5 60 22:35 30.12.2020
4265 Clear -4 1014 73 10000 1.5 120 21:54 30.12.2020
4266 Clear -4 1014 73 10000 1.5 120 21:54 30.12.2020
4267 Clear -4 1014 73 10000 1.5 120 21:27 30.12.2020
4268 Clear -4 1013 85 10000 2.1 100 20:53 30.12.2020
4269 Clear -4 1013 85 10000 2.1 100 20:29 30.12.2020
4270 Clear -4 1013 79 10000 1.5 50 19:58 30.12.2020
4271 Clear -4 1013 79 10000 1.5 50 19:37 30.12.2020
4272 Clear -4 1013 79 10000 1.5 50 19:37 30.12.2020
4273 Clear -4 1013 79 10000 1.5 50 19:18 30.12.2020
4274 Clear -3 1012 79 10000 1 0 18:39 30.12.2020
4275 Clear -3 1012 79 10000 1 0 18:20 30.12.2020
4276 Snow -3 1012 79 10000 1 0 17:48 30.12.2020
4277 Snow -3 1012 79 10000 1 0 17:29 30.12.2020
4278 Clear -3 1011 73 10000 2.1 100 16:45 30.12.2020
4279 Clear -3 1011 73 10000 2.1 100 16:20 30.12.2020
4280 Clear -3 1011 85 10000 2.1 120 15:42 30.12.2020
4281 Clear -3 1011 85 10000 2.1 120 15:24 30.12.2020
4282 Clear -3 1010 79 10000 1.5 60 14:42 30.12.2020
4283 Clear -3 1010 79 10000 1.5 60 14:19 30.12.2020
4284 Clear -2 1010 79 10000 1.5 30 13:19 30.12.2020
4285 Snow -2 1010 79 10000 1.5 30 12:27 30.12.2020
4286 Clear -2 1009 86 10000 1.5 100 11:48 30.12.2020
4287 Clear -2 1009 86 10000 1.5 100 11:23 30.12.2020
4288 Clouds -2 1009 86 10000 0.5 0 10:58 30.12.2020
4289 Snow -2 1009 86 10000 0.5 0 10:38 30.12.2020
4290 Clouds -2 1009 86 10000 0.5 0 10:18 30.12.2020
4291 Clouds -1 1009 86 10000 1.5 0 09:42 30.12.2020
4292 Clouds -2 1008 86 10000 1.5 100 08:54 30.12.2020
4293 Clouds -2 1008 86 10000 1.5 40 07:53 30.12.2020
4294 Clouds -2 1008 86 10000 1.5 40 07:27 30.12.2020
4295 Clouds -2 1008 86 10000 1 0 06:40 30.12.2020
4296 Snow -2 1008 86 10000 1 40 05:49 30.12.2020
4297 Clouds -2 1008 86 10000 1 40 05:30 30.12.2020
4298 Clear -2 1007 86 10000 0.5 0 03:43 30.12.2020
4299 Clear -2 1007 86 10000 0.5 0 03:23 30.12.2020
4300 Clear -2 1008 92 10000 0.47 133 02:35 30.12.2020
4301 Snow 0 1008 92 10000 1.5 110 01:47 30.12.2020
4302 Clear -1 1008 92 10000 1.5 110 01:29 30.12.2020
4303 Clear -1 1007 92 10000 1.5 150 00:45 30.12.2020
4304 Clear -1 1007 92 10000 1.5 150 00:26 30.12.2020
4305 Snow -1 1007 92 10000 1.5 140 23:50 29.12.2020
4306 Snow -1 1007 92 10000 1.5 140 23:32 29.12.2020
4307 Snow -1 1007 92 10000 1.5 140 22:49 29.12.2020
4308 Clear -1 1007 92 10000 1.5 140 22:31 29.12.2020
4309 Clear 0 1007 92 10000 2.1 110 21:56 29.12.2020
4310 Clear 0 1007 92 10000 2.1 110 21:37 29.12.2020
4311 Clear 0 1007 92 10000 2.1 110 21:18 29.12.2020
4312 Snow 0 1007 96 10000 1.5 100 20:41 29.12.2020
4313 Clouds 1 1007 96 10000 1.5 100 20:22 29.12.2020
4314 Snow 0 1007 96 10000 1 90 19:43 29.12.2020
4315 Clouds 0 1007 96 10000 1 90 19:21 29.12.2020
4316 Snow 0 1007 92 10000 1 0 18:50 29.12.2020
4317 Snow 0 1007 92 10000 1 0 18:28 29.12.2020
4318 Snow 0 1007 92 10000 1.5 130 17:46 29.12.2020
4319 Clouds 0 1007 92 10000 1.5 130 17:21 29.12.2020
4320 Snow 0 1008 91 10000 0.5 0 16:54 29.12.2020
4321 Snow 0 1008 91 10000 0.5 0 16:26 29.12.2020
4322 Snow 0 1008 92 3500 1 0 15:42 29.12.2020
4323 Snow 0 1008 92 3500 1 0 15:23 29.12.2020
4324 Snow 0 1008 92 4500 1 100 14:45 29.12.2020
4325 Snow 0 1009 92 8000 1.5 70 14:27 29.12.2020
4326 Snow 0 1009 92 7000 2.6 160 13:55 29.12.2020
4327 Snow 0 1009 92 7000 2.6 160 13:24 29.12.2020
4328 Snow -1 1010 92 10000 2.6 160 12:45 29.12.2020
4329 Snow -1 1010 92 10000 2.6 160 12:26 29.12.2020
4330 Snow -1 1010 79 2500 1.5 130 11:58 29.12.2020
4331 Snow -1 1010 79 2500 1.5 130 11:32 29.12.2020
4332 Clouds -1 1011 79 10000 1.5 100 10:52 29.12.2020
4333 Clouds -1 1011 79 10000 1.5 100 10:20 29.12.2020
4334 Snow -2 1011 79 10000 2.6 120 09:40 29.12.2020
4335 Clouds -2 1011 79 10000 2.6 120 09:18 29.12.2020
4336 Clouds -3 1012 79 10000 2.6 130 08:47 29.12.2020
4337 Snow -3 1013 79 10000 1.5 150 07:40 29.12.2020
4338 Snow -3 1013 79 10000 1.5 150 07:18 29.12.2020
4339 Clouds -2 1014 74 10000 1 130 05:44 29.12.2020
4340 Clear -2 1018 79 10000 4.1 350 01:58 29.12.2020
4341 Clear -3 1019 79 10000 4.1 350 00:26 29.12.2020
4342 Clouds -3 1020 79 10000 3.6 350 23:38 28.12.2020
4343 Snow -3 1020 79 10000 3.6 30 22:56 28.12.2020
4344 Snow -2 1020 79 10000 3.6 30 22:20 28.12.2020
4345 Clouds -2 1020 68 10000 5.7 340 21:41 28.12.2020
4346 Clouds -2 1020 68 10000 5.7 340 21:20 28.12.2020
4347 Clouds -1 1020 63 10000 4.6 350 20:40 28.12.2020
4348 Clouds -1 1020 63 10000 4.6 350 20:21 28.12.2020
4349 Clouds -2 1020 58 10000 5.7 360 19:42 28.12.2020
4350 Clouds -2 1020 58 10000 5.7 360 19:22 28.12.2020
4351 Clouds -1 1020 63 10000 7.2 10 18:49 28.12.2020
4352 Clouds -1 1020 63 10000 7.2 10 18:28 28.12.2020
4353 Clouds -1 1021 63 10000 9.3 360 17:42 28.12.2020
4354 Clouds -1 1021 63 10000 9.3 360 17:20 28.12.2020
4355 Snow -1 1021 68 10000 7.2 340 16:34 28.12.2020
4356 Clouds 0 1020 89 10000 12.3 350 15:59 28.12.2020
4357 Clouds 0 1020 89 10000 12.3 350 15:41 28.12.2020
4358 Clouds -1 1020 63 10000 12.3 360 14:54 28.12.2020
4359 Clouds -1 1020 58 10000 11.8 350 13:55 28.12.2020
4360 Clouds -1 1020 58 10000 11.8 350 13:25 28.12.2020
4361 Clouds 0 1020 89 10000 12.9 360 12:41 28.12.2020
4362 Clouds 0 1020 89 10000 12.9 360 12:22 28.12.2020
4363 Clouds -1 1020 68 10000 8.7 340 11:45 28.12.2020
4364 Clouds -1 1020 68 10000 8.7 340 11:24 28.12.2020
4365 Rain 0 1021 90 10000 6.7 340 10:45 28.12.2020
4366 Rain 0 1021 90 10000 6.7 340 10:27 28.12.2020
4367 Rain 0 1020 90 10000 11.3 10 09:46 28.12.2020
4368 Rain 0 1020 91 10000 11.3 10 09:19 28.12.2020
4369 Clouds 0 1019 91 10000 10.3 360 07:35 28.12.2020
4370 Clouds 0 1018 91 10000 10.3 360 06:50 28.12.2020
4371 Clouds 0 1018 92 10000 9.8 10 04:31 28.12.2020
4372 Clouds 1 1016 69 10000 12.9 360 02:27 28.12.2020
4373 Snow 1 1015 74 10000 13.9 10 00:53 28.12.2020
4374 Clouds 2 1013 74 10000 12.3 360 23:46 27.12.2020
4375 Clouds 2 1012 74 10000 13.4 360 23:19 27.12.2020
4376 Clouds 2 1011 80 10000 12.3 360 21:58 27.12.2020
4377 Clouds 2 1011 80 10000 12.3 360 21:26 27.12.2020
4378 Clouds 3 1010 69 10000 12.9 10 20:47 27.12.2020
4379 Clouds 3 1008 74 10000 9.8 20 19:46 27.12.2020
4380 Clouds 3 1008 74 10000 9.8 20 19:22 27.12.2020
4381 Clouds 3 1007 69 10000 8.7 20 18:42 27.12.2020
4382 Clouds 3 1007 69 10000 8.7 20 18:19 27.12.2020
4383 Clouds 4 1003 64 10000 18.5 360 17:49 27.12.2020
4384 Clouds 4 1003 64 10000 18.5 360 17:30 27.12.2020
4385 Clouds 3 1004 74 10000 4.1 0 16:43 27.12.2020
4386 Clouds 3 1004 74 10000 4.1 0 16:20 27.12.2020
4387 Clouds 4 1000 69 10000 7.2 0 15:21 27.12.2020
4388 Rain 4 999 69 10000 3.1 0 14:42 27.12.2020
4389 Clouds 4 999 69 10000 3.1 0 14:22 27.12.2020
4390 Clouds 4 994 69 10000 14.9 10 13:23 27.12.2020
4391 Clouds 4 991 84 10000 17 360 12:51 27.12.2020
4392 Clouds 4 991 85 10000 17 360 12:22 27.12.2020
4393 Clouds 4 991 85 10000 7.2 10 11:40 27.12.2020
4394 Clouds 2 990 82 10000 12.3 290 10:58 27.12.2020
4395 Clouds 2 990 82 10000 11.8 300 10:39 27.12.2020
4396 Snow 2 990 79 10000 11.8 300 10:19 27.12.2020
4397 Clouds 2 988 80 10000 8.7 320 08:53 27.12.2020
4398 Clouds 2 988 80 10000 8.7 320 08:28 27.12.2020
4399 Clouds 2 985 80 10000 9.8 320 07:28 27.12.2020
4400 Rain 0 982 83 8000 12.3 340 05:47 27.12.2020
4401 Snow 0 981 92 8000 13.4 340 04:59 27.12.2020
4402 Clouds -1 981 86 8000 10.3 340 03:23 27.12.2020
4403 Clouds -1 980 74 10000 8.7 340 01:47 27.12.2020
4404 Clouds -1 978 74 10000 7.7 340 00:26 27.12.2020
4405 Clouds -2 977 79 10000 7.2 350 23:42 26.12.2020
4406 Clouds -2 977 79 10000 7.2 350 23:21 26.12.2020
4407 Clouds -2 975 74 10000 6.2 20 22:40 26.12.2020
4408 Clouds -2 975 74 10000 6.2 20 22:18 26.12.2020
4409 Clouds -2 975 74 10000 6.2 20 21:53 26.12.2020
4410 Clouds -2 975 74 10000 6.2 20 21:24 26.12.2020
4411 Clouds -2 973 74 10000 7.2 30 20:44 26.12.2020
4412 Clouds -2 973 74 10000 7.2 30 20:22 26.12.2020
4413 Clear -2 971 79 10000 5.1 360 19:31 26.12.2020
4414 Clear -5 970 85 10000 6.18 8 18:57 26.12.2020
4415 Clear -5 970 85 10000 5.42 2 18:33 26.12.2020
4416 Clouds -6 969 92 10000 1 70 17:47 26.12.2020
4417 Clouds -6 969 92 10000 1 70 17:28 26.12.2020
4418 Clear -5 968 85 10000 3.6 90 16:38 26.12.2020
4419 Clear -5 967 92 10000 3.6 90 15:59 26.12.2020
4420 Clear -5 967 92 10000 3.6 90 15:20 26.12.2020
4421 Clouds -5 966 92 10000 4.6 70 14:38 26.12.2020
4422 Clouds -5 966 92 10000 4.6 70 14:20 26.12.2020
4423 Rain -5 965 92 10000 5.1 70 13:37 26.12.2020
4424 Rain -5 965 92 10000 5.1 70 13:18 26.12.2020
4425 Rain -3 965 92 10000 3.1 90 12:39 26.12.2020
4426 Rain -3 965 92 10000 3.1 90 12:19 26.12.2020
4427 Snow -3 965 92 10000 3.1 90 11:42 26.12.2020
4428 Snow -3 965 92 10000 3.1 90 11:20 26.12.2020
4429 Snow -3 965 92 9000 3.1 130 10:47 26.12.2020
4430 Snow -3 965 92 9000 3.1 130 10:26 26.12.2020
4431 Snow -3 965 100 1000 4.6 180 09:47 26.12.2020
4432 Snow -2 966 92 4000 5.1 250 08:55 26.12.2020
4433 Snow -2 966 92 4000 5.1 250 08:20 26.12.2020
4434 Snow -3 967 92 10000 6.2 240 07:21 26.12.2020
4435 Snow -2 970 92 10000 6.2 240 05:52 26.12.2020
4436 Rain -1 974 92 10000 7.7 250 02:48 26.12.2020
4437 Snow -2 976 100 1500 7.2 190 00:40 26.12.2020
4438 Snow 0 978 95 10000 7.2 200 23:56 25.12.2020
4439 Snow -1 978 95 10000 7.2 200 23:37 25.12.2020
4440 Snow -1 978 93 10000 7.2 200 23:19 25.12.2020
4441 Snow 0 979 90 10000 9.3 230 22:26 25.12.2020
4442 Snow -1 980 86 1000 11.8 240 21:46 25.12.2020
4443 Snow 1 980 69 10000 9.8 230 21:28 25.12.2020
4444 Clouds 2 980 55 9000 11.3 250 20:47 25.12.2020
4445 Clouds 2 980 55 9000 11.3 250 20:27 25.12.2020
4446 Snow 2 981 69 5000 12.9 250 19:43 25.12.2020
4447 Clouds 2 982 59 10000 14.9 250 18:55 25.12.2020
4448 Clouds 3 982 59 10000 14.9 250 18:35 25.12.2020
4449 Snow 3 982 55 8000 18.5 250 17:35 25.12.2020
4450 Clouds 3 981 59 8000 17 250 16:56 25.12.2020
4451 Clouds 3 981 59 8000 17 250 16:25 25.12.2020
4452 Clouds 2 981 80 7000 17.5 240 15:55 25.12.2020
4453 Clouds 2 981 80 7000 17.5 240 15:34 25.12.2020
4454 Clouds 2 980 78 5000 16.5 240 14:44 25.12.2020
4455 Clouds 2 980 80 5000 16.5 240 14:21 25.12.2020
4456 Snow 1 981 80 2500 10.8 210 13:43 25.12.2020
4457 Snow 1 981 87 2500 10.8 210 13:25 25.12.2020
4458 Snow 1 982 86 10000 8.7 200 12:34 25.12.2020
4459 Snow 1 984 80 10000 10.3 220 11:52 25.12.2020
4460 Snow 1 984 80 10000 10.3 220 11:25 25.12.2020
4461 Rain 0 985 79 1300 17 220 10:49 25.12.2020
4462 Snow 2 985 74 10000 12.9 240 10:23 25.12.2020
4463 Clouds 3 985 69 10000 11.8 220 09:27 25.12.2020
4464 Clouds 4 985 80 10000 12.3 230 08:47 25.12.2020
4465 Rain 3 985 93 10000 10.8 230 07:57 25.12.2020
4466 Rain 4 985 86 9000 9.8 230 06:44 25.12.2020
4467 Rain 8 992 87 5000 13.9 180 02:51 25.12.2020
4468 Rain 8 995 87 5000 12.9 180 01:41 25.12.2020
4469 Rain 8 997 87 5000 13.4 190 00:18 25.12.2020
4470 Drizzle 8 998 87 5000 13.4 190 23:23 24.12.2020
4471 Rain 8 1000 87 6000 13.4 190 22:40 24.12.2020
4472 Rain 8 1000 87 6000 13.4 190 22:19 24.12.2020
4473 Rain 7 1003 93 4500 13.4 190 21:33 24.12.2020
4474 Rain 7 1004 93 4600 12.3 190 20:36 24.12.2020
4475 Rain 7 1007 93 6000 12.3 190 18:40 24.12.2020
4476 Clouds 7 1007 93 6000 12.3 190 18:18 24.12.2020
4477 Rain 7 1007 93 4000 12.3 190 17:37 24.12.2020
4478 Rain 7 1009 87 3500 11.8 190 16:45 24.12.2020
4479 Drizzle 7 1009 87 3500 11.8 190 16:20 24.12.2020
4480 Rain 7 1010 87 4000 11.8 190 15:42 24.12.2020
4481 Rain 7 1010 87 4000 11.8 190 15:19 24.12.2020
4482 Rain 7 1010 87 3000 12.3 190 14:42 24.12.2020
4483 Rain 7 1012 87 6000 11.3 180 14:24 24.12.2020
4484 Rain 7 1012 87 6000 11.3 180 13:42 24.12.2020
4485 Clouds 7 1012 87 6000 11.3 180 13:22 24.12.2020
4486 Rain 7 1013 81 9000 11.3 180 12:43 24.12.2020
4487 Drizzle 7 1013 81 9000 11.3 180 12:21 24.12.2020
4488 Rain 7 1014 81 8000 11.3 170 11:41 24.12.2020
4489 Rain 7 1014 81 8000 11.3 170 11:20 24.12.2020
4490 Rain 6 1015 87 9000 11.8 170 10:52 24.12.2020
4491 Rain 6 1015 87 9000 11.8 170 10:34 24.12.2020
4492 Rain 6 1017 87 9000 11.3 170 09:52 24.12.2020
4493 Rain 6 1017 87 9000 11.3 170 09:25 24.12.2020
4494 Rain 5 1018 80 10000 7.7 160 08:25 24.12.2020
4495 Rain 4 1020 86 10000 6.7 160 07:41 24.12.2020
4496 Rain 4 1020 86 10000 6.7 160 07:18 24.12.2020
4497 Rain 3 1022 93 10000 6.2 120 05:40 24.12.2020
4498 Clouds 1 1026 80 10000 4.1 90 01:57 24.12.2020
4499 Clouds 1 1026 80 10000 4.1 90 01:37 24.12.2020
4500 Clouds 1 1026 80 10000 4.1 90 01:18 24.12.2020
4501 Clouds 2 1027 80 10000 3.6 110 00:21 24.12.2020
4502 Clouds 2 1027 80 10000 3.6 110 23:49 23.12.2020
4503 Clouds 2 1027 80 10000 3.6 110 23:30 23.12.2020
4504 Clouds 1 1027 80 10000 2.1 90 22:57 23.12.2020
4505 Clouds 1 1027 80 10000 2.1 90 22:31 23.12.2020
4506 Clouds 1 1026 80 10000 3.1 100 21:56 23.12.2020
4507 Clouds 1 1026 80 10000 3.1 100 21:28 23.12.2020
4508 Snow 2 1027 74 10000 3.1 110 20:56 23.12.2020
4509 Clouds 1 1027 74 10000 3.1 110 20:37 23.12.2020
4510 Clouds 1 1027 74 10000 3.1 110 20:19 23.12.2020
4511 Clouds 1 1027 80 10000 2.1 120 19:39 23.12.2020
4512 Clouds 1 1027 80 10000 2.1 120 19:20 23.12.2020
4513 Clouds 1 1027 74 10000 2.1 120 18:49 23.12.2020
4514 Clouds 0 1027 74 10000 2.1 120 18:29 23.12.2020
4515 Clouds 0 1026 90 10000 1.5 150 17:41 23.12.2020
4516 Clouds 0 1026 86 10000 1.5 150 17:22 23.12.2020
4517 Clouds 0 1026 86 10000 1.5 150 16:49 23.12.2020
4518 Clouds 0 1026 86 10000 1.5 150 16:29 23.12.2020
4519 Clouds 0 1026 64 10000 1.5 140 15:58 23.12.2020
4520 Clouds 1 1026 64 10000 1.5 140 15:38 23.12.2020
4521 Clouds 1 1026 64 10000 1.5 140 15:20 23.12.2020
4522 Clouds 0 1026 85 10000 1.5 170 14:41 23.12.2020
4523 Clouds 0 1026 84 10000 1.5 170 14:21 23.12.2020
4524 Clouds 0 1025 84 10000 1 190 13:45 23.12.2020
4525 Clouds 0 1025 85 10000 1 190 13:20 23.12.2020
4526 Clouds 1 1024 64 10000 0.89 311 12:55 23.12.2020
4527 Clouds 1 1024 64 10000 1.59 302 12:31 23.12.2020
4528 Clouds 1 1024 64 10000 0.5 0 11:56 23.12.2020
4529 Clouds 1 1024 64 10000 0.5 0 11:36 23.12.2020
4530 Clouds 1 1023 69 10000 2.1 100 10:56 23.12.2020
4531 Clouds 1 1023 69 10000 2.1 100 10:38 23.12.2020
4532 Clouds 1 1023 69 10000 3.1 0 09:38 23.12.2020
4533 Clouds 1 1023 69 10000 3.1 0 09:38 23.12.2020
4534 Clouds 0 1022 86 10000 2.1 350 08:57 23.12.2020
4535 Clouds 0 1022 86 10000 2.1 350 08:33 23.12.2020
4536 Clouds 2 1021 64 10000 6.7 310 07:49 23.12.2020
4537 Clouds 2 1020 64 10000 5.1 320 06:42 23.12.2020
4538 Clouds 1 1020 80 10000 4.1 310 05:58 23.12.2020
4539 Clouds 1 1020 80 10000 4.1 310 05:23 23.12.2020
4540 Rain 0 1018 86 10000 1.5 40 01:59 23.12.2020
4541 Rain 1 1018 86 10000 5.1 280 00:33 23.12.2020
4542 Rain 0 1017 82 10000 5.7 300 23:45 22.12.2020
4543 Snow 0 1017 82 10000 5.7 300 23:23 22.12.2020
4544 Rain -1 1017 92 10000 2.1 150 22:43 22.12.2020
4545 Snow -1 1017 92 10000 2.1 150 22:24 22.12.2020
4546 Snow -2 1017 86 10000 3.1 120 21:54 22.12.2020
4547 Snow -2 1017 86 10000 3.1 120 21:21 22.12.2020
4548 Snow -3 1017 73 10000 2.6 120 20:55 22.12.2020
4549 Snow -4 1017 73 10000 2.6 120 20:37 22.12.2020
4550 Snow -4 1017 73 10000 2.6 120 20:18 22.12.2020
4551 Snow -4 1017 79 10000 3.6 140 19:41 22.12.2020
4552 Clouds -4 1017 79 10000 3.6 140 19:20 22.12.2020
4553 Clouds -4 1017 73 10000 1.5 130 18:47 22.12.2020
4554 Clouds -3 1017 73 10000 1.5 130 18:27 22.12.2020
4555 Clouds -3 1017 68 10000 4.1 350 17:45 22.12.2020
4556 Clouds -3 1017 68 10000 4.1 350 17:18 22.12.2020
4557 Clouds -3 1016 68 10000 3.6 10 16:48 22.12.2020
4558 Clouds -3 1016 68 10000 3.6 10 16:22 22.12.2020
4559 Clouds -3 1016 68 10000 5.7 360 15:51 22.12.2020
4560 Clouds -3 1016 68 10000 5.7 360 15:33 22.12.2020
4561 Clouds -3 1015 73 10000 5.1 10 14:59 22.12.2020
4562 Clouds -3 1015 73 10000 5.1 10 14:41 22.12.2020
4563 Clouds -3 1015 73 10000 5.1 10 14:22 22.12.2020
4564 Clouds -3 1015 73 10000 6.2 10 13:47 22.12.2020
4565 Clouds -3 1015 73 10000 6.2 10 13:19 22.12.2020
4566 Clouds -3 1014 73 10000 6.7 10 12:55 22.12.2020
4567 Clouds -3 1014 73 10000 6.7 10 12:36 22.12.2020
4568 Snow -3 1014 73 10000 6.7 10 12:18 22.12.2020
4569 Clouds -2 1013 74 10000 5.1 350 11:40 22.12.2020
4570 Clouds -2 1013 74 10000 5.1 350 11:21 22.12.2020
4571 Clouds -2 1012 68 10000 7.7 10 10:53 22.12.2020
4572 Snow -2 1012 68 10000 7.7 10 10:25 22.12.2020
4573 Clear -2 1011 68 10000 6.7 360 09:57 22.12.2020
4574 Snow -2 1011 68 10000 6.7 360 09:27 22.12.2020
4575 Clear -2 1010 68 10000 7.2 360 08:53 22.12.2020
4576 Clear -2 1010 68 10000 7.2 360 08:34 22.12.2020
4577 Clear -2 1009 68 10000 6.7 360 07:57 22.12.2020
4578 Clear -2 1009 68 10000 6.7 360 07:23 22.12.2020
4579 Clear -3 1008 73 10000 1.5 80 05:51 22.12.2020
4580 Clear -3 1007 73 10000 2.6 200 03:46 22.12.2020
4581 Clear -2 1005 74 10000 2.6 120 01:48 22.12.2020
4582 Clear -1 1004 68 10000 2.1 140 00:21 22.12.2020
4583 Clear -1 1003 74 10000 3.1 230 23:41 21.12.2020
4584 Clear -1 1003 74 10000 3.1 230 23:18 21.12.2020
4585 Clear 0 1003 91 10000 3.1 200 22:36 21.12.2020
4586 Clear 0 1003 91 10000 3.1 200 22:18 21.12.2020
4587 Clouds 1 1002 64 10000 1 0 21:44 21.12.2020
4588 Clouds 1 1002 64 10000 1 0 21:26 21.12.2020
4589 Clouds 1 1001 69 10000 4.1 170 20:43 21.12.2020
4590 Clouds 1 1001 69 10000 4.1 170 20:20 21.12.2020
4591 Clouds 1 1000 69 10000 5.7 10 19:46 21.12.2020
4592 Snow 1 1000 69 10000 5.7 10 19:20 21.12.2020
4593 Clouds 1 999 64 10000 7.7 10 18:57 21.12.2020
4594 Clouds 1 999 69 10000 7.7 10 18:39 21.12.2020
4595 Clouds 1 999 69 10000 7.7 10 18:20 21.12.2020
4596 Snow 1 999 69 10000 7.7 10 17:42 21.12.2020
4597 Clouds 1 999 69 10000 7.7 10 17:22 21.12.2020
4598 Snow 1 998 69 10000 8.2 20 16:41 21.12.2020
4599 Clouds 1 998 69 10000 8.2 20 16:19 21.12.2020
4600 Snow 2 998 64 10000 6.7 20 15:42 21.12.2020
4601 Snow 2 998 64 10000 6.7 20 14:58 21.12.2020
4602 Snow 2 998 64 10000 6.7 20 14:23 21.12.2020
4603 Snow 2 997 69 10000 4.6 20 13:55 21.12.2020
4604 Rain 2 997 69 10000 4.6 20 13:37 21.12.2020
4605 Snow 2 997 69 10000 4.6 20 13:18 21.12.2020
4606 Snow 2 997 64 10000 6.7 40 12:42 21.12.2020
4607 Snow 2 997 64 10000 6.7 40 12:19 21.12.2020
4608 Rain 2 996 69 10000 7.7 20 11:43 21.12.2020
4609 Rain 2 996 69 10000 7.7 20 11:22 21.12.2020
4610 Rain 2 995 69 10000 6.2 20 10:58 21.12.2020
4611 Rain 2 995 69 10000 6.2 20 10:39 21.12.2020
4612 Clear 2 994 69 10000 8.2 30 09:56 21.12.2020
4613 Rain 2 994 69 10000 8.2 30 09:38 21.12.2020
4614 Clear 2 994 69 10000 8.2 30 09:20 21.12.2020
4615 Clear 2 993 74 10000 8.7 20 08:26 21.12.2020
4616 Clear 2 993 74 10000 7.7 20 07:19 21.12.2020
4617 Clouds 3 992 69 10000 6.7 30 05:39 21.12.2020
4618 Clouds 2 992 80 10000 4.1 20 04:30 21.12.2020
4619 Clear 1 990 90 10000 1.5 170 00:37 21.12.2020
4620 Clouds 3 989 74 10000 6.7 20 23:51 20.12.2020
4621 Clouds 3 989 74 10000 6.7 20 23:21 20.12.2020
4622 Clouds 2 989 80 10000 7.7 360 22:45 20.12.2020
4623 Clouds 1 989 80 10000 7.7 360 22:25 20.12.2020
4624 Clouds 1 989 80 10000 7.2 350 21:58 20.12.2020
4625 Clouds 1 989 80 10000 7.2 350 21:38 20.12.2020
4626 Clouds 1 989 80 10000 7.2 350 21:18 20.12.2020
4627 Clouds 1 989 74 10000 8.7 350 20:44 20.12.2020
4628 Clouds 1 989 74 10000 8.7 350 20:21 20.12.2020
4629 Clouds 2 988 69 10000 8.7 360 19:43 20.12.2020
4630 Clouds 2 988 69 10000 8.7 360 19:22 20.12.2020
4631 Clouds 1 989 69 10000 8.2 360 18:54 20.12.2020
4632 Clouds 2 989 69 10000 8.2 360 18:36 20.12.2020
4633 Clouds 1 989 69 10000 7.2 350 17:47 20.12.2020
4634 Snow 1 989 69 10000 7.2 350 17:28 20.12.2020
4635 Clouds 0 989 92 10000 8.2 350 16:57 20.12.2020
4636 Clouds 0 989 92 10000 8.2 350 16:38 20.12.2020
4637 Clouds 0 989 92 10000 8.2 350 16:19 20.12.2020
4638 Clouds 0 990 92 10000 9.3 360 15:37 20.12.2020
4639 Clouds 0 990 92 10000 9.3 360 15:18 20.12.2020
4640 Clouds 0 990 64 10000 13.9 10 14:38 20.12.2020
4641 Clouds 0 990 64 10000 13.9 10 14:19 20.12.2020
4642 Clouds 1 990 64 10000 13.9 10 13:41 20.12.2020
4643 Clouds 1 990 64 10000 13.9 10 13:21 20.12.2020
4644 Clouds 1 989 64 10000 11.8 10 12:49 20.12.2020
4645 Clouds 1 989 69 10000 12.3 10 12:22 20.12.2020
4646 Clouds 1 989 69 10000 12.3 10 11:49 20.12.2020
4647 Clouds 1 989 69 10000 12.3 10 11:26 20.12.2020
4648 Clouds 1 989 69 10000 11.8 20 10:49 20.12.2020
4649 Clouds 1 989 69 10000 11.8 20 10:21 20.12.2020
4650 Clouds 1 988 69 10000 12.3 10 09:55 20.12.2020
4651 Clouds 1 988 69 10000 12.3 10 09:36 20.12.2020
4652 Clouds 1 988 69 10000 12.3 10 09:18 20.12.2020
4653 Clouds 1 988 74 10000 12.9 10 08:44 20.12.2020
4654 Clouds 1 988 74 10000 12.9 10 08:25 20.12.2020
4655 Clouds 1 988 69 10000 10.8 10 07:21 20.12.2020
4656 Clouds 1 988 74 10000 7.7 10 02:47 20.12.2020
4657 Clouds 1 988 69 10000 9.8 30 00:59 20.12.2020
4658 Clouds 1 988 69 10000 10.3 30 23:41 19.12.2020
4659 Clouds 1 988 69 10000 10.3 30 23:18 19.12.2020
4660 Clouds 1 988 69 10000 10.3 30 23:18 19.12.2020
4661 Clouds 1 988 69 10000 8.7 30 22:44 19.12.2020
4662 Clouds 2 988 69 10000 8.7 30 22:24 19.12.2020
4663 Clouds 1 987 74 10000 8.7 30 21:45 19.12.2020
4664 Clouds 1 987 74 10000 8.7 30 21:26 19.12.2020
4665 Snow 2 987 74 10000 7.2 10 20:59 19.12.2020
4666 Clear 1 987 74 10000 7.2 10 20:36 19.12.2020
4667 Clear 1 987 74 10000 7.2 10 20:18 19.12.2020
4668 Clear 0 987 86 10000 2.6 110 19:41 19.12.2020
4669 Clear 0 987 86 10000 2.6 110 19:23 19.12.2020
4670 Snow 0 988 80 10000 1 0 18:34 19.12.2020
4671 Snow 0 987 80 10000 1 0 17:57 19.12.2020
4672 Clear 0 987 86 10000 2.1 130 17:36 19.12.2020
4673 Snow 0 987 86 10000 2.1 130 17:18 19.12.2020
4674 Clear 0 987 86 10000 2.1 130 16:40 19.12.2020
4675 Clear 0 987 86 10000 2.1 130 16:22 19.12.2020
4676 Snow 0 988 86 10000 1 230 15:54 19.12.2020
4677 Clear 0 988 86 10000 1 230 15:21 19.12.2020
4678 Clear -1 988 86 10000 2.1 140 14:38 19.12.2020
4679 Clear -1 988 86 10000 1.5 260 13:58 19.12.2020
4680 Clear -1 988 86 10000 1.5 260 13:37 19.12.2020
4681 Clear -1 988 86 10000 1.5 260 13:18 19.12.2020
4682 Snow -1 988 86 10000 2.1 140 12:42 19.12.2020
4683 Clear -1 988 86 10000 2.1 140 12:24 19.12.2020
4684 Clear -1 988 86 10000 2.1 210 11:53 19.12.2020
4685 Snow -1 988 86 10000 2.1 210 11:33 19.12.2020
4686 Clear 0 988 80 10000 3.1 150 10:42 19.12.2020
4687 Clear 0 988 80 10000 3.1 150 10:20 19.12.2020
4688 Clear 0 988 87 10000 1 0 09:42 19.12.2020
4689 Clear 0 988 89 10000 1 0 08:59 19.12.2020
4690 Clear 0 988 90 10000 1 0 08:24 19.12.2020
4691 Clear 1 988 74 10000 1.5 260 07:23 19.12.2020
4692 Clear 1 988 74 10000 11.3 20 06:51 19.12.2020
4693 Clear 1 988 74 10000 11.3 20 06:18 19.12.2020
4694 Clear 3 988 64 10000 5.1 20 05:18 19.12.2020
4695 Clear 3 988 64 10000 6.2 40 01:36 19.12.2020
4696 Clear 3 988 64 10000 3.1 40 00:36 19.12.2020
4697 Clear 3 988 64 10000 3.1 40 00:18 19.12.2020
4698 Clouds 3 987 86 10000 10.3 50 23:44 18.12.2020
4699 Clear 4 987 60 10000 4.6 70 23:22 18.12.2020
4700 Clear 4 987 60 10000 4.6 70 22:45 18.12.2020
4701 Clear 4 987 60 10000 4.6 70 22:21 18.12.2020
4702 Clear 4 987 65 10000 4.1 50 21:47 18.12.2020
4703 Clear 4 987 65 10000 4.1 50 21:28 18.12.2020
4704 Clear 5 987 56 10000 6.7 70 20:40 18.12.2020
4705 Clear 5 987 56 10000 6.7 70 20:19 18.12.2020
4706 Clouds 4 988 79 10000 4.47 146 19:41 18.12.2020
4707 Clouds 4 988 79 10000 4.47 84 19:20 18.12.2020
4708 Clouds 4 986 73 10000 8.7 70 18:41 18.12.2020
4709 Clouds 4 986 74 10000 8.7 70 18:23 18.12.2020
4710 Clouds 4 986 75 10000 8.7 70 17:24 18.12.2020
4711 Clouds 4 986 75 10000 7.7 70 16:53 18.12.2020
4712 Rain 4 986 74 10000 7.7 70 16:28 18.12.2020
4713 Rain 4 986 74 10000 9.3 70 16:00 18.12.2020
4714 Rain 4 985 74 10000 12.3 50 15:41 18.12.2020
4715 Rain 5 986 52 10000 5.1 60 15:22 18.12.2020
4716 Rain 5 986 52 10000 5.1 60 14:55 18.12.2020
4717 Clouds 5 986 52 10000 5.1 60 14:22 18.12.2020
4718 Clouds 5 985 52 10000 6.2 50 13:50 18.12.2020
4719 Clouds 5 985 52 10000 6.2 50 13:30 18.12.2020
4720 Clear 5 985 56 10000 7.2 40 12:50 18.12.2020
4721 Clear 5 985 56 10000 7.2 40 12:22 18.12.2020
4722 Clear 6 985 48 10000 6.7 50 11:23 18.12.2020
4723 Clouds 5 986 52 10000 5.1 360 10:40 18.12.2020
4724 Clouds 5 986 52 10000 5.1 360 10:20 18.12.2020
4725 Clear 5 986 60 10000 5.7 360 09:39 18.12.2020
4726 Clear 5 986 60 10000 5.7 360 09:21 18.12.2020
4727 Clear 5 986 60 10000 6.2 360 08:55 18.12.2020
4728 Clear 5 986 60 10000 6.2 360 08:30 18.12.2020
4729 Clouds 4 987 64 10000 7.7 360 07:47 18.12.2020
4730 Clouds 4 987 64 10000 7.7 360 07:19 18.12.2020
4731 Clear 4 987 69 10000 5.1 10 06:58 18.12.2020
4732 Clear 5 987 52 10000 5.1 50 05:43 18.12.2020
4733 Clear 5 988 56 10000 4.6 30 04:51 18.12.2020
4734 Rain 4 989 64 10000 6.2 360 02:49 18.12.2020
4735 Clear 5 990 60 10000 4.6 30 01:43 18.12.2020
4736 Clear 4 990 64 10000 7.7 40 00:28 18.12.2020
4737 Clear 4 991 60 10000 2.6 30 23:51 17.12.2020
4738 Clear 5 991 56 10000 7.2 50 23:20 17.12.2020
4739 Clear 5 991 56 10000 7.2 50 22:47 17.12.2020
4740 Clear 5 991 56 10000 7.2 50 22:27 17.12.2020
4741 Rain 5 992 56 10000 5.7 30 21:44 17.12.2020
4742 Rain 5 992 56 10000 5.7 30 21:44 17.12.2020
4743 Rain 5 992 56 10000 5.7 30 21:44 17.12.2020
4744 Rain 5 992 56 10000 5.7 30 21:44 17.12.2020
4745 Clear 5 992 56 10000 5.7 30 21:21 17.12.2020
4746 Clear 4 992 64 10000 4.1 10 20:45 17.12.2020
4747 Clear 4 992 64 10000 4.1 10 20:20 17.12.2020
4748 Clear 4 992 60 10000 1.5 0 19:56 17.12.2020
4749 Clear 4 992 60 10000 1.5 0 19:38 17.12.2020
4750 Clear 4 992 60 10000 1.5 0 19:19 17.12.2020
4751 Clear 4 993 64 10000 4.1 10 18:40 17.12.2020
4752 Clear 4 993 64 10000 4.1 10 18:19 17.12.2020
4753 Rain 4 994 64 10000 4.6 340 17:45 17.12.2020
4754 Clear 4 994 64 10000 4.6 340 17:27 17.12.2020
4755 Clear 5 994 60 10000 3.1 10 16:40 17.12.2020
4756 Clear 5 994 60 10000 3.1 10 16:20 17.12.2020
4757 Clear 5 995 60 10000 3.1 20 15:50 17.12.2020
4758 Clear 5 995 60 10000 3.1 20 15:28 17.12.2020
4759 Clear 5 996 60 10000 2.1 10 14:50 17.12.2020
4760 Clear 4 996 60 10000 2.1 10 14:28 17.12.2020
4761 Clear 4 996 64 10000 1.5 40 13:50 17.12.2020
4762 Clear 4 996 64 10000 1.5 40 13:23 17.12.2020
4763 Clouds 4 997 64 10000 4.6 20 12:44 17.12.2020
4764 Clouds 4 997 64 10000 4.6 20 12:24 17.12.2020
4765 Clear 3 997 64 10000 1.5 40 11:44 17.12.2020
4766 Clear 3 997 64 10000 1.5 40 11:23 17.12.2020
4767 Clouds 3 998 64 10000 4.6 40 10:49 17.12.2020
4768 Clear 3 998 69 10000 3.1 40 09:42 17.12.2020
4769 Clear 3 998 69 10000 3.1 40 09:24 17.12.2020
4770 Clouds 3 998 64 10000 2.6 20 07:50 17.12.2020
4771 Clouds 3 998 64 10000 2.6 20 07:31 17.12.2020
4772 Clouds 4 999 64 10000 2.6 40 06:53 17.12.2020
4773 Clouds 4 999 64 10000 2.6 40 06:32 17.12.2020
4774 Clouds 4 1000 69 10000 3.6 50 04:45 17.12.2020
4775 Clear 1 1001 74 10000 2.1 10 00:33 17.12.2020
4776 Clear 2 1001 74 10000 1.5 0 23:51 16.12.2020
4777 Clear 3 1002 64 10000 2.6 40 23:19 16.12.2020
4778 Rain 3 1002 64 10000 2.6 40 22:54 16.12.2020
4779 Clear 3 1002 64 10000 2.6 40 22:34 16.12.2020
4780 Rain 3 1002 59 10000 2.1 110 21:50 16.12.2020
4781 Clear 3 1002 59 10000 2.1 110 21:32 16.12.2020
4782 Clear 4 1002 55 10000 2.1 90 20:55 16.12.2020
4783 Clear 4 1002 55 10000 2.1 90 20:21 16.12.2020
4784 Clear 4 1003 64 10000 4.6 30 19:52 16.12.2020
4785 Clear 4 1003 64 10000 4.6 30 19:19 16.12.2020
4786 Clear 5 1003 52 10000 3.6 60 18:53 16.12.2020
4787 Clear 5 1003 52 10000 3.6 60 18:27 16.12.2020
4788 Clouds 5 1003 56 10000 2.6 100 17:47 16.12.2020
4789 Clouds 6 1003 52 10000 3.6 80 17:28 16.12.2020
4790 Clouds 6 1003 52 10000 3.6 80 16:39 16.12.2020
4791 Clouds 6 1003 52 10000 3.6 80 16:21 16.12.2020
4792 Rain 6 1003 56 10000 4.6 50 15:50 16.12.2020
4793 Rain 6 1003 56 10000 4.6 50 15:26 16.12.2020
4794 Clouds 7 1003 56 10000 4.6 70 14:47 16.12.2020
4795 Clouds 6 1003 56 10000 4.6 70 14:28 16.12.2020
4796 Clouds 6 1003 56 10000 5.1 80 13:49 16.12.2020
4797 Clouds 6 1003 56 10000 5.1 80 13:28 16.12.2020
4798 Clouds 6 1003 52 10000 2.1 0 12:55 16.12.2020
4799 Clouds 6 1003 52 10000 2.1 0 12:34 16.12.2020
4800 Clouds 6 1003 52 10000 2.1 0 11:40 16.12.2020
4801 Clouds 6 1003 52 10000 2.1 0 11:22 16.12.2020
4802 Clouds 7 1002 48 10000 4.1 90 10:46 16.12.2020
4803 Clouds 6 1002 48 10000 4.1 90 10:22 16.12.2020
4804 Clear 6 1001 52 10000 7.7 80 09:40 16.12.2020
4805 Clear 7 1000 52 10000 9.3 90 08:36 16.12.2020
4806 Clear 7 1000 52 10000 10.3 80 07:52 16.12.2020
4807 Clear 7 1000 52 10000 10.3 80 07:33 16.12.2020
4808 Clear 7 999 49 10000 10.3 80 06:41 16.12.2020
4809 Clear 5 998 56 10000 6.7 50 02:26 16.12.2020
4810 Rain 6 998 56 10000 7.2 70 00:26 16.12.2020
4811 Clear 6 998 52 10000 6.2 60 23:44 15.12.2020
4812 Rain 6 997 56 10000 4.6 50 22:47 15.12.2020
4813 Rain 6 997 56 10000 4.6 50 22:25 15.12.2020
4814 Rain 6 997 52 10000 3.6 50 21:57 15.12.2020
4815 Clouds 6 997 52 10000 3.6 50 21:37 15.12.2020
4816 Rain 6 997 52 10000 3.6 50 21:19 15.12.2020
4817 Clouds 5 996 65 10000 4.1 30 20:42 15.12.2020
4818 Clouds 5 996 65 10000 4.1 30 20:23 15.12.2020
4819 Clear 6 996 60 10000 4.6 40 19:51 15.12.2020
4820 Clear 6 996 60 10000 4.6 40 19:26 15.12.2020
4821 Clear 5 995 65 10000 4.6 30 18:39 15.12.2020
4822 Clear 5 995 65 10000 4.6 30 18:21 15.12.2020
4823 Clear 5 995 65 10000 4.6 30 18:21 15.12.2020
4824 Clear 5 994 75 10000 9.8 20 17:44 15.12.2020
4825 Clear 6 994 52 10000 6.2 60 17:23 15.12.2020
4826 Clear 6 994 52 10000 6.2 60 16:39 15.12.2020
4827 Clear 6 994 52 10000 6.2 60 16:21 15.12.2020
4828 Clear 7 994 45 10000 7.2 50 15:37 15.12.2020
4829 Clear 7 994 45 10000 7.2 50 15:18 15.12.2020
4830 Clear 7 993 45 10000 6.7 60 14:41 15.12.2020
4831 Clear 7 993 45 10000 6.7 60 14:41 15.12.2020
4832 Clear 7 993 45 10000 6.7 60 14:19 15.12.2020
4833 Clear 7 993 45 10000 7.7 50 13:49 15.12.2020
4834 Clear 6 993 60 10000 6.7 360 13:24 15.12.2020
4835 Clear 6 993 60 10000 6.7 360 12:46 15.12.2020
4836 Clear 6 993 60 10000 6.7 360 12:19 15.12.2020
4837 Clouds 6 993 74 10000 6.2 10 11:51 15.12.2020
4838 Clouds 6 993 73 10000 6.2 10 11:23 15.12.2020
4839 Clouds 6 993 52 10000 4.1 50 10:48 15.12.2020
4840 Rain 6 993 52 10000 4.1 50 10:20 15.12.2020
4841 Rain 6 992 52 10000 4.1 50 09:43 15.12.2020
4842 Rain 6 992 52 10000 4.1 50 09:25 15.12.2020
4843 Clear 6 992 48 10000 4.6 20 08:41 15.12.2020
4844 Rain 6 992 48 10000 4.6 20 08:21 15.12.2020
4845 Clear 6 991 48 10000 6.2 40 07:44 15.12.2020
4846 Clear 7 990 45 10000 7.2 70 06:59 15.12.2020
4847 Rain 6 991 48 10000 4.6 40 05:55 15.12.2020
4848 Clouds 8 988 42 10000 9.3 70 00:54 15.12.2020
4849 Clouds 7 988 45 10000 7.7 70 23:54 14.12.2020
4850 Clouds 7 988 45 10000 7.7 70 23:21 14.12.2020
4851 Clouds 7 988 45 10000 6.7 60 22:44 14.12.2020
4852 Clouds 7 988 45 10000 6.7 60 22:22 14.12.2020
4853 Clouds 6 988 45 10000 8.2 60 21:41 14.12.2020
4854 Rain 6 988 45 10000 8.2 60 21:19 14.12.2020
4855 Clouds 6 988 45 10000 8.7 50 20:48 14.12.2020
4856 Clouds 6 988 45 10000 8.7 50 20:28 14.12.2020
4857 Rain 6 988 52 10000 7.7 30 19:49 14.12.2020
4858 Rain 6 988 52 10000 7.7 30 19:28 14.12.2020
4859 Rain 5 987 69 10000 14.9 30 18:44 14.12.2020
4860 Rain 6 988 52 10000 9.8 30 18:24 14.12.2020
4861 Rain 6 988 52 10000 9.8 30 17:45 14.12.2020
4862 Clouds 6 988 52 10000 9.8 30 17:22 14.12.2020
4863 Clouds 6 988 48 10000 7.2 40 16:50 14.12.2020
4864 Rain 6 988 48 10000 7.2 40 16:28 14.12.2020
4865 Rain 6 990 45 10000 8.2 60 15:33 14.12.2020
4866 Rain 5 990 45 10000 8.2 60 14:54 14.12.2020
4867 Clouds 5 990 45 10000 8.2 60 14:36 14.12.2020
4868 Clouds 5 990 45 10000 8.2 60 14:18 14.12.2020
4869 Clouds 5 991 45 10000 6.2 60 13:39 14.12.2020
4870 Clouds 6 991 45 10000 6.2 60 13:18 14.12.2020
4871 Clouds 5 992 56 10000 6.7 10 12:44 14.12.2020
4872 Clouds 5 992 56 10000 6.7 10 12:23 14.12.2020
4873 Clear 5 992 56 10000 5.1 50 11:31 14.12.2020
4874 Clouds 4 992 56 10000 4.6 30 10:30 14.12.2020
4875 Clouds 4 992 52 10000 2.6 40 09:58 14.12.2020
4876 Rain 4 992 52 10000 2.6 40 09:25 14.12.2020
4877 Clouds 5 993 60 10000 4.6 40 08:45 14.12.2020
4878 Clouds 5 993 60 10000 4.6 40 08:26 14.12.2020
4879 Rain 4 993 64 10000 5.1 360 07:26 14.12.2020
4880 Clouds 5 993 48 10000 5.1 60 06:44 14.12.2020
4881 Clouds 6 994 56 10000 3.1 350 04:28 14.12.2020
4882 Clouds 8 994 52 10000 4.1 50 02:26 14.12.2020
4883 Clouds 7 993 52 10000 8.2 80 00:54 14.12.2020
4884 Clouds 7 993 49 10000 7.2 70 00:31 14.12.2020
4885 Clouds 7 993 49 10000 7.2 70 23:46 13.12.2020
4886 Clouds 7 993 49 10000 7.2 70 23:46 13.12.2020
4887 Rain 7 993 49 10000 7.2 70 23:24 13.12.2020
4888 Clouds 8 993 49 10000 8.7 90 22:45 13.12.2020
4889 Clouds 8 993 49 10000 8.7 90 22:18 13.12.2020
4890 Clouds 8 993 49 10000 10.3 80 21:42 13.12.2020
4891 Clouds 8 993 49 10000 10.3 80 21:22 13.12.2020
4892 Clouds 8 993 45 10000 7.2 70 20:35 13.12.2020
4893 Clouds 8 993 45 10000 8.7 70 19:51 13.12.2020
4894 Clouds 8 993 45 10000 8.7 70 19:30 13.12.2020
4895 Clouds 8 993 45 10000 8.2 80 18:58 13.12.2020
4896 Clouds 8 993 45 10000 8.2 80 18:39 13.12.2020
4897 Clouds 8 993 45 10000 8.2 80 18:19 13.12.2020
4898 Clouds 7 993 52 10000 6.2 50 17:46 13.12.2020
4899 Clouds 7 993 52 10000 6.2 50 17:18 13.12.2020
4900 Clouds 8 993 52 10000 8.2 70 16:54 13.12.2020
4901 Clouds 8 993 52 10000 8.2 70 16:54 13.12.2020
4902 Clouds 8 993 52 10000 8.2 70 16:36 13.12.2020
4903 Clouds 7 994 72 10000 5.7 80 15:56 13.12.2020
4904 Clouds 7 994 72 10000 5.7 80 15:38 13.12.2020
4905 Clouds 7 994 71 10000 5.7 80 15:18 13.12.2020
4906 Clouds 7 994 71 10000 8.7 80 14:42 13.12.2020
4907 Clouds 7 994 70 10000 8.7 80 14:18 13.12.2020
4908 Rain 7 994 70 10000 8.7 80 13:36 13.12.2020
4909 Clouds 7 994 70 10000 8.7 80 13:18 13.12.2020
4910 Clouds 7 994 70 10000 8.7 80 13:18 13.12.2020
4911 Clouds 7 994 70 10000 10.3 80 12:37 13.12.2020
4912 Clouds 7 994 71 10000 10.3 80 12:18 13.12.2020
4913 Clouds 7 994 56 10000 5.1 80 11:35 13.12.2020
4914 Clouds 7 994 56 10000 4.6 80 10:47 13.12.2020
4915 Clouds 7 994 56 10000 4.6 80 10:29 13.12.2020
4916 Clouds 7 995 52 10000 5.1 70 09:52 13.12.2020
4917 Clouds 7 995 56 10000 4.6 70 08:53 13.12.2020
4918 Clouds 7 995 56 10000 4.6 70 08:33 13.12.2020
4919 Clouds 7 995 71 10000 3.6 60 07:29 13.12.2020
4920 Rain 6 996 65 10000 4.6 70 03:31 13.12.2020
4921 Clouds 7 996 65 10000 5.7 80 02:40 13.12.2020
4922 Rain 7 996 65 10000 5.1 80 01:37 13.12.2020
4923 Rain 7 996 65 10000 3.6 70 00:47 13.12.2020
4924 Clouds 7 996 65 10000 6.7 90 23:50 12.12.2020
4925 Clouds 7 996 65 10000 6.7 90 23:29 12.12.2020
4926 Clouds 7 995 65 10000 8.7 90 22:46 12.12.2020
4927 Clouds 7 995 65 10000 8.7 80 21:56 12.12.2020
4928 Clouds 7 995 65 10000 8.7 80 21:32 12.12.2020
4929 Rain 7 995 61 10000 8.7 80 20:48 12.12.2020
4930 Clouds 7 995 61 10000 8.7 80 20:24 12.12.2020
4931 Clouds 7 995 61 10000 8.7 80 19:55 12.12.2020
4932 Clouds 7 995 61 10000 8.7 80 19:35 12.12.2020
4933 Clouds 7 995 61 10000 9.3 80 18:59 12.12.2020
4934 Clouds 7 995 61 10000 9.3 80 18:41 12.12.2020
4935 Clouds 7 995 61 10000 9.3 80 18:22 12.12.2020
4936 Clouds 7 995 61 10000 8.7 80 17:42 12.12.2020
4937 Clouds 8 995 61 10000 9.8 80 16:54 12.12.2020
4938 Clouds 8 995 61 10000 6.7 90 15:59 12.12.2020
4939 Clouds 8 995 61 10000 6.7 90 15:41 12.12.2020
4940 Clouds 7 995 65 10000 7.7 70 14:58 12.12.2020
4941 Rain 7 995 65 10000 7.7 70 14:35 12.12.2020
4942 Clouds 7 994 61 10000 10.3 90 13:47 12.12.2020
4943 Clouds 7 994 61 10000 10.3 90 13:27 12.12.2020
4944 Clouds 7 994 61 10000 9.3 90 12:43 12.12.2020
4945 Clouds 7 994 61 10000 9.8 80 11:41 12.12.2020
4946 Clouds 7 993 61 10000 9.8 80 10:52 12.12.2020
4947 Clouds 7 993 61 10000 8.7 80 09:31 12.12.2020
4948 Clouds 7 992 61 10000 10.8 90 08:52 12.12.2020
4949 Clouds 8 988 57 10000 8.7 80 02:46 12.12.2020
4950 Clear 8 986 74 10000 8.7 80 23:53 11.12.2020
4951 Clouds 9 985 46 10000 8.2 70 22:24 11.12.2020
4952 Clouds 8 983 73 10000 6.7 30 20:35 11.12.2020
4953 Rain 7 982 61 10000 5.7 60 17:52 11.12.2020
4954 Clouds 7 981 75 10000 4.1 70 14:41 11.12.2020
4955 Clouds 7 981 76 10000 2.6 100 13:58 11.12.2020
4956 Clouds 7 981 61 10000 5.7 80 12:56 11.12.2020
4957 Clear 7 980 61 10000 4.6 60 11:58 11.12.2020
4958 Clear 7 980 61 10000 4.6 60 11:38 11.12.2020
4959 Clouds 7 980 65 10000 5.1 70 10:44 11.12.2020
4960 Clouds 7 979 65 10000 6.2 70 08:46 11.12.2020
4961 Rain 6 977 70 10000 6.7 60 05:40 11.12.2020
4962 Rain 6 977 70 10000 6.2 70 04:51 11.12.2020
4963 Clouds 6 976 70 10000 9.3 80 01:33 11.12.2020
4964 Clouds 6 976 70 10000 7.7 70 00:21 11.12.2020
4965 Rain 6 974 70 10000 8.7 80 22:44 10.12.2020
4966 Clouds 6 973 65 10000 7.7 70 21:36 10.12.2020
4967 Clouds 6 973 65 10000 7.7 70 20:41 10.12.2020
4968 Clear 6 973 70 10000 6.7 60 19:37 10.12.2020
4969 Clouds 6 973 70 10000 6.2 60 18:53 10.12.2020
4970 Clouds 6 973 70 10000 7.2 60 17:52 10.12.2020
4971 Clouds 6 973 65 10000 4.1 70 16:30 10.12.2020
4972 Clouds 7 973 65 10000 6.2 60 15:27 10.12.2020
4973 Clear 7 973 61 10000 5.1 60 14:50 10.12.2020
4974 Clear 7 973 61 10000 5.1 60 14:26 10.12.2020
4975 Clouds 7 974 61 10000 5.7 70 12:47 10.12.2020
4976 Clear 7 974 61 10000 6.2 70 11:35 10.12.2020
4977 Clouds 5 977 70 10000 4.6 40 08:51 10.12.2020
4978 Clouds 4 977 82 10000 3.6 50 07:45 10.12.2020
4979 Clouds 3 978 81 10000 4.6 30 06:41 10.12.2020
4980 Rain 2 984 74 10000 3.6 360 02:56 10.12.2020
4981 Rain 1 985 80 10000 0.5 0 01:59 10.12.2020
4982 Clear 2 987 74 10000 1.5 210 23:52 09.12.2020
4983 Rain 2 989 74 10000 2.1 10 21:58 09.12.2020
4984 Clear 2 990 69 10000 1 0 20:28 09.12.2020
4985 Clear 2 990 69 10000 2.1 340 19:21 09.12.2020
4986 Clear 1 992 80 10000 8.7 30 17:43 09.12.2020
4987 Clear 2 992 69 10000 6.7 20 16:44 09.12.2020
4988 Clear 2 992 69 10000 6.7 20 16:22 09.12.2020
4989 Clear 3 993 59 10000 2.6 40 15:30 09.12.2020
4990 Clear 3 994 55 10000 4.6 30 14:27 09.12.2020
4991 Rain 3 995 59 10000 1.5 10 13:58 09.12.2020
4992 Clear 3 995 59 10000 6.2 70 13:19 09.12.2020
4993 Clear 3 995 59 10000 6.2 70 12:44 09.12.2020
4994 Clear 3 996 64 10000 6.2 70 11:51 09.12.2020
4995 Rain 3 996 69 10000 4.6 60 10:59 09.12.2020
4996 Rain 3 997 69 10000 6.7 70 09:38 09.12.2020
4997 Rain 3 997 69 10000 5.7 70 07:43 09.12.2020
4998 Rain 3 998 69 10000 7.7 80 05:53 09.12.2020
4999 Snow 2 1000 80 10000 6.7 90 03:29 09.12.2020
5000 Clouds 2 1001 80 10000 6.7 80 01:56 09.12.2020
5001 Snow 2 1003 88 10000 5.1 80 23:44 08.12.2020
5002 Snow 2 1003 93 10000 4.1 80 22:56 08.12.2020
5003 Rain 2 1005 88 10000 5.1 80 21:28 08.12.2020
5004 Clouds 2 1006 88 10000 4.1 70 19:34 08.12.2020
5005 Rain 2 1007 86 10000 3.1 80 18:59 08.12.2020
5006 Clouds 2 1008 86 10000 4.6 80 17:55 08.12.2020
5007 Rain 2 1009 88 10000 3.6 90 15:51 08.12.2020
5008 Rain 2 1009 87 10000 4.1 90 14:28 08.12.2020
5009 Fog 1 1011 87 10000 1 140 13:35 08.12.2020
5010 Fog 2 1011 86 10000 1.5 130 12:29 08.12.2020
5011 Fog 2 1011 86 10000 1.5 130 11:51 08.12.2020
5012 Clouds 2 1011 87 10000 4.1 80 10:47 08.12.2020
5013 Clouds 2 1011 88 10000 4.1 80 10:28 08.12.2020
5014 Clouds 2 1011 88 10000 4.6 70 08:53 08.12.2020
5015 Clouds 2 1011 92 10000 3.1 70 07:18 08.12.2020
5016 Rain 2 1013 93 10000 4.1 110 03:43 08.12.2020
5017 Clouds 3 1012 87 10000 7.2 110 00:48 08.12.2020
5018 Clouds 3 1012 87 10000 7.2 110 00:25 08.12.2020
5019 Clouds 3 1013 74 10000 4.6 110 22:43 07.12.2020
5020 Rain 3 1013 74 10000 4.1 110 21:56 07.12.2020
5021 Rain 3 1013 74 10000 5.1 100 20:32 07.12.2020
5022 Clouds 3 1013 69 10000 9.3 110 18:47 07.12.2020
5023 Clouds 3 1013 69 10000 6.7 110 17:29 07.12.2020
5024 Clouds 3 1012 69 10000 8.7 120 16:55 07.12.2020
5025 Clouds 3 1011 100 9000 8.7 130 15:57 07.12.2020
5026 Clouds 3 1012 74 10000 10.3 120 15:23 07.12.2020
5027 Clouds 3 1012 74 10000 10.3 120 14:24 07.12.2020
5028 Clouds 3 1012 74 10000 10.3 120 13:33 07.12.2020
5029 Clouds 3 1012 80 10000 8.2 120 11:45 07.12.2020
5030 Clouds 3 1012 79 10000 8.2 120 11:20 07.12.2020
5031 Clouds 3 1011 79 10000 9.8 130 10:20 07.12.2020
5032 Clouds 4 1010 79 10000 9.8 110 08:30 07.12.2020
5033 Clouds 3 1009 86 10000 6.7 100 06:45 07.12.2020
5034 Snow 3 1009 88 10000 7.2 80 04:58 07.12.2020
5035 Snow 3 1009 88 10000 7.2 80 04:58 07.12.2020
5036 Snow 1 1008 94 9000 5.7 80 01:57 07.12.2020
5037 Snow 1 1008 94 9000 6.7 80 00:30 07.12.2020
5038 Snow 0 1008 94 10000 5.7 70 22:33 06.12.2020
5039 Snow 0 1009 95 5000 5.1 60 21:22 06.12.2020
5040 Snow 0 1009 95 6000 7.2 80 20:34 06.12.2020
5041 Snow 1 1009 47 10000 7.7 80 19:57 06.12.2020
5042 Snow 1 1009 40 10000 6.2 70 18:41 06.12.2020
5043 Clear -1 1009 86 10000 4.1 70 17:20 06.12.2020
5044 Clear 0 1009 87 10000 6.2 90 15:53 06.12.2020
5045 Clear 0 1010 88 10000 7.2 90 13:58 06.12.2020
5046 Clear 0 1011 89 10000 7.2 90 12:52 06.12.2020
5047 Clear 0 1011 89 10000 7.2 90 12:23 06.12.2020
5048 Snow -1 1011 63 10000 4.6 70 11:35 06.12.2020
5049 Clouds -1 1011 68 10000 5.7 80 10:55 06.12.2020
5050 Snow -1 1011 68 10000 5.7 80 10:26 06.12.2020
5051 Snow -1 1011 68 10000 4.1 80 08:45 06.12.2020
5052 Clouds 0 1012 89 10000 6.2 120 06:51 06.12.2020
5053 Clouds -1 1014 74 10000 5.7 100 02:40 06.12.2020
5054 Snow -2 1015 79 10000 4.6 80 00:42 06.12.2020
5055 Snow -2 1015 79 10000 4.6 80 00:24 06.12.2020
5056 Snow -2 1016 79 10000 6.2 100 22:52 05.12.2020
5057 Snow -2 1016 79 10000 6.2 100 22:21 05.12.2020
5058 Clouds -3 1016 79 10000 4.6 70 21:51 05.12.2020
5059 Snow -3 1016 79 10000 4.6 70 21:26 05.12.2020
5060 Snow -3 1017 79 10000 2.6 70 19:49 05.12.2020
5061 Snow -5 1018 85 10000 4.1 50 18:45 05.12.2020
5062 Snow -5 1018 85 10000 4.1 50 17:35 05.12.2020
5063 Snow -4 1018 85 6000 4.6 50 16:43 05.12.2020
5064 Snow -4 1019 62 10000 3.1 60 16:20 05.12.2020
5065 Clouds -5 1020 57 10000 1 0 14:30 05.12.2020
5066 Clouds -6 1021 57 10000 1.5 120 12:32 05.12.2020
5067 Snow -7 1022 62 10000 1 0 11:49 05.12.2020
5068 Clear -6 1022 53 10000 3.1 50 10:33 05.12.2020
5069 Clear -7 1023 57 10000 2.6 50 07:49 05.12.2020
5070 Clear -7 1023 57 10000 2.6 50 07:25 05.12.2020
5071 Snow -7 1024 61 10000 3.6 120 04:46 05.12.2020
5072 Clear -4 1026 49 10000 5.7 30 23:56 04.12.2020
5073 Clear -4 1027 53 10000 6.7 20 22:39 04.12.2020
5074 Clear -4 1028 49 10000 4.1 130 20:30 04.12.2020
5075 Snow -4 1027 53 10000 10.8 10 18:53 04.12.2020
5076 Clouds -4 1027 53 10000 10.8 10 18:21 04.12.2020
5077 Clouds -4 1027 45 10000 9.3 20 17:41 04.12.2020
5078 Clouds -4 1028 53 10000 8.7 10 15:54 04.12.2020
5079 Clouds -4 1028 53 10000 8.7 10 15:18 04.12.2020
5080 Clouds -4 1029 58 10000 9.8 20 13:35 04.12.2020
5081 Clouds -4 1029 62 10000 10.8 10 12:55 04.12.2020
5082 Clouds -4 1028 62 10000 12.3 10 11:41 04.12.2020
5083 Clouds -4 1027 58 10000 13.4 10 10:30 04.12.2020
5084 Snow -4 1026 62 10000 13.4 360 07:53 04.12.2020
5085 Clouds -5 1025 73 10000 18 350 06:40 04.12.2020
5086 Rain -5 1025 67 10000 15.9 360 04:50 04.12.2020
5087 Clouds -3 1022 63 10000 13.4 360 00:24 04.12.2020
5088 Clouds -3 1022 63 10000 12.3 10 22:47 03.12.2020
5089 Clouds -3 1020 63 10000 12.3 10 21:20 03.12.2020
5090 Clouds -4 1019 73 10000 11.3 350 20:41 03.12.2020
5091 Clouds -4 1018 68 10000 10.3 360 19:22 03.12.2020
5092 Clouds -4 1018 73 10000 8.2 360 18:40 03.12.2020
5093 Clouds -4 1017 68 10000 11.3 360 17:21 03.12.2020
5094 Clouds -4 1016 62 10000 12.9 360 15:59 03.12.2020
5095 Clouds -4 1016 62 10000 12.9 360 15:32 03.12.2020
5096 Clouds -4 1015 62 10000 13.4 350 14:48 03.12.2020
5097 Snow -5 1015 67 10000 11.8 350 13:51 03.12.2020
5098 Rain -5 1015 67 10000 12.3 350 12:44 03.12.2020
5099 Snow -5 1015 67 10000 12.3 350 12:22 03.12.2020
5100 Snow -5 1013 67 10000 12.9 360 10:40 03.12.2020
5101 Clouds -5 1012 73 10000 11.8 360 08:41 03.12.2020
5102 Snow -4 1007 79 10000 12.9 360 03:45 03.12.2020
5103 Clouds -3 1006 63 10000 11.8 10 01:46 03.12.2020
5104 Clouds -3 1005 68 10000 10.8 10 00:19 03.12.2020
5105 Clouds -2 1002 58 10000 12.9 20 22:46 02.12.2020
5106 Clouds -3 1001 63 10000 11.3 20 21:46 02.12.2020
5107 Clouds -3 1000 68 10000 10.3 30 20:50 02.12.2020
5108 Clouds -3 1000 68 10000 10.3 30 20:32 02.12.2020
5109 Clouds -3 999 68 10000 10.3 20 19:40 02.12.2020
5110 Clouds -3 996 68 10000 14.4 360 17:50 02.12.2020
5111 Clouds -3 996 68 10000 14.4 360 17:31 02.12.2020
5112 Clouds -2 995 63 10000 12.3 10 15:46 02.12.2020
5113 Clouds -2 992 68 10000 12.3 10 13:48 02.12.2020
5114 Rain -2 990 74 9000 10.3 20 11:33 02.12.2020
5115 Rain -1 989 74 10000 11.3 20 10:25 02.12.2020
5116 Snow 1 985 74 10000 3.6 220 07:48 02.12.2020
5117 Clouds 3 984 60 10000 15.4 240 23:42 01.12.2020
5118 Rain 3 983 55 10000 17 240 22:20 01.12.2020
5119 Clouds 2 982 88 10000 10.73 220 19:45 01.12.2020
5120 Clouds 2 979 80 8000 15.9 230 18:56 01.12.2020
5121 Clouds 3 979 83 10000 16.5 230 17:26 01.12.2020
5122 Clouds 4 976 86 6000 14.4 200 14:53 01.12.2020
5123 Clouds 4 976 86 10000 16.5 200 13:37 01.12.2020
5124 Clouds 5 980 75 10000 10.8 180 11:43 01.12.2020
5125 Rain 5 982 75 10000 13.4 180 10:55 01.12.2020
5126 Rain 5 982 75 10000 13.4 180 10:32 01.12.2020
5127 Clouds 7 986 87 6000 10.8 180 07:47 01.12.2020
5128 Clouds 7 987 93 5000 9.3 170 06:26 01.12.2020
5129 Rain 5 995 80 8000 15.4 130 01:44 01.12.2020
5130 Rain 4 997 88 10000 11.8 110 00:52 01.12.2020
5131 Snow 2 999 89 9000 8.7 90 23:20 30.11.2020
5132 Snow 2 1001 89 6000 14.9 110 22:42 30.11.2020
5133 Snow 2 1001 94 6000 14.9 110 22:22 30.11.2020
5134 Snow 0 1007 95 6000 10.3 100 20:47 30.11.2020
5135 Snow 0 1009 86 5000 8.7 80 19:41 30.11.2020
5136 Snow -1 1011 80 9000 6.2 100 18:22 30.11.2020
5137 Snow -1 1013 68 10000 5.7 70 17:46 30.11.2020
5138 Clouds -1 1014 79 10000 5.1 70 16:54 30.11.2020
5139 Clouds -1 1015 80 10000 4.1 80 15:45 30.11.2020
5140 Clouds 0 1016 92 10000 3.6 80 13:56 30.11.2020
5141 Clouds 0 1016 91 10000 3.6 80 13:22 30.11.2020
5142 Rain -1 1017 86 10000 3.1 90 12:26 30.11.2020
5143 Clouds -1 1017 86 10000 3.1 120 11:56 30.11.2020
5144 Clouds -2 1017 92 10000 2.6 120 10:25 30.11.2020
5145 Clouds -1 1017 92 8000 1.5 140 09:34 30.11.2020
5146 Clouds 0 1014 93 10000 7.2 300 04:27 30.11.2020
5147 Clouds 1 1009 74 10000 5.1 290 23:28 29.11.2020
5148 Clouds 1 1008 69 10000 4.6 310 21:46 29.11.2020
5149 Clouds 1 1008 69 10000 4.6 310 21:28 29.11.2020
5150 Clouds 2 1006 74 10000 6.2 310 19:31 29.11.2020
5151 Clouds 2 1003 85 10000 6.2 290 17:46 29.11.2020
5152 Clouds 2 1001 84 10000 0.5 0 14:53 29.11.2020
5153 Clouds 3 999 85 10000 4.1 320 12:46 29.11.2020
5154 Clouds 3 998 84 10000 4.1 320 11:41 29.11.2020
5155 Clouds 2 994 90 10000 4.6 350 08:55 29.11.2020
5156 Clouds 2 994 90 10000 4.6 350 08:36 29.11.2020
5157 Rain 3 994 86 10000 4.6 80 03:30 29.11.2020
5158 Clouds 2 1000 91 10000 3.6 140 23:19 28.11.2020
5159 Clouds 2 1001 91 10000 6.2 160 22:55 28.11.2020
5160 Clouds 2 1002 83 10000 3.6 150 20:27 28.11.2020
5161 Clouds 2 1003 88 10000 4.1 160 19:31 28.11.2020
5162 Rain 1 1003 88 10000 2.6 130 18:59 28.11.2020
5163 Clouds 1 1003 81 10000 2.6 130 18:23 28.11.2020
5164 Clouds 1 1003 81 8000 7.7 210 17:33 28.11.2020
5165 Clouds 0 1003 86 10000 3.1 140 16:39 28.11.2020
5166 Clouds 2 1004 64 10000 5.1 190 14:25 28.11.2020
5167 Clouds 1 1004 74 10000 6.2 210 11:29 28.11.2020
5168 Clouds 1 1003 74 10000 7.7 210 09:37 28.11.2020
5169 Snow 0 1000 84 2500 12.9 220 03:55 28.11.2020
5170 Snow 0 999 83 5000 12.9 230 03:24 28.11.2020
5171 Clouds 0 997 84 8000 13.9 220 23:23 27.11.2020
5172 Clouds 0 997 84 4000 9.8 220 22:54 27.11.2020
5173 Clouds 1 995 83 10000 11.8 230 21:27 27.11.2020
5174 Clouds 1 995 80 10000 9.3 200 20:30 27.11.2020
5175 Clouds 1 994 74 10000 10.8 210 19:24 27.11.2020
5176 Clouds 2 993 64 10000 11.8 210 17:50 27.11.2020
5177 Rain 1 991 86 8000 7.7 200 14:46 27.11.2020
5178 Clouds 1 991 86 10000 10.8 210 13:24 27.11.2020
5179 Clouds 2 990 80 1500 12.9 210 12:47 27.11.2020
5180 Rain 2 991 80 9000 9.8 220 11:35 27.11.2020
5181 Clouds 1 991 86 1000 12.9 230 10:50 27.11.2020
5182 Rain 1 990 80 8000 9.8 230 09:57 27.11.2020
5183 Clouds 1 991 89 7702 5.81 252 07:22 27.11.2020
5184 Snow 0 987 92 3249 9.39 225 22:27 26.11.2020
5185 Rain 0 983 75 6000 21.6 220 21:56 26.11.2020
5186 Rain 1 984 80 10000 18 210 20:52 26.11.2020
5187 Rain 1 984 75 1000 19 200 18:42 26.11.2020
5188 Snow 0 984 74 500 20.1 220 17:51 26.11.2020
5189 Clouds 2 986 74 10000 12.9 200 14:50 26.11.2020
5190 Clouds 0 987 76 1000 12.3 210 13:41 26.11.2020
5191 Rain 1 986 74 10000 7.7 190 12:42 26.11.2020
5192 Clouds 1 987 72 9000 11.3 210 11:36 26.11.2020
5193 Clouds 2 986 74 10000 10.8 210 10:33 26.11.2020
5194 Clouds 3 986 74 10000 9.8 220 09:46 26.11.2020
5195 Rain 3 986 74 10000 9.8 220 09:27 26.11.2020
5196 Rain 4 985 69 10000 7.7 210 08:38 26.11.2020
5197 Clouds 5 985 80 9000 10.8 200 04:42 26.11.2020
5198 Rain 3 996 86 5000 14.4 150 22:42 25.11.2020
5199 Rain 3 1000 92 8000 12.9 150 20:43 25.11.2020
5200 Clouds 2 1003 74 10000 8.7 110 19:46 25.11.2020
5201 Rain 1 1006 64 10000 6.2 120 18:27 25.11.2020
5202 Clear 0 1009 90 10000 5.7 90 16:43 25.11.2020
5203 Clear -1 1012 74 10000 4.1 90 15:38 25.11.2020
5204 Clear -2 1013 79 10000 3.6 110 13:56 25.11.2020
5205 Clear -2 1013 86 10000 3.1 120 13:37 25.11.2020
5206 Clear -2 1014 86 10000 2.1 120 11:45 25.11.2020
5207 Clear -2 1014 86 10000 2.1 120 11:18 25.11.2020
5208 Clear -3 1014 85 10000 2.1 160 09:18 25.11.2020
5209 Clear -3 1014 92 10000 1.5 170 08:43 25.11.2020
5210 Clear 0 1011 95 10000 3.6 350 03:59 25.11.2020
5211 Clear 0 1009 95 10000 6.2 350 01:53 25.11.2020
5212 Clear 2 1007 64 10000 5.7 340 00:23 25.11.2020
5213 Clear 2 1007 64 10000 5.7 340 23:52 24.11.2020
5214 Clear 2 1007 64 10000 5.7 340 23:33 24.11.2020
5215 Clear 2 1004 59 10000 6.2 360 21:51 24.11.2020
5216 Clear 2 1004 59 10000 6.2 360 21:30 24.11.2020
5217 Clear 2 1003 59 10000 7.2 360 20:42 24.11.2020
5218 Clouds 1 1000 92 10000 1 0 18:56 24.11.2020
5219 Rain 1 999 74 10000 1.5 80 17:31 24.11.2020
5220 Rain 1 998 69 10000 1 0 16:50 24.11.2020
5221 Rain 1 998 69 10000 1 0 16:50 24.11.2020
5222 Rain 1 998 69 10000 1 0 16:31 24.11.2020
5223 Rain 1 997 84 10000 1 0 15:54 24.11.2020
5224 Rain 1 997 84 10000 1 0 15:18 24.11.2020
5225 Rain 0 996 80 10000 1 0 14:34 24.11.2020
5226 Snow -1 995 74 10000 1 160 12:55 24.11.2020
5227 Clear -1 995 74 10000 1 160 12:22 24.11.2020
5228 Clear -1 994 74 10000 1.5 140 11:53 24.11.2020
5229 Clear -2 993 73 10000 1.5 160 10:47 24.11.2020
5230 Clear -2 993 73 10000 1.5 160 10:25 24.11.2020
5231 Clear -2 992 73 10000 2.1 130 09:35 24.11.2020
5232 Clear -3 991 79 10000 2.6 150 08:26 24.11.2020
5233 Clear -3 989 79 10000 1.5 150 04:49 24.11.2020
5234 Clear -4 988 79 10000 2.1 150 23:28 23.11.2020
5235 Snow -2 988 63 10000 3.6 110 21:46 23.11.2020
5236 Clear -3 988 68 10000 1.5 140 20:58 23.11.2020
5237 Clear -3 988 68 10000 1.5 140 20:28 23.11.2020
5238 Clear -2 988 79 10000 3.6 130 19:36 23.11.2020
5239 Clear 0 989 90 10000 2.1 160 17:27 23.11.2020
5240 Clear 0 989 90 10000 2.1 160 16:54 23.11.2020
5241 Rain 0 991 90 10000 1 0 14:49 23.11.2020
5242 Clear 0 992 91 10000 2.1 60 13:54 23.11.2020
5243 Clear 0 993 91 10000 2.1 70 12:39 23.11.2020
5244 Clear 0 993 91 10000 5.1 70 11:56 23.11.2020
5245 Clear 0 993 91 10000 5.1 70 11:36 23.11.2020
5246 Rain -1 995 74 10000 3.1 100 09:47 23.11.2020
5247 Clear 0 996 92 10000 2.6 80 08:51 23.11.2020
5248 Clear 0 996 93 10000 4.1 70 07:56 23.11.2020
5249 Clouds 0 1000 94 10000 6.7 80 02:39 23.11.2020
5250 Clouds 0 1002 95 10000 5.1 80 23:48 22.11.2020
5251 Clouds 0 1003 94 10000 4.6 80 22:22 22.11.2020
5252 Clouds 0 1003 93 10000 2.6 130 21:24 22.11.2020
5253 Clouds 1 1003 86 10000 3.1 90 20:20 22.11.2020
5254 Clouds 1 1003 86 10000 0.5 0 19:23 22.11.2020
5255 Clouds 1 1003 95 10000 2.1 120 18:23 22.11.2020
5256 Clouds 2 1003 92 10000 2.1 130 16:26 22.11.2020
5257 Clouds 2 1003 92 10000 2.1 100 15:25 22.11.2020
5258 Clouds 1 1003 86 10000 2.6 110 13:32 22.11.2020
5259 Clouds 1 1003 94 10000 2.1 100 12:43 22.11.2020
5260 Clouds 1 1003 94 10000 2.1 110 11:54 22.11.2020
5261 Clouds 0 1002 95 10000 2.1 120 10:51 22.11.2020
5262 Clouds 0 1002 95 10000 2.1 120 10:33 22.11.2020
5263 Clouds 0 1002 95 10000 2.1 120 10:33 22.11.2020
5264 Rain 1 1000 91 10000 1 130 04:43 22.11.2020
5265 Rain 1 998 92 10000 1.5 120 00:49 22.11.2020
5266 Rain 1 996 89 10000 2.1 140 22:42 21.11.2020
5267 Rain 1 996 87 10000 1 200 21:32 21.11.2020
5268 Rain 1 995 87 10000 2.97 12 20:53 21.11.2020
5269 Rain 1 995 86 10000 3.58 18 20:28 21.11.2020
5270 Clouds 1 993 86 10000 2.6 150 19:50 21.11.2020
5271 Rain 1 993 85 10000 2.6 150 19:20 21.11.2020
5272 Rain 2 991 84 10000 1 360 17:57 21.11.2020
5273 Rain 2 990 84 10000 2.6 10 16:48 21.11.2020
5274 Clouds 2 989 84 10000 5.1 340 15:45 21.11.2020
5275 Clouds 2 989 84 10000 5.1 340 15:21 21.11.2020
5276 Rain 2 988 74 10000 4.1 330 14:42 21.11.2020
5277 Clouds 1 987 85 10000 1.5 340 13:27 21.11.2020
5278 Clouds 1 987 86 10000 1 200 12:24 21.11.2020
5279 Clouds 1 986 86 10000 1.5 150 11:54 21.11.2020
5280 Clouds 1 985 80 10000 1.5 260 10:37 21.11.2020
5281 Clouds 1 984 74 10000 2.6 310 09:22 21.11.2020
5282 Clouds 2 983 69 10000 3.6 330 08:50 21.11.2020
5283 Clear 2 981 80 10000 4.6 330 05:43 21.11.2020
5284 Clouds 2 980 80 10000 4.6 330 04:24 21.11.2020
5285 Clouds 4 977 83 10000 9.8 320 00:26 21.11.2020
5286 Clouds 3 977 84 10000 9.3 320 23:23 20.11.2020
5287 Clouds 3 976 81 10000 9.3 320 21:47 20.11.2020
5288 Clouds 3 976 80 10000 9.3 320 21:26 20.11.2020
5289 Clouds 3 975 80 10000 8.7 320 20:42 20.11.2020
5290 Rain 3 974 74 10000 6.7 340 19:43 20.11.2020
5291 Clouds 3 974 74 10000 8.7 360 18:29 20.11.2020
5292 Clouds 3 974 69 10000 10.3 360 17:34 20.11.2020
5293 Rain 3 976 90 10000 7.7 360 16:57 20.11.2020
5294 Clouds 4 978 90 10000 6.2 10 16:37 20.11.2020
5295 Rain 4 978 84 10000 6.2 10 15:48 20.11.2020
5296 Rain 4 981 69 10000 5.7 60 14:30 20.11.2020
5297 Rain 3 983 83 10000 6.2 70 13:43 20.11.2020
5298 Rain 3 986 79 10000 6.2 70 12:59 20.11.2020
5299 Rain 3 986 79 10000 6.2 70 12:31 20.11.2020
5300 Rain 3 989 81 10000 5.7 60 11:39 20.11.2020
5301 Clouds 2 991 86 10000 5.7 80 10:37 20.11.2020
5302 Clouds 3 995 84 10000 4.1 80 08:36 20.11.2020
5303 Clouds 3 996 84 10000 4.6 100 07:58 20.11.2020
5304 Clouds 3 998 83 10000 4.1 140 05:20 20.11.2020
5305 Clouds 2 1000 80 10000 5.1 100 03:43 20.11.2020
5306 Clouds 1 1005 86 3000 11.8 80 22:33 19.11.2020
5307 Rain 1 1007 86 3000 10.3 100 21:55 19.11.2020
5308 Clouds 2 1008 69 10000 11.8 100 20:59 19.11.2020
5309 Clouds 2 1008 69 10000 11.8 100 20:30 19.11.2020
5310 Clouds 1 1010 85 8000 10.8 100 19:44 19.11.2020
5311 Clouds 1 1010 86 8000 10.8 100 19:22 19.11.2020
5312 Clouds 1 1013 55 10000 8.2 110 17:38 19.11.2020
5313 Clouds 0 1014 58 10000 7.7 70 16:48 19.11.2020
5314 Clouds -2 1015 58 10000 6.2 70 15:31 19.11.2020
5315 Clear -3 1016 49 10000 5.7 80 14:31 19.11.2020
5316 Rain -4 1017 38 10000 7.2 80 13:44 19.11.2020
5317 Clear -4 1018 32 10000 6.2 90 12:57 19.11.2020
5318 Clear -5 1018 32 10000 6.2 90 12:34 19.11.2020
5319 Clear -7 1019 41 10000 2.1 90 11:42 19.11.2020
5320 Clear -7 1019 41 10000 2.1 90 11:22 19.11.2020
5321 Clear -8 1020 57 10000 2.6 110 10:51 19.11.2020
5322 Clear -7 1021 61 10000 1.5 80 09:54 19.11.2020
5323 Clear -7 1021 61 10000 1.5 80 09:36 19.11.2020
5324 Clear -7 1021 61 10000 1.5 80 09:18 19.11.2020
5325 Clear -6 1021 44 10000 2.6 130 07:59 19.11.2020
5326 Clear -7 1024 78 10000 1 0 01:50 19.11.2020
5327 Clear -7 1024 72 10000 1.5 110 00:33 19.11.2020
5328 Clear -6 1024 72 10000 1.5 130 23:47 18.11.2020
5329 Clear -7 1024 72 10000 1.5 130 23:24 18.11.2020
5330 Clear -7 1024 78 10000 1 0 22:30 18.11.2020
5331 Clear -7 1024 72 10000 1.5 130 21:45 18.11.2020
5332 Clear -7 1024 72 10000 1.5 130 21:26 18.11.2020
5333 Clear -7 1023 72 10000 1.5 140 20:40 18.11.2020
5334 Clear -7 1022 78 10000 1 0 19:44 18.11.2020
5335 Rain -8 1022 78 10000 1 0 19:24 18.11.2020
5336 Clear -6 1022 67 10000 2.1 120 18:48 18.11.2020
5337 Clear -6 1021 62 10000 1.5 50 17:55 18.11.2020
5338 Clear -4 1021 67 10000 2.1 130 16:58 18.11.2020
5339 Clear -4 1021 67 10000 2.1 130 16:21 18.11.2020
5340 Clear -6 1021 67 10000 1.5 130 14:43 18.11.2020
5341 Rain -6 1021 67 10000 1.5 130 14:25 18.11.2020
5342 Clear -6 1020 62 10000 1.5 150 13:29 18.11.2020
5343 Clear -7 1020 67 10000 3.1 130 12:45 18.11.2020
5344 Clear -8 1020 67 10000 1.5 0 11:57 18.11.2020
5345 Clear -7 1020 67 10000 1.5 0 11:22 18.11.2020
5346 Clear -8 1019 67 10000 3.1 120 10:30 18.11.2020
5347 Clear -5 1018 57 10000 2.6 100 08:43 18.11.2020
5348 Clear -7 1018 62 10000 3.1 120 07:29 18.11.2020
5349 Clear -6 1018 62 10000 2.1 100 06:28 18.11.2020
5350 Clear -4 1015 62 10000 2.1 90 00:22 18.11.2020
5351 Clear -4 1015 67 10000 1.5 90 23:30 17.11.2020
5352 Clear -4 1014 62 10000 2.1 40 22:45 17.11.2020
5353 Clear -3 1013 58 10000 3.1 100 22:27 17.11.2020
5354 Clear -3 1013 58 10000 3.1 100 21:48 17.11.2020
5355 Clear -3 1013 58 10000 3.1 100 21:28 17.11.2020
5356 Clear -3 1013 68 10000 1 0 20:43 17.11.2020
5357 Clear -3 1013 68 10000 1 0 20:23 17.11.2020
5358 Clear -2 1012 63 10000 1.5 100 19:44 17.11.2020
5359 Rain -2 1011 58 10000 2.6 90 18:23 17.11.2020
5360 Clear -1 1010 54 10000 1.5 70 17:31 17.11.2020
5361 Clear -1 1009 58 10000 2.6 30 16:37 17.11.2020
5362 Clear -1 1009 54 10000 3.1 70 15:58 17.11.2020
5363 Clear -1 1009 54 10000 3.1 70 15:36 17.11.2020
5364 Clear -1 1008 54 10000 4.6 80 14:58 17.11.2020
5365 Clear -1 1008 54 10000 4.6 80 14:30 17.11.2020
5366 Clear -1 1007 58 10000 3.6 70 13:45 17.11.2020
5367 Clear -2 1006 58 10000 4.1 80 13:21 17.11.2020
5368 Clear -2 1006 58 10000 4.1 80 13:21 17.11.2020
5369 Clear -2 1006 58 10000 4.1 80 12:42 17.11.2020
5370 Clear -2 1005 58 10000 5.1 70 11:45 17.11.2020
5371 Clear -2 1005 58 10000 5.1 70 11:21 17.11.2020
5372 Clear -1 1004 58 10000 4.6 80 10:39 17.11.2020
5373 Clear -1 1003 54 10000 3.6 80 09:53 17.11.2020
5374 Clear -1 1003 54 10000 3.6 80 09:33 17.11.2020
5375 Clear -1 1002 54 10000 4.1 60 08:25 17.11.2020
5376 Rain 0 1001 54 10000 3.6 80 07:56 17.11.2020
5377 Clear 0 1001 54 10000 3.6 80 07:28 17.11.2020
5378 Clear -1 999 58 10000 5.7 60 04:29 17.11.2020
5379 Rain 0 999 87 10000 6.2 70 02:59 17.11.2020
5380 Clear 0 999 87 10000 6.2 70 02:28 17.11.2020
5381 Clear -1 998 63 10000 4.6 70 00:56 17.11.2020
5382 Clear -1 998 63 10000 4.6 70 23:52 16.11.2020
5383 Clear -1 998 63 10000 4.6 70 23:29 16.11.2020
5384 Clear 0 998 87 10000 5.7 70 22:48 16.11.2020
5385 Clear 0 998 87 10000 5.7 70 22:22 16.11.2020
5386 Clear 0 997 87 10000 4.6 60 21:50 16.11.2020
5387 Clear 0 997 87 10000 4.6 60 21:27 16.11.2020
5388 Clear 0 997 87 10000 5.7 70 20:59 16.11.2020
5389 Clear 0 997 87 10000 5.7 70 20:26 16.11.2020
5390 Snow 0 997 50 10000 5.7 80 19:45 16.11.2020
5391 Rain 0 997 50 10000 5.7 80 19:27 16.11.2020
5392 Rain 0 997 50 10000 5.1 70 18:47 16.11.2020
5393 Rain 1 997 55 10000 5.7 80 17:57 16.11.2020
5394 Clear 1 997 55 10000 5.7 80 17:26 16.11.2020
5395 Clear 1 997 51 10000 3.6 80 16:57 16.11.2020
5396 Clear 1 997 51 10000 3.6 80 16:38 16.11.2020
5397 Clear 1 997 51 10000 3.6 80 16:18 16.11.2020
5398 Clear 1 996 51 10000 5.7 90 15:41 16.11.2020
5399 Clear 1 996 51 10000 5.7 90 15:22 16.11.2020
5400 Clear 1 996 51 10000 6.7 80 14:42 16.11.2020
5401 Clear 2 996 51 10000 7.2 90 13:37 16.11.2020
5402 Clear 1 996 51 10000 6.7 80 12:45 16.11.2020
5403 Clear 1 996 51 10000 6.7 80 12:45 16.11.2020
5404 Clear 2 996 51 10000 6.7 80 12:23 16.11.2020
5405 Clear 1 996 55 10000 6.2 80 11:38 16.11.2020
5406 Clear 1 996 55 10000 6.2 80 11:19 16.11.2020
5407 Clear 2 996 55 10000 5.7 90 10:41 16.11.2020
5408 Clear 2 996 55 10000 5.7 90 10:22 16.11.2020
5409 Clouds 4 996 48 10000 6.2 80 09:43 16.11.2020
5410 Clouds 4 996 48 10000 6.2 80 09:19 16.11.2020
5411 Clouds 2 995 55 10000 4.6 90 08:38 16.11.2020
5412 Clear 2 995 55 10000 4.6 90 07:44 16.11.2020
5413 Clouds 3 995 59 10000 4.1 90 06:49 16.11.2020
5414 Clouds 4 995 55 10000 4.1 80 05:55 16.11.2020
5415 Clouds 3 995 59 10000 3.6 100 04:37 16.11.2020
5416 Clouds 3 995 59 10000 3.6 80 02:29 16.11.2020
5417 Clouds 3 995 59 10000 4.6 90 01:41 16.11.2020
5418 Clouds 3 995 55 10000 4.6 80 23:54 15.11.2020
5419 Clouds 3 995 55 10000 4.6 80 23:22 15.11.2020
5420 Rain 3 995 55 10000 3.6 100 22:48 15.11.2020
5421 Rain 3 995 55 10000 3.6 100 22:21 15.11.2020
5422 Rain 3 994 55 10000 4.1 90 21:44 15.11.2020
5423 Clear 3 994 55 10000 4.1 90 21:24 15.11.2020
5424 Clear 3 994 55 10000 4.6 80 20:41 15.11.2020
5425 Clear 3 994 55 10000 4.6 80 20:21 15.11.2020
5426 Clear 3 993 55 10000 5.7 80 19:48 15.11.2020
5427 Clear 3 993 55 10000 5.7 80 19:22 15.11.2020
5428 Clear 3 993 59 10000 4.1 70 18:57 15.11.2020
5429 Clear 3 993 59 10000 4.1 70 18:39 15.11.2020
5430 Clear 3 993 59 10000 4.1 70 18:19 15.11.2020
5431 Clear 3 993 59 10000 3.6 80 17:45 15.11.2020
5432 Clear 3 993 59 10000 3.6 80 17:24 15.11.2020
5433 Clear 3 993 59 10000 4.6 90 16:48 15.11.2020
5434 Clear 3 993 59 10000 4.6 90 16:21 15.11.2020
5435 Clear 3 993 59 10000 5.7 90 15:53 15.11.2020
5436 Clear 3 993 59 10000 5.7 90 15:29 15.11.2020
5437 Clear 3 993 64 10000 2.6 80 14:58 15.11.2020
5438 Clear 3 993 64 10000 2.6 80 14:31 15.11.2020
5439 Clear 2 993 69 10000 4.1 60 13:57 15.11.2020
5440 Clear 2 993 69 10000 4.1 60 13:36 15.11.2020
5441 Clear 2 993 69 10000 4.1 60 12:52 15.11.2020
5442 Clear 2 993 69 10000 4.1 60 12:25 15.11.2020
5443 Clouds 2 992 69 10000 4.1 80 11:47 15.11.2020
5444 Clouds 2 992 69 10000 4.1 80 11:21 15.11.2020
5445 Clouds 3 992 64 10000 3.6 70 10:54 15.11.2020
5446 Clouds 3 992 64 10000 3.6 70 10:33 15.11.2020
5447 Clouds 2 992 64 10000 1.5 70 09:59 15.11.2020
5448 Clouds 2 992 64 10000 1.5 70 09:40 15.11.2020
5449 Clouds 2 992 64 10000 1.5 70 09:19 15.11.2020
5450 Clouds 3 991 64 10000 2.6 80 08:50 15.11.2020
5451 Clouds 3 991 64 10000 3.6 80 07:48 15.11.2020
5452 Clouds 2 991 85 10000 2.6 30 06:55 15.11.2020
5453 Clouds 1 990 74 10000 3.1 50 04:58 15.11.2020
5454 Clouds 0 990 74 3500 0.5 0 02:55 15.11.2020
5455 Clear -1 990 74 10000 1 0 00:45 15.11.2020
5456 Clear -1 990 74 10000 1 0 00:26 15.11.2020
5457 Clear -2 990 86 10000 2.1 130 23:36 14.11.2020
5458 Clear -2 989 74 10000 3.04 50 22:50 14.11.2020
5459 Clear -2 989 74 10000 3.33 45 22:29 14.11.2020
5460 Clear 0 989 93 10000 4.1 100 21:42 14.11.2020
5461 Clear 0 989 93 10000 4.1 100 21:22 14.11.2020
5462 Clear -1 988 79 10000 3.6 120 20:50 14.11.2020
5463 Clear -1 988 79 10000 3.6 120 20:27 14.11.2020
5464 Clear 0 988 80 10000 3.1 110 19:51 14.11.2020
5465 Clear 0 988 80 10000 3.1 110 19:30 14.11.2020
5466 Clear 0 988 80 10000 2.6 120 18:43 14.11.2020
5467 Clear 0 988 80 10000 2.6 120 18:24 14.11.2020
5468 Clear 0 988 80 10000 2.6 120 18:24 14.11.2020
5469 Clear 1 988 74 10000 1.5 140 17:51 14.11.2020
5470 Clear 1 988 74 10000 1.5 140 17:33 14.11.2020
5471 Clear 1 987 74 10000 1.5 190 16:57 14.11.2020
5472 Clear 1 987 74 10000 1.5 190 16:36 14.11.2020
5473 Clear 1 987 74 10000 1.5 190 16:18 14.11.2020
5474 Clear 1 987 74 10000 1.5 150 15:51 14.11.2020
5475 Clear 1 987 74 10000 1.5 150 15:25 14.11.2020
5476 Clear 1 987 92 10000 2.1 180 14:41 14.11.2020
5477 Clear 1 987 92 10000 2.1 180 14:23 14.11.2020
5478 Clear 1 987 92 10000 1 0 13:40 14.11.2020
5479 Clear 1 987 92 10000 1 0 13:22 14.11.2020
5480 Clear 0 986 80 10000 2.6 150 12:46 14.11.2020
5481 Clear 0 986 80 10000 2.6 150 12:27 14.11.2020
5482 Clear 0 986 80 10000 1.5 140 11:43 14.11.2020
5483 Clear 0 986 80 10000 1.5 140 11:24 14.11.2020
5484 Clouds 0 986 92 10000 3.1 40 10:43 14.11.2020
5485 Clouds 0 986 91 10000 3.1 40 10:25 14.11.2020
5486 Clouds 2 985 69 10000 4.1 340 09:47 14.11.2020
5487 Clouds 2 985 69 10000 4.1 340 09:28 14.11.2020
5488 Clouds 1 985 91 10000 4.23 18 08:49 14.11.2020
5489 Clouds 1 985 90 10000 3.98 11 08:29 14.11.2020
5490 Clouds 1 984 90 10000 0.5 0 07:50 14.11.2020
5491 Clouds 1 984 89 10000 0.5 0 07:26 14.11.2020
5492 Clouds 2 983 80 10000 4.6 340 06:32 14.11.2020
5493 Clouds 2 983 74 10000 4.1 340 05:31 14.11.2020
5494 Clouds 2 982 74 10000 3.6 350 03:53 14.11.2020
5495 Rain 1 980 80 9000 6.2 340 00:59 14.11.2020
5496 Clouds 2 979 74 10000 5.7 340 23:47 13.11.2020
5497 Clouds 2 979 74 10000 5.7 340 23:25 13.11.2020
5498 Clouds 2 979 69 10000 5.7 350 22:55 13.11.2020
5499 Clouds 2 979 69 10000 5.7 350 22:28 13.11.2020
5500 Clouds 2 978 74 10000 7.2 350 21:56 13.11.2020
5501 Clouds 2 978 74 10000 7.2 350 21:37 13.11.2020
5502 Clouds 2 978 74 10000 7.2 350 21:19 13.11.2020
5503 Clouds 3 978 81 10000 7.2 340 20:42 13.11.2020
5504 Clouds 3 978 86 10000 7.2 340 20:22 13.11.2020
5505 Clouds 3 977 86 10000 6.7 330 19:46 13.11.2020
5506 Clouds 3 977 92 10000 6.7 330 19:23 13.11.2020
5507 Clouds 3 976 92 10000 5.7 330 18:56 13.11.2020
5508 Clouds 3 976 87 10000 5.7 330 18:23 13.11.2020
5509 Clouds 3 976 86 10000 6.2 330 17:41 13.11.2020
5510 Clouds 3 976 86 10000 6.2 330 17:19 13.11.2020
5511 Clouds 3 975 89 10000 5.7 330 16:49 13.11.2020
5512 Clouds 3 975 90 10000 5.7 330 16:24 13.11.2020
5513 Clouds 3 975 90 10000 4.1 330 15:49 13.11.2020
5514 Clouds 3 975 88 10000 4.1 330 15:27 13.11.2020
5515 Clouds 3 975 88 10000 5.1 330 14:48 13.11.2020
5516 Clouds 3 975 83 10000 5.1 330 14:24 13.11.2020
5517 Clear 3 975 83 10000 3.6 330 13:47 13.11.2020
5518 Clear 2 975 80 10000 1.5 350 13:25 13.11.2020
5519 Clear 2 975 80 10000 1.5 350 12:47 13.11.2020
5520 Clear 2 975 80 10000 1.5 350 12:24 13.11.2020
5521 Clear 3 975 87 10000 2.6 340 11:49 13.11.2020
5522 Clear 3 975 88 10000 2.6 340 11:29 13.11.2020
5523 Clear 1 975 86 10000 2.6 360 10:58 13.11.2020
5524 Clear 1 975 86 10000 2.6 360 10:39 13.11.2020
5525 Clear 1 975 86 10000 2.6 360 10:21 13.11.2020
5526 Clear 3 975 88 10000 4.1 340 09:42 13.11.2020
5527 Clear 3 975 87 10000 4.1 340 09:20 13.11.2020
5528 Clear 1 975 87 10000 0.5 0 08:52 13.11.2020
5529 Clear 1 975 87 10000 0.5 0 08:21 13.11.2020
5530 Clear 2 975 86 10000 1.5 120 07:45 13.11.2020
5531 Clear 1 975 86 10000 1.5 120 07:26 13.11.2020
5532 Clear 2 975 86 10000 1.5 200 06:49 13.11.2020
5533 Clear 2 976 82 10000 1 0 05:58 13.11.2020
5534 Clear 2 976 82 10000 1 0 05:30 13.11.2020
5535 Clear 4 977 79 10000 2.1 90 02:22 13.11.2020
5536 Clear 4 977 69 10000 2.1 360 01:32 13.11.2020
5537 Clear 5 977 78 10000 4.1 60 00:33 13.11.2020
5538 Clear 6 978 79 10000 4.6 80 23:39 12.11.2020
5539 Clear 6 978 77 10000 4.6 80 23:19 12.11.2020
5540 Clouds 6 978 77 10000 5.1 80 22:52 12.11.2020
5541 Clouds 6 978 76 10000 5.1 80 22:33 12.11.2020
5542 Rain 6 978 76 10000 7.2 70 21:56 12.11.2020
5543 Rain 7 978 76 10000 7.2 70 21:38 12.11.2020
5544 Rain 7 978 74 10000 7.2 70 21:18 12.11.2020
5545 Clouds 6 978 74 10000 5.1 60 20:40 12.11.2020
5546 Clouds 6 978 73 10000 5.1 60 20:21 12.11.2020
5547 Clouds 7 978 56 10000 6.7 60 19:50 12.11.2020
5548 Clouds 7 978 56 10000 6.7 60 19:32 12.11.2020
5549 Clouds 7 978 72 10000 10.8 80 18:52 12.11.2020
5550 Clouds 7 978 72 10000 10.8 80 18:24 12.11.2020
5551 Clouds 6 978 72 10000 12.3 80 17:59 12.11.2020
5552 Clouds 6 978 72 10000 12.3 80 17:38 12.11.2020
5553 Clouds 6 978 70 10000 12.3 80 17:20 12.11.2020
5554 Rain 6 978 70 10000 11.8 80 16:44 12.11.2020
5555 Clouds 6 979 74 10000 11.8 80 16:22 12.11.2020
5556 Rain 6 979 74 10000 11.8 80 15:42 12.11.2020
5557 Clouds 6 979 81 10000 11.8 80 15:23 12.11.2020
5558 Rain 6 981 81 10000 10.8 80 14:47 12.11.2020
5559 Clouds 6 981 85 10000 10.8 80 14:26 12.11.2020
5560 Clouds 6 982 85 10000 10.3 80 13:57 12.11.2020
5561 Clouds 6 982 85 10000 10.3 80 13:37 12.11.2020
5562 Rain 6 982 85 10000 10.3 80 13:18 12.11.2020
5563 Clouds 5 983 85 10000 8.2 80 12:43 12.11.2020
5564 Rain 5 983 78 10000 8.2 80 12:21 12.11.2020
5565 Clouds 5 984 78 10000 8.7 80 11:50 12.11.2020
5566 Clouds 5 984 75 10000 8.7 80 11:29 12.11.2020
5567 Clouds 4 984 69 10000 6.7 80 10:44 12.11.2020
5568 Clouds 4 984 69 10000 6.7 80 10:25 12.11.2020
5569 Clouds 3 985 74 10000 8.7 70 09:49 12.11.2020
5570 Clouds 3 985 74 10000 8.7 70 09:23 12.11.2020
5571 Clouds 2 986 80 10000 8.2 70 08:57 12.11.2020
5572 Clouds 2 986 80 10000 8.2 70 08:39 12.11.2020
5573 Clouds 2 986 80 10000 8.2 70 08:19 12.11.2020
5574 Clouds 2 987 80 10000 8.2 70 07:52 12.11.2020
5575 Clouds 2 987 80 10000 8.2 70 07:25 12.11.2020
5576 Rain 3 987 69 10000 7.7 80 06:51 12.11.2020
5577 Clouds 3 988 69 10000 6.7 80 05:45 12.11.2020
5578 Clouds 2 990 74 10000 6.2 80 03:43 12.11.2020
5579 Clouds 2 990 74 10000 6.2 80 03:18 12.11.2020
5580 Rain 2 991 82 10000 4.6 100 00:23 12.11.2020
5581 Rain 2 991 82 10000 6.2 100 23:40 11.11.2020
5582 Clouds 2 991 82 10000 6.2 100 23:22 11.11.2020
5583 Rain 2 991 82 10000 4.6 90 22:43 11.11.2020
5584 Rain 2 991 82 10000 4.6 90 22:21 11.11.2020
5585 Clouds 2 992 82 10000 3.6 100 21:56 11.11.2020
5586 Clouds 2 992 82 10000 3.6 100 21:38 11.11.2020
5587 Clouds 2 992 82 10000 3.6 100 21:18 11.11.2020
5588 Rain 2 992 82 10000 6.2 80 20:42 11.11.2020
5589 Rain 2 992 82 10000 6.2 80 20:21 11.11.2020
5590 Rain 2 992 82 10000 5.1 90 19:51 11.11.2020
5591 Rain 2 992 82 10000 5.1 90 19:32 11.11.2020
5592 Rain 1 992 83 10000 4.1 90 18:58 11.11.2020
5593 Rain 1 992 82 10000 4.1 90 18:40 11.11.2020
5594 Rain 1 992 82 10000 4.1 90 18:19 11.11.2020
5595 Clouds 2 992 82 10000 3.1 110 17:37 11.11.2020
5596 Clouds 2 992 79 10000 3.1 110 17:19 11.11.2020
5597 Clouds 1 992 86 8000 3.6 120 16:38 11.11.2020
5598 Rain 1 992 86 8000 3.6 120 16:20 11.11.2020
5599 Rain 2 992 77 10000 2.6 80 15:41 11.11.2020
5600 Rain 2 992 76 10000 2.6 80 15:22 11.11.2020
5601 Rain 2 992 76 10000 3.6 120 14:43 11.11.2020
5602 Rain 2 992 75 10000 3.6 120 14:23 11.11.2020
5603 Clouds 2 992 80 10000 4.1 140 13:49 11.11.2020
5604 Rain 2 992 80 10000 2.6 110 13:24 11.11.2020
5605 Clouds 2 992 80 10000 6.7 150 12:22 11.11.2020
5606 Clouds 1 992 80 10000 3.6 120 11:52 11.11.2020
5607 Clouds 1 992 80 10000 3.6 120 11:34 11.11.2020
5608 Clouds 1 992 86 10000 3.1 120 10:56 11.11.2020
5609 Clouds 1 992 86 10000 3.1 120 10:37 11.11.2020
5610 Clouds 1 992 86 10000 3.1 120 10:18 11.11.2020
5611 Clouds 1 992 86 10000 2.6 110 09:42 11.11.2020
5612 Clouds 1 992 86 10000 2.6 110 09:21 11.11.2020
5613 Rain 1 992 86 10000 4.6 150 08:44 11.11.2020
5614 Rain 1 992 86 10000 4.6 150 08:25 11.11.2020
5615 Clouds 1 992 86 10000 6.7 170 07:47 11.11.2020
5616 Rain 1 992 86 10000 2.6 140 06:33 11.11.2020
5617 Rain 1 992 79 10000 2.1 110 05:52 11.11.2020
5618 Clouds 2 994 86 10000 3.6 160 02:29 11.11.2020
5619 Rain 2 995 80 10000 4.1 80 00:58 11.11.2020
5620 Rain 2 995 80 10000 4.1 80 00:58 11.11.2020
5621 Clouds 2 995 80 10000 4.1 80 00:25 11.11.2020
5622 Rain 3 996 80 10000 4.1 80 23:42 10.11.2020
5623 Rain 3 996 82 10000 4.1 80 23:23 10.11.2020
5624 Clouds 2 997 82 10000 2.6 120 22:51 10.11.2020
5625 Clouds 2 997 82 10000 2.6 120 22:27 10.11.2020
5626 Rain 2 998 82 10000 4.6 70 21:42 10.11.2020
5627 Rain 2 998 81 10000 4.6 70 21:24 10.11.2020
5628 Clouds 3 998 86 10000 6.7 90 20:58 10.11.2020
5629 Clouds 3 998 86 10000 6.7 90 20:40 10.11.2020
5630 Clouds 3 998 86 10000 6.7 90 20:22 10.11.2020
5631 Rain 3 999 80 10000 2.6 90 19:47 10.11.2020
5632 Rain 3 999 78 10000 2.6 90 19:28 10.11.2020
5633 Rain 4 999 80 10000 5.1 120 18:57 10.11.2020
5634 Rain 4 999 80 10000 5.1 120 18:38 10.11.2020
5635 Rain 4 999 80 10000 5.1 120 18:18 10.11.2020
5636 Rain 4 999 80 10000 5.1 120 18:18 10.11.2020
5637 Rain 4 1000 80 10000 4.1 70 17:42 10.11.2020
5638 Rain 4 1000 80 10000 4.1 70 17:24 10.11.2020
5639 Rain 3 1001 86 10000 2.6 60 16:43 10.11.2020
5640 Rain 3 1001 86 10000 2.6 60 16:24 10.11.2020
5641 Rain 3 1001 70 10000 5.7 120 15:55 10.11.2020
5642 Clouds 3 1002 86 10000 3.1 120 15:37 10.11.2020
5643 Rain 3 1002 86 10000 3.1 120 15:19 10.11.2020
5644 Clouds 3 1002 86 10000 3.1 120 14:41 10.11.2020
5645 Clouds 3 1002 86 10000 3.1 120 14:20 10.11.2020
5646 Clouds 4 1002 68 10000 4.1 140 13:41 10.11.2020
5647 Rain 4 1002 69 10000 4.1 140 13:22 10.11.2020
5648 Rain 3 1002 69 10000 4.6 160 12:56 10.11.2020
5649 Clouds 3 1002 68 10000 4.6 150 12:38 10.11.2020
5650 Clouds 3 1002 69 10000 4.6 150 12:19 10.11.2020
5651 Clouds 3 1002 69 10000 4.6 150 11:38 10.11.2020
5652 Clouds 3 1002 69 10000 4.6 150 11:19 10.11.2020
5653 Clouds 3 1002 69 10000 3.6 140 10:42 10.11.2020
5654 Clouds 3 1002 70 10000 3.6 140 10:23 10.11.2020
5655 Rain 3 1002 70 10000 4.6 150 09:49 10.11.2020
5656 Rain 3 1002 69 10000 4.6 150 09:26 10.11.2020
5657 Clouds 3 1001 69 10000 3.1 150 08:57 10.11.2020
5658 Clouds 3 1001 69 10000 3.1 150 08:30 10.11.2020
5659 Rain 3 1001 69 10000 2.6 90 07:47 10.11.2020
5660 Rain 3 1001 69 10000 2.6 90 07:27 10.11.2020
5661 Rain 3 1000 74 10000 4.1 140 06:58 10.11.2020
5662 Rain 3 1000 74 10000 4.1 140 06:37 10.11.2020
5663 Clouds 3 999 86 10000 3.6 150 05:27 10.11.2020
5664 Clouds 5 997 80 10000 4.6 170 02:59 10.11.2020
5665 Clouds 5 997 86 10000 2.1 150 01:40 10.11.2020
5666 Rain 5 996 86 9000 6.7 210 00:30 10.11.2020
5667 Rain 8 994 76 10000 7.2 160 23:42 09.11.2020
5668 Rain 7 994 81 9000 9.3 150 22:58 09.11.2020
5669 Rain 8 994 81 9000 9.3 150 22:40 09.11.2020
5670 Rain 8 994 81 9000 9.3 150 22:19 09.11.2020
5671 Rain 8 995 87 10000 9.3 140 21:40 09.11.2020
5672 Rain 8 995 87 10000 9.3 140 21:21 09.11.2020
5673 Rain 8 995 87 10000 9.8 140 20:41 09.11.2020
5674 Clouds 8 995 87 10000 9.8 140 20:21 09.11.2020
5675 Clouds 8 995 87 10000 7.7 140 19:46 09.11.2020
5676 Rain 8 995 87 10000 6.7 140 19:23 09.11.2020
5677 Rain 8 995 87 10000 6.7 140 18:57 09.11.2020
5678 Rain 8 995 87 10000 6.7 140 18:38 09.11.2020
5679 Rain 8 995 87 10000 6.7 140 18:18 09.11.2020
5680 Clouds 9 995 81 10000 5.7 140 17:43 09.11.2020
5681 Drizzle 9 996 87 8000 8.7 130 17:25 09.11.2020
5682 Drizzle 9 996 87 8000 8.7 130 16:44 09.11.2020
5683 Drizzle 9 996 87 8000 8.7 130 16:20 09.11.2020
5684 Drizzle 7 997 87 5500 8.2 80 15:44 09.11.2020
5685 Drizzle 7 997 87 5500 8.2 80 15:25 09.11.2020
5686 Drizzle 7 997 87 5500 8.2 80 14:46 09.11.2020
5687 Drizzle 7 997 87 5500 8.2 80 14:28 09.11.2020
5688 Drizzle 7 997 81 4600 9.3 90 13:52 09.11.2020
5689 Rain 7 998 81 10000 10.3 90 13:25 09.11.2020
5690 Rain 7 999 70 10000 8.2 90 12:57 09.11.2020
5691 Rain 7 999 70 10000 8.2 90 12:39 09.11.2020
5692 Rain 7 999 70 10000 8.2 90 12:20 09.11.2020
5693 Rain 7 1000 70 10000 8.7 90 11:42 09.11.2020
5694 Rain 6 1000 70 10000 8.7 90 11:24 09.11.2020
5695 Rain 6 1000 70 10000 8.7 90 11:24 09.11.2020
5696 Rain 6 1002 75 10000 5.1 90 10:44 09.11.2020
5697 Rain 6 1002 75 10000 5.1 90 10:25 09.11.2020
5698 Clouds 6 1003 75 10000 4.1 100 09:54 09.11.2020
5699 Clouds 6 1003 75 10000 4.1 100 09:29 09.11.2020
5700 Clouds 6 1004 70 10000 7.2 110 08:50 09.11.2020
5701 Clouds 6 1004 70 10000 7.2 110 08:27 09.11.2020
5702 Clouds 6 1005 70 10000 7.2 110 07:43 09.11.2020
5703 Clouds 6 1005 70 10000 7.2 110 07:22 09.11.2020
5704 Clouds 7 1005 75 10000 10.3 120 06:51 09.11.2020
5705 Clouds 5 1009 72 10000 6.7 90 03:51 09.11.2020
5706 Clouds 5 1010 65 10000 5.7 100 01:57 09.11.2020
5707 Clouds 5 1010 65 10000 5.7 100 01:39 09.11.2020
5708 Clouds 5 1010 65 10000 7.7 100 00:40 09.11.2020
5709 Clouds 5 1011 72 10000 6.2 90 23:40 08.11.2020
5710 Clouds 5 1011 73 10000 6.2 90 23:22 08.11.2020
5711 Clouds 5 1012 73 10000 5.7 90 22:42 08.11.2020
5712 Clouds 5 1012 73 10000 5.7 90 22:21 08.11.2020
5713 Clouds 5 1012 73 10000 5.1 90 21:46 08.11.2020
5714 Clouds 5 1012 75 10000 5.1 90 21:21 08.11.2020
5715 Clouds 4 1012 69 10000 5.7 80 20:57 08.11.2020
5716 Clouds 4 1012 69 10000 5.7 80 20:38 08.11.2020
5717 Clouds 4 1012 69 10000 5.7 80 20:19 08.11.2020
5718 Clouds 4 1012 69 10000 4.1 70 19:45 08.11.2020
5719 Clouds 4 1012 69 10000 4.1 70 19:21 08.11.2020
5720 Clear 3 1012 74 10000 6.2 80 18:56 08.11.2020
5721 Clear 3 1012 74 10000 6.2 80 18:38 08.11.2020
5722 Clear 3 1012 74 10000 6.2 80 18:20 08.11.2020
5723 Clear 4 1013 75 10000 6.7 90 17:42 08.11.2020
5724 Clear 4 1013 75 10000 6.7 90 17:20 08.11.2020
5725 Clouds 5 1013 75 10000 6.7 110 16:57 08.11.2020
5726 Clouds 5 1013 75 10000 6.7 110 16:37 08.11.2020
5727 Clouds 5 1013 75 10000 6.7 110 16:18 08.11.2020
5728 Clouds 4 1013 80 10000 5.1 100 15:44 08.11.2020
5729 Clouds 4 1013 80 10000 5.1 100 15:26 08.11.2020
5730 Clouds 3 1013 80 10000 4.1 120 14:42 08.11.2020
5731 Rain 4 1014 71 10000 3.6 100 14:23 08.11.2020
5732 Rain 4 1014 71 10000 3.6 100 13:56 08.11.2020
5733 Rain 4 1014 71 10000 3.6 100 13:25 08.11.2020
5734 Rain 3 1014 74 10000 3.1 120 12:55 08.11.2020
5735 Rain 3 1014 74 10000 3.1 120 12:37 08.11.2020
5736 Rain 3 1014 74 10000 3.1 120 12:18 08.11.2020
5737 Clouds 2 1014 80 10000 3.1 120 11:42 08.11.2020
5738 Clouds 2 1014 80 10000 3.1 120 11:24 08.11.2020
5739 Clouds 2 1013 80 10000 3.1 120 10:53 08.11.2020
5740 Clouds 2 1013 80 10000 3.1 120 10:21 08.11.2020
5741 Clear 2 1013 80 10000 2.6 150 10:00 08.11.2020
5742 Clear 2 1013 80 10000 2.6 150 09:41 08.11.2020
5743 Clear 2 1013 80 10000 2.6 150 09:18 08.11.2020
5744 Clouds 2 1012 76 10000 2.6 140 08:44 08.11.2020
5745 Clouds 2 1012 75 10000 2.6 140 08:22 08.11.2020
5746 Clouds 3 1012 75 10000 3.1 210 07:53 08.11.2020
5747 Clouds 3 1012 74 10000 3.1 210 07:31 08.11.2020
5748 Clouds 2 1012 80 10000 2.1 140 06:27 08.11.2020
5749 Clouds 3 1011 73 10000 3.1 180 05:54 08.11.2020
5750 Clouds 3 1011 73 10000 3.6 220 04:51 08.11.2020
5751 Clouds 3 1010 71 10000 4.6 200 02:44 08.11.2020
5752 Clouds 4 1010 80 10000 4.6 200 01:19 08.11.2020
5753 Clouds 4 1009 86 10000 7.7 240 00:31 08.11.2020
5754 Clouds 4 1009 86 10000 7.7 240 00:31 08.11.2020
5755 Clouds 4 1009 80 10000 5.7 210 23:56 07.11.2020
5756 Clouds 4 1009 80 10000 5.7 210 23:37 07.11.2020
5757 Clouds 4 1009 80 10000 5.7 210 23:18 07.11.2020
5758 Clouds 5 1008 80 10000 5.7 210 22:39 07.11.2020
5759 Clouds 5 1008 80 10000 5.7 210 22:20 07.11.2020
5760 Rain 5 1008 80 10000 8.2 210 21:40 07.11.2020
5761 Rain 5 1008 80 10000 8.2 210 21:19 07.11.2020
5762 Rain 5 1007 80 10000 8.7 210 20:46 07.11.2020
5763 Rain 5 1007 80 10000 8.7 210 20:28 07.11.2020
5764 Rain 6 1007 75 10000 7.7 200 19:48 07.11.2020
5765 Clouds 6 1007 75 10000 7.7 200 19:27 07.11.2020
5766 Rain 6 1007 75 10000 8.2 200 18:45 07.11.2020
5767 Rain 6 1007 75 10000 8.2 200 18:27 07.11.2020
5768 Rain 7 1006 81 10000 9.3 190 17:57 07.11.2020
5769 Rain 7 1006 81 10000 9.3 190 17:37 07.11.2020
5770 Clouds 7 1006 81 10000 10.8 190 16:54 07.11.2020
5771 Clouds 7 1006 81 10000 10.8 190 16:36 07.11.2020
5772 Rain 7 1006 81 10000 10.8 190 16:18 07.11.2020
5773 Clouds 7 1007 81 10000 9.3 180 15:41 07.11.2020
5774 Clouds 7 1007 81 10000 9.3 180 15:22 07.11.2020
5775 Rain 6 1008 81 10000 9.8 180 14:45 07.11.2020
5776 Rain 6 1008 81 10000 9.8 180 14:26 07.11.2020
5777 Rain 6 1008 81 10000 9.3 180 13:56 07.11.2020
5778 Rain 6 1008 81 10000 9.3 180 13:31 07.11.2020
5779 Rain 6 1009 81 10000 7.7 180 12:52 07.11.2020
5780 Rain 6 1009 81 10000 7.7 180 12:26 07.11.2020
5781 Rain 5 1009 80 10000 6.2 170 11:45 07.11.2020
5782 Rain 5 1009 80 10000 6.2 170 11:23 07.11.2020
5783 Clouds 5 1010 80 10000 6.2 170 10:46 07.11.2020
5784 Rain 5 1010 80 10000 6.2 170 10:27 07.11.2020
5785 Rain 4 1010 80 10000 4.6 180 09:57 07.11.2020
5786 Rain 4 1010 80 10000 4.6 180 09:37 07.11.2020
5787 Rain 4 1010 88 10000 5.1 160 08:55 07.11.2020
5788 Rain 4 1010 88 10000 5.1 160 08:36 07.11.2020
5789 Rain 4 1010 88 10000 5.1 160 08:36 07.11.2020
5790 Clouds 3 1010 90 10000 4.6 150 07:56 07.11.2020
5791 Clouds 3 1010 77 10000 4.6 150 07:31 07.11.2020
5792 Clouds 4 1010 69 10000 5.1 180 06:47 07.11.2020
5793 Clouds 3 1010 69 10000 3.6 160 05:37 07.11.2020
5794 Rain 3 1010 76 10000 5.1 200 03:24 07.11.2020
5795 Clouds 3 1010 77 10000 5.7 200 01:43 07.11.2020
5796 Clouds 3 1010 79 10000 5.7 200 01:24 07.11.2020
5797 Rain 4 1009 48 10000 9.3 250 00:22 07.11.2020
5798 Clouds 4 1008 55 10000 9.3 240 23:24 06.11.2020
5799 Clouds 4 1008 55 10000 10.3 240 22:45 06.11.2020
5800 Clouds 4 1008 55 10000 10.3 240 22:45 06.11.2020
5801 Clouds 4 1008 55 10000 10.3 240 22:20 06.11.2020
5802 Clouds 4 1008 55 10000 10.3 240 22:20 06.11.2020
5803 Clouds 3 1006 64 10000 10.8 240 21:56 06.11.2020
5804 Clouds 3 1006 64 10000 10.8 240 21:37 06.11.2020
5805 Clouds 3 1006 64 10000 10.8 240 21:18 06.11.2020
5806 Clouds 3 1006 59 10000 10.8 230 20:43 06.11.2020
5807 Rain 3 1006 59 10000 10.8 230 20:19 06.11.2020
5808 Rain 2 1004 64 10000 8.2 220 19:45 06.11.2020
5809 Clouds 2 1004 64 10000 8.2 220 19:26 06.11.2020
5810 Clouds 2 1003 80 8000 9.8 220 18:47 06.11.2020
5811 Clouds 2 1003 80 8000 9.8 220 18:26 06.11.2020
5812 Rain 2 1002 80 10000 10.3 250 17:52 06.11.2020
5813 Rain 2 1002 80 10000 10.3 250 17:31 06.11.2020
5814 Rain 3 1001 76 10000 9.3 250 16:59 06.11.2020
5815 Rain 3 1001 76 10000 9.3 250 16:37 06.11.2020
5816 Rain 3 1001 77 10000 9.3 250 16:19 06.11.2020
5817 Rain 1 1000 77 10000 9.8 230 15:33 06.11.2020
5818 Rain 2 1000 71 10000 9.3 200 14:55 06.11.2020
5819 Rain 2 1000 76 10000 9.3 200 14:30 06.11.2020
5820 Rain 2 1000 76 8000 9.3 190 13:54 06.11.2020
5821 Clouds 1 1000 86 2000 14.9 210 13:26 06.11.2020
5822 Rain 2 1000 80 10000 13.4 210 12:59 06.11.2020
5823 Rain 2 1000 80 10000 13.4 210 12:40 06.11.2020
5824 Rain 2 1000 80 10000 13.4 210 12:21 06.11.2020
5825 Rain 3 1000 74 10000 8.7 200 11:37 06.11.2020
5826 Rain 3 1000 74 10000 8.2 210 10:58 06.11.2020
5827 Rain 3 1000 74 10000 8.2 210 10:35 06.11.2020
5828 Clouds 3 999 74 10000 9.3 200 09:58 06.11.2020
5829 Clouds 3 999 74 10000 9.3 200 09:38 06.11.2020
5830 Clouds 3 999 74 10000 9.3 200 09:20 06.11.2020
5831 Clouds 2 1000 76 10000 12.3 220 08:47 06.11.2020
5832 Rain 2 1000 73 10000 12.3 220 08:28 06.11.2020
5833 Rain 3 999 86 10000 9.3 200 07:44 06.11.2020
5834 Clouds 3 999 86 10000 9.3 200 07:19 06.11.2020
5835 Clouds 4 999 70 10000 9.8 200 06:40 06.11.2020
5836 Clouds 4 999 69 10000 8.2 200 05:38 06.11.2020
5837 Clouds 4 997 68 10000 11.3 200 02:52 06.11.2020
5838 Clouds 5 996 75 10000 11.8 210 00:34 06.11.2020
5839 Clouds 4 996 75 10000 10.8 210 23:56 05.11.2020
5840 Clouds 5 996 75 10000 10.8 210 23:26 05.11.2020
5841 Clouds 6 995 70 10000 12.3 220 22:48 05.11.2020
5842 Clouds 5 995 70 10000 12.3 220 22:26 05.11.2020
5843 Clouds 5 994 80 10000 14.4 220 21:57 05.11.2020
5844 Clouds 5 994 80 10000 14.4 220 21:38 05.11.2020
5845 Clouds 5 994 80 10000 14.4 220 21:19 05.11.2020
5846 Rain 6 992 70 10000 17 210 20:44 05.11.2020
5847 Rain 6 992 70 10000 17 210 20:24 05.11.2020
5848 Mist 7 991 70 9000 18 210 19:57 05.11.2020
5849 Rain 7 991 70 9000 18 210 19:38 05.11.2020
5850 Mist 7 991 67 9000 18 210 19:18 05.11.2020
5851 Mist 7 991 65 7000 18 210 18:41 05.11.2020
5852 Mist 7 991 65 7000 18 210 18:22 05.11.2020
5853 Mist 7 991 70 6000 18 210 17:46 05.11.2020
5854 Rain 7 991 70 6000 18 210 17:25 05.11.2020
5855 Drizzle 8 991 65 5000 15.9 210 16:49 05.11.2020
5856 Drizzle 8 991 65 5000 15.9 210 16:28 05.11.2020
5857 Mist 8 991 75 4500 17 200 15:55 05.11.2020
5858 Mist 8 991 75 4500 17 200 15:36 05.11.2020
5859 Mist 8 991 75 4500 17 200 15:18 05.11.2020
5860 Clouds 9 991 76 8000 16.5 200 14:42 05.11.2020
5861 Clouds 10 991 76 8000 16.5 200 14:23 05.11.2020
5862 Clouds 10 992 81 10000 13.9 190 13:40 05.11.2020
5863 Clouds 10 992 81 10000 13.9 190 13:18 05.11.2020
5864 Drizzle 10 993 87 4000 13.4 180 12:42 05.11.2020
5865 Drizzle 10 993 87 4000 13.4 180 12:23 05.11.2020
5866 Drizzle 10 994 87 5000 10.3 180 11:43 05.11.2020
5867 Drizzle 10 994 87 5000 10.3 180 11:23 05.11.2020
5868 Drizzle 10 996 87 5000 8.2 170 10:49 05.11.2020
5869 Drizzle 10 996 87 5000 8.2 170 10:28 05.11.2020
5870 Drizzle 9 998 81 10000 9.3 150 09:50 05.11.2020
5871 Drizzle 9 998 81 10000 9.3 150 09:25 05.11.2020
5872 Clouds 7 999 81 10000 5.7 120 08:55 05.11.2020
5873 Clouds 7 999 81 10000 5.7 120 08:36 05.11.2020
5874 Clouds 7 999 81 10000 5.7 120 08:18 05.11.2020
5875 Clouds 7 1001 81 10000 5.7 140 07:28 05.11.2020
5876 Drizzle 6 1002 81 10000 3.1 140 06:50 05.11.2020
5877 Drizzle 6 1002 81 10000 3.1 140 06:32 05.11.2020
5878 Clouds 5 1006 86 10000 3.6 170 03:45 05.11.2020
5879 Mist 6 1008 81 9000 4.1 210 00:38 05.11.2020
5880 Mist 6 1008 81 9000 4.1 210 00:18 05.11.2020
5881 Mist 6 1008 81 9000 3.6 230 23:36 04.11.2020
5882 Mist 6 1008 81 9000 3.6 230 23:18 04.11.2020
5883 Clouds 7 1008 75 9000 5.7 220 22:41 04.11.2020
5884 Clouds 7 1008 75 9000 5.7 220 22:21 04.11.2020
5885 Clouds 7 1008 75 9000 7.7 240 21:47 04.11.2020
5886 Clouds 7 1008 75 9000 7.7 240 21:47 04.11.2020
5887 Clouds 7 1008 75 9000 7.7 240 21:27 04.11.2020
5888 Clouds 7 1007 75 10000 8.7 250 20:54 04.11.2020
5889 Clouds 7 1007 75 10000 8.7 250 20:35 04.11.2020
5890 Clouds 7 1006 81 9000 8.2 250 19:59 04.11.2020
5891 Clouds 7 1006 81 9000 8.2 250 19:40 04.11.2020
5892 Clouds 7 1006 81 9000 8.2 250 19:22 04.11.2020
5893 Rain 8 1006 70 10000 10.3 240 18:41 04.11.2020
5894 Rain 8 1006 70 10000 10.3 240 18:23 04.11.2020
5895 Rain 8 1005 75 10000 10.8 240 17:48 04.11.2020
5896 Rain 8 1005 75 10000 10.8 240 17:48 04.11.2020
5897 Rain 8 1005 75 10000 10.8 240 17:27 04.11.2020
5898 Rain 8 1005 75 10000 10.8 240 17:27 04.11.2020
5899 Rain 8 1005 81 10000 9.3 230 16:57 04.11.2020
5900 Rain 8 1005 81 10000 9.3 230 16:37 04.11.2020
5901 Rain 8 1005 81 10000 9.3 230 16:18 04.11.2020
5902 Clouds 8 1005 87 10000 10.3 230 15:42 04.11.2020
5903 Clouds 8 1005 87 10000 10.3 230 15:23 04.11.2020
5904 Clouds 8 1005 87 10000 9.3 230 14:46 04.11.2020
5905 Clouds 8 1005 87 10000 9.3 230 14:25 04.11.2020
5906 Clouds 8 1005 93 10000 7.2 220 13:53 04.11.2020
5907 Clouds 8 1005 93 10000 7.2 220 13:22 04.11.2020
5908 Clouds 8 1005 87 10000 6.2 210 12:59 04.11.2020
5909 Clouds 8 1005 87 10000 6.2 210 12:59 04.11.2020
5910 Clouds 8 1005 87 10000 6.2 210 12:41 04.11.2020
5911 Clouds 8 1005 87 10000 6.2 210 12:22 04.11.2020
5912 Clouds 8 1005 93 10000 7.7 220 11:46 04.11.2020
5913 Clouds 8 1005 93 10000 7.7 220 11:23 04.11.2020
5914 Clouds 8 1005 93 4500 8.7 220 10:51 04.11.2020
5915 Clouds 8 1005 93 4500 8.7 220 10:24 04.11.2020
5916 Clouds 8 1005 93 4500 8.7 220 10:24 04.11.2020
5917 Clouds 8 1006 93 4000 8.7 220 09:56 04.11.2020
5918 Clouds 8 1006 93 4000 8.7 220 09:29 04.11.2020
5919 Clouds 9 1006 87 9000 10.3 210 08:58 04.11.2020
5920 Clouds 9 1006 87 9000 10.3 210 08:39 04.11.2020
5921 Rain 9 1006 87 9000 10.3 210 08:18 04.11.2020
5922 Rain 9 1006 87 9000 10.3 210 08:18 04.11.2020
5923 Clouds 9 1007 87 6000 9.3 190 07:40 04.11.2020
5924 Clouds 9 1007 87 6000 9.3 190 07:21 04.11.2020
5925 Clouds 9 1008 87 7000 9.3 180 06:40 04.11.2020
5926 Rain 8 1009 87 7000 8.7 170 05:24 04.11.2020
5927 Rain 6 1014 81 9000 4.6 130 02:31 04.11.2020
5928 Rain 6 1015 75 10000 4.1 120 01:39 04.11.2020
5929 Rain 5 1016 75 10000 3.6 140 00:25 04.11.2020
5930 Clouds 5 1016 78 10000 3.6 140 23:30 03.11.2020
5931 Clouds 4 1017 78 10000 3.1 150 22:58 03.11.2020
5932 Clouds 4 1017 78 10000 3.1 150 22:39 03.11.2020
5933 Clouds 4 1017 76 10000 3.1 150 22:19 03.11.2020
5934 Clouds 5 1016 76 10000 3.1 190 21:43 03.11.2020
5935 Clouds 5 1016 75 10000 3.1 190 21:25 03.11.2020
5936 Clouds 5 1017 75 10000 4.1 230 20:56 03.11.2020
5937 Clouds 5 1017 75 10000 4.1 230 20:38 03.11.2020
5938 Clouds 5 1017 75 10000 4.1 230 20:18 03.11.2020
5939 Clouds 5 1015 76 10000 3.1 260 19:41 03.11.2020
5940 Clouds 5 1015 76 10000 3.1 260 19:19 03.11.2020
5941 Clouds 5 1015 76 10000 3.1 260 18:41 03.11.2020
5942 Clouds 5 1015 76 10000 3.1 260 18:19 03.11.2020
5943 Clouds 5 1015 76 10000 4.6 290 17:53 03.11.2020
5944 Clouds 5 1015 76 10000 4.6 290 17:34 03.11.2020
5945 Clouds 5 1013 74 10000 5.7 260 16:52 03.11.2020
5946 Clouds 5 1012 74 10000 5.7 280 16:31 03.11.2020
5947 Clouds 5 1012 73 10000 5.7 280 15:59 03.11.2020
5948 Clouds 5 1012 73 10000 5.7 280 15:40 03.11.2020
5949 Clouds 5 1012 72 10000 5.7 280 15:20 03.11.2020
5950 Clouds 6 1011 72 10000 5.1 280 14:45 03.11.2020
5951 Clouds 6 1011 70 10000 5.1 280 14:27 03.11.2020
5952 Clouds 5 1010 75 10000 6.7 300 13:42 03.11.2020
5953 Clouds 5 1010 75 10000 6.7 300 13:22 03.11.2020
5954 Clouds 5 1008 80 10000 2.1 330 12:48 03.11.2020
5955 Clouds 5 1008 80 10000 2.1 330 12:27 03.11.2020
5956 Clouds 4 1006 80 10000 2.6 340 11:55 03.11.2020
5957 Clouds 4 1006 80 10000 2.6 340 11:36 03.11.2020
5958 Clouds 4 1006 80 10000 2.6 340 11:18 03.11.2020
5959 Clouds 5 1005 75 10000 3.6 340 10:39 03.11.2020
5960 Clouds 5 1005 75 10000 3.6 340 10:19 03.11.2020
5961 Rain 5 1004 75 10000 5.7 320 09:47 03.11.2020
5962 Rain 5 1004 75 10000 5.7 320 09:26 03.11.2020
5963 Rain 5 1002 75 10000 6.2 310 08:51 03.11.2020
5964 Rain 5 1002 75 10000 6.2 310 08:33 03.11.2020
5965 Rain 4 1000 80 10000 2.6 330 07:49 03.11.2020
5966 Rain 4 1000 80 10000 2.6 330 07:22 03.11.2020
5967 Clouds 4 999 80 10000 3.1 340 06:43 03.11.2020
5968 Clouds 4 996 74 10000 8.2 340 04:54 03.11.2020
5969 Rain 5 989 70 10000 9.8 310 00:53 03.11.2020
5970 Rain 6 989 70 10000 9.8 310 00:30 03.11.2020
5971 Clouds 6 988 70 10000 10.3 300 23:47 02.11.2020
5972 Clouds 6 988 70 10000 10.3 300 23:28 02.11.2020
5973 Clouds 6 987 70 10000 10.3 300 22:48 02.11.2020
5974 Clouds 6 987 70 10000 10.3 300 22:30 02.11.2020
5975 Clouds 5 986 75 10000 7.7 310 21:58 02.11.2020
5976 Clouds 5 986 75 10000 7.7 310 21:37 02.11.2020
5977 Clouds 5 986 75 10000 7.7 310 21:19 02.11.2020
5978 Clouds 5 984 75 10000 8.7 310 20:39 02.11.2020
5979 Clouds 5 984 75 10000 8.7 310 20:20 02.11.2020
5980 Clouds 5 983 80 3000 8.2 290 19:45 02.11.2020
5981 Clouds 5 983 80 3000 8.2 290 19:27 02.11.2020
5982 Clouds 4 982 80 10000 9.3 290 18:55 02.11.2020
5983 Rain 4 982 80 10000 9.3 290 18:37 02.11.2020
5984 Clouds 4 982 80 10000 9.3 290 18:19 02.11.2020
5985 Rain 4 981 86 10000 9.8 290 17:41 02.11.2020
5986 Clouds 4 981 86 10000 9.8 290 17:23 02.11.2020
5987 Rain 4 981 80 10000 8.7 300 16:49 02.11.2020
5988 Rain 4 981 80 10000 8.7 300 16:30 02.11.2020
5989 Rain 4 980 86 10000 8.7 290 15:57 02.11.2020
5990 Rain 4 980 86 10000 8.7 290 15:38 02.11.2020
5991 Rain 4 980 86 10000 8.7 290 15:38 02.11.2020
5992 Rain 4 980 86 10000 8.7 290 15:19 02.11.2020
5993 Rain 3 979 86 10000 6.2 280 14:43 02.11.2020
5994 Clouds 3 979 86 10000 6.2 280 14:19 02.11.2020
5995 Rain 3 979 80 10000 5.7 260 13:48 02.11.2020
5996 Clouds 3 979 80 10000 5.7 260 13:22 02.11.2020
5997 Clouds 3 978 86 10000 4.1 270 12:50 02.11.2020
5998 Clouds 3 978 86 10000 4.1 270 12:27 02.11.2020
5999 Clouds 3 977 75 10000 4.6 310 11:46 02.11.2020
6000 Clouds 3 977 86 10000 6.2 280 11:20 02.11.2020
6001 Clouds 3 977 86 10000 6.2 280 10:48 02.11.2020
6002 Clouds 3 977 86 10000 6.2 280 10:26 02.11.2020
6003 Clouds 2 976 86 10000 6.2 290 09:56 02.11.2020
6004 Clouds 2 976 86 10000 6.2 290 09:30 02.11.2020
6005 Clouds 2 976 86 10000 6.2 290 09:30 02.11.2020
6006 Rain 2 976 86 10000 6.2 290 08:59 02.11.2020
6007 Rain 2 976 86 10000 6.2 290 08:38 02.11.2020
6008 Rain 3 976 86 10000 6.2 290 08:19 02.11.2020
6009 Rain 2 975 81 10000 4.1 290 07:39 02.11.2020
6010 Clouds 3 974 84 10000 6.7 300 06:45 02.11.2020
6011 Clouds 2 974 78 10000 4.1 280 05:22 02.11.2020
6012 Clouds 3 973 64 10000 3.1 340 01:34 02.11.2020
6013 Clouds 2 973 80 10000 2.83 347 00:39 02.11.2020
6014 Clouds 2 973 80 10000 4.07 350 00:20 02.11.2020
6015 Clouds 3 973 74 10000 1 0 23:39 01.11.2020
6016 Clouds 3 973 74 10000 1 0 23:21 01.11.2020
6017 Clouds 3 972 74 10000 2.6 340 22:43 01.11.2020
6018 Clouds 3 972 74 10000 2.6 340 22:22 01.11.2020
6019 Clouds 3 973 82 10000 3.6 310 21:43 01.11.2020
6020 Clouds 3 973 82 10000 3.6 310 21:25 01.11.2020
6021 Clouds 3 972 82 10000 4.1 340 20:50 01.11.2020
6022 Clouds 3 972 80 10000 4.1 340 20:28 01.11.2020
6023 Clouds 3 972 80 10000 6.2 350 19:56 01.11.2020
6024 Clouds 3 972 80 10000 6.2 350 19:37 01.11.2020
6025 Clouds 3 972 78 10000 6.2 350 19:19 01.11.2020
6026 Clouds 4 972 78 10000 6.7 340 18:40 01.11.2020
6027 Clouds 4 972 78 10000 6.7 340 18:40 01.11.2020
6028 Clouds 4 972 75 10000 6.7 340 18:19 01.11.2020
6029 Clouds 4 972 75 10000 6.7 340 18:19 01.11.2020
6030 Clouds 4 972 80 10000 6.2 330 17:47 01.11.2020
6031 Clouds 4 972 80 10000 6.2 330 17:29 01.11.2020
6032 Clouds 4 972 80 10000 6.2 340 16:59 01.11.2020
6033 Clouds 4 972 80 10000 6.2 340 16:39 01.11.2020
6034 Clouds 4 972 80 10000 6.2 340 16:18 01.11.2020
6035 Clouds 5 973 80 10000 5.7 330 15:39 01.11.2020
6036 Clouds 5 973 80 10000 5.7 330 15:21 01.11.2020
6037 Clouds 4 973 80 10000 6.2 330 14:54 01.11.2020
6038 Clouds 4 973 80 10000 6.2 330 14:36 01.11.2020
6039 Clouds 4 973 80 10000 6.2 330 14:18 01.11.2020
6040 Clouds 4 973 86 10000 4.1 340 13:44 01.11.2020
6041 Clouds 4 973 86 10000 4.1 340 13:26 01.11.2020
6042 Clouds 4 973 80 10000 5.7 330 12:43 01.11.2020
6043 Clouds 4 973 80 10000 5.7 330 12:22 01.11.2020
6044 Clouds 4 973 80 10000 5.7 340 11:50 01.11.2020
6045 Clouds 4 973 80 10000 5.7 340 11:19 01.11.2020
6046 Clouds 4 973 80 10000 4.6 340 10:43 01.11.2020
6047 Clouds 4 973 80 10000 4.6 340 10:24 01.11.2020
6048 Clouds 4 973 79 10000 4.1 340 09:53 01.11.2020
6049 Clouds 4 973 79 10000 4.1 340 09:34 01.11.2020
6050 Clouds 4 974 80 10000 3.6 340 08:46 01.11.2020
6051 Clouds 3 974 80 10000 3.6 340 08:19 01.11.2020
6052 Clouds 3 974 80 10000 4.1 340 07:35 01.11.2020
6053 Clear 2 977 75 10000 1 190 03:26 01.11.2020
6054 Clear 3 978 74 10000 1 90 01:47 01.11.2020
6055 Clear 3 978 86 10000 3.6 100 00:23 01.11.2020
6056 Rain 4 979 86 10000 2.6 50 23:25 31.10.2020
6057 Rain 4 980 86 10000 3.1 100 22:56 31.10.2020
6058 Rain 4 980 86 10000 3.1 100 22:36 31.10.2020
6059 Rain 4 980 86 10000 3.1 100 22:18 31.10.2020
6060 Rain 5 980 86 9000 4.6 70 21:43 31.10.2020
6061 Clouds 5 980 86 9000 4.6 70 21:18 31.10.2020
6062 Clouds 5 980 80 10000 2.1 100 20:38 31.10.2020
6063 Clouds 5 980 80 10000 2.1 100 20:18 31.10.2020
6064 Rain 5 980 86 10000 1.5 120 19:41 31.10.2020
6065 Rain 5 980 86 10000 1.5 120 19:22 31.10.2020
6066 Rain 5 980 86 10000 3.1 150 18:47 31.10.2020
6067 Rain 5 980 86 10000 3.1 150 18:24 31.10.2020
6068 Rain 7 980 75 10000 2.6 130 17:40 31.10.2020
6069 Rain 7 980 75 10000 2.6 130 17:22 31.10.2020
6070 Rain 7 981 75 10000 2.6 150 16:44 31.10.2020
6071 Rain 7 981 75 10000 2.6 150 16:25 31.10.2020
6072 Rain 7 980 75 10000 4.6 160 15:45 31.10.2020
6073 Rain 7 980 75 10000 4.6 160 15:25 31.10.2020
6074 Rain 6 980 81 10000 4.6 160 14:52 31.10.2020
6075 Rain 6 980 81 10000 4.6 160 14:31 31.10.2020
6076 Rain 7 980 81 10000 3.1 180 13:50 31.10.2020
6077 Rain 7 980 81 10000 3.1 180 13:27 31.10.2020
6078 Rain 5 980 86 10000 5.7 170 12:45 31.10.2020
6079 Rain 5 980 86 10000 5.7 170 12:19 31.10.2020
6080 Rain 5 980 80 10000 5.7 170 11:39 31.10.2020
6081 Rain 5 980 80 10000 5.7 170 11:21 31.10.2020
6082 Clouds 5 979 80 10000 5.1 160 10:37 31.10.2020
6083 Clouds 6 979 81 10000 6.7 180 09:48 31.10.2020
6084 Clouds 6 979 81 10000 6.7 180 09:30 31.10.2020
6085 Clouds 6 978 75 10000 5.7 180 08:57 31.10.2020
6086 Clouds 6 978 75 10000 5.7 180 08:20 31.10.2020
6087 Clouds 6 978 75 10000 5.7 180 08:20 31.10.2020
6088 Clouds 6 977 75 10000 9.3 190 07:28 31.10.2020
6089 Clouds 6 977 75 10000 7.2 180 06:47 31.10.2020
6090 Clouds 6 977 75 10000 7.2 180 06:29 31.10.2020
6091 Clouds 5 977 86 10000 5.1 190 03:47 31.10.2020
6092 Clouds 6 976 81 10000 7.2 190 02:20 31.10.2020
6093 Clouds 4 975 86 10000 3.6 120 00:51 31.10.2020
6094 Rain 5 975 80 8000 5.1 200 23:54 30.10.2020
6095 Rain 5 975 80 8000 5.1 200 23:29 30.10.2020
6096 Rain 5 974 70 10000 5.7 80 22:59 30.10.2020
6097 Rain 6 974 70 10000 5.7 80 22:37 30.10.2020
6098 Rain 6 974 70 10000 5.7 80 22:18 30.10.2020
6099 Clear 6 974 88 10000 6.2 80 21:47 30.10.2020
6100 Clear 6 974 78 10000 6.2 80 21:26 30.10.2020
6101 Clear 5 974 78 10000 4.6 70 20:45 30.10.2020
6102 Clear 5 974 73 10000 4.6 70 20:26 30.10.2020
6103 Clear 5 975 65 10000 7.2 80 19:56 30.10.2020
6104 Clear 5 975 65 10000 7.2 80 19:22 30.10.2020
6105 Clouds 6 975 72 10000 7.2 70 18:59 30.10.2020
6106 Clouds 6 975 72 10000 7.2 70 18:59 30.10.2020
6107 Clouds 6 975 79 10000 7.2 70 18:41 30.10.2020
6108 Clouds 6 975 73 10000 7.2 70 18:22 30.10.2020
6109 Clouds 6 976 70 10000 6.2 80 17:43 30.10.2020
6110 Clouds 6 976 70 10000 6.2 80 17:20 30.10.2020
6111 Clouds 6 977 70 10000 4.6 70 16:50 30.10.2020
6112 Clouds 6 977 70 10000 4.6 70 16:24 30.10.2020
6113 Clouds 6 977 75 10000 4.6 70 15:42 30.10.2020
6114 Clouds 6 977 75 10000 4.6 70 15:24 30.10.2020
6115 Clouds 5 978 80 10000 4.6 80 14:58 30.10.2020
6116 Clouds 5 978 80 10000 4.6 80 14:39 30.10.2020
6117 Clouds 5 978 80 10000 4.6 80 14:21 30.10.2020
6118 Clouds 5 978 80 10000 4.6 80 14:21 30.10.2020
6119 Clouds 5 979 75 10000 5.7 90 13:41 30.10.2020
6120 Clouds 5 979 75 10000 5.7 90 13:20 30.10.2020
6121 Clouds 5 979 80 10000 5.7 100 12:43 30.10.2020
6122 Clouds 5 979 80 10000 5.7 100 12:22 30.10.2020
6123 Clouds 3 979 86 10000 3.6 70 11:46 30.10.2020
6124 Clouds 3 979 86 10000 3.6 70 11:20 30.10.2020
6125 Clouds 3 980 86 10000 5.1 70 10:50 30.10.2020
6126 Clouds 3 980 86 10000 5.1 70 10:25 30.10.2020
6127 Clouds 4 980 86 10000 5.1 80 09:47 30.10.2020
6128 Clouds 4 980 86 10000 5.1 80 09:25 30.10.2020
6129 Clouds 5 980 80 10000 4.6 90 08:55 30.10.2020
6130 Clouds 5 980 80 10000 4.6 90 08:31 30.10.2020
6131 Rain 5 980 80 10000 4.1 80 07:52 30.10.2020
6132 Rain 5 980 80 10000 4.1 80 07:33 30.10.2020
6133 Rain 5 980 80 10000 5.7 80 06:49 30.10.2020
6134 Clouds 5 981 80 10000 3.1 70 05:39 30.10.2020
6135 Rain 5 983 80 9000 2.6 90 02:41 30.10.2020
6136 Rain 6 983 75 10000 6.2 90 01:18 30.10.2020
6137 Clouds 6 983 81 10000 5.1 90 23:58 29.10.2020
6138 Clouds 6 983 81 10000 5.1 90 23:40 29.10.2020
6139 Clouds 6 983 81 10000 5.1 90 23:21 29.10.2020
6140 Clouds 6 984 81 10000 3.1 110 22:43 29.10.2020
6141 Rain 6 984 81 10000 3.1 110 22:24 29.10.2020
6142 Rain 6 983 81 10000 6.2 100 21:43 29.10.2020
6143 Rain 6 983 81 10000 6.2 100 21:21 29.10.2020
6144 Rain 6 983 81 10000 6.2 100 21:21 29.10.2020
6145 Rain 6 983 81 10000 3.6 100 20:42 29.10.2020
6146 Rain 6 983 81 10000 3.6 100 20:21 29.10.2020
6147 Rain 6 983 81 10000 5.1 110 19:54 29.10.2020
6148 Rain 7 983 81 10000 5.1 110 19:36 29.10.2020
6149 Rain 7 983 81 10000 5.1 110 19:18 29.10.2020
6150 Rain 7 983 87 10000 5.7 110 18:41 29.10.2020
6151 Rain 7 983 87 10000 5.7 110 18:21 29.10.2020
6152 Rain 7 983 81 10000 7.2 100 17:42 29.10.2020
6153 Clouds 7 983 81 10000 7.2 100 17:21 29.10.2020
6154 Rain 7 982 81 10000 8.2 110 16:48 29.10.2020
6155 Rain 7 982 81 10000 8.2 110 16:22 29.10.2020
6156 Drizzle 7 982 65 10000 10.3 110 15:57 29.10.2020
6157 Drizzle 8 982 65 10000 10.3 110 15:39 29.10.2020
6158 Drizzle 8 982 65 10000 10.3 110 15:21 29.10.2020
6159 Clouds 8 982 70 10000 8.7 90 14:46 29.10.2020
6160 Clouds 8 982 70 10000 8.7 90 14:24 29.10.2020
6161 Clouds 7 982 70 10000 11.3 90 13:49 29.10.2020
6162 Clouds 7 982 70 10000 11.3 90 13:28 29.10.2020
6163 Clouds 7 982 70 10000 9.8 90 12:59 29.10.2020
6164 Rain 7 982 70 10000 9.8 90 12:39 29.10.2020
6165 Rain 7 982 70 10000 9.8 90 12:19 29.10.2020
6166 Clouds 7 982 61 10000 10.3 100 11:44 29.10.2020
6167 Clouds 8 982 61 10000 10.3 100 11:24 29.10.2020
6168 Clouds 7 982 80 10000 10.3 100 10:37 29.10.2020
6169 Rain 7 982 79 10000 10.3 100 10:19 29.10.2020
6170 Rain 7 981 49 10000 11.3 90 09:51 29.10.2020
6171 Rain 8 981 49 10000 11.3 90 09:28 29.10.2020
6172 Rain 8 981 49 10000 10.3 90 08:55 29.10.2020
6173 Rain 8 981 49 10000 10.3 90 08:31 29.10.2020
6174 Clouds 8 981 45 10000 9.8 80 07:53 29.10.2020
6175 Rain 8 981 45 10000 9.8 80 07:35 29.10.2020
6176 Clouds 8 982 45 10000 10.8 80 06:56 29.10.2020
6177 Clear 8 983 42 10000 9.8 80 04:52 29.10.2020
6178 Clear 8 983 42 10000 11.3 80 03:00 29.10.2020
6179 Clear 8 984 42 10000 9.3 90 01:22 29.10.2020
6180 Clear 8 984 42 10000 9.3 90 00:31 29.10.2020
6181 Clouds 6 985 61 10000 7.6 82 23:46 28.10.2020
6182 Clouds 7 985 61 10000 8.94 94 23:21 28.10.2020
6183 Clouds 6 985 60 10000 8.2 60 22:44 28.10.2020
6184 Clear 7 984 48 10000 9.3 90 22:26 28.10.2020
6185 Clear 7 984 48 10000 9.3 90 21:58 28.10.2020
6186 Clear 6 984 48 10000 9.3 90 21:40 28.10.2020
6187 Clear 6 984 48 10000 9.3 90 21:19 28.10.2020
6188 Haze 7 983 45 10000 11.8 90 20:41 28.10.2020
6189 Haze 7 983 45 10000 11.8 90 20:22 28.10.2020
6190 Haze 7 984 42 10000 7.2 80 19:50 28.10.2020
6191 Haze 7 984 42 10000 7.2 80 19:28 28.10.2020
6192 Clear 7 984 39 10000 8.2 80 18:47 28.10.2020
6193 Clear 7 984 39 10000 8.2 80 18:21 28.10.2020
6194 Rain 7 984 42 10000 9.3 90 17:45 28.10.2020
6195 Rain 7 984 42 10000 9.3 90 17:25 28.10.2020
6196 Clear 7 984 39 10000 8.2 80 16:57 28.10.2020
6197 Clear 7 984 39 10000 8.2 80 16:38 28.10.2020
6198 Clear 7 984 39 10000 8.2 80 16:20 28.10.2020
6199 Clear 7 984 39 10000 8.7 80 15:37 28.10.2020
6200 Clear 7 984 39 10000 8.7 80 15:18 28.10.2020
6201 Clear 6 984 52 10000 11.3 70 14:42 28.10.2020
6202 Clear 7 984 36 10000 10.8 80 14:22 28.10.2020
6203 Clouds 6 985 58 10000 8.49 105 12:42 28.10.2020
6204 Clouds 5 985 59 10000 9.39 83 12:22 28.10.2020
6205 Clouds 4 985 60 10000 10.73 114 11:56 28.10.2020
6206 Clouds 4 985 61 10000 7.6 90 11:36 28.10.2020
6207 Clouds 4 985 62 10000 8.05 114 11:18 28.10.2020
6208 Clear 4 984 56 10000 11.8 70 10:44 28.10.2020
6209 Clear 6 983 41 10000 10.8 90 10:26 28.10.2020
6210 Clear 6 983 41 10000 10.8 90 09:43 28.10.2020
6211 Clear 6 983 41 10000 10.8 90 09:23 28.10.2020
6212 Clear 6 983 41 10000 8.2 80 08:50 28.10.2020
6213 Clear 5 983 41 10000 8.2 80 08:30 28.10.2020
6214 Clear 6 983 38 10000 11.3 90 07:53 28.10.2020
6215 Clear 6 983 38 10000 11.3 90 07:31 28.10.2020
6216 Clear 6 983 35 10000 10.8 80 06:54 28.10.2020
6217 Clear 6 983 35 10000 10.8 80 06:36 28.10.2020
6218 Clear 5 983 35 10000 8.7 80 05:22 28.10.2020
6219 Clear 5 983 35 10000 4.6 60 04:50 28.10.2020
6220 Clear 4 984 38 10000 5.1 70 03:31 28.10.2020
6221 Clear 4 984 41 10000 2.1 0 01:55 28.10.2020
6222 Clear 5 983 35 10000 5.7 80 00:33 28.10.2020
6223 Clear 6 983 38 10000 5.1 60 23:47 27.10.2020
6224 Clear 5 983 38 10000 5.1 60 23:21 27.10.2020
6225 Clear 6 983 38 10000 7.2 70 22:44 27.10.2020
6226 Clear 6 983 38 10000 7.2 70 22:19 27.10.2020
6227 Clear 6 983 38 10000 8.2 80 21:57 27.10.2020
6228 Clear 6 983 38 10000 8.2 80 21:57 27.10.2020
6229 Clear 6 983 38 10000 8.2 80 21:38 27.10.2020
6230 Clear 6 983 38 10000 8.2 80 21:19 27.10.2020
6231 Clear 6 982 41 10000 10.3 90 20:50 27.10.2020
6232 Clear 6 982 41 10000 10.3 90 20:24 27.10.2020
6233 Clear 6 983 41 10000 9.3 80 19:57 27.10.2020
6234 Clear 6 983 41 10000 9.3 80 19:38 27.10.2020
6235 Clear 6 983 41 10000 9.3 80 19:19 27.10.2020
6236 Clear 6 983 41 10000 9.3 80 18:45 27.10.2020
6237 Clear 6 983 41 10000 9.3 80 18:24 27.10.2020
6238 Clear 6 983 45 10000 10.8 80 17:59 27.10.2020
6239 Clear 6 983 45 10000 9.3 80 17:40 27.10.2020
6240 Clear 6 983 45 10000 9.3 80 17:19 27.10.2020
6241 Clear 6 983 45 10000 9.3 80 16:42 27.10.2020
6242 Clear 6 983 45 10000 9.3 80 16:23 27.10.2020
6243 Clouds 6 984 45 10000 10.3 80 15:42 27.10.2020
6244 Clouds 6 984 45 10000 10.3 80 15:24 27.10.2020
6245 Clouds 6 984 45 10000 8.2 80 14:50 27.10.2020
6246 Clouds 6 984 45 10000 8.2 80 14:30 27.10.2020
6247 Clouds 6 984 45 10000 8.7 90 13:58 27.10.2020
6248 Clouds 6 984 45 10000 8.7 90 13:31 27.10.2020
6249 Clear 5 984 44 10000 8.7 80 12:49 27.10.2020
6250 Clear 5 984 44 10000 8.7 80 12:30 27.10.2020
6251 Clear 5 984 44 10000 10.8 90 11:59 27.10.2020
6252 Clear 5 984 44 10000 10.8 90 11:41 27.10.2020
6253 Clear 5 984 44 10000 10.8 90 11:21 27.10.2020
6254 Clear 4 984 48 10000 11.3 80 10:44 27.10.2020
6255 Clear 4 984 48 10000 11.3 80 10:21 27.10.2020
6256 Clear 4 985 51 10000 8.7 80 09:38 27.10.2020
6257 Clear 4 985 51 10000 8.7 80 09:20 27.10.2020
6258 Clear 3 985 51 10000 8.7 80 08:33 27.10.2020
6259 Clear 3 985 51 10000 8.7 80 08:33 27.10.2020
6260 Clear 3 986 51 10000 8.2 90 07:58 27.10.2020
6261 Clear 3 986 51 10000 8.2 90 07:40 27.10.2020
6262 Clear 3 986 51 10000 8.2 90 07:21 27.10.2020
6263 Clear 3 986 55 10000 8.7 80 06:21 27.10.2020
6264 Clear 3 987 59 10000 8.2 80 05:47 27.10.2020
6265 Clear 3 987 59 10000 8.2 80 05:28 27.10.2020
6266 Clear 3 989 64 10000 8.2 80 03:38 27.10.2020
6267 Clouds 4 990 69 10000 6.7 80 01:32 27.10.2020
6268 Clear 4 991 65 10000 6.2 90 00:48 27.10.2020
6269 Clear 4 992 69 10000 4.6 80 23:40 26.10.2020
6270 Clear 4 992 69 10000 4.6 80 23:19 26.10.2020
6271 Clouds 4 992 65 10000 7.2 90 22:46 26.10.2020
6272 Clouds 4 992 65 10000 7.2 90 22:21 26.10.2020
6273 Clouds 4 993 69 10000 6.7 90 21:42 26.10.2020
6274 Clouds 3 993 69 10000 6.7 90 21:19 26.10.2020
6275 Clear 4 994 65 10000 5.1 100 20:55 26.10.2020
6276 Clear 4 994 65 10000 5.1 100 20:37 26.10.2020
6277 Clear 4 994 65 10000 5.1 100 20:18 26.10.2020
6278 Clouds 4 994 65 10000 5.7 90 19:44 26.10.2020
6279 Clouds 4 994 65 10000 5.7 90 19:22 26.10.2020
6280 Clouds 5 994 82 10000 5.1 90 18:42 26.10.2020
6281 Clouds 5 994 79 10000 5.1 90 18:22 26.10.2020
6282 Clouds 5 994 70 10000 6.2 100 17:45 26.10.2020
6283 Clouds 5 994 70 10000 6.2 100 17:24 26.10.2020
6284 Rain 6 995 70 10000 4.6 90 16:59 26.10.2020
6285 Rain 6 995 70 10000 4.6 90 16:39 26.10.2020
6286 Rain 6 995 70 10000 4.6 90 16:19 26.10.2020
6287 Clouds 6 995 70 10000 5.1 90 15:41 26.10.2020
6288 Clouds 6 995 68 10000 5.1 90 15:20 26.10.2020
6289 Clouds 6 995 68 10000 5.1 90 15:20 26.10.2020
6290 Clouds 6 995 60 10000 5.7 80 14:46 26.10.2020
6291 Clouds 6 995 60 10000 5.7 80 14:26 26.10.2020
6292 Clouds 6 995 56 10000 7.2 90 13:43 26.10.2020
6293 Clouds 6 995 56 10000 7.2 90 13:23 26.10.2020
6294 Clear 5 995 60 10000 6.2 90 12:48 26.10.2020
6295 Rain 5 995 60 10000 6.2 90 12:27 26.10.2020
6296 Clear 4 995 60 10000 7.2 80 11:56 26.10.2020
6297 Clear 4 995 60 10000 7.2 80 11:37 26.10.2020
6298 Clear 4 995 60 10000 7.2 80 11:19 26.10.2020
6299 Clear 4 995 64 10000 6.2 90 10:43 26.10.2020
6300 Clear 3 995 64 10000 6.2 90 10:25 26.10.2020
6301 Clear 3 995 64 10000 4.6 90 09:48 26.10.2020
6302 Clear 3 995 64 10000 4.6 90 09:26 26.10.2020
6303 Clear 4 995 60 10000 4.1 90 08:46 26.10.2020
6304 Clear 4 995 60 10000 4.1 90 08:22 26.10.2020
6305 Clear 3 995 69 10000 4.1 80 07:38 26.10.2020
6306 Clear 3 995 69 10000 4.1 80 07:18 26.10.2020
6307 Clear 3 995 74 10000 3.1 60 05:30 26.10.2020
6308 Clear 3 995 74 10000 1 0 04:18 26.10.2020
6309 Clear 3 994 80 10000 1.5 110 03:20 26.10.2020
6310 Clear 2 993 81 10000 2.6 220 01:34 26.10.2020
6311 Clear 3 993 81 10000 1.5 160 00:33 26.10.2020
6312 Clear 4 992 86 10000 2.6 130 23:45 25.10.2020
6313 Clear 4 992 86 10000 2.6 130 23:22 25.10.2020
6314 Clear 5 992 75 10000 1 0 22:44 25.10.2020
6315 Clear 5 992 75 10000 1 0 22:25 25.10.2020
6316 Clouds 6 991 75 10000 4.1 360 21:49 25.10.2020
6317 Clouds 6 991 75 10000 4.1 360 21:30 25.10.2020
6318 Clouds 5 991 80 10000 1 0 20:58 25.10.2020
6319 Clouds 5 991 80 10000 1 0 20:39 25.10.2020
6320 Clouds 5 991 80 10000 1 0 20:19 25.10.2020
6321 Clouds 5 990 80 10000 2.6 220 19:49 25.10.2020
6322 Clouds 5 990 80 10000 2.6 220 19:26 25.10.2020
6323 Clouds 5 989 80 10000 2.1 200 18:58 25.10.2020
6324 Clouds 5 989 80 10000 2.1 200 18:39 25.10.2020
6325 Clouds 5 989 80 10000 2.1 200 18:20 25.10.2020
6326 Clouds 5 989 81 10000 7.2 360 17:40 25.10.2020
6327 Clouds 6 988 65 10000 4.6 30 17:22 25.10.2020
6328 Clouds 6 988 65 10000 4.6 30 16:59 25.10.2020
6329 Clouds 6 988 65 10000 4.6 30 16:39 25.10.2020
6330 Clouds 6 988 65 10000 4.6 30 16:20 25.10.2020
6331 Clouds 7 988 70 10000 8.7 10 15:47 25.10.2020
6332 Clouds 7 988 70 10000 8.7 10 15:26 25.10.2020
6333 Clouds 7 988 70 10000 8.7 10 15:26 25.10.2020
6334 Clouds 6 987 75 10000 8.7 10 14:49 25.10.2020
6335 Clouds 6 987 75 10000 8.7 10 14:28 25.10.2020
6336 Clouds 7 987 70 10000 11.3 10 13:44 25.10.2020
6337 Rain 7 987 70 10000 11.3 10 13:22 25.10.2020
6338 Rain 7 986 65 10000 9.8 20 12:49 25.10.2020
6339 Rain 7 986 65 10000 9.8 20 12:27 25.10.2020
6340 Clouds 6 986 70 10000 10.8 10 11:58 25.10.2020
6341 Clouds 6 986 70 10000 10.8 10 11:39 25.10.2020
6342 Clouds 6 986 70 10000 10.8 10 11:19 25.10.2020
6343 Clouds 6 986 70 10000 8.7 30 10:44 25.10.2020
6344 Rain 6 986 70 10000 8.7 30 10:25 25.10.2020
6345 Clouds 7 985 65 10000 6.7 340 09:48 25.10.2020
6346 Clouds 7 985 65 10000 6.7 340 09:20 25.10.2020
6347 Rain 7 984 70 10000 5.7 340 08:56 25.10.2020
6348 Rain 7 984 70 10000 5.7 340 08:37 25.10.2020
6349 Rain 7 984 70 10000 5.7 340 08:19 25.10.2020
6350 Clouds 6 984 70 10000 9.8 360 07:42 25.10.2020
6351 Clouds 6 983 70 10000 10.8 350 06:52 25.10.2020
6352 Rain 6 983 70 10000 10.8 350 06:19 25.10.2020
6353 Rain 6 982 65 10000 10.3 10 05:18 25.10.2020
6354 Clouds 6 982 77 10000 12.3 10 04:23 25.10.2020
6355 Clouds 6 980 72 10000 11.3 20 02:21 25.10.2020
6356 Clouds 6 979 56 10000 12.9 30 00:52 25.10.2020
6357 Clouds 6 979 56 10000 12.9 30 00:28 25.10.2020
6358 Clouds 6 979 69 10000 13.4 20 23:54 24.10.2020
6359 Clouds 6 979 69 10000 13.4 20 23:31 24.10.2020
6360 Clouds 6 978 69 10000 15.4 30 22:58 24.10.2020
6361 Clouds 6 978 69 10000 15.4 30 22:40 24.10.2020
6362 Clouds 6 978 69 10000 15.4 30 22:21 24.10.2020
6363 Clear 7 978 69 10000 13.9 30 21:44 24.10.2020
6364 Clear 7 978 69 10000 13.9 30 21:44 24.10.2020
6365 Clear 7 978 70 10000 13.9 30 21:22 24.10.2020
6366 Clouds 7 979 70 10000 11.8 30 20:58 24.10.2020
6367 Clouds 7 979 70 10000 11.8 30 20:39 24.10.2020
6368 Clouds 7 979 71 10000 11.8 30 20:20 24.10.2020
6369 Clouds 7 978 65 10000 11.3 30 19:40 24.10.2020
6370 Clouds 7 978 65 10000 11.3 30 19:22 24.10.2020
6371 Clouds 8 978 70 10000 8.2 40 18:49 24.10.2020
6372 Clouds 8 978 69 10000 8.2 40 18:28 24.10.2020
6373 Clouds 8 978 69 10000 9.8 40 17:43 24.10.2020
6374 Clouds 8 978 67 10000 9.8 40 17:25 24.10.2020
6375 Clear 8 979 67 10000 6.7 30 16:48 24.10.2020
6376 Clear 8 979 65 10000 6.7 30 16:30 24.10.2020
6377 Clear 8 979 61 10000 5.7 30 15:57 24.10.2020
6378 Clear 8 979 61 10000 5.7 30 15:37 24.10.2020
6379 Clear 8 979 61 10000 5.7 30 15:18 24.10.2020
6380 Clouds 7 980 65 10000 5.7 340 14:30 24.10.2020
6381 Clouds 7 979 70 10000 2.6 330 13:55 24.10.2020
6382 Clouds 8 979 70 10000 2.6 330 13:36 24.10.2020
6383 Clouds 8 979 72 10000 2.6 330 13:18 24.10.2020
6384 Clouds 7 980 72 10000 5.7 360 12:37 24.10.2020
6385 Clouds 7 980 70 10000 5.7 360 12:19 24.10.2020
6386 Clouds 6 980 79 10000 5.36 69 11:49 24.10.2020
6387 Clouds 6 980 82 10000 3.58 51 11:20 24.10.2020
6388 Clouds 6 980 82 10000 5.36 53 10:43 24.10.2020
6389 Clouds 6 980 70 10000 4.6 10 10:25 24.10.2020
6390 Clouds 6 980 70 10000 4.6 10 09:45 24.10.2020
6391 Clouds 6 980 71 10000 4.6 10 09:26 24.10.2020
6392 Clouds 5 980 65 10000 2.6 40 08:56 24.10.2020
6393 Clouds 5 980 65 10000 2.6 40 08:19 24.10.2020
6394 Clouds 5 981 65 10000 3.1 60 07:51 24.10.2020
6395 Clouds 5 981 65 10000 3.1 60 07:20 24.10.2020
6396 Clouds 5 981 68 10000 2.6 30 06:49 24.10.2020
6397 Clouds 6 982 70 10000 4.1 60 05:43 24.10.2020
6398 Clouds 5 983 75 10000 4.6 90 02:20 24.10.2020
6399 Clouds 5 982 80 10000 3.6 80 00:55 24.10.2020
6400 Rain 5 982 80 10000 3.6 80 00:37 24.10.2020
6401 Clouds 5 982 80 10000 3.6 80 00:19 24.10.2020
6402 Clouds 6 981 75 10000 5.7 130 23:40 23.10.2020
6403 Clouds 6 981 75 10000 5.7 130 23:22 23.10.2020
6404 Rain 6 980 81 10000 8.7 140 22:42 23.10.2020
6405 Clouds 6 980 81 10000 8.7 140 22:22 23.10.2020
6406 Drizzle 7 979 81 10000 8.7 130 21:56 23.10.2020
6407 Drizzle 7 979 81 10000 8.7 130 21:38 23.10.2020
6408 Drizzle 7 979 81 10000 8.7 130 21:20 23.10.2020
6409 Drizzle 7 977 81 10000 9.3 130 20:39 23.10.2020
6410 Drizzle 7 977 81 10000 9.3 130 20:19 23.10.2020
6411 Drizzle 7 975 75 10000 8.2 90 19:45 23.10.2020
6412 Drizzle 7 975 75 10000 8.2 90 19:26 23.10.2020
6413 Drizzle 7 975 65 10000 10.3 80 18:47 23.10.2020
6414 Drizzle 7 975 65 10000 10.3 80 18:29 23.10.2020
6415 Rain 7 975 70 10000 11.3 80 17:47 23.10.2020
6416 Rain 7 975 70 10000 11.3 80 17:22 23.10.2020
6417 Rain 8 976 61 10000 8.2 70 16:51 23.10.2020
6418 Rain 8 976 61 10000 8.2 70 16:33 23.10.2020
6419 Clouds 8 978 68 10000 7.2 60 15:58 23.10.2020
6420 Clouds 8 978 68 10000 7.2 60 15:40 23.10.2020
6421 Rain 8 978 66 10000 7.2 60 15:19 23.10.2020
6422 Rain 8 978 66 10000 7.2 60 15:19 23.10.2020
6423 Clouds 8 978 52 10000 11.3 80 14:48 23.10.2020
6424 Clouds 7 978 52 10000 11.3 80 14:29 23.10.2020
6425 Clouds 8 979 52 10000 8.7 70 13:42 23.10.2020
6426 Clouds 8 979 52 10000 8.7 70 13:23 23.10.2020
6427 Rain 6 980 73 10000 8.2 90 12:51 23.10.2020
6428 Rain 6 980 77 10000 8.2 90 12:31 23.10.2020
6429 Clouds 7 980 56 10000 6.7 80 11:51 23.10.2020
6430 Clouds 6 980 56 10000 6.7 80 11:28 23.10.2020
6431 Drizzle 7 980 75 10000 9.8 90 10:55 23.10.2020
6432 Drizzle 7 980 75 10000 9.8 90 10:37 23.10.2020
6433 Drizzle 7 980 75 10000 9.8 90 10:19 23.10.2020
6434 Clouds 6 980 75 10000 9.3 90 09:43 23.10.2020
6435 Clouds 6 980 75 10000 9.3 90 09:23 23.10.2020
6436 Clouds 6 980 56 10000 8.7 80 08:50 23.10.2020
6437 Clouds 6 980 56 10000 8.7 80 08:26 23.10.2020
6438 Clouds 7 980 56 10000 12.9 90 07:26 23.10.2020
6439 Rain 7 981 72 10000 9.8 90 06:49 23.10.2020
6440 Rain 7 981 69 10000 9.8 90 06:20 23.10.2020
6441 Clear 7 983 68 10000 11.3 80 03:38 23.10.2020
6442 Clouds 7 983 72 10000 10.8 80 02:26 23.10.2020
6443 Clouds 7 985 71 10000 8.2 70 00:52 23.10.2020
6444 Clouds 7 985 72 10000 8.2 70 00:32 23.10.2020
6445 Clouds 7 985 72 10000 11.3 80 23:37 22.10.2020
6446 Clouds 7 985 76 10000 11.3 80 23:19 22.10.2020
6447 Clouds 6 985 76 10000 11.3 80 22:45 22.10.2020
6448 Clouds 6 985 75 10000 11.3 80 22:23 22.10.2020
6449 Clouds 6 986 75 10000 12.3 80 21:54 22.10.2020
6450 Clouds 6 986 74 10000 12.3 80 21:32 22.10.2020
6451 Clouds 6 986 74 10000 10.8 80 20:59 22.10.2020
6452 Clouds 6 986 74 10000 10.8 80 20:41 22.10.2020
6453 Rain 6 986 70 10000 9.3 90 20:23 22.10.2020
6454 Rain 6 986 70 10000 9.3 90 19:43 22.10.2020
6455 Rain 6 986 70 10000 9.3 90 19:20 22.10.2020
6456 Rain 6 986 75 10000 10.8 90 18:44 22.10.2020
6457 Rain 6 987 75 10000 8.2 90 18:22 22.10.2020
6458 Rain 6 987 75 10000 8.2 90 17:48 22.10.2020
6459 Rain 6 987 75 10000 8.2 90 17:26 22.10.2020
6460 Rain 6 988 70 10000 8.7 90 16:59 22.10.2020
6461 Rain 6 988 70 10000 8.7 90 16:41 22.10.2020
6462 Rain 6 988 70 10000 8.7 90 16:23 22.10.2020
6463 Rain 5 989 75 10000 8.7 80 15:48 22.10.2020
6464 Rain 5 989 75 10000 8.7 80 15:26 22.10.2020
6465 Clouds 4 990 80 10000 9.3 90 14:50 22.10.2020
6466 Rain 4 990 80 10000 9.3 90 14:27 22.10.2020
6467 Rain 4 991 75 10000 11.3 90 13:57 22.10.2020
6468 Rain 4 991 75 10000 11.3 90 13:38 22.10.2020
6469 Clouds 4 991 76 10000 11.3 90 13:20 22.10.2020
6470 Rain 4 991 79 8000 10.8 90 12:28 22.10.2020
6471 Rain 4 992 80 10000 9.8 90 11:51 22.10.2020
6472 Clouds 4 992 80 10000 9.8 90 11:21 22.10.2020
6473 Rain 3 992 86 9000 8.7 90 10:56 22.10.2020
6474 Rain 4 992 86 9000 8.7 90 10:38 22.10.2020
6475 Clouds 4 992 86 9000 8.7 90 10:18 22.10.2020
6476 Clouds 5 993 80 10000 9.3 90 09:42 22.10.2020
6477 Clouds 5 993 80 10000 9.3 90 09:18 22.10.2020
6478 Clouds 4 993 80 10000 9.3 100 08:39 22.10.2020
6479 Rain 4 993 80 10000 9.3 100 08:19 22.10.2020
6480 Rain 5 994 86 10000 8.2 90 07:43 22.10.2020
6481 Rain 5 995 80 10000 10.3 100 06:59 22.10.2020
6482 Clouds 5 995 80 10000 10.3 100 06:37 22.10.2020
6483 Clouds 4 996 80 10000 9.3 100 05:43 22.10.2020
6484 Rain 4 996 80 10000 9.3 100 05:22 22.10.2020
6485 Clouds 5 1000 79 10000 7.7 110 02:55 22.10.2020
6486 Clouds 4 1002 80 10000 7.2 110 00:50 22.10.2020
6487 Clouds 4 1002 80 10000 7.2 110 00:18 22.10.2020
6488 Clouds 4 1003 80 10000 7.2 110 23:38 21.10.2020
6489 Clouds 4 1003 86 10000 6.7 100 22:59 21.10.2020
6490 Clouds 4 1003 86 10000 6.7 100 22:37 21.10.2020
6491 Clouds 4 1003 86 10000 6.7 100 22:19 21.10.2020
6492 Clouds 4 1004 80 10000 7.7 110 21:45 21.10.2020
6493 Clouds 4 1004 80 10000 7.7 110 21:19 21.10.2020
6494 Clouds 4 1005 85 10000 5.7 90 20:57 21.10.2020
6495 Clouds 4 1005 85 10000 5.7 90 20:57 21.10.2020
6496 Clouds 4 1005 85 10000 5.7 90 20:39 21.10.2020
6497 Clouds 4 1005 85 10000 5.7 90 20:18 21.10.2020
6498 Clouds 4 1005 86 10000 5.1 110 19:40 21.10.2020
6499 Rain 4 1005 84 10000 5.1 110 19:22 21.10.2020
6500 Rain 5 1006 84 10000 6.2 120 18:49 21.10.2020
6501 Rain 5 1006 80 10000 6.2 120 18:27 21.10.2020
6502 Rain 5 1007 80 10000 4.1 120 17:50 21.10.2020
6503 Clouds 5 1007 80 10000 4.1 120 17:22 21.10.2020
6504 Clouds 4 1008 80 10000 4.1 100 16:58 21.10.2020
6505 Clouds 4 1008 80 10000 4.1 100 16:37 21.10.2020
6506 Clouds 4 1008 81 10000 4.1 100 16:18 21.10.2020
6507 Rain 4 1009 81 10000 4.1 100 15:44 21.10.2020
6508 Clouds 4 1009 81 10000 4.1 100 15:21 21.10.2020
6509 Rain 3 1009 81 10000 5.1 100 14:49 21.10.2020
6510 Rain 3 1009 82 10000 5.1 100 14:28 21.10.2020
6511 Rain 3 1010 83 10000 5.1 90 13:56 21.10.2020
6512 Rain 3 1010 83 10000 5.1 90 13:38 21.10.2020
6513 Rain 3 1010 80 10000 5.1 90 13:19 21.10.2020
6514 Rain 2 1010 80 10000 4.1 90 12:38 21.10.2020
6515 Rain 2 1010 78 10000 4.1 90 12:19 21.10.2020
6516 Rain 3 1011 78 10000 2.6 100 11:41 21.10.2020
6517 Rain 3 1011 79 10000 2.6 100 11:20 21.10.2020
6518 Rain 3 1011 79 10000 3.1 110 10:47 21.10.2020
6519 Rain 3 1011 79 10000 3.1 110 10:26 21.10.2020
6520 Rain 3 1011 79 10000 2.6 120 09:57 21.10.2020
6521 Rain 3 1011 79 10000 2.6 120 09:35 21.10.2020
6522 Rain 3 1011 79 10000 3.1 130 08:57 21.10.2020
6523 Rain 3 1011 79 10000 3.1 130 08:39 21.10.2020
6524 Rain 3 1011 79 10000 3.1 130 08:21 21.10.2020
6525 Clouds 3 1011 78 10000 3.1 150 07:41 21.10.2020
6526 Clouds 3 1012 78 10000 3.1 150 06:58 21.10.2020
6527 Clouds 3 1012 78 10000 3.1 150 06:32 21.10.2020
6528 Rain 2 1013 84 10000 2.6 130 04:48 21.10.2020
6529 Clouds 3 1015 74 10000 2.1 130 02:27 21.10.2020
6530 Clouds 2 1016 80 10000 2.1 150 23:55 20.10.2020
6531 Clouds 2 1016 80 10000 2.1 150 23:25 20.10.2020
6532 Clouds 2 1016 74 10000 1 150 22:37 20.10.2020
6533 Clouds 2 1016 74 10000 1 150 22:19 20.10.2020
6534 Clouds 2 1016 74 10000 0.5 0 21:47 20.10.2020
6535 Clouds 2 1016 74 10000 0.5 0 21:18 20.10.2020
6536 Clouds 3 1016 74 10000 2.1 350 20:42 20.10.2020
6537 Clouds 3 1016 74 10000 2.1 350 20:23 20.10.2020
6538 Clouds 3 1017 69 10000 3.1 350 19:45 20.10.2020
6539 Clouds 3 1017 69 10000 3.1 350 19:22 20.10.2020
6540 Clouds 4 1017 64 10000 3.6 330 18:57 20.10.2020
6541 Clouds 4 1017 64 10000 3.6 330 18:37 20.10.2020
6542 Clouds 4 1018 69 10000 3.6 330 17:51 20.10.2020
6543 Clouds 4 1018 69 10000 3.6 330 17:32 20.10.2020
6544 Clouds 4 1018 64 10000 3.1 340 16:56 20.10.2020
6545 Clouds 4 1018 64 10000 3.1 340 16:38 20.10.2020
6546 Clouds 4 1018 64 10000 3.1 340 16:20 20.10.2020
6547 Clouds 4 1018 64 10000 2.6 360 15:44 20.10.2020
6548 Clouds 4 1018 64 10000 2.6 360 15:23 20.10.2020
6549 Clouds 3 1019 77 10000 0.5 0 14:44 20.10.2020
6550 Clear 3 1019 78 10000 0.5 0 14:25 20.10.2020
6551 Clear 2 1019 80 10000 1 140 13:58 20.10.2020
6552 Clear 1 1019 80 10000 1 140 13:39 20.10.2020
6553 Clear 1 1019 80 10000 1 140 13:19 20.10.2020
6554 Clear 0 1019 92 10000 1.5 140 12:48 20.10.2020
6555 Clear 0 1019 92 10000 1.5 140 12:29 20.10.2020
6556 Clear 0 1020 92 10000 1.5 120 11:47 20.10.2020
6557 Clear 0 1020 92 10000 1.5 120 11:27 20.10.2020
6558 Clear 0 1019 86 10000 1.5 20 10:40 20.10.2020
6559 Clear 0 1019 86 10000 1.5 20 10:22 20.10.2020
6560 Clear 0 1020 92 10000 0.5 130 09:44 20.10.2020
6561 Clear 0 1020 92 10000 0.5 130 09:19 20.10.2020
6562 Clear 0 1020 86 10000 1 150 08:39 20.10.2020
6563 Clouds -1 1020 86 10000 1 150 08:19 20.10.2020
6564 Clouds 0 1020 86 10000 1 70 07:42 20.10.2020
6565 Clouds -1 1020 86 10000 1 70 07:21 20.10.2020
6566 Clouds 1 1020 86 10000 1.5 300 06:19 20.10.2020
6567 Clouds 0 1021 80 10000 1.5 140 04:27 20.10.2020
6568 Clouds 1 1022 74 10000 1 0 02:30 20.10.2020
6569 Clouds 1 1022 74 10000 1 0 01:22 20.10.2020
6570 Clouds 2 1023 69 10000 2.69 36 00:51 20.10.2020
6571 Clouds 1 1022 74 10000 1.5 110 00:26 20.10.2020
6572 Clouds 2 1022 74 10000 1.5 110 23:51 19.10.2020
6573 Clouds 2 1022 74 10000 1.5 110 23:26 19.10.2020
6574 Clouds 2 1022 69 10000 1.5 50 22:54 19.10.2020
6575 Clouds 3 1022 69 10000 1.5 50 22:26 19.10.2020
6576 Clouds 3 1022 74 10000 2.6 140 21:57 19.10.2020
6577 Clouds 3 1022 74 10000 2.6 140 21:39 19.10.2020
6578 Clouds 3 1022 74 10000 2.6 140 21:18 19.10.2020
6579 Clouds 4 1022 65 10000 2.1 360 20:42 19.10.2020
6580 Clouds 4 1022 65 10000 2.1 360 20:24 19.10.2020
6581 Clouds 5 1022 65 10000 2.6 360 19:45 19.10.2020
6582 Clouds 5 1022 65 10000 2.6 360 19:19 19.10.2020
6583 Clouds 6 1022 56 10000 2.6 300 18:50 19.10.2020
6584 Clear 7 1022 56 10000 2.6 300 18:28 19.10.2020
6585 Clear 7 1022 52 10000 2.1 260 17:47 19.10.2020
6586 Clear 7 1022 52 10000 2.1 260 17:27 19.10.2020
6587 Clear 7 1022 56 10000 1.5 250 16:54 19.10.2020
6588 Clear 7 1022 56 10000 1.5 250 16:30 19.10.2020
6589 Clear 7 1024 63 10000 1.79 89 15:50 19.10.2020
6590 Clouds 7 1023 64 10000 1.34 113 15:26 19.10.2020
6591 Clouds 6 1023 70 10000 1.35 34 14:59 19.10.2020
6592 Clouds 6 1023 70 10000 1.35 34 14:40 19.10.2020
6593 Clear 6 1023 70 10000 1.62 33 14:21 19.10.2020
6594 Clear 5 1023 73 10000 0.89 155 13:44 19.10.2020
6595 Clouds 5 1023 73 10000 0.89 155 13:26 19.10.2020
6596 Clouds 3 1023 79 10000 0.89 137 12:45 19.10.2020
6597 Clouds 2 1023 80 10000 2.24 137 12:26 19.10.2020
6598 Clouds 2 1023 80 10000 2.24 137 11:51 19.10.2020
6599 Clouds 4 1020 69 10000 2.6 250 11:24 19.10.2020
6600 Clouds 4 1020 69 10000 2.6 250 10:45 19.10.2020
6601 Clouds 4 1020 69 10000 2.6 250 10:25 19.10.2020
6602 Clouds 4 1020 74 10000 2.6 150 09:58 19.10.2020
6603 Clouds 4 1020 74 10000 2.6 150 09:39 19.10.2020
6604 Clouds 4 1020 74 10000 2.6 150 09:18 19.10.2020
6605 Clouds 4 1019 65 10000 3.6 20 08:45 19.10.2020
6606 Clear 5 1019 65 10000 3.6 20 08:21 19.10.2020
6607 Clear 6 1019 60 10000 6.7 20 07:21 19.10.2020
6608 Clear 6 1019 60 10000 6.7 20 06:50 19.10.2020
6609 Clear 5 1018 65 10000 2.1 0 05:40 19.10.2020
6610 Clear 5 1017 70 10000 8.7 10 03:46 19.10.2020
6611 Clouds 6 1017 70 10000 8.2 360 01:44 19.10.2020
6612 Clouds 5 1016 75 10000 9.3 360 00:43 19.10.2020
6613 Clouds 6 1016 70 10000 3.1 0 23:59 18.10.2020
6614 Clouds 6 1016 70 10000 3.1 0 23:40 18.10.2020
6615 Clouds 5 1016 70 10000 3.1 0 23:21 18.10.2020
6616 Clouds 6 1015 75 10000 7.7 360 22:45 18.10.2020
6617 Clouds 6 1015 75 10000 7.7 360 22:19 18.10.2020
6618 Clouds 6 1014 70 10000 3.6 0 21:48 18.10.2020
6619 Clouds 7 1014 70 10000 3.6 0 21:29 18.10.2020
6620 Clouds 6 1014 87 10000 11.3 10 20:47 18.10.2020
6621 Clouds 6 1011 75 10000 10.3 20 20:24 18.10.2020
6622 Clouds 7 1011 75 10000 10.3 20 19:56 18.10.2020
6623 Clouds 7 1011 75 10000 10.3 20 19:38 18.10.2020
6624 Clouds 7 1011 75 10000 10.3 20 19:19 18.10.2020
6625 Clouds 8 1010 75 10000 4.6 350 18:46 18.10.2020
6626 Clouds 7 1010 75 10000 4.6 350 18:24 18.10.2020
6627 Clouds 7 1009 87 10000 3.1 70 17:41 18.10.2020
6628 Clouds 7 1009 87 10000 3.1 70 17:22 18.10.2020
6629 Rain 7 1009 87 10000 2.1 50 16:44 18.10.2020
6630 Rain 6 1009 87 10000 2.1 50 16:26 18.10.2020
6631 Drizzle 6 1009 81 9000 2.1 20 15:55 18.10.2020
6632 Drizzle 6 1009 81 9000 2.1 20 15:36 18.10.2020
6633 Drizzle 6 1009 81 9000 2.1 20 15:18 18.10.2020
6634 Clouds 6 1010 87 7000 2.1 280 14:43 18.10.2020
6635 Clouds 6 1010 87 7000 2.1 280 14:25 18.10.2020
6636 Drizzle 6 1011 81 10000 6.2 260 13:45 18.10.2020
6637 Drizzle 6 1011 81 10000 6.2 260 13:26 18.10.2020
6638 Rain 6 1011 87 10000 5.1 250 12:57 18.10.2020
6639 Rain 6 1011 87 10000 5.1 250 12:39 18.10.2020
6640 Rain 6 1011 87 10000 5.1 250 12:19 18.10.2020
6641 Rain 6 1013 87 9000 5.7 280 11:40 18.10.2020
6642 Rain 6 1013 87 9000 5.7 280 11:22 18.10.2020
6643 Rain 6 1014 87 10000 6.7 260 10:40 18.10.2020
6644 Rain 6 1014 87 10000 6.7 260 10:19 18.10.2020
6645 Drizzle 6 1016 93 10000 8.2 260 09:47 18.10.2020
6646 Drizzle 6 1016 93 10000 8.2 260 09:21 18.10.2020
6647 Clouds 6 1018 87 3500 8.7 260 08:56 18.10.2020
6648 Clouds 6 1018 87 3500 8.7 260 08:36 18.10.2020
6649 Clouds 6 1018 87 3500 8.7 260 08:18 18.10.2020
6650 Drizzle 6 1023 87 9000 7.7 250 05:59 18.10.2020
6651 Clouds 6 1025 87 10000 7.2 220 03:59 18.10.2020
6652 Clouds 7 1028 93 10000 7.2 220 02:54 18.10.2020
6653 Clouds 7 1029 93 10000 6.2 210 01:38 18.10.2020
6654 Clouds 7 1031 93 10000 4.6 230 00:48 18.10.2020
6655 Clouds 7 1031 93 10000 4.6 230 00:24 18.10.2020
6656 Drizzle 7 1032 93 900 4.6 200 23:43 17.10.2020
6657 Drizzle 7 1032 93 900 4.6 200 23:21 17.10.2020
6658 Drizzle 7 1033 93 900 4.1 240 22:59 17.10.2020
6659 Drizzle 7 1033 93 900 4.1 240 22:39 17.10.2020
6660 Drizzle 7 1033 93 900 4.1 240 22:19 17.10.2020
6661 Drizzle 7 1034 93 900 3.6 240 21:43 17.10.2020
6662 Mist 7 1035 93 7000 2.1 270 21:22 17.10.2020
6663 Mist 7 1035 93 7000 2.1 270 20:48 17.10.2020
6664 Mist 7 1035 93 7000 2.1 270 20:21 17.10.2020
6665 Mist 7 1035 93 7000 2.1 270 20:21 17.10.2020
6666 Mist 7 1035 93 2000 2.1 230 19:47 17.10.2020
6667 Mist 7 1035 93 2000 2.1 230 19:25 17.10.2020
6668 Fog 7 1036 93 900 3.1 300 18:59 17.10.2020
6669 Clouds 7 1036 87 10000 2.6 260 18:41 17.10.2020
6670 Clouds 7 1036 87 10000 2.6 260 18:18 17.10.2020
6671 Clouds 7 1036 87 10000 1.5 240 17:42 17.10.2020
6672 Clouds 7 1036 87 10000 1.5 240 17:20 17.10.2020
6673 Clouds 8 1038 87 10000 2.1 270 16:48 17.10.2020
6674 Clouds 8 1038 87 10000 2.1 270 16:22 17.10.2020
6675 Clouds 8 1038 87 10000 1 0 15:43 17.10.2020
6676 Clouds 7 1038 87 10000 1 0 15:23 17.10.2020
6677 Clouds 7 1038 87 10000 1 180 14:59 17.10.2020
6678 Clouds 7 1038 87 10000 1 180 14:39 17.10.2020
6679 Clouds 7 1038 87 10000 1 180 14:20 17.10.2020
6680 Clouds 7 1038 93 10000 1 180 13:47 17.10.2020
6681 Clouds 6 1038 93 10000 1 180 13:29 17.10.2020
6682 Clouds 6 1038 93 10000 1.5 160 12:59 17.10.2020
6683 Clouds 5 1038 93 10000 1.5 160 12:38 17.10.2020
6684 Clouds 5 1038 93 10000 1.5 160 12:19 17.10.2020
6685 Mist 4 1038 86 10000 2.1 140 11:48 17.10.2020
6686 Mist 4 1038 86 10000 2.1 140 11:26 17.10.2020
6687 Clouds 4 1038 86 10000 0.5 0 10:33 17.10.2020
6688 Clouds 4 1038 86 10000 1 110 09:53 17.10.2020
6689 Clouds 4 1038 86 10000 1 110 09:34 17.10.2020
6690 Clouds 5 1038 86 10000 0.5 200 08:59 17.10.2020
6691 Rain 5 1038 86 10000 0.5 200 08:28 17.10.2020
6692 Clouds 5 1038 93 10000 1.5 180 07:47 17.10.2020
6693 Clouds 5 1038 93 10000 1.5 180 07:27 17.10.2020
6694 Clouds 4 1038 86 10000 2.1 200 06:22 17.10.2020
6695 Clouds 6 1038 81 10000 2.1 10 03:47 17.10.2020
6696 Clouds 6 1038 81 10000 2.1 350 02:28 17.10.2020
6697 Clouds 7 1037 75 10000 2.6 350 00:53 17.10.2020
6698 Clouds 6 1037 75 10000 2.6 350 00:30 17.10.2020
6699 Clouds 7 1037 75 10000 2.6 350 23:27 16.10.2020
6700 Clouds 7 1037 75 10000 4.1 340 22:59 16.10.2020
6701 Clouds 7 1037 75 10000 4.1 340 22:41 16.10.2020
6702 Clouds 7 1037 75 10000 4.1 340 22:22 16.10.2020
6703 Clouds 7 1037 70 10000 5.1 340 21:46 16.10.2020
6704 Clear 7 1037 70 10000 5.1 340 21:24 16.10.2020
6705 Clear 7 1036 70 10000 4.6 350 20:44 16.10.2020
6706 Clear 7 1036 70 10000 4.6 350 20:25 16.10.2020
6707 Clouds 8 1036 66 10000 4.6 340 19:47 16.10.2020
6708 Clouds 9 1036 66 10000 4.6 340 19:28 16.10.2020
6709 Clouds 10 1035 66 10000 2.6 340 18:57 16.10.2020
6710